<?xml version='1.0' encoding='UTF-8'?><gpx version="1.1" creator="JPX - https://github.com/jenetics/jpx" xmlns="http://www.topografix.com/GPX/1/1"><trk><trkseg><trkpt lat="42.9509967" lon="10.6696017"><ele>-1.0</ele><time>2026-03-29T13:18:49.919Z</time></trkpt><trkpt lat="42.951065" lon="10.669555"><ele>-0.9999999999999999</ele><time>2026-03-29T13:18:55.92Z</time></trkpt><trkpt lat="42.9511" lon="10.6694833"><ele>-1.0</ele><time>2026-03-29T13:18:57.919Z</time></trkpt><trkpt lat="42.9511383" lon="10.669405"><ele>-1.0</ele><time>2026-03-29T13:18:59.919Z</time></trkpt><trkpt lat="42.9512017" lon="10.6693317"><ele>-0.9999999999999999</ele><time>2026-03-29T13:19:02.919Z</time></trkpt><trkpt lat="42.9512667" lon="10.6692917"><ele>-1.0</ele><time>2026-03-29T13:19:04.919Z</time></trkpt><trkpt lat="42.9513483" lon="10.669295"><ele>-1.0</ele><time>2026-03-29T13:19:06.919Z</time></trkpt><trkpt lat="42.9514333" lon="10.6693083"><ele>-1.2000000000000002</ele><time>2026-03-29T13:19:08.919Z</time></trkpt><trkpt lat="42.9515233" lon="10.6693217"><ele>-1.4000000000000001</ele><time>2026-03-29T13:19:10.92Z</time></trkpt><trkpt lat="42.9516283" lon="10.6693283"><ele>-1.6</ele><time>2026-03-29T13:19:12.919Z</time></trkpt><trkpt lat="42.9517367" lon="10.6693567"><ele>-1.8</ele><time>2026-03-29T13:19:14.919Z</time></trkpt><trkpt lat="42.9518433" lon="10.6693667"><ele>-2.0</ele><time>2026-03-29T13:19:16.919Z</time></trkpt><trkpt lat="42.9519383" lon="10.6693817"><ele>-1.9999999999999998</ele><time>2026-03-29T13:19:18.919Z</time></trkpt><trkpt lat="42.95203" lon="10.6693883"><ele>-2.0</ele><time>2026-03-29T13:19:20.919Z</time></trkpt><trkpt lat="42.9521183" lon="10.669395"><ele>-2.0</ele><time>2026-03-29T13:19:22.919Z</time></trkpt><trkpt lat="42.952205" lon="10.6693933"><ele>-2.0</ele><time>2026-03-29T13:19:24.919Z</time></trkpt><trkpt lat="42.952275" lon="10.6693667"><ele>-1.9999999999999998</ele><time>2026-03-29T13:19:26.919Z</time></trkpt><trkpt lat="42.952335" lon="10.6692817"><ele>-2.0</ele><time>2026-03-29T13:19:29.918Z</time></trkpt><trkpt lat="42.95236" lon="10.6691983"><ele>-1.9999999999999998</ele><time>2026-03-29T13:19:31.918Z</time></trkpt><trkpt lat="42.9523867" lon="10.6690617"><ele>-2.0</ele><time>2026-03-29T13:19:33.918Z</time></trkpt><trkpt lat="42.9524017" lon="10.66889"><ele>-2.0</ele><time>2026-03-29T13:19:35.918Z</time></trkpt><trkpt lat="42.95241" lon="10.668795"><ele>-2.0</ele><time>2026-03-29T13:19:36.918Z</time></trkpt><trkpt lat="42.95242" lon="10.6687"><ele>-1.9999999999999998</ele><time>2026-03-29T13:19:37.918Z</time></trkpt><trkpt lat="42.9524317" lon="10.668605"><ele>-2.0</ele><time>2026-03-29T13:19:38.918Z</time></trkpt><trkpt lat="42.9524417" lon="10.6685067"><ele>-1.857142857142857</ele><time>2026-03-29T13:19:39.918Z</time></trkpt><trkpt lat="42.9524517" lon="10.668415"><ele>-1.714285714285714</ele><time>2026-03-29T13:19:40.918Z</time></trkpt><trkpt lat="42.9524633" lon="10.6683233"><ele>-1.5714285714285714</ele><time>2026-03-29T13:19:41.918Z</time></trkpt><trkpt lat="42.9524783" lon="10.6682267"><ele>-1.4285714285714284</ele><time>2026-03-29T13:19:42.918Z</time></trkpt><trkpt lat="42.9524933" lon="10.6681333"><ele>-1.2857142857142856</ele><time>2026-03-29T13:19:43.918Z</time></trkpt><trkpt lat="42.952505" lon="10.668035"><ele>-1.1428571428571428</ele><time>2026-03-29T13:19:44.918Z</time></trkpt><trkpt lat="42.952515" lon="10.6679433"><ele>-1.0</ele><time>2026-03-29T13:19:45.918Z</time></trkpt><trkpt lat="42.952525" lon="10.6678517"><ele>-1.0</ele><time>2026-03-29T13:19:46.918Z</time></trkpt><trkpt lat="42.9525383" lon="10.6677617"><ele>-0.9999999999999999</ele><time>2026-03-29T13:19:47.918Z</time></trkpt><trkpt lat="42.9525617" lon="10.6676683"><ele>-1.0</ele><time>2026-03-29T13:19:48.918Z</time></trkpt><trkpt lat="42.952575" lon="10.6675783"><ele>-1.0</ele><time>2026-03-29T13:19:49.918Z</time></trkpt><trkpt lat="42.95259" lon="10.6674817"><ele>-0.9999999999999999</ele><time>2026-03-29T13:19:50.918Z</time></trkpt><trkpt lat="42.9526017" lon="10.6673883"><ele>-1.0</ele><time>2026-03-29T13:19:51.918Z</time></trkpt><trkpt lat="42.9526133" lon="10.6672967"><ele>-1.0</ele><time>2026-03-29T13:19:52.918Z</time></trkpt><trkpt lat="42.9526283" lon="10.6672033"><ele>-1.1666666666666665</ele><time>2026-03-29T13:19:53.918Z</time></trkpt><trkpt lat="42.9526433" lon="10.66711"><ele>-1.3333333333333333</ele><time>2026-03-29T13:19:54.918Z</time></trkpt><trkpt lat="42.952655" lon="10.6670133"><ele>-1.5</ele><time>2026-03-29T13:19:55.918Z</time></trkpt><trkpt lat="42.9526667" lon="10.6668567"><ele>-1.6666666666666665</ele><time>2026-03-29T13:19:57.918Z</time></trkpt><trkpt lat="42.9526717" lon="10.6667183"><ele>-1.8333333333333333</ele><time>2026-03-29T13:19:59.918Z</time></trkpt><trkpt lat="42.9527" lon="10.6666333"><ele>-2.0</ele><time>2026-03-29T13:20:01.918Z</time></trkpt><trkpt lat="42.9527567" lon="10.666595"><ele>-2.0</ele><time>2026-03-29T13:20:03.918Z</time></trkpt><trkpt lat="42.9528317" lon="10.6666033"><ele>-2.0</ele><time>2026-03-29T13:20:05.918Z</time></trkpt><trkpt lat="42.9529233" lon="10.66664"><ele>-2.0</ele><time>2026-03-29T13:20:08.918Z</time></trkpt><trkpt lat="42.953055" lon="10.666655"><ele>-2.0</ele><time>2026-03-29T13:20:10.918Z</time></trkpt><trkpt lat="42.9531483" lon="10.666655"><ele>-2.0</ele><time>2026-03-29T13:20:11.918Z</time></trkpt><trkpt lat="42.95325" lon="10.666655"><ele>-2.0</ele><time>2026-03-29T13:20:12.918Z</time></trkpt><trkpt lat="42.9533667" lon="10.6666617"><ele>-2.0</ele><time>2026-03-29T13:20:13.918Z</time></trkpt><trkpt lat="42.9534833" lon="10.666665"><ele>-2.0</ele><time>2026-03-29T13:20:14.918Z</time></trkpt><trkpt lat="42.9536" lon="10.6666717"><ele>-2.0</ele><time>2026-03-29T13:20:15.918Z</time></trkpt><trkpt lat="42.9537217" lon="10.6666833"><ele>-1.75</ele><time>2026-03-29T13:20:16.918Z</time></trkpt><trkpt lat="42.9538483" lon="10.6666933"><ele>-1.5</ele><time>2026-03-29T13:20:17.918Z</time></trkpt><trkpt lat="42.9539783" lon="10.6666983"><ele>-1.25</ele><time>2026-03-29T13:20:18.918Z</time></trkpt><trkpt lat="42.9541167" lon="10.6667067"><ele>-1.0</ele><time>2026-03-29T13:20:19.918Z</time></trkpt><trkpt lat="42.9542483" lon="10.6667183"><ele>-1.0</ele><time>2026-03-29T13:20:20.918Z</time></trkpt><trkpt lat="42.95439" lon="10.6667217"><ele>-1.0</ele><time>2026-03-29T13:20:21.918Z</time></trkpt><trkpt lat="42.95453" lon="10.66673"><ele>-1.0</ele><time>2026-03-29T13:20:22.918Z</time></trkpt><trkpt lat="42.954665" lon="10.6667333"><ele>-1.0</ele><time>2026-03-29T13:20:23.918Z</time></trkpt><trkpt lat="42.9548" lon="10.66675"><ele>-1.0</ele><time>2026-03-29T13:20:24.918Z</time></trkpt><trkpt lat="42.9549433" lon="10.6667517"><ele>-1.0</ele><time>2026-03-29T13:20:25.918Z</time></trkpt><trkpt lat="42.95509" lon="10.6667567"><ele>-1.0</ele><time>2026-03-29T13:20:26.918Z</time></trkpt><trkpt lat="42.9552383" lon="10.66677"><ele>-1.0</ele><time>2026-03-29T13:20:27.918Z</time></trkpt><trkpt lat="42.95539" lon="10.66678"><ele>-0.6666666666666666</ele><time>2026-03-29T13:20:28.918Z</time></trkpt><trkpt lat="42.9555567" lon="10.6667833"><ele>-0.3333333333333333</ele><time>2026-03-29T13:20:29.918Z</time></trkpt><trkpt lat="42.9557417" lon="10.6667933"><ele>0.0</ele><time>2026-03-29T13:20:30.918Z</time></trkpt><trkpt lat="42.9559217" lon="10.6668067"><ele>0.0</ele><time>2026-03-29T13:20:31.918Z</time></trkpt><trkpt lat="42.9561083" lon="10.6668183"><ele>0.0</ele><time>2026-03-29T13:20:32.918Z</time></trkpt><trkpt lat="42.9563017" lon="10.6668333"><ele>0.0</ele><time>2026-03-29T13:20:33.918Z</time></trkpt><trkpt lat="42.9564983" lon="10.6668433"><ele>0.0</ele><time>2026-03-29T13:20:34.918Z</time></trkpt><trkpt lat="42.9567017" lon="10.666855"><ele>0.0</ele><time>2026-03-29T13:20:35.918Z</time></trkpt><trkpt lat="42.9569" lon="10.6668767"><ele>0.0</ele><time>2026-03-29T13:20:36.918Z</time></trkpt><trkpt lat="42.95711" lon="10.6668833"><ele>0.3333333333333333</ele><time>2026-03-29T13:20:37.918Z</time></trkpt><trkpt lat="42.95731" lon="10.6668917"><ele>0.6666666666666666</ele><time>2026-03-29T13:20:38.918Z</time></trkpt><trkpt lat="42.957515" lon="10.6669033"><ele>1.0</ele><time>2026-03-29T13:20:39.918Z</time></trkpt><trkpt lat="42.9577167" lon="10.6669167"><ele>1.3333333333333333</ele><time>2026-03-29T13:20:40.918Z</time></trkpt><trkpt lat="42.9579133" lon="10.6669267"><ele>1.6666666666666665</ele><time>2026-03-29T13:20:41.918Z</time></trkpt><trkpt lat="42.9581017" lon="10.6669317"><ele>2.0</ele><time>2026-03-29T13:20:42.918Z</time></trkpt><trkpt lat="42.9582833" lon="10.66694"><ele>1.6666666666666665</ele><time>2026-03-29T13:20:43.918Z</time></trkpt><trkpt lat="42.9584633" lon="10.6669483"><ele>1.3333333333333333</ele><time>2026-03-29T13:20:44.918Z</time></trkpt><trkpt lat="42.9586333" lon="10.6669617"><ele>1.0</ele><time>2026-03-29T13:20:45.918Z</time></trkpt><trkpt lat="42.9588233" lon="10.6669767"><ele>1.0</ele><time>2026-03-29T13:20:46.918Z</time></trkpt><trkpt lat="42.9590017" lon="10.6669883"><ele>1.0</ele><time>2026-03-29T13:20:47.918Z</time></trkpt><trkpt lat="42.959185" lon="10.6669883"><ele>1.0</ele><time>2026-03-29T13:20:48.918Z</time></trkpt><trkpt lat="42.9593583" lon="10.6669967"><ele>1.3333333333333333</ele><time>2026-03-29T13:20:49.918Z</time></trkpt><trkpt lat="42.9595283" lon="10.6670083"><ele>1.6666666666666665</ele><time>2026-03-29T13:20:50.918Z</time></trkpt><trkpt lat="42.95969" lon="10.6670183"><ele>2.0</ele><time>2026-03-29T13:20:51.918Z</time></trkpt><trkpt lat="42.9598417" lon="10.6670283"><ele>2.0</ele><time>2026-03-29T13:20:52.918Z</time></trkpt><trkpt lat="42.9599983" lon="10.66704"><ele>2.0</ele><time>2026-03-29T13:20:53.918Z</time></trkpt><trkpt lat="42.9601533" lon="10.6670483"><ele>2.0</ele><time>2026-03-29T13:20:54.918Z</time></trkpt><trkpt lat="42.9603167" lon="10.6670583"><ele>2.0</ele><time>2026-03-29T13:20:55.918Z</time></trkpt><trkpt lat="42.9604883" lon="10.66707"><ele>2.0</ele><time>2026-03-29T13:20:56.918Z</time></trkpt><trkpt lat="42.9606617" lon="10.6670817"><ele>2.0</ele><time>2026-03-29T13:20:57.918Z</time></trkpt><trkpt lat="42.960835" lon="10.667115"><ele>1.6666666666666665</ele><time>2026-03-29T13:20:58.918Z</time></trkpt><trkpt lat="42.9610133" lon="10.6671133"><ele>1.3333333333333333</ele><time>2026-03-29T13:20:59.918Z</time></trkpt><trkpt lat="42.9612017" lon="10.66712"><ele>1.0</ele><time>2026-03-29T13:21:00.918Z</time></trkpt><trkpt lat="42.9613867" lon="10.667135"><ele>1.0</ele><time>2026-03-29T13:21:01.918Z</time></trkpt><trkpt lat="42.9615717" lon="10.6671433"><ele>1.0</ele><time>2026-03-29T13:21:02.918Z</time></trkpt><trkpt lat="42.96176" lon="10.6671517"><ele>1.0</ele><time>2026-03-29T13:21:03.918Z</time></trkpt><trkpt lat="42.9619533" lon="10.6671667"><ele>1.3333333333333333</ele><time>2026-03-29T13:21:04.918Z</time></trkpt><trkpt lat="42.9621517" lon="10.6671867"><ele>1.6666666666666665</ele><time>2026-03-29T13:21:05.918Z</time></trkpt><trkpt lat="42.9623467" lon="10.6671967"><ele>2.0</ele><time>2026-03-29T13:21:06.918Z</time></trkpt><trkpt lat="42.9625367" lon="10.6672017"><ele>2.0</ele><time>2026-03-29T13:21:07.918Z</time></trkpt><trkpt lat="42.9627333" lon="10.6672133"><ele>2.0</ele><time>2026-03-29T13:21:08.918Z</time></trkpt><trkpt lat="42.962925" lon="10.667225"><ele>2.0</ele><time>2026-03-29T13:21:09.918Z</time></trkpt><trkpt lat="42.96311" lon="10.667235"><ele>2.0</ele><time>2026-03-29T13:21:10.918Z</time></trkpt><trkpt lat="42.9632883" lon="10.6672383"><ele>2.0</ele><time>2026-03-29T13:21:11.918Z</time></trkpt><trkpt lat="42.9634733" lon="10.6672467"><ele>2.0</ele><time>2026-03-29T13:21:12.918Z</time></trkpt><trkpt lat="42.963665" lon="10.667265"><ele>2.0</ele><time>2026-03-29T13:21:13.918Z</time></trkpt><trkpt lat="42.9638617" lon="10.667285"><ele>2.0</ele><time>2026-03-29T13:21:14.918Z</time></trkpt><trkpt lat="42.9640583" lon="10.6672967"><ele>2.0</ele><time>2026-03-29T13:21:15.918Z</time></trkpt><trkpt lat="42.9642517" lon="10.667305"><ele>2.333333333333333</ele><time>2026-03-29T13:21:16.918Z</time></trkpt><trkpt lat="42.96446" lon="10.6673183"><ele>2.6666666666666665</ele><time>2026-03-29T13:21:17.919Z</time></trkpt><trkpt lat="42.9646617" lon="10.6673267"><ele>3.0</ele><time>2026-03-29T13:21:18.919Z</time></trkpt><trkpt lat="42.9648667" lon="10.6673433"><ele>3.666666666666667</ele><time>2026-03-29T13:21:19.918Z</time></trkpt><trkpt lat="42.965075" lon="10.66735"><ele>4.333333333333334</ele><time>2026-03-29T13:21:20.918Z</time></trkpt><trkpt lat="42.9652783" lon="10.66736"><ele>5.0</ele><time>2026-03-29T13:21:21.918Z</time></trkpt><trkpt lat="42.96547" lon="10.667375"><ele>5.0</ele><time>2026-03-29T13:21:22.918Z</time></trkpt><trkpt lat="42.965655" lon="10.6673883"><ele>5.0</ele><time>2026-03-29T13:21:23.918Z</time></trkpt><trkpt lat="42.9658417" lon="10.667405"><ele>5.0</ele><time>2026-03-29T13:21:24.918Z</time></trkpt><trkpt lat="42.9660183" lon="10.66742"><ele>5.333333333333334</ele><time>2026-03-29T13:21:25.918Z</time></trkpt><trkpt lat="42.9661833" lon="10.6674233"><ele>5.666666666666667</ele><time>2026-03-29T13:21:26.918Z</time></trkpt><trkpt lat="42.9663517" lon="10.6674333"><ele>6.0</ele><time>2026-03-29T13:21:27.918Z</time></trkpt><trkpt lat="42.966505" lon="10.6674483"><ele>6.0</ele><time>2026-03-29T13:21:28.918Z</time></trkpt><trkpt lat="42.9666483" lon="10.66745"><ele>6.0</ele><time>2026-03-29T13:21:29.918Z</time></trkpt><trkpt lat="42.966765" lon="10.6674517"><ele>6.0</ele><time>2026-03-29T13:21:30.918Z</time></trkpt><trkpt lat="42.96688" lon="10.66746"><ele>6.0</ele><time>2026-03-29T13:21:31.918Z</time></trkpt><trkpt lat="42.9669683" lon="10.667475"><ele>6.4</ele><time>2026-03-29T13:21:32.918Z</time></trkpt><trkpt lat="42.967055" lon="10.6674783"><ele>6.8</ele><time>2026-03-29T13:21:33.918Z</time></trkpt><trkpt lat="42.967135" lon="10.6674683"><ele>7.200000000000001</ele><time>2026-03-29T13:21:34.918Z</time></trkpt><trkpt lat="42.9672283" lon="10.667355"><ele>7.6000000000000005</ele><time>2026-03-29T13:21:36.918Z</time></trkpt><trkpt lat="42.9672517" lon="10.667235"><ele>8.0</ele><time>2026-03-29T13:21:37.918Z</time></trkpt><trkpt lat="42.967265" lon="10.6670833"><ele>7.333333333333333</ele><time>2026-03-29T13:21:38.918Z</time></trkpt><trkpt lat="42.9672517" lon="10.666885"><ele>6.666666666666666</ele><time>2026-03-29T13:21:39.918Z</time></trkpt><trkpt lat="42.9672383" lon="10.6666667"><ele>6.0</ele><time>2026-03-29T13:21:40.918Z</time></trkpt><trkpt lat="42.967225" lon="10.66645"><ele>6.0</ele><time>2026-03-29T13:21:41.918Z</time></trkpt><trkpt lat="42.96722" lon="10.666225"><ele>6.0</ele><time>2026-03-29T13:21:42.918Z</time></trkpt><trkpt lat="42.96721" lon="10.6660017"><ele>6.0</ele><time>2026-03-29T13:21:43.918Z</time></trkpt><trkpt lat="42.9672083" lon="10.665795"><ele>6.0</ele><time>2026-03-29T13:21:44.918Z</time></trkpt><trkpt lat="42.967205" lon="10.6655933"><ele>6.0</ele><time>2026-03-29T13:21:45.918Z</time></trkpt><trkpt lat="42.9671967" lon="10.6653867"><ele>6.0</ele><time>2026-03-29T13:21:46.918Z</time></trkpt><trkpt lat="42.967195" lon="10.665185"><ele>6.0</ele><time>2026-03-29T13:21:47.918Z</time></trkpt><trkpt lat="42.9671983" lon="10.6649817"><ele>5.75</ele><time>2026-03-29T13:21:48.918Z</time></trkpt><trkpt lat="42.9672033" lon="10.6647867"><ele>5.5</ele><time>2026-03-29T13:21:49.918Z</time></trkpt><trkpt lat="42.9672017" lon="10.6645933"><ele>5.25</ele><time>2026-03-29T13:21:50.918Z</time></trkpt><trkpt lat="42.9672033" lon="10.6644083"><ele>5.0</ele><time>2026-03-29T13:21:51.918Z</time></trkpt><trkpt lat="42.9671983" lon="10.6642367"><ele>5.0</ele><time>2026-03-29T13:21:52.918Z</time></trkpt><trkpt lat="42.9671933" lon="10.6640683"><ele>5.0</ele><time>2026-03-29T13:21:53.918Z</time></trkpt><trkpt lat="42.967185" lon="10.6638917"><ele>5.0</ele><time>2026-03-29T13:21:54.918Z</time></trkpt><trkpt lat="42.967185" lon="10.6637167"><ele>5.0</ele><time>2026-03-29T13:21:55.918Z</time></trkpt><trkpt lat="42.96719" lon="10.6635383"><ele>5.25</ele><time>2026-03-29T13:21:56.918Z</time></trkpt><trkpt lat="42.9671933" lon="10.6633667"><ele>5.5</ele><time>2026-03-29T13:21:57.918Z</time></trkpt><trkpt lat="42.967185" lon="10.6632"><ele>5.75</ele><time>2026-03-29T13:21:58.918Z</time></trkpt><trkpt lat="42.9671833" lon="10.663035"><ele>6.0</ele><time>2026-03-29T13:21:59.918Z</time></trkpt><trkpt lat="42.9671883" lon="10.6628717"><ele>5.8</ele><time>2026-03-29T13:22:00.918Z</time></trkpt><trkpt lat="42.967185" lon="10.662705"><ele>5.6</ele><time>2026-03-29T13:22:01.918Z</time></trkpt><trkpt lat="42.9671817" lon="10.6625517"><ele>5.4</ele><time>2026-03-29T13:22:02.918Z</time></trkpt><trkpt lat="42.9671783" lon="10.6624"><ele>5.2</ele><time>2026-03-29T13:22:03.918Z</time></trkpt><trkpt lat="42.9671733" lon="10.6622767"><ele>5.0</ele><time>2026-03-29T13:22:04.918Z</time></trkpt><trkpt lat="42.9671733" lon="10.6621583"><ele>5.0</ele><time>2026-03-29T13:22:05.918Z</time></trkpt><trkpt lat="42.96717" lon="10.6620517"><ele>5.0</ele><time>2026-03-29T13:22:06.918Z</time></trkpt><trkpt lat="42.9671767" lon="10.6619467"><ele>5.0</ele><time>2026-03-29T13:22:07.918Z</time></trkpt><trkpt lat="42.967175" lon="10.661835"><ele>5.0</ele><time>2026-03-29T13:22:08.918Z</time></trkpt><trkpt lat="42.9671767" lon="10.661735"><ele>5.0</ele><time>2026-03-29T13:22:09.918Z</time></trkpt><trkpt lat="42.96722" lon="10.66159"><ele>5.0</ele><time>2026-03-29T13:22:11.918Z</time></trkpt><trkpt lat="42.96732" lon="10.6615483"><ele>5.0</ele><time>2026-03-29T13:22:13.918Z</time></trkpt><trkpt lat="42.9673967" lon="10.6616117"><ele>5.0</ele><time>2026-03-29T13:22:15.919Z</time></trkpt><trkpt lat="42.96746" lon="10.6617067"><ele>5.0</ele><time>2026-03-29T13:22:18.918Z</time></trkpt><trkpt lat="42.967555" lon="10.6618433"><ele>5.0</ele><time>2026-03-29T13:22:20.918Z</time></trkpt><trkpt lat="42.9676433" lon="10.6619667"><ele>5.0</ele><time>2026-03-29T13:22:21.918Z</time></trkpt><trkpt lat="42.9677633" lon="10.6621183"><ele>6.0</ele><time>2026-03-29T13:22:22.918Z</time></trkpt><trkpt lat="42.967925" lon="10.662305"><ele>7.0</ele><time>2026-03-29T13:22:23.918Z</time></trkpt><trkpt lat="42.9681083" lon="10.662515"><ele>7.0</ele><time>2026-03-29T13:22:24.918Z</time></trkpt><trkpt lat="42.968285" lon="10.66273"><ele>7.0</ele><time>2026-03-29T13:22:25.918Z</time></trkpt><trkpt lat="42.9684633" lon="10.6629217"><ele>7.5</ele><time>2026-03-29T13:22:26.918Z</time></trkpt><trkpt lat="42.9686433" lon="10.66313"><ele>8.0</ele><time>2026-03-29T13:22:27.918Z</time></trkpt><trkpt lat="42.9688117" lon="10.6633317"><ele>8.0</ele><time>2026-03-29T13:22:28.918Z</time></trkpt><trkpt lat="42.9689633" lon="10.663515"><ele>8.0</ele><time>2026-03-29T13:22:29.918Z</time></trkpt><trkpt lat="42.9691167" lon="10.66369"><ele>8.0</ele><time>2026-03-29T13:22:30.918Z</time></trkpt><trkpt lat="42.9692533" lon="10.6638733"><ele>8.333333333333332</ele><time>2026-03-29T13:22:31.918Z</time></trkpt><trkpt lat="42.969385" lon="10.66405"><ele>8.666666666666666</ele><time>2026-03-29T13:22:32.918Z</time></trkpt><trkpt lat="42.9695233" lon="10.664225"><ele>9.0</ele><time>2026-03-29T13:22:33.918Z</time></trkpt><trkpt lat="42.9696633" lon="10.6644317"><ele>8.666666666666666</ele><time>2026-03-29T13:22:34.918Z</time></trkpt><trkpt lat="42.9698083" lon="10.6646633"><ele>8.333333333333332</ele><time>2026-03-29T13:22:35.918Z</time></trkpt><trkpt lat="42.969935" lon="10.6649133"><ele>8.0</ele><time>2026-03-29T13:22:36.918Z</time></trkpt><trkpt lat="42.970055" lon="10.665195"><ele>8.5</ele><time>2026-03-29T13:22:37.918Z</time></trkpt><trkpt lat="42.9701567" lon="10.6654767"><ele>9.0</ele><time>2026-03-29T13:22:38.918Z</time></trkpt><trkpt lat="42.9702517" lon="10.6657683"><ele>9.0</ele><time>2026-03-29T13:22:39.918Z</time></trkpt><trkpt lat="42.9703233" lon="10.6660833"><ele>9.0</ele><time>2026-03-29T13:22:40.918Z</time></trkpt><trkpt lat="42.9703717" lon="10.6664167"><ele>9.5</ele><time>2026-03-29T13:22:41.918Z</time></trkpt><trkpt lat="42.9703983" lon="10.6667333"><ele>10.0</ele><time>2026-03-29T13:22:42.918Z</time></trkpt><trkpt lat="42.9704083" lon="10.6670617"><ele>10.0</ele><time>2026-03-29T13:22:43.918Z</time></trkpt><trkpt lat="42.9703933" lon="10.6673883"><ele>10.0</ele><time>2026-03-29T13:22:44.918Z</time></trkpt><trkpt lat="42.970375" lon="10.6677133"><ele>10.0</ele><time>2026-03-29T13:22:45.919Z</time></trkpt><trkpt lat="42.9703367" lon="10.6680217"><ele>10.0</ele><time>2026-03-29T13:22:46.918Z</time></trkpt><trkpt lat="42.970295" lon="10.66836"><ele>11.0</ele><time>2026-03-29T13:22:47.918Z</time></trkpt><trkpt lat="42.9702617" lon="10.668695"><ele>12.0</ele><time>2026-03-29T13:22:48.918Z</time></trkpt><trkpt lat="42.97025" lon="10.6690017"><ele>12.0</ele><time>2026-03-29T13:22:49.918Z</time></trkpt><trkpt lat="42.9702417" lon="10.6692967"><ele>12.0</ele><time>2026-03-29T13:22:50.918Z</time></trkpt><trkpt lat="42.9702533" lon="10.6695733"><ele>12.0</ele><time>2026-03-29T13:22:51.918Z</time></trkpt><trkpt lat="42.9702667" lon="10.6698083"><ele>11.25</ele><time>2026-03-29T13:22:52.918Z</time></trkpt><trkpt lat="42.970285" lon="10.6700167"><ele>10.5</ele><time>2026-03-29T13:22:53.918Z</time></trkpt><trkpt lat="42.9703117" lon="10.6702"><ele>9.75</ele><time>2026-03-29T13:22:54.918Z</time></trkpt><trkpt lat="42.9703283" lon="10.6703617"><ele>9.0</ele><time>2026-03-29T13:22:55.918Z</time></trkpt><trkpt lat="42.9703267" lon="10.67053"><ele>9.0</ele><time>2026-03-29T13:22:56.918Z</time></trkpt><trkpt lat="42.970335" lon="10.6706933"><ele>9.0</ele><time>2026-03-29T13:22:57.918Z</time></trkpt><trkpt lat="42.97037" lon="10.6708417"><ele>9.0</ele><time>2026-03-29T13:22:58.918Z</time></trkpt><trkpt lat="42.970435" lon="10.6709967"><ele>9.0</ele><time>2026-03-29T13:22:59.918Z</time></trkpt><trkpt lat="42.970525" lon="10.6711667"><ele>9.333333333333334</ele><time>2026-03-29T13:23:00.918Z</time></trkpt><trkpt lat="42.97064" lon="10.67135"><ele>9.666666666666668</ele><time>2026-03-29T13:23:01.918Z</time></trkpt><trkpt lat="42.9707683" lon="10.67153"><ele>10.0</ele><time>2026-03-29T13:23:02.918Z</time></trkpt><trkpt lat="42.9708967" lon="10.6717033"><ele>10.0</ele><time>2026-03-29T13:23:03.918Z</time></trkpt><trkpt lat="42.9710133" lon="10.6718667"><ele>10.0</ele><time>2026-03-29T13:23:04.918Z</time></trkpt><trkpt lat="42.9711167" lon="10.6720117"><ele>10.0</ele><time>2026-03-29T13:23:05.918Z</time></trkpt><trkpt lat="42.9711917" lon="10.6721567"><ele>10.0</ele><time>2026-03-29T13:23:06.918Z</time></trkpt><trkpt lat="42.9712517" lon="10.6723217"><ele>10.0</ele><time>2026-03-29T13:23:07.918Z</time></trkpt><trkpt lat="42.9712967" lon="10.6724817"><ele>10.0</ele><time>2026-03-29T13:23:08.918Z</time></trkpt><trkpt lat="42.97135" lon="10.6726333"><ele>10.0</ele><time>2026-03-29T13:23:09.918Z</time></trkpt><trkpt lat="42.97143" lon="10.6727633"><ele>10.0</ele><time>2026-03-29T13:23:10.919Z</time></trkpt><trkpt lat="42.9715217" lon="10.6728767"><ele>10.0</ele><time>2026-03-29T13:23:11.918Z</time></trkpt><trkpt lat="42.9716283" lon="10.6729367"><ele>10.0</ele><time>2026-03-29T13:23:12.918Z</time></trkpt><trkpt lat="42.9717617" lon="10.6730033"><ele>10.0</ele><time>2026-03-29T13:23:13.919Z</time></trkpt><trkpt lat="42.9718883" lon="10.6731167"><ele>10.0</ele><time>2026-03-29T13:23:14.918Z</time></trkpt><trkpt lat="42.9720217" lon="10.67327"><ele>10.333333333333334</ele><time>2026-03-29T13:23:15.918Z</time></trkpt><trkpt lat="42.97216" lon="10.6734383"><ele>10.666666666666666</ele><time>2026-03-29T13:23:16.918Z</time></trkpt><trkpt lat="42.9722817" lon="10.6736083"><ele>11.0</ele><time>2026-03-29T13:23:17.918Z</time></trkpt><trkpt lat="42.9724067" lon="10.6737883"><ele>10.333333333333332</ele><time>2026-03-29T13:23:18.918Z</time></trkpt><trkpt lat="42.9725383" lon="10.6739583"><ele>9.666666666666666</ele><time>2026-03-29T13:23:19.918Z</time></trkpt><trkpt lat="42.9726733" lon="10.67414"><ele>9.0</ele><time>2026-03-29T13:23:20.918Z</time></trkpt><trkpt lat="42.9728217" lon="10.6743367"><ele>9.0</ele><time>2026-03-29T13:23:21.918Z</time></trkpt><trkpt lat="42.972965" lon="10.6745233"><ele>9.0</ele><time>2026-03-29T13:23:22.918Z</time></trkpt><trkpt lat="42.97312" lon="10.67472"><ele>9.0</ele><time>2026-03-29T13:23:23.918Z</time></trkpt><trkpt lat="42.9732733" lon="10.6749217"><ele>9.333333333333334</ele><time>2026-03-29T13:23:24.918Z</time></trkpt><trkpt lat="42.9734183" lon="10.6751283"><ele>9.666666666666668</ele><time>2026-03-29T13:23:25.918Z</time></trkpt><trkpt lat="42.9735617" lon="10.675335"><ele>10.0</ele><time>2026-03-29T13:23:26.918Z</time></trkpt><trkpt lat="42.9737067" lon="10.6755433"><ele>10.666666666666668</ele><time>2026-03-29T13:23:27.918Z</time></trkpt><trkpt lat="42.9738517" lon="10.6757467"><ele>11.333333333333334</ele><time>2026-03-29T13:23:28.918Z</time></trkpt><trkpt lat="42.973995" lon="10.6759367"><ele>12.0</ele><time>2026-03-29T13:23:29.918Z</time></trkpt><trkpt lat="42.9741333" lon="10.6761233"><ele>12.666666666666668</ele><time>2026-03-29T13:23:30.918Z</time></trkpt><trkpt lat="42.9742717" lon="10.6763167"><ele>13.333333333333334</ele><time>2026-03-29T13:23:31.918Z</time></trkpt><trkpt lat="42.97441" lon="10.6765033"><ele>14.0</ele><time>2026-03-29T13:23:32.918Z</time></trkpt><trkpt lat="42.9745517" lon="10.6766967"><ele>14.0</ele><time>2026-03-29T13:23:33.918Z</time></trkpt><trkpt lat="42.9746933" lon="10.6768767"><ele>14.0</ele><time>2026-03-29T13:23:34.918Z</time></trkpt><trkpt lat="42.974825" lon="10.6770483"><ele>14.0</ele><time>2026-03-29T13:23:35.918Z</time></trkpt><trkpt lat="42.97496" lon="10.6772317"><ele>14.333333333333334</ele><time>2026-03-29T13:23:36.918Z</time></trkpt><trkpt lat="42.9751017" lon="10.6774217"><ele>14.666666666666668</ele><time>2026-03-29T13:23:37.918Z</time></trkpt><trkpt lat="42.9752517" lon="10.677615"><ele>15.0</ele><time>2026-03-29T13:23:38.918Z</time></trkpt><trkpt lat="42.9754083" lon="10.6778217"><ele>15.0</ele><time>2026-03-29T13:23:39.918Z</time></trkpt><trkpt lat="42.9755733" lon="10.678035"><ele>15.0</ele><time>2026-03-29T13:23:40.919Z</time></trkpt><trkpt lat="42.9757267" lon="10.678255"><ele>15.0</ele><time>2026-03-29T13:23:41.918Z</time></trkpt><trkpt lat="42.9758817" lon="10.6784683"><ele>16.0</ele><time>2026-03-29T13:23:42.918Z</time></trkpt><trkpt lat="42.9760317" lon="10.6786633"><ele>17.0</ele><time>2026-03-29T13:23:43.918Z</time></trkpt><trkpt lat="42.9761717" lon="10.6788617"><ele>18.0</ele><time>2026-03-29T13:23:44.918Z</time></trkpt><trkpt lat="42.97632" lon="10.679045"><ele>18.0</ele><time>2026-03-29T13:23:45.918Z</time></trkpt><trkpt lat="42.9764583" lon="10.67923"><ele>18.0</ele><time>2026-03-29T13:23:46.918Z</time></trkpt><trkpt lat="42.9765933" lon="10.6794133"><ele>18.0</ele><time>2026-03-29T13:23:47.918Z</time></trkpt><trkpt lat="42.9767283" lon="10.679595"><ele>18.0</ele><time>2026-03-29T13:23:48.918Z</time></trkpt><trkpt lat="42.976865" lon="10.6797767"><ele>18.0</ele><time>2026-03-29T13:23:49.918Z</time></trkpt><trkpt lat="42.9769983" lon="10.6799633"><ele>18.0</ele><time>2026-03-29T13:23:50.918Z</time></trkpt><trkpt lat="42.9771333" lon="10.6801433"><ele>18.666666666666668</ele><time>2026-03-29T13:23:51.918Z</time></trkpt><trkpt lat="42.9772717" lon="10.6803233"><ele>19.333333333333336</ele><time>2026-03-29T13:23:52.918Z</time></trkpt><trkpt lat="42.9774083" lon="10.680505"><ele>20.0</ele><time>2026-03-29T13:23:53.918Z</time></trkpt><trkpt lat="42.9775383" lon="10.6806833"><ele>20.0</ele><time>2026-03-29T13:23:54.918Z</time></trkpt><trkpt lat="42.9776617" lon="10.680845"><ele>20.0</ele><time>2026-03-29T13:23:55.918Z</time></trkpt><trkpt lat="42.9777783" lon="10.68101"><ele>20.0</ele><time>2026-03-29T13:23:56.918Z</time></trkpt><trkpt lat="42.9778883" lon="10.6811683"><ele>20.5</ele><time>2026-03-29T13:23:57.918Z</time></trkpt><trkpt lat="42.9779933" lon="10.6813183"><ele>21.0</ele><time>2026-03-29T13:23:58.918Z</time></trkpt><trkpt lat="42.978085" lon="10.68144"><ele>21.5</ele><time>2026-03-29T13:23:59.918Z</time></trkpt><trkpt lat="42.97816" lon="10.6815467"><ele>22.0</ele><time>2026-03-29T13:24:00.918Z</time></trkpt><trkpt lat="42.97822" lon="10.6816267"><ele>22.0</ele><time>2026-03-29T13:24:01.918Z</time></trkpt><trkpt lat="42.97828" lon="10.681675"><ele>22.0</ele><time>2026-03-29T13:24:02.918Z</time></trkpt><trkpt lat="42.9783467" lon="10.6817183"><ele>22.0</ele><time>2026-03-29T13:24:03.918Z</time></trkpt><trkpt lat="42.97843" lon="10.6817367"><ele>22.0</ele><time>2026-03-29T13:24:04.918Z</time></trkpt><trkpt lat="42.97855" lon="10.6817017"><ele>22.0</ele><time>2026-03-29T13:24:05.919Z</time></trkpt><trkpt lat="42.9787083" lon="10.6816467"><ele>21.666666666666664</ele><time>2026-03-29T13:24:06.918Z</time></trkpt><trkpt lat="42.9788817" lon="10.681595"><ele>21.333333333333332</ele><time>2026-03-29T13:24:07.918Z</time></trkpt><trkpt lat="42.979065" lon="10.6815433"><ele>21.0</ele><time>2026-03-29T13:24:08.918Z</time></trkpt><trkpt lat="42.97925" lon="10.6814817"><ele>20.333333333333332</ele><time>2026-03-29T13:24:09.918Z</time></trkpt><trkpt lat="42.9794383" lon="10.68143"><ele>19.666666666666664</ele><time>2026-03-29T13:24:10.918Z</time></trkpt><trkpt lat="42.9796217" lon="10.6813817"><ele>19.0</ele><time>2026-03-29T13:24:11.918Z</time></trkpt><trkpt lat="42.9798067" lon="10.681345"><ele>19.0</ele><time>2026-03-29T13:24:12.919Z</time></trkpt><trkpt lat="42.97999" lon="10.6812967"><ele>19.0</ele><time>2026-03-29T13:24:13.918Z</time></trkpt><trkpt lat="42.9801783" lon="10.6812467"><ele>19.0</ele><time>2026-03-29T13:24:14.918Z</time></trkpt><trkpt lat="42.98035" lon="10.6812033"><ele>19.0</ele><time>2026-03-29T13:24:15.918Z</time></trkpt><trkpt lat="42.9805233" lon="10.681165"><ele>19.0</ele><time>2026-03-29T13:24:16.918Z</time></trkpt><trkpt lat="42.9806867" lon="10.6811217"><ele>19.0</ele><time>2026-03-29T13:24:17.918Z</time></trkpt><trkpt lat="42.98085" lon="10.6810883"><ele>19.0</ele><time>2026-03-29T13:24:18.918Z</time></trkpt><trkpt lat="42.9810167" lon="10.6810483"><ele>19.0</ele><time>2026-03-29T13:24:19.918Z</time></trkpt><trkpt lat="42.9811733" lon="10.68101"><ele>19.0</ele><time>2026-03-29T13:24:20.918Z</time></trkpt><trkpt lat="42.9813317" lon="10.6809717"><ele>19.0</ele><time>2026-03-29T13:24:21.918Z</time></trkpt><trkpt lat="42.9814733" lon="10.6809267"><ele>19.0</ele><time>2026-03-29T13:24:22.918Z</time></trkpt><trkpt lat="42.98162" lon="10.680885"><ele>19.0</ele><time>2026-03-29T13:24:23.918Z</time></trkpt><trkpt lat="42.9817683" lon="10.68084"><ele>19.0</ele><time>2026-03-29T13:24:24.918Z</time></trkpt><trkpt lat="42.9819017" lon="10.680805"><ele>19.25</ele><time>2026-03-29T13:24:25.918Z</time></trkpt><trkpt lat="42.9820183" lon="10.68077"><ele>19.5</ele><time>2026-03-29T13:24:26.918Z</time></trkpt><trkpt lat="42.982125" lon="10.6807433"><ele>19.75</ele><time>2026-03-29T13:24:27.918Z</time></trkpt><trkpt lat="42.9822333" lon="10.68072"><ele>20.0</ele><time>2026-03-29T13:24:28.918Z</time></trkpt><trkpt lat="42.982355" lon="10.6806883"><ele>20.0</ele><time>2026-03-29T13:24:29.918Z</time></trkpt><trkpt lat="42.9824717" lon="10.6806633"><ele>20.0</ele><time>2026-03-29T13:24:30.918Z</time></trkpt><trkpt lat="42.98261" lon="10.6806267"><ele>20.0</ele><time>2026-03-29T13:24:31.918Z</time></trkpt><trkpt lat="42.98276" lon="10.6806"><ele>20.0</ele><time>2026-03-29T13:24:32.918Z</time></trkpt><trkpt lat="42.98293" lon="10.6805483"><ele>19.666666666666668</ele><time>2026-03-29T13:24:33.918Z</time></trkpt><trkpt lat="42.9830983" lon="10.68051"><ele>19.333333333333332</ele><time>2026-03-29T13:24:34.918Z</time></trkpt><trkpt lat="42.9832817" lon="10.6804683"><ele>19.0</ele><time>2026-03-29T13:24:35.918Z</time></trkpt><trkpt lat="42.98346" lon="10.6804283"><ele>19.0</ele><time>2026-03-29T13:24:36.918Z</time></trkpt><trkpt lat="42.9836533" lon="10.6803833"><ele>19.0</ele><time>2026-03-29T13:24:37.918Z</time></trkpt><trkpt lat="42.983845" lon="10.6803417"><ele>19.0</ele><time>2026-03-29T13:24:38.918Z</time></trkpt><trkpt lat="42.984035" lon="10.6803017"><ele>18.5</ele><time>2026-03-29T13:24:39.918Z</time></trkpt><trkpt lat="42.98441" lon="10.6802033"><ele>18.0</ele><time>2026-03-29T13:24:41.918Z</time></trkpt><trkpt lat="42.98459" lon="10.680155"><ele>18.0</ele><time>2026-03-29T13:24:42.918Z</time></trkpt><trkpt lat="42.9847667" lon="10.6801233"><ele>18.0</ele><time>2026-03-29T13:24:43.918Z</time></trkpt><trkpt lat="42.9849333" lon="10.6800833"><ele>18.0</ele><time>2026-03-29T13:24:44.918Z</time></trkpt><trkpt lat="42.98509" lon="10.6800483"><ele>17.666666666666668</ele><time>2026-03-29T13:24:45.918Z</time></trkpt><trkpt lat="42.9852517" lon="10.68001"><ele>17.333333333333336</ele><time>2026-03-29T13:24:46.918Z</time></trkpt><trkpt lat="42.9854233" lon="10.6799583"><ele>17.0</ele><time>2026-03-29T13:24:47.918Z</time></trkpt><trkpt lat="42.9856067" lon="10.679905"><ele>17.0</ele><time>2026-03-29T13:24:48.918Z</time></trkpt><trkpt lat="42.9857967" lon="10.6798517"><ele>17.0</ele><time>2026-03-29T13:24:49.918Z</time></trkpt><trkpt lat="42.9859717" lon="10.6798117"><ele>17.0</ele><time>2026-03-29T13:24:50.918Z</time></trkpt><trkpt lat="42.9861333" lon="10.67977"><ele>17.75</ele><time>2026-03-29T13:24:51.918Z</time></trkpt><trkpt lat="42.9862783" lon="10.6797483"><ele>18.5</ele><time>2026-03-29T13:24:52.918Z</time></trkpt><trkpt lat="42.986425" lon="10.679725"><ele>19.25</ele><time>2026-03-29T13:24:53.918Z</time></trkpt><trkpt lat="42.98655" lon="10.6797033"><ele>20.0</ele><time>2026-03-29T13:24:54.918Z</time></trkpt><trkpt lat="42.9866667" lon="10.6796633"><ele>20.75</ele><time>2026-03-29T13:24:55.918Z</time></trkpt><trkpt lat="42.986775" lon="10.679625"><ele>21.5</ele><time>2026-03-29T13:24:56.918Z</time></trkpt><trkpt lat="42.9869017" lon="10.6795883"><ele>22.25</ele><time>2026-03-29T13:24:57.918Z</time></trkpt><trkpt lat="42.98704" lon="10.67955"><ele>23.0</ele><time>2026-03-29T13:24:58.918Z</time></trkpt><trkpt lat="42.9871917" lon="10.6795067"><ele>23.0</ele><time>2026-03-29T13:24:59.918Z</time></trkpt><trkpt lat="42.9873483" lon="10.679465"><ele>23.0</ele><time>2026-03-29T13:25:00.918Z</time></trkpt><trkpt lat="42.9875167" lon="10.6794267"><ele>23.0</ele><time>2026-03-29T13:25:01.918Z</time></trkpt><trkpt lat="42.9876733" lon="10.6793967"><ele>23.333333333333336</ele><time>2026-03-29T13:25:02.918Z</time></trkpt><trkpt lat="42.987835" lon="10.6793617"><ele>23.666666666666668</ele><time>2026-03-29T13:25:03.918Z</time></trkpt><trkpt lat="42.98801" lon="10.6793167"><ele>24.0</ele><time>2026-03-29T13:25:04.918Z</time></trkpt><trkpt lat="42.9881817" lon="10.6792717"><ele>25.0</ele><time>2026-03-29T13:25:05.918Z</time></trkpt><trkpt lat="42.9883567" lon="10.6792317"><ele>26.0</ele><time>2026-03-29T13:25:06.918Z</time></trkpt><trkpt lat="42.9885217" lon="10.6791933"><ele>27.0</ele><time>2026-03-29T13:25:07.918Z</time></trkpt><trkpt lat="42.9886867" lon="10.6791533"><ele>27.0</ele><time>2026-03-29T13:25:08.918Z</time></trkpt><trkpt lat="42.9888433" lon="10.6791183"><ele>27.0</ele><time>2026-03-29T13:25:09.918Z</time></trkpt><trkpt lat="42.9889917" lon="10.679075"><ele>27.0</ele><time>2026-03-29T13:25:10.918Z</time></trkpt><trkpt lat="42.98913" lon="10.679015"><ele>28.0</ele><time>2026-03-29T13:25:11.918Z</time></trkpt><trkpt lat="42.9892633" lon="10.67892"><ele>29.0</ele><time>2026-03-29T13:25:12.918Z</time></trkpt><trkpt lat="42.989395" lon="10.6787867"><ele>30.0</ele><time>2026-03-29T13:25:13.918Z</time></trkpt><trkpt lat="42.9895117" lon="10.6786317"><ele>29.333333333333336</ele><time>2026-03-29T13:25:14.918Z</time></trkpt><trkpt lat="42.9896167" lon="10.6784383"><ele>28.666666666666668</ele><time>2026-03-29T13:25:15.918Z</time></trkpt><trkpt lat="42.9896967" lon="10.6782183"><ele>28.0</ele><time>2026-03-29T13:25:16.918Z</time></trkpt><trkpt lat="42.9897717" lon="10.67797"><ele>27.666666666666668</ele><time>2026-03-29T13:25:17.918Z</time></trkpt><trkpt lat="42.98985" lon="10.677695"><ele>27.333333333333336</ele><time>2026-03-29T13:25:18.918Z</time></trkpt><trkpt lat="42.98992" lon="10.6774283"><ele>27.0</ele><time>2026-03-29T13:25:19.918Z</time></trkpt><trkpt lat="42.989995" lon="10.677165"><ele>28.0</ele><time>2026-03-29T13:25:20.918Z</time></trkpt><trkpt lat="42.99007" lon="10.676895"><ele>29.0</ele><time>2026-03-29T13:25:21.918Z</time></trkpt><trkpt lat="42.990145" lon="10.6766267"><ele>30.0</ele><time>2026-03-29T13:25:22.918Z</time></trkpt><trkpt lat="42.9902217" lon="10.6763533"><ele>29.666666666666664</ele><time>2026-03-29T13:25:23.918Z</time></trkpt><trkpt lat="42.9902983" lon="10.6760967"><ele>29.333333333333332</ele><time>2026-03-29T13:25:24.918Z</time></trkpt><trkpt lat="42.9903883" lon="10.6758317"><ele>29.0</ele><time>2026-03-29T13:25:25.918Z</time></trkpt><trkpt lat="42.9904717" lon="10.6755767"><ele>29.0</ele><time>2026-03-29T13:25:26.918Z</time></trkpt><trkpt lat="42.9905533" lon="10.6753083"><ele>29.0</ele><time>2026-03-29T13:25:27.918Z</time></trkpt><trkpt lat="42.9906333" lon="10.67503"><ele>29.0</ele><time>2026-03-29T13:25:28.918Z</time></trkpt><trkpt lat="42.9907267" lon="10.67478"><ele>28.666666666666664</ele><time>2026-03-29T13:25:29.918Z</time></trkpt><trkpt lat="42.9908017" lon="10.6744983"><ele>28.333333333333336</ele><time>2026-03-29T13:25:30.918Z</time></trkpt><trkpt lat="42.9908817" lon="10.67421"><ele>28.0</ele><time>2026-03-29T13:25:31.918Z</time></trkpt><trkpt lat="42.9909667" lon="10.6739233"><ele>27.333333333333336</ele><time>2026-03-29T13:25:32.918Z</time></trkpt><trkpt lat="42.9910467" lon="10.673635"><ele>26.666666666666664</ele><time>2026-03-29T13:25:33.918Z</time></trkpt><trkpt lat="42.9911217" lon="10.67335"><ele>26.0</ele><time>2026-03-29T13:25:34.918Z</time></trkpt><trkpt lat="42.9912017" lon="10.6730817"><ele>25.666666666666664</ele><time>2026-03-29T13:25:35.918Z</time></trkpt><trkpt lat="42.9912817" lon="10.6728217"><ele>25.333333333333336</ele><time>2026-03-29T13:25:36.918Z</time></trkpt><trkpt lat="42.99135" lon="10.6725633"><ele>25.0</ele><time>2026-03-29T13:25:37.918Z</time></trkpt><trkpt lat="42.99141" lon="10.6723233"><ele>23.75</ele><time>2026-03-29T13:25:38.918Z</time></trkpt><trkpt lat="42.9914667" lon="10.6721183"><ele>22.5</ele><time>2026-03-29T13:25:39.918Z</time></trkpt><trkpt lat="42.9915283" lon="10.671955"><ele>21.25</ele><time>2026-03-29T13:25:40.918Z</time></trkpt><trkpt lat="42.9915967" lon="10.6718433"><ele>20.0</ele><time>2026-03-29T13:25:41.918Z</time></trkpt><trkpt lat="42.9916767" lon="10.6717583"><ele>18.75</ele><time>2026-03-29T13:25:42.918Z</time></trkpt><trkpt lat="42.9918017" lon="10.6717383"><ele>17.5</ele><time>2026-03-29T13:25:43.918Z</time></trkpt><trkpt lat="42.991945" lon="10.6717517"><ele>16.25</ele><time>2026-03-29T13:25:44.918Z</time></trkpt><trkpt lat="42.9920983" lon="10.6717867"><ele>15.0</ele><time>2026-03-29T13:25:45.918Z</time></trkpt><trkpt lat="42.992255" lon="10.671835"><ele>15.0</ele><time>2026-03-29T13:25:46.918Z</time></trkpt><trkpt lat="42.992395" lon="10.671865"><ele>15.0</ele><time>2026-03-29T13:25:47.918Z</time></trkpt><trkpt lat="42.99252" lon="10.6718783"><ele>15.0</ele><time>2026-03-29T13:25:48.918Z</time></trkpt><trkpt lat="42.9926383" lon="10.67187"><ele>15.0</ele><time>2026-03-29T13:25:49.918Z</time></trkpt><trkpt lat="42.992735" lon="10.6718217"><ele>14.5</ele><time>2026-03-29T13:25:50.918Z</time></trkpt><trkpt lat="42.99282" lon="10.6717333"><ele>14.0</ele><time>2026-03-29T13:25:51.918Z</time></trkpt><trkpt lat="42.9929033" lon="10.6716083"><ele>13.5</ele><time>2026-03-29T13:25:52.918Z</time></trkpt><trkpt lat="42.992985" lon="10.67143"><ele>13.0</ele><time>2026-03-29T13:25:53.918Z</time></trkpt><trkpt lat="42.9930583" lon="10.6712167"><ele>12.0</ele><time>2026-03-29T13:25:54.918Z</time></trkpt><trkpt lat="42.9931383" lon="10.67098"><ele>11.0</ele><time>2026-03-29T13:25:55.918Z</time></trkpt><trkpt lat="42.9932183" lon="10.670725"><ele>10.0</ele><time>2026-03-29T13:25:56.918Z</time></trkpt><trkpt lat="42.9933033" lon="10.6704767"><ele>9.666666666666668</ele><time>2026-03-29T13:25:57.918Z</time></trkpt><trkpt lat="42.99338" lon="10.6702333"><ele>9.333333333333334</ele><time>2026-03-29T13:25:58.918Z</time></trkpt><trkpt lat="42.99347" lon="10.6699817"><ele>9.0</ele><time>2026-03-29T13:25:59.918Z</time></trkpt><trkpt lat="42.9935517" lon="10.669735"><ele>9.0</ele><time>2026-03-29T13:26:00.918Z</time></trkpt><trkpt lat="42.9936383" lon="10.6694867"><ele>9.0</ele><time>2026-03-29T13:26:01.918Z</time></trkpt><trkpt lat="42.9937283" lon="10.66923"><ele>9.0</ele><time>2026-03-29T13:26:02.918Z</time></trkpt><trkpt lat="42.99381" lon="10.6689633"><ele>9.0</ele><time>2026-03-29T13:26:03.918Z</time></trkpt><trkpt lat="42.9939" lon="10.6686933"><ele>9.0</ele><time>2026-03-29T13:26:04.918Z</time></trkpt><trkpt lat="42.99399" lon="10.6684233"><ele>9.0</ele><time>2026-03-29T13:26:05.918Z</time></trkpt><trkpt lat="42.9940733" lon="10.66817"><ele>9.0</ele><time>2026-03-29T13:26:06.918Z</time></trkpt><trkpt lat="42.9941617" lon="10.6679283"><ele>9.0</ele><time>2026-03-29T13:26:07.918Z</time></trkpt><trkpt lat="42.9942433" lon="10.66768"><ele>9.0</ele><time>2026-03-29T13:26:08.918Z</time></trkpt><trkpt lat="42.9943233" lon="10.6674417"><ele>9.333333333333334</ele><time>2026-03-29T13:26:09.918Z</time></trkpt><trkpt lat="42.9944" lon="10.6671967"><ele>9.666666666666668</ele><time>2026-03-29T13:26:10.918Z</time></trkpt><trkpt lat="42.994485" lon="10.6669617"><ele>10.0</ele><time>2026-03-29T13:26:11.918Z</time></trkpt><trkpt lat="42.9945783" lon="10.6667233"><ele>10.0</ele><time>2026-03-29T13:26:12.918Z</time></trkpt><trkpt lat="42.9946633" lon="10.6664817"><ele>10.0</ele><time>2026-03-29T13:26:13.918Z</time></trkpt><trkpt lat="42.9947483" lon="10.6662233"><ele>10.0</ele><time>2026-03-29T13:26:14.918Z</time></trkpt><trkpt lat="42.9948333" lon="10.6659633"><ele>10.0</ele><time>2026-03-29T13:26:15.918Z</time></trkpt><trkpt lat="42.9949183" lon="10.6657083"><ele>10.0</ele><time>2026-03-29T13:26:16.918Z</time></trkpt><trkpt lat="42.994995" lon="10.6654733"><ele>10.0</ele><time>2026-03-29T13:26:17.918Z</time></trkpt><trkpt lat="42.9950783" lon="10.6652717"><ele>10.333333333333334</ele><time>2026-03-29T13:26:18.918Z</time></trkpt><trkpt lat="42.9951833" lon="10.6650817"><ele>10.666666666666666</ele><time>2026-03-29T13:26:19.918Z</time></trkpt><trkpt lat="42.9953183" lon="10.664915"><ele>11.0</ele><time>2026-03-29T13:26:20.918Z</time></trkpt><trkpt lat="42.99546" lon="10.6647783"><ele>11.0</ele><time>2026-03-29T13:26:21.918Z</time></trkpt><trkpt lat="42.9955917" lon="10.6646767"><ele>11.0</ele><time>2026-03-29T13:26:22.918Z</time></trkpt><trkpt lat="42.99571" lon="10.6646"><ele>11.0</ele><time>2026-03-29T13:26:23.918Z</time></trkpt><trkpt lat="42.9958167" lon="10.6645483"><ele>11.0</ele><time>2026-03-29T13:26:24.918Z</time></trkpt><trkpt lat="42.995935" lon="10.664525"><ele>11.25</ele><time>2026-03-29T13:26:25.918Z</time></trkpt><trkpt lat="42.9960617" lon="10.6645417"><ele>11.5</ele><time>2026-03-29T13:26:26.918Z</time></trkpt><trkpt lat="42.9961933" lon="10.6645917"><ele>11.75</ele><time>2026-03-29T13:26:27.918Z</time></trkpt><trkpt lat="42.996345" lon="10.6646633"><ele>12.0</ele><time>2026-03-29T13:26:28.918Z</time></trkpt><trkpt lat="42.99651" lon="10.6647367"><ele>11.666666666666666</ele><time>2026-03-29T13:26:29.918Z</time></trkpt><trkpt lat="42.996685" lon="10.6648217"><ele>11.333333333333332</ele><time>2026-03-29T13:26:30.918Z</time></trkpt><trkpt lat="42.99686" lon="10.6649117"><ele>11.0</ele><time>2026-03-29T13:26:31.918Z</time></trkpt><trkpt lat="42.99704" lon="10.6650017"><ele>11.0</ele><time>2026-03-29T13:26:32.918Z</time></trkpt><trkpt lat="42.9972233" lon="10.6651033"><ele>11.0</ele><time>2026-03-29T13:26:33.918Z</time></trkpt><trkpt lat="42.9974233" lon="10.6652017"><ele>11.0</ele><time>2026-03-29T13:26:34.918Z</time></trkpt><trkpt lat="42.9976267" lon="10.6653033"><ele>11.0</ele><time>2026-03-29T13:26:35.918Z</time></trkpt><trkpt lat="42.9978267" lon="10.6654083"><ele>11.0</ele><time>2026-03-29T13:26:36.918Z</time></trkpt><trkpt lat="42.9980183" lon="10.6655133"><ele>11.0</ele><time>2026-03-29T13:26:37.918Z</time></trkpt><trkpt lat="42.9982133" lon="10.6656167"><ele>11.0</ele><time>2026-03-29T13:26:38.918Z</time></trkpt><trkpt lat="42.99841" lon="10.6657067"><ele>11.0</ele><time>2026-03-29T13:26:39.919Z</time></trkpt><trkpt lat="42.9986083" lon="10.665795"><ele>11.0</ele><time>2026-03-29T13:26:40.918Z</time></trkpt><trkpt lat="42.9988083" lon="10.6658917"><ele>11.0</ele><time>2026-03-29T13:26:41.918Z</time></trkpt><trkpt lat="42.999015" lon="10.6659917"><ele>11.0</ele><time>2026-03-29T13:26:42.918Z</time></trkpt><trkpt lat="42.999195" lon="10.6660867"><ele>11.0</ele><time>2026-03-29T13:26:43.918Z</time></trkpt><trkpt lat="42.9994" lon="10.6661817"><ele>11.333333333333332</ele><time>2026-03-29T13:26:44.918Z</time></trkpt><trkpt lat="42.9995967" lon="10.6662783"><ele>11.666666666666666</ele><time>2026-03-29T13:26:45.918Z</time></trkpt><trkpt lat="42.9997883" lon="10.666365"><ele>12.0</ele><time>2026-03-29T13:26:46.918Z</time></trkpt><trkpt lat="42.99998" lon="10.6664667"><ele>12.0</ele><time>2026-03-29T13:26:47.918Z</time></trkpt><trkpt lat="43.000165" lon="10.6665617"><ele>12.0</ele><time>2026-03-29T13:26:48.918Z</time></trkpt><trkpt lat="43.00035" lon="10.666655"><ele>12.0</ele><time>2026-03-29T13:26:49.918Z</time></trkpt><trkpt lat="43.000545" lon="10.6667517"><ele>12.0</ele><time>2026-03-29T13:26:50.918Z</time></trkpt><trkpt lat="43.00073" lon="10.6668417"><ele>12.0</ele><time>2026-03-29T13:26:51.918Z</time></trkpt><trkpt lat="43.0009083" lon="10.66693"><ele>12.0</ele><time>2026-03-29T13:26:52.919Z</time></trkpt><trkpt lat="43.001085" lon="10.66702"><ele>12.333333333333332</ele><time>2026-03-29T13:26:53.918Z</time></trkpt><trkpt lat="43.0012617" lon="10.6671083"><ele>12.666666666666666</ele><time>2026-03-29T13:26:54.918Z</time></trkpt><trkpt lat="43.0014433" lon="10.6671983"><ele>13.0</ele><time>2026-03-29T13:26:55.918Z</time></trkpt><trkpt lat="43.0016167" lon="10.667285"><ele>12.333333333333332</ele><time>2026-03-29T13:26:56.918Z</time></trkpt><trkpt lat="43.0017817" lon="10.66738"><ele>11.666666666666666</ele><time>2026-03-29T13:26:57.918Z</time></trkpt><trkpt lat="43.0019517" lon="10.6674667"><ele>11.0</ele><time>2026-03-29T13:26:58.919Z</time></trkpt><trkpt lat="43.0021267" lon="10.667545"><ele>11.0</ele><time>2026-03-29T13:26:59.919Z</time></trkpt><trkpt lat="43.0022967" lon="10.6676367"><ele>11.0</ele><time>2026-03-29T13:27:00.918Z</time></trkpt><trkpt lat="43.0024767" lon="10.667715"><ele>11.0</ele><time>2026-03-29T13:27:01.918Z</time></trkpt><trkpt lat="43.0026583" lon="10.6678017"><ele>11.333333333333332</ele><time>2026-03-29T13:27:02.918Z</time></trkpt><trkpt lat="43.002835" lon="10.6678883"><ele>11.666666666666666</ele><time>2026-03-29T13:27:03.919Z</time></trkpt><trkpt lat="43.00301" lon="10.6679617"><ele>12.0</ele><time>2026-03-29T13:27:04.918Z</time></trkpt><trkpt lat="43.0031917" lon="10.6680433"><ele>12.333333333333332</ele><time>2026-03-29T13:27:05.918Z</time></trkpt><trkpt lat="43.0033717" lon="10.6681283"><ele>12.666666666666666</ele><time>2026-03-29T13:27:06.918Z</time></trkpt><trkpt lat="43.0035517" lon="10.6682167"><ele>13.0</ele><time>2026-03-29T13:27:07.918Z</time></trkpt><trkpt lat="43.0037283" lon="10.668305"><ele>13.0</ele><time>2026-03-29T13:27:08.918Z</time></trkpt><trkpt lat="43.0039" lon="10.6683983"><ele>13.0</ele><time>2026-03-29T13:27:09.918Z</time></trkpt><trkpt lat="43.0040817" lon="10.6684917"><ele>13.0</ele><time>2026-03-29T13:27:10.918Z</time></trkpt><trkpt lat="43.004265" lon="10.6685867"><ele>13.0</ele><time>2026-03-29T13:27:11.918Z</time></trkpt><trkpt lat="43.0044483" lon="10.66868"><ele>13.0</ele><time>2026-03-29T13:27:12.918Z</time></trkpt><trkpt lat="43.00463" lon="10.668765"><ele>13.0</ele><time>2026-03-29T13:27:13.918Z</time></trkpt><trkpt lat="43.0048183" lon="10.6688517"><ele>13.333333333333332</ele><time>2026-03-29T13:27:14.918Z</time></trkpt><trkpt lat="43.0050083" lon="10.6689333"><ele>13.666666666666668</ele><time>2026-03-29T13:27:15.918Z</time></trkpt><trkpt lat="43.0052017" lon="10.66903"><ele>14.0</ele><time>2026-03-29T13:27:16.918Z</time></trkpt><trkpt lat="43.005395" lon="10.669115"><ele>14.0</ele><time>2026-03-29T13:27:17.918Z</time></trkpt><trkpt lat="43.0055817" lon="10.66922"><ele>14.0</ele><time>2026-03-29T13:27:18.918Z</time></trkpt><trkpt lat="43.005775" lon="10.66932"><ele>14.0</ele><time>2026-03-29T13:27:19.918Z</time></trkpt><trkpt lat="43.0059667" lon="10.6694183"><ele>14.333333333333334</ele><time>2026-03-29T13:27:20.919Z</time></trkpt><trkpt lat="43.0061633" lon="10.669515"><ele>14.666666666666668</ele><time>2026-03-29T13:27:21.918Z</time></trkpt><trkpt lat="43.0063533" lon="10.6696117"><ele>15.0</ele><time>2026-03-29T13:27:22.918Z</time></trkpt><trkpt lat="43.0065483" lon="10.669705"><ele>14.666666666666668</ele><time>2026-03-29T13:27:23.918Z</time></trkpt><trkpt lat="43.00675" lon="10.6698"><ele>14.333333333333334</ele><time>2026-03-29T13:27:24.918Z</time></trkpt><trkpt lat="43.0069483" lon="10.6698967"><ele>14.0</ele><time>2026-03-29T13:27:25.918Z</time></trkpt><trkpt lat="43.0071567" lon="10.6699917"><ele>14.0</ele><time>2026-03-29T13:27:26.918Z</time></trkpt><trkpt lat="43.007365" lon="10.6700917"><ele>14.0</ele><time>2026-03-29T13:27:27.918Z</time></trkpt><trkpt lat="43.0075717" lon="10.6702033"><ele>14.0</ele><time>2026-03-29T13:27:28.918Z</time></trkpt><trkpt lat="43.0077733" lon="10.6703133"><ele>14.0</ele><time>2026-03-29T13:27:29.918Z</time></trkpt><trkpt lat="43.0079817" lon="10.670415"><ele>14.0</ele><time>2026-03-29T13:27:30.918Z</time></trkpt><trkpt lat="43.0081833" lon="10.67051"><ele>14.0</ele><time>2026-03-29T13:27:31.919Z</time></trkpt><trkpt lat="43.0083883" lon="10.6706067"><ele>14.0</ele><time>2026-03-29T13:27:32.918Z</time></trkpt><trkpt lat="43.00858" lon="10.6707033"><ele>14.0</ele><time>2026-03-29T13:27:33.918Z</time></trkpt><trkpt lat="43.008765" lon="10.6708"><ele>14.0</ele><time>2026-03-29T13:27:34.918Z</time></trkpt><trkpt lat="43.00895" lon="10.6708983"><ele>14.0</ele><time>2026-03-29T13:27:35.918Z</time></trkpt><trkpt lat="43.0091367" lon="10.6709917"><ele>14.0</ele><time>2026-03-29T13:27:36.919Z</time></trkpt><trkpt lat="43.0093233" lon="10.6710867"><ele>14.0</ele><time>2026-03-29T13:27:37.918Z</time></trkpt><trkpt lat="43.0095117" lon="10.671185"><ele>14.0</ele><time>2026-03-29T13:27:38.918Z</time></trkpt><trkpt lat="43.0097017" lon="10.671285"><ele>14.0</ele><time>2026-03-29T13:27:39.918Z</time></trkpt><trkpt lat="43.0098933" lon="10.6713767"><ele>14.0</ele><time>2026-03-29T13:27:40.918Z</time></trkpt><trkpt lat="43.0100717" lon="10.6714633"><ele>14.0</ele><time>2026-03-29T13:27:41.918Z</time></trkpt><trkpt lat="43.0102533" lon="10.671555"><ele>14.0</ele><time>2026-03-29T13:27:42.918Z</time></trkpt><trkpt lat="43.01044" lon="10.67165"><ele>14.0</ele><time>2026-03-29T13:27:43.918Z</time></trkpt><trkpt lat="43.0106133" lon="10.67174"><ele>14.0</ele><time>2026-03-29T13:27:44.918Z</time></trkpt><trkpt lat="43.0107967" lon="10.671825"><ele>14.0</ele><time>2026-03-29T13:27:45.918Z</time></trkpt><trkpt lat="43.0109717" lon="10.6719117"><ele>14.0</ele><time>2026-03-29T13:27:46.918Z</time></trkpt><trkpt lat="43.01115" lon="10.6719917"><ele>14.333333333333334</ele><time>2026-03-29T13:27:47.918Z</time></trkpt><trkpt lat="43.0113283" lon="10.67208"><ele>14.666666666666668</ele><time>2026-03-29T13:27:48.918Z</time></trkpt><trkpt lat="43.0115067" lon="10.672175"><ele>15.0</ele><time>2026-03-29T13:27:49.918Z</time></trkpt><trkpt lat="43.0116783" lon="10.6722667"><ele>15.0</ele><time>2026-03-29T13:27:50.918Z</time></trkpt><trkpt lat="43.0118583" lon="10.6723583"><ele>15.0</ele><time>2026-03-29T13:27:51.918Z</time></trkpt><trkpt lat="43.0120433" lon="10.6724433"><ele>15.0</ele><time>2026-03-29T13:27:52.918Z</time></trkpt><trkpt lat="43.0122217" lon="10.6725383"><ele>15.0</ele><time>2026-03-29T13:27:53.918Z</time></trkpt><trkpt lat="43.0124017" lon="10.6726283"><ele>15.0</ele><time>2026-03-29T13:27:54.918Z</time></trkpt><trkpt lat="43.0125783" lon="10.67271"><ele>15.0</ele><time>2026-03-29T13:27:55.918Z</time></trkpt><trkpt lat="43.0127533" lon="10.6727933"><ele>15.333333333333332</ele><time>2026-03-29T13:27:56.918Z</time></trkpt><trkpt lat="43.0129267" lon="10.6728833"><ele>15.666666666666666</ele><time>2026-03-29T13:27:57.918Z</time></trkpt><trkpt lat="43.013095" lon="10.6729717"><ele>16.0</ele><time>2026-03-29T13:27:58.918Z</time></trkpt><trkpt lat="43.0132633" lon="10.67306"><ele>16.333333333333332</ele><time>2026-03-29T13:27:59.918Z</time></trkpt><trkpt lat="43.0134317" lon="10.67314"><ele>16.666666666666668</ele><time>2026-03-29T13:28:00.918Z</time></trkpt><trkpt lat="43.0136033" lon="10.6732183"><ele>17.0</ele><time>2026-03-29T13:28:01.918Z</time></trkpt><trkpt lat="43.013765" lon="10.6733"><ele>17.0</ele><time>2026-03-29T13:28:02.918Z</time></trkpt><trkpt lat="43.0139333" lon="10.67338"><ele>17.0</ele><time>2026-03-29T13:28:03.918Z</time></trkpt><trkpt lat="43.014105" lon="10.67346"><ele>17.0</ele><time>2026-03-29T13:28:04.918Z</time></trkpt><trkpt lat="43.0142833" lon="10.67355"><ele>16.666666666666668</ele><time>2026-03-29T13:28:05.918Z</time></trkpt><trkpt lat="43.0144683" lon="10.6736467"><ele>16.333333333333332</ele><time>2026-03-29T13:28:06.918Z</time></trkpt><trkpt lat="43.0146583" lon="10.6737483"><ele>16.0</ele><time>2026-03-29T13:28:07.918Z</time></trkpt><trkpt lat="43.0148583" lon="10.6738417"><ele>15.333333333333332</ele><time>2026-03-29T13:28:08.918Z</time></trkpt><trkpt lat="43.0150533" lon="10.6739383"><ele>14.666666666666668</ele><time>2026-03-29T13:28:09.918Z</time></trkpt><trkpt lat="43.0152533" lon="10.6740333"><ele>14.0</ele><time>2026-03-29T13:28:10.918Z</time></trkpt><trkpt lat="43.0154533" lon="10.6741333"><ele>14.0</ele><time>2026-03-29T13:28:11.918Z</time></trkpt><trkpt lat="43.015645" lon="10.674235"><ele>14.0</ele><time>2026-03-29T13:28:12.918Z</time></trkpt><trkpt lat="43.01584" lon="10.6743317"><ele>14.0</ele><time>2026-03-29T13:28:13.919Z</time></trkpt><trkpt lat="43.016035" lon="10.6744367"><ele>14.333333333333334</ele><time>2026-03-29T13:28:14.918Z</time></trkpt><trkpt lat="43.0162314" lon="10.6745288"><ele>14.666666666666668</ele><time>2026-03-29T13:28:15.918Z</time></trkpt><trkpt lat="43.0164212" lon="10.6746235"><ele>15.0</ele><time>2026-03-29T13:28:16.918Z</time></trkpt><trkpt lat="43.0166053" lon="10.674722"><ele>15.333333333333332</ele><time>2026-03-29T13:28:17.918Z</time></trkpt><trkpt lat="43.0167908" lon="10.6748157"><ele>15.666666666666666</ele><time>2026-03-29T13:28:18.918Z</time></trkpt><trkpt lat="43.0169717" lon="10.674911"><ele>16.0</ele><time>2026-03-29T13:28:19.918Z</time></trkpt><trkpt lat="43.0171523" lon="10.6750022"><ele>16.0</ele><time>2026-03-29T13:28:20.918Z</time></trkpt><trkpt lat="43.0173418" lon="10.6750981"><ele>16.0</ele><time>2026-03-29T13:28:21.918Z</time></trkpt><trkpt lat="43.0175345" lon="10.6751857"><ele>16.0</ele><time>2026-03-29T13:28:22.918Z</time></trkpt><trkpt lat="43.0177293" lon="10.6752829"><ele>16.666666666666664</ele><time>2026-03-29T13:28:23.918Z</time></trkpt><trkpt lat="43.0179266" lon="10.6753795"><ele>17.333333333333332</ele><time>2026-03-29T13:28:24.918Z</time></trkpt><trkpt lat="43.0181233" lon="10.6754747"><ele>18.0</ele><time>2026-03-29T13:28:25.918Z</time></trkpt><trkpt lat="43.018315" lon="10.675565"><ele>18.333333333333332</ele><time>2026-03-29T13:28:26.918Z</time></trkpt><trkpt lat="43.0184942" lon="10.675651"><ele>18.666666666666664</ele><time>2026-03-29T13:28:27.918Z</time></trkpt><trkpt lat="43.0186531" lon="10.6757328"><ele>19.0</ele><time>2026-03-29T13:28:28.918Z</time></trkpt><trkpt lat="43.0187904" lon="10.6758021"><ele>19.0</ele><time>2026-03-29T13:28:29.918Z</time></trkpt><trkpt lat="43.0189055" lon="10.6758614"><ele>19.0</ele><time>2026-03-29T13:28:30.918Z</time></trkpt><trkpt lat="43.0190007" lon="10.67591"><ele>19.0</ele><time>2026-03-29T13:28:31.918Z</time></trkpt><trkpt lat="43.0190752" lon="10.6759543"><ele>19.0</ele><time>2026-03-29T13:28:32.918Z</time></trkpt><trkpt lat="43.0191409" lon="10.6759837"><ele>19.0</ele><time>2026-03-29T13:28:33.918Z</time></trkpt><trkpt lat="43.0192279" lon="10.6759645"><ele>19.0</ele><time>2026-03-29T13:28:35.918Z</time></trkpt><trkpt lat="43.0192249" lon="10.6758048"><ele>19.0</ele><time>2026-03-29T13:28:37.918Z</time></trkpt><trkpt lat="43.0192022" lon="10.6757057"><ele>19.0</ele><time>2026-03-29T13:28:38.918Z</time></trkpt><trkpt lat="43.0191703" lon="10.6755909"><ele>19.0</ele><time>2026-03-29T13:28:39.918Z</time></trkpt><trkpt lat="43.0191292" lon="10.6754689"><ele>19.0</ele><time>2026-03-29T13:28:40.918Z</time></trkpt><trkpt lat="43.0190862" lon="10.6753459"><ele>19.0</ele><time>2026-03-29T13:28:41.918Z</time></trkpt><trkpt lat="43.0190553" lon="10.6752429"><ele>19.0</ele><time>2026-03-29T13:28:42.918Z</time></trkpt><trkpt lat="43.0190502" lon="10.6751509"><ele>19.0</ele><time>2026-03-29T13:28:43.918Z</time></trkpt><trkpt lat="43.0191213" lon="10.675031"><ele>19.0</ele><time>2026-03-29T13:28:45.918Z</time></trkpt><trkpt lat="43.0191909" lon="10.6750102"><ele>19.0</ele><time>2026-03-29T13:28:46.918Z</time></trkpt><trkpt lat="43.0192972" lon="10.6750188"><ele>19.0</ele><time>2026-03-29T13:28:47.918Z</time></trkpt><trkpt lat="43.0194481" lon="10.6750543"><ele>19.0</ele><time>2026-03-29T13:28:48.918Z</time></trkpt><trkpt lat="43.0196689" lon="10.6750969"><ele>19.0</ele><time>2026-03-29T13:28:49.918Z</time></trkpt><trkpt lat="43.019883" lon="10.6751283"><ele>19.0</ele><time>2026-03-29T13:28:50.918Z</time></trkpt><trkpt lat="43.0200811" lon="10.6751467"><ele>19.0</ele><time>2026-03-29T13:28:51.918Z</time></trkpt><trkpt lat="43.0202721" lon="10.6751572"><ele>19.0</ele><time>2026-03-29T13:28:52.918Z</time></trkpt><trkpt lat="43.0204608" lon="10.6751663"><ele>19.0</ele><time>2026-03-29T13:28:53.918Z</time></trkpt><trkpt lat="43.0206431" lon="10.6751765"><ele>18.666666666666664</ele><time>2026-03-29T13:28:54.918Z</time></trkpt><trkpt lat="43.0208257" lon="10.6751885"><ele>18.333333333333332</ele><time>2026-03-29T13:28:55.918Z</time></trkpt><trkpt lat="43.0210099" lon="10.6752002"><ele>18.0</ele><time>2026-03-29T13:28:56.918Z</time></trkpt><trkpt lat="43.021209" lon="10.6752146"><ele>18.0</ele><time>2026-03-29T13:28:57.918Z</time></trkpt><trkpt lat="43.021401" lon="10.6752287"><ele>18.0</ele><time>2026-03-29T13:28:58.918Z</time></trkpt><trkpt lat="43.0215944" lon="10.6752416"><ele>18.0</ele><time>2026-03-29T13:28:59.918Z</time></trkpt><trkpt lat="43.0217881" lon="10.6752526"><ele>18.0</ele><time>2026-03-29T13:29:00.918Z</time></trkpt><trkpt lat="43.0219856" lon="10.6752593"><ele>18.0</ele><time>2026-03-29T13:29:01.918Z</time></trkpt><trkpt lat="43.0221877" lon="10.6752681"><ele>18.0</ele><time>2026-03-29T13:29:02.918Z</time></trkpt><trkpt lat="43.0223923" lon="10.6752784"><ele>18.333333333333332</ele><time>2026-03-29T13:29:03.918Z</time></trkpt><trkpt lat="43.0225966" lon="10.6752856"><ele>18.666666666666664</ele><time>2026-03-29T13:29:04.918Z</time></trkpt><trkpt lat="43.0228049" lon="10.6752927"><ele>19.0</ele><time>2026-03-29T13:29:05.918Z</time></trkpt><trkpt lat="43.0230127" lon="10.675299"><ele>19.0</ele><time>2026-03-29T13:29:06.918Z</time></trkpt><trkpt lat="43.0232018" lon="10.675307"><ele>19.0</ele><time>2026-03-29T13:29:07.918Z</time></trkpt><trkpt lat="43.0233795" lon="10.675325"><ele>19.0</ele><time>2026-03-29T13:29:08.919Z</time></trkpt><trkpt lat="43.0235341" lon="10.6753431"><ele>18.5</ele><time>2026-03-29T13:29:09.918Z</time></trkpt><trkpt lat="43.0236759" lon="10.6753777"><ele>18.0</ele><time>2026-03-29T13:29:10.918Z</time></trkpt><trkpt lat="43.0238104" lon="10.6754555"><ele>17.5</ele><time>2026-03-29T13:29:11.918Z</time></trkpt><trkpt lat="43.0239267" lon="10.6755769"><ele>17.0</ele><time>2026-03-29T13:29:12.918Z</time></trkpt><trkpt lat="43.0239977" lon="10.6757511"><ele>17.0</ele><time>2026-03-29T13:29:13.918Z</time></trkpt><trkpt lat="43.0240532" lon="10.6759635"><ele>17.0</ele><time>2026-03-29T13:29:14.918Z</time></trkpt><trkpt lat="43.0240936" lon="10.6762154"><ele>17.0</ele><time>2026-03-29T13:29:15.918Z</time></trkpt><trkpt lat="43.0241386" lon="10.6764885"><ele>17.666666666666668</ele><time>2026-03-29T13:29:16.918Z</time></trkpt><trkpt lat="43.0241813" lon="10.6767744"><ele>18.333333333333332</ele><time>2026-03-29T13:29:17.918Z</time></trkpt><trkpt lat="43.0242206" lon="10.6770568"><ele>19.0</ele><time>2026-03-29T13:29:18.918Z</time></trkpt><trkpt lat="43.0242644" lon="10.6773285"><ele>19.333333333333332</ele><time>2026-03-29T13:29:19.918Z</time></trkpt><trkpt lat="43.0243119" lon="10.6775906"><ele>19.666666666666668</ele><time>2026-03-29T13:29:20.918Z</time></trkpt><trkpt lat="43.0243585" lon="10.6778475"><ele>20.0</ele><time>2026-03-29T13:29:21.918Z</time></trkpt><trkpt lat="43.0244099" lon="10.6781066"><ele>20.0</ele><time>2026-03-29T13:29:22.918Z</time></trkpt><trkpt lat="43.0244574" lon="10.6783752"><ele>20.0</ele><time>2026-03-29T13:29:23.918Z</time></trkpt><trkpt lat="43.0245108" lon="10.6786362"><ele>20.0</ele><time>2026-03-29T13:29:24.918Z</time></trkpt><trkpt lat="43.0245645" lon="10.6788995"><ele>20.666666666666668</ele><time>2026-03-29T13:29:25.918Z</time></trkpt><trkpt lat="43.024612" lon="10.6791582"><ele>21.333333333333332</ele><time>2026-03-29T13:29:26.918Z</time></trkpt><trkpt lat="43.0246548" lon="10.6794142"><ele>22.0</ele><time>2026-03-29T13:29:27.918Z</time></trkpt><trkpt lat="43.0247007" lon="10.6796571"><ele>23.0</ele><time>2026-03-29T13:29:28.918Z</time></trkpt><trkpt lat="43.0247364" lon="10.6798882"><ele>24.0</ele><time>2026-03-29T13:29:29.918Z</time></trkpt><trkpt lat="43.0247539" lon="10.6801044"><ele>25.0</ele><time>2026-03-29T13:29:30.918Z</time></trkpt><trkpt lat="43.0247323" lon="10.6803267"><ele>26.0</ele><time>2026-03-29T13:29:31.918Z</time></trkpt><trkpt lat="43.0246631" lon="10.6805438"><ele>27.0</ele><time>2026-03-29T13:29:32.918Z</time></trkpt><trkpt lat="43.0245526" lon="10.6807644"><ele>28.0</ele><time>2026-03-29T13:29:33.918Z</time></trkpt><trkpt lat="43.024415" lon="10.6809883"><ele>27.333333333333336</ele><time>2026-03-29T13:29:34.918Z</time></trkpt><trkpt lat="43.0242705" lon="10.6812218"><ele>26.666666666666664</ele><time>2026-03-29T13:29:35.918Z</time></trkpt><trkpt lat="43.0241416" lon="10.6814567"><ele>26.0</ele><time>2026-03-29T13:29:36.918Z</time></trkpt><trkpt lat="43.0240174" lon="10.6816776"><ele>26.0</ele><time>2026-03-29T13:29:37.918Z</time></trkpt><trkpt lat="43.0238961" lon="10.6818964"><ele>26.0</ele><time>2026-03-29T13:29:38.918Z</time></trkpt><trkpt lat="43.0237746" lon="10.6821176"><ele>26.0</ele><time>2026-03-29T13:29:39.918Z</time></trkpt><trkpt lat="43.0235437" lon="10.6825421"><ele>27.0</ele><time>2026-03-29T13:29:41.918Z</time></trkpt><trkpt lat="43.0234275" lon="10.6827522"><ele>28.0</ele><time>2026-03-29T13:29:42.918Z</time></trkpt><trkpt lat="43.0233211" lon="10.682966"><ele>29.0</ele><time>2026-03-29T13:29:43.918Z</time></trkpt><trkpt lat="43.0232264" lon="10.683204"><ele>29.333333333333332</ele><time>2026-03-29T13:29:44.918Z</time></trkpt><trkpt lat="43.0231315" lon="10.6834553"><ele>29.666666666666664</ele><time>2026-03-29T13:29:45.918Z</time></trkpt><trkpt lat="43.0230511" lon="10.6837297"><ele>30.0</ele><time>2026-03-29T13:29:46.918Z</time></trkpt><trkpt lat="43.0229822" lon="10.6840135"><ele>32.666666666666664</ele><time>2026-03-29T13:29:47.918Z</time></trkpt><trkpt lat="43.0229278" lon="10.6842939"><ele>35.33333333333333</ele><time>2026-03-29T13:29:48.918Z</time></trkpt><trkpt lat="43.0228745" lon="10.6845828"><ele>38.0</ele><time>2026-03-29T13:29:49.918Z</time></trkpt><trkpt lat="43.0228284" lon="10.6848697"><ele>39.0</ele><time>2026-03-29T13:29:50.918Z</time></trkpt><trkpt lat="43.0227782" lon="10.6851629"><ele>40.0</ele><time>2026-03-29T13:29:51.918Z</time></trkpt><trkpt lat="43.0227279" lon="10.6854498"><ele>41.0</ele><time>2026-03-29T13:29:52.918Z</time></trkpt><trkpt lat="43.0226772" lon="10.6857383"><ele>39.0</ele><time>2026-03-29T13:29:53.918Z</time></trkpt><trkpt lat="43.0226261" lon="10.6860176"><ele>37.0</ele><time>2026-03-29T13:29:54.918Z</time></trkpt><trkpt lat="43.02257" lon="10.6863046"><ele>35.0</ele><time>2026-03-29T13:29:55.918Z</time></trkpt><trkpt lat="43.0225057" lon="10.6865929"><ele>35.0</ele><time>2026-03-29T13:29:56.918Z</time></trkpt><trkpt lat="43.0224438" lon="10.6868851"><ele>35.0</ele><time>2026-03-29T13:29:57.918Z</time></trkpt><trkpt lat="43.0223845" lon="10.6871783"><ele>35.0</ele><time>2026-03-29T13:29:58.918Z</time></trkpt><trkpt lat="43.0223271" lon="10.6874622"><ele>33.666666666666664</ele><time>2026-03-29T13:29:59.918Z</time></trkpt><trkpt lat="43.0222683" lon="10.6877506"><ele>32.333333333333336</ele><time>2026-03-29T13:30:00.918Z</time></trkpt><trkpt lat="43.0221953" lon="10.6880412"><ele>31.0</ele><time>2026-03-29T13:30:01.918Z</time></trkpt><trkpt lat="43.0221229" lon="10.6883398"><ele>27.5</ele><time>2026-03-29T13:30:02.918Z</time></trkpt><trkpt lat="43.0220476" lon="10.6886345"><ele>24.0</ele><time>2026-03-29T13:30:03.918Z</time></trkpt><trkpt lat="43.0219676" lon="10.6889259"><ele>24.0</ele><time>2026-03-29T13:30:04.918Z</time></trkpt><trkpt lat="43.0218853" lon="10.6892193"><ele>24.0</ele><time>2026-03-29T13:30:05.918Z</time></trkpt><trkpt lat="43.0217992" lon="10.6895172"><ele>22.5</ele><time>2026-03-29T13:30:06.918Z</time></trkpt><trkpt lat="43.0217099" lon="10.689826"><ele>21.0</ele><time>2026-03-29T13:30:07.918Z</time></trkpt><trkpt lat="43.0216198" lon="10.6901366"><ele>21.0</ele><time>2026-03-29T13:30:08.918Z</time></trkpt><trkpt lat="43.0215272" lon="10.6904462"><ele>21.0</ele><time>2026-03-29T13:30:09.918Z</time></trkpt><trkpt lat="43.0214354" lon="10.6907533"><ele>21.0</ele><time>2026-03-29T13:30:10.918Z</time></trkpt><trkpt lat="43.0213473" lon="10.691057"><ele>21.0</ele><time>2026-03-29T13:30:11.918Z</time></trkpt><trkpt lat="43.0212564" lon="10.6913587"><ele>21.5</ele><time>2026-03-29T13:30:12.918Z</time></trkpt><trkpt lat="43.0211746" lon="10.6916594"><ele>22.0</ele><time>2026-03-29T13:30:13.918Z</time></trkpt><trkpt lat="43.0211063" lon="10.6919611"><ele>22.0</ele><time>2026-03-29T13:30:14.918Z</time></trkpt><trkpt lat="43.0210577" lon="10.6922658"><ele>22.0</ele><time>2026-03-29T13:30:15.918Z</time></trkpt><trkpt lat="43.0210312" lon="10.6925691"><ele>22.5</ele><time>2026-03-29T13:30:16.918Z</time></trkpt><trkpt lat="43.021026" lon="10.6928841"><ele>23.0</ele><time>2026-03-29T13:30:17.918Z</time></trkpt><trkpt lat="43.0210429" lon="10.6931994"><ele>23.0</ele><time>2026-03-29T13:30:18.918Z</time></trkpt><trkpt lat="43.0210687" lon="10.6935083"><ele>23.0</ele><time>2026-03-29T13:30:19.918Z</time></trkpt><trkpt lat="43.0210963" lon="10.6937987"><ele>23.0</ele><time>2026-03-29T13:30:20.918Z</time></trkpt><trkpt lat="43.0211284" lon="10.6940702"><ele>23.666666666666668</ele><time>2026-03-29T13:30:21.918Z</time></trkpt><trkpt lat="43.0211489" lon="10.6943399"><ele>24.333333333333336</ele><time>2026-03-29T13:30:22.918Z</time></trkpt><trkpt lat="43.0211675" lon="10.6945945"><ele>25.0</ele><time>2026-03-29T13:30:23.918Z</time></trkpt><trkpt lat="43.021186" lon="10.6948343"><ele>25.333333333333336</ele><time>2026-03-29T13:30:24.918Z</time></trkpt><trkpt lat="43.0212069" lon="10.6950798"><ele>25.666666666666664</ele><time>2026-03-29T13:30:25.918Z</time></trkpt><trkpt lat="43.0212601" lon="10.6953054"><ele>26.0</ele><time>2026-03-29T13:30:26.918Z</time></trkpt><trkpt lat="43.021336" lon="10.6955229"><ele>26.333333333333332</ele><time>2026-03-29T13:30:27.918Z</time></trkpt><trkpt lat="43.0214401" lon="10.695728"><ele>26.666666666666664</ele><time>2026-03-29T13:30:28.918Z</time></trkpt><trkpt lat="43.0215606" lon="10.6959226"><ele>27.0</ele><time>2026-03-29T13:30:29.918Z</time></trkpt><trkpt lat="43.0216903" lon="10.6961144"><ele>27.0</ele><time>2026-03-29T13:30:30.918Z</time></trkpt><trkpt lat="43.0218257" lon="10.6963044"><ele>27.0</ele><time>2026-03-29T13:30:31.918Z</time></trkpt><trkpt lat="43.021963" lon="10.6964981"><ele>27.0</ele><time>2026-03-29T13:30:32.918Z</time></trkpt><trkpt lat="43.0221078" lon="10.6966969"><ele>27.0</ele><time>2026-03-29T13:30:33.918Z</time></trkpt><trkpt lat="43.0222511" lon="10.6968998"><ele>27.0</ele><time>2026-03-29T13:30:34.918Z</time></trkpt><trkpt lat="43.0223883" lon="10.6970973"><ele>27.0</ele><time>2026-03-29T13:30:35.918Z</time></trkpt><trkpt lat="43.0225198" lon="10.6973033"><ele>27.0</ele><time>2026-03-29T13:30:36.918Z</time></trkpt><trkpt lat="43.0226489" lon="10.6975092"><ele>27.0</ele><time>2026-03-29T13:30:37.918Z</time></trkpt><trkpt lat="43.0227806" lon="10.6977102"><ele>27.0</ele><time>2026-03-29T13:30:38.918Z</time></trkpt><trkpt lat="43.0229176" lon="10.6979025"><ele>27.0</ele><time>2026-03-29T13:30:39.918Z</time></trkpt><trkpt lat="43.0230617" lon="10.6980937"><ele>27.0</ele><time>2026-03-29T13:30:40.918Z</time></trkpt><trkpt lat="43.0232122" lon="10.6982737"><ele>27.0</ele><time>2026-03-29T13:30:41.919Z</time></trkpt><trkpt lat="43.0233633" lon="10.6984544"><ele>28.0</ele><time>2026-03-29T13:30:42.918Z</time></trkpt><trkpt lat="43.0235204" lon="10.6986341"><ele>29.0</ele><time>2026-03-29T13:30:43.918Z</time></trkpt><trkpt lat="43.0236728" lon="10.69882"><ele>30.0</ele><time>2026-03-29T13:30:44.918Z</time></trkpt><trkpt lat="43.0238261" lon="10.699015"><ele>30.0</ele><time>2026-03-29T13:30:45.918Z</time></trkpt><trkpt lat="43.0239808" lon="10.6992078"><ele>30.0</ele><time>2026-03-29T13:30:46.918Z</time></trkpt><trkpt lat="43.0241387" lon="10.699397"><ele>30.0</ele><time>2026-03-29T13:30:47.918Z</time></trkpt><trkpt lat="43.0243065" lon="10.6995793"><ele>29.666666666666664</ele><time>2026-03-29T13:30:48.918Z</time></trkpt><trkpt lat="43.0244807" lon="10.6997462"><ele>29.333333333333332</ele><time>2026-03-29T13:30:49.918Z</time></trkpt><trkpt lat="43.0246642" lon="10.6999027"><ele>29.0</ele><time>2026-03-29T13:30:50.918Z</time></trkpt><trkpt lat="43.0248477" lon="10.7000612"><ele>29.0</ele><time>2026-03-29T13:30:51.918Z</time></trkpt><trkpt lat="43.0250322" lon="10.7002155"><ele>29.0</ele><time>2026-03-29T13:30:52.918Z</time></trkpt><trkpt lat="43.0252155" lon="10.7003701"><ele>29.0</ele><time>2026-03-29T13:30:53.918Z</time></trkpt><trkpt lat="43.0254014" lon="10.700521"><ele>29.0</ele><time>2026-03-29T13:30:54.918Z</time></trkpt><trkpt lat="43.0255877" lon="10.7006693"><ele>29.0</ele><time>2026-03-29T13:30:55.918Z</time></trkpt><trkpt lat="43.0257751" lon="10.7008175"><ele>29.0</ele><time>2026-03-29T13:30:56.918Z</time></trkpt><trkpt lat="43.0259533" lon="10.700964"><ele>29.333333333333332</ele><time>2026-03-29T13:30:57.918Z</time></trkpt><trkpt lat="43.0261314" lon="10.7011048"><ele>29.666666666666664</ele><time>2026-03-29T13:30:58.918Z</time></trkpt><trkpt lat="43.0263071" lon="10.7012483"><ele>30.0</ele><time>2026-03-29T13:30:59.918Z</time></trkpt><trkpt lat="43.0264777" lon="10.7013933"><ele>29.333333333333336</ele><time>2026-03-29T13:31:00.918Z</time></trkpt><trkpt lat="43.0266603" lon="10.7015235"><ele>28.666666666666668</ele><time>2026-03-29T13:31:01.918Z</time></trkpt><trkpt lat="43.0268499" lon="10.7016458"><ele>28.0</ele><time>2026-03-29T13:31:02.918Z</time></trkpt><trkpt lat="43.0270433" lon="10.7017583"><ele>28.0</ele><time>2026-03-29T13:31:03.918Z</time></trkpt><trkpt lat="43.0272367" lon="10.7018717"><ele>28.0</ele><time>2026-03-29T13:31:04.918Z</time></trkpt><trkpt lat="43.0274283" lon="10.70199"><ele>28.0</ele><time>2026-03-29T13:31:05.918Z</time></trkpt><trkpt lat="43.0276183" lon="10.7021067"><ele>28.333333333333336</ele><time>2026-03-29T13:31:06.918Z</time></trkpt><trkpt lat="43.027805" lon="10.7022167"><ele>28.666666666666664</ele><time>2026-03-29T13:31:07.918Z</time></trkpt><trkpt lat="43.0280033" lon="10.702315"><ele>29.0</ele><time>2026-03-29T13:31:08.918Z</time></trkpt><trkpt lat="43.0281917" lon="10.7024317"><ele>29.333333333333332</ele><time>2026-03-29T13:31:09.918Z</time></trkpt><trkpt lat="43.0283883" lon="10.70254"><ele>29.666666666666664</ele><time>2026-03-29T13:31:10.918Z</time></trkpt><trkpt lat="43.0285883" lon="10.7026367"><ele>30.0</ele><time>2026-03-29T13:31:11.918Z</time></trkpt><trkpt lat="43.0287917" lon="10.7027233"><ele>30.0</ele><time>2026-03-29T13:31:12.918Z</time></trkpt><trkpt lat="43.028995" lon="10.7028167"><ele>30.0</ele><time>2026-03-29T13:31:13.918Z</time></trkpt><trkpt lat="43.029205" lon="10.702915"><ele>30.0</ele><time>2026-03-29T13:31:14.918Z</time></trkpt><trkpt lat="43.0294117" lon="10.703"><ele>30.0</ele><time>2026-03-29T13:31:15.918Z</time></trkpt><trkpt lat="43.0296133" lon="10.7030933"><ele>30.0</ele><time>2026-03-29T13:31:16.918Z</time></trkpt><trkpt lat="43.029805" lon="10.7031833"><ele>30.0</ele><time>2026-03-29T13:31:17.918Z</time></trkpt><trkpt lat="43.030005" lon="10.7032633"><ele>30.666666666666664</ele><time>2026-03-29T13:31:18.918Z</time></trkpt><trkpt lat="43.030205" lon="10.70334"><ele>31.333333333333332</ele><time>2026-03-29T13:31:19.918Z</time></trkpt><trkpt lat="43.0304167" lon="10.7034283"><ele>32.0</ele><time>2026-03-29T13:31:20.918Z</time></trkpt><trkpt lat="43.030615" lon="10.70351"><ele>32.666666666666664</ele><time>2026-03-29T13:31:21.918Z</time></trkpt><trkpt lat="43.0308083" lon="10.7035917"><ele>33.333333333333336</ele><time>2026-03-29T13:31:22.918Z</time></trkpt><trkpt lat="43.0310017" lon="10.703665"><ele>34.0</ele><time>2026-03-29T13:31:23.918Z</time></trkpt><trkpt lat="43.031195" lon="10.70374"><ele>34.0</ele><time>2026-03-29T13:31:24.918Z</time></trkpt><trkpt lat="43.0313917" lon="10.703825"><ele>34.0</ele><time>2026-03-29T13:31:25.918Z</time></trkpt><trkpt lat="43.0315783" lon="10.703915"><ele>34.0</ele><time>2026-03-29T13:31:26.918Z</time></trkpt><trkpt lat="43.0317683" lon="10.7039867"><ele>33.333333333333336</ele><time>2026-03-29T13:31:27.918Z</time></trkpt><trkpt lat="43.0319733" lon="10.704085"><ele>32.666666666666664</ele><time>2026-03-29T13:31:28.918Z</time></trkpt><trkpt lat="43.0321767" lon="10.704195"><ele>32.0</ele><time>2026-03-29T13:31:29.918Z</time></trkpt><trkpt lat="43.0323733" lon="10.7042817"><ele>31.666666666666664</ele><time>2026-03-29T13:31:30.918Z</time></trkpt><trkpt lat="43.0325683" lon="10.7043733"><ele>31.333333333333336</ele><time>2026-03-29T13:31:31.918Z</time></trkpt><trkpt lat="43.03277" lon="10.70445"><ele>31.0</ele><time>2026-03-29T13:31:32.918Z</time></trkpt><trkpt lat="43.0329683" lon="10.7045333"><ele>32.66666666666667</ele><time>2026-03-29T13:31:33.918Z</time></trkpt><trkpt lat="43.0331617" lon="10.7046083"><ele>34.333333333333336</ele><time>2026-03-29T13:31:34.919Z</time></trkpt><trkpt lat="43.0333617" lon="10.7046917"><ele>36.0</ele><time>2026-03-29T13:31:35.918Z</time></trkpt><trkpt lat="43.0335667" lon="10.704785"><ele>36.0</ele><time>2026-03-29T13:31:36.918Z</time></trkpt><trkpt lat="43.033765" lon="10.704875"><ele>36.0</ele><time>2026-03-29T13:31:37.918Z</time></trkpt><trkpt lat="43.0339683" lon="10.70496"><ele>36.0</ele><time>2026-03-29T13:31:38.918Z</time></trkpt><trkpt lat="43.0341717" lon="10.70505"><ele>35.333333333333336</ele><time>2026-03-29T13:31:39.918Z</time></trkpt><trkpt lat="43.0343717" lon="10.7051367"><ele>34.66666666666667</ele><time>2026-03-29T13:31:40.918Z</time></trkpt><trkpt lat="43.0345717" lon="10.7052267"><ele>34.0</ele><time>2026-03-29T13:31:41.918Z</time></trkpt><trkpt lat="43.0347817" lon="10.705305"><ele>33.66666666666667</ele><time>2026-03-29T13:31:42.918Z</time></trkpt><trkpt lat="43.0349833" lon="10.70538"><ele>33.333333333333336</ele><time>2026-03-29T13:31:43.918Z</time></trkpt><trkpt lat="43.0351783" lon="10.7054533"><ele>33.0</ele><time>2026-03-29T13:31:44.918Z</time></trkpt><trkpt lat="43.0353783" lon="10.7055283"><ele>33.0</ele><time>2026-03-29T13:31:45.918Z</time></trkpt><trkpt lat="43.0355717" lon="10.705625"><ele>33.0</ele><time>2026-03-29T13:31:46.918Z</time></trkpt><trkpt lat="43.035765" lon="10.7057017"><ele>33.0</ele><time>2026-03-29T13:31:47.918Z</time></trkpt><trkpt lat="43.0359467" lon="10.70579"><ele>33.0</ele><time>2026-03-29T13:31:48.918Z</time></trkpt><trkpt lat="43.0361367" lon="10.7058833"><ele>33.0</ele><time>2026-03-29T13:31:49.918Z</time></trkpt><trkpt lat="43.0363333" lon="10.7059667"><ele>33.0</ele><time>2026-03-29T13:31:50.918Z</time></trkpt><trkpt lat="43.0365183" lon="10.7060467"><ele>33.333333333333336</ele><time>2026-03-29T13:31:51.918Z</time></trkpt><trkpt lat="43.0367117" lon="10.70614"><ele>33.66666666666667</ele><time>2026-03-29T13:31:52.918Z</time></trkpt><trkpt lat="43.0369017" lon="10.706225"><ele>34.0</ele><time>2026-03-29T13:31:53.918Z</time></trkpt><trkpt lat="43.0371" lon="10.70631"><ele>34.0</ele><time>2026-03-29T13:31:54.918Z</time></trkpt><trkpt lat="43.0373033" lon="10.7064117"><ele>34.0</ele><time>2026-03-29T13:31:55.918Z</time></trkpt><trkpt lat="43.0375017" lon="10.7065"><ele>34.0</ele><time>2026-03-29T13:31:56.918Z</time></trkpt><trkpt lat="43.0377033" lon="10.7065817"><ele>33.333333333333336</ele><time>2026-03-29T13:31:57.919Z</time></trkpt><trkpt lat="43.037905" lon="10.7066667"><ele>32.666666666666664</ele><time>2026-03-29T13:31:58.918Z</time></trkpt><trkpt lat="43.0381033" lon="10.7067533"><ele>32.0</ele><time>2026-03-29T13:31:59.918Z</time></trkpt><trkpt lat="43.0383033" lon="10.7068417"><ele>32.666666666666664</ele><time>2026-03-29T13:32:00.918Z</time></trkpt><trkpt lat="43.0385067" lon="10.7069283"><ele>33.333333333333336</ele><time>2026-03-29T13:32:01.918Z</time></trkpt><trkpt lat="43.03871" lon="10.7070067"><ele>34.0</ele><time>2026-03-29T13:32:02.918Z</time></trkpt><trkpt lat="43.0388967" lon="10.7070967"><ele>34.0</ele><time>2026-03-29T13:32:03.918Z</time></trkpt><trkpt lat="43.03908" lon="10.7071767"><ele>34.0</ele><time>2026-03-29T13:32:04.918Z</time></trkpt><trkpt lat="43.03926" lon="10.7072533"><ele>34.0</ele><time>2026-03-29T13:32:05.918Z</time></trkpt><trkpt lat="43.0394533" lon="10.7073333"><ele>33.333333333333336</ele><time>2026-03-29T13:32:06.918Z</time></trkpt><trkpt lat="43.0396467" lon="10.70741"><ele>32.666666666666664</ele><time>2026-03-29T13:32:07.918Z</time></trkpt><trkpt lat="43.0398317" lon="10.7074867"><ele>32.0</ele><time>2026-03-29T13:32:08.918Z</time></trkpt><trkpt lat="43.0400183" lon="10.7075583"><ele>32.0</ele><time>2026-03-29T13:32:09.918Z</time></trkpt><trkpt lat="43.0402" lon="10.7076283"><ele>32.0</ele><time>2026-03-29T13:32:10.918Z</time></trkpt><trkpt lat="43.0403717" lon="10.7077"><ele>32.0</ele><time>2026-03-29T13:32:11.918Z</time></trkpt><trkpt lat="43.04054" lon="10.7077667"><ele>32.0</ele><time>2026-03-29T13:32:12.918Z</time></trkpt><trkpt lat="43.0407117" lon="10.7078433"><ele>32.0</ele><time>2026-03-29T13:32:13.918Z</time></trkpt><trkpt lat="43.040875" lon="10.7079267"><ele>32.0</ele><time>2026-03-29T13:32:14.918Z</time></trkpt><trkpt lat="43.0410317" lon="10.7080133"><ele>31.666666666666664</ele><time>2026-03-29T13:32:15.918Z</time></trkpt><trkpt lat="43.04118" lon="10.708075"><ele>31.333333333333336</ele><time>2026-03-29T13:32:16.918Z</time></trkpt><trkpt lat="43.0413333" lon="10.708135"><ele>31.0</ele><time>2026-03-29T13:32:17.918Z</time></trkpt><trkpt lat="43.041485" lon="10.7081883"><ele>31.333333333333336</ele><time>2026-03-29T13:32:18.918Z</time></trkpt><trkpt lat="43.041635" lon="10.7082583"><ele>31.666666666666664</ele><time>2026-03-29T13:32:19.919Z</time></trkpt><trkpt lat="43.0417833" lon="10.7083267"><ele>32.0</ele><time>2026-03-29T13:32:20.918Z</time></trkpt><trkpt lat="43.0419183" lon="10.7083833"><ele>32.0</ele><time>2026-03-29T13:32:21.918Z</time></trkpt><trkpt lat="43.0420383" lon="10.708435"><ele>32.0</ele><time>2026-03-29T13:32:22.918Z</time></trkpt><trkpt lat="43.042135" lon="10.7084783"><ele>32.0</ele><time>2026-03-29T13:32:23.918Z</time></trkpt><trkpt lat="43.0422233" lon="10.7085217"><ele>32.0</ele><time>2026-03-29T13:32:24.918Z</time></trkpt><trkpt lat="43.0423083" lon="10.7085683"><ele>32.0</ele><time>2026-03-29T13:32:25.918Z</time></trkpt><trkpt lat="43.0423917" lon="10.708605"><ele>33.0</ele><time>2026-03-29T13:32:26.918Z</time></trkpt><trkpt lat="43.0424783" lon="10.70864"><ele>34.0</ele><time>2026-03-29T13:32:27.918Z</time></trkpt><trkpt lat="43.04257" lon="10.7086767"><ele>35.0</ele><time>2026-03-29T13:32:28.918Z</time></trkpt><trkpt lat="43.0426733" lon="10.7087083"><ele>36.0</ele><time>2026-03-29T13:32:29.918Z</time></trkpt><trkpt lat="43.0427783" lon="10.7087367"><ele>37.0</ele><time>2026-03-29T13:32:30.918Z</time></trkpt><trkpt lat="43.042875" lon="10.7087833"><ele>37.0</ele><time>2026-03-29T13:32:31.918Z</time></trkpt><trkpt lat="43.0429707" lon="10.7088288"><ele>37.0</ele><time>2026-03-29T13:32:32.918Z</time></trkpt><trkpt lat="43.0430681" lon="10.7088751"><ele>37.0</ele><time>2026-03-29T13:32:33.918Z</time></trkpt><trkpt lat="43.0431734" lon="10.7089223"><ele>37.0</ele><time>2026-03-29T13:32:34.918Z</time></trkpt><trkpt lat="43.0432795" lon="10.7089656"><ele>37.0</ele><time>2026-03-29T13:32:35.918Z</time></trkpt><trkpt lat="43.0433806" lon="10.7090118"><ele>34.0</ele><time>2026-03-29T13:32:36.918Z</time></trkpt><trkpt lat="43.0434714" lon="10.709052"><ele>34.0</ele><time>2026-03-29T13:32:37.918Z</time></trkpt><trkpt lat="43.0435439" lon="10.7090811"><ele>34.0</ele><time>2026-03-29T13:32:38.918Z</time></trkpt><trkpt lat="43.0436198" lon="10.7091097"><ele>34.0</ele><time>2026-03-29T13:32:40.918Z</time></trkpt></trkseg><trkseg><trkpt lat="43.0437967" lon="10.7091983"><ele>34.0</ele><time>2026-03-29T13:44:54.916Z</time></trkpt><trkpt lat="43.0438783" lon="10.709225"><ele>34.0</ele><time>2026-03-29T13:44:55.916Z</time></trkpt><trkpt lat="43.0439717" lon="10.7092583"><ele>34.0</ele><time>2026-03-29T13:44:56.916Z</time></trkpt><trkpt lat="43.0440733" lon="10.709305"><ele>34.0</ele><time>2026-03-29T13:44:57.916Z</time></trkpt><trkpt lat="43.0442033" lon="10.7093617"><ele>34.0</ele><time>2026-03-29T13:44:58.916Z</time></trkpt><trkpt lat="43.0443617" lon="10.7094417"><ele>34.66666666666667</ele><time>2026-03-29T13:44:59.916Z</time></trkpt><trkpt lat="43.044525" lon="10.7095167"><ele>35.333333333333336</ele><time>2026-03-29T13:45:00.916Z</time></trkpt><trkpt lat="43.0446767" lon="10.7095883"><ele>36.0</ele><time>2026-03-29T13:45:01.916Z</time></trkpt><trkpt lat="43.0448267" lon="10.709665"><ele>35.0</ele><time>2026-03-29T13:45:02.916Z</time></trkpt><trkpt lat="43.0449867" lon="10.7097483"><ele>34.0</ele><time>2026-03-29T13:45:03.916Z</time></trkpt><trkpt lat="43.0451517" lon="10.7098467"><ele>33.0</ele><time>2026-03-29T13:45:04.916Z</time></trkpt><trkpt lat="43.0453083" lon="10.7099233"><ele>33.0</ele><time>2026-03-29T13:45:05.916Z</time></trkpt><trkpt lat="43.0454617" lon="10.71001"><ele>33.0</ele><time>2026-03-29T13:45:06.916Z</time></trkpt><trkpt lat="43.0456033" lon="10.7101"><ele>33.0</ele><time>2026-03-29T13:45:07.916Z</time></trkpt><trkpt lat="43.04573" lon="10.710185"><ele>35.0</ele><time>2026-03-29T13:45:08.916Z</time></trkpt><trkpt lat="43.0458583" lon="10.7102583"><ele>37.0</ele><time>2026-03-29T13:45:09.916Z</time></trkpt><trkpt lat="43.0459767" lon="10.71034"><ele>39.0</ele><time>2026-03-29T13:45:10.916Z</time></trkpt><trkpt lat="43.0461033" lon="10.71045"><ele>41.0</ele><time>2026-03-29T13:45:11.916Z</time></trkpt><trkpt lat="43.04624" lon="10.7105317"><ele>41.0</ele><time>2026-03-29T13:45:12.916Z</time></trkpt><trkpt lat="43.046365" lon="10.7106233"><ele>41.0</ele><time>2026-03-29T13:45:13.916Z</time></trkpt><trkpt lat="43.0465" lon="10.710725"><ele>41.0</ele><time>2026-03-29T13:45:14.917Z</time></trkpt><trkpt lat="43.0466383" lon="10.7108317"><ele>40.666666666666664</ele><time>2026-03-29T13:45:15.916Z</time></trkpt><trkpt lat="43.046785" lon="10.7109533"><ele>40.333333333333336</ele><time>2026-03-29T13:45:16.916Z</time></trkpt><trkpt lat="43.0469267" lon="10.7110933"><ele>40.0</ele><time>2026-03-29T13:45:17.916Z</time></trkpt><trkpt lat="43.0470783" lon="10.7112383"><ele>43.0</ele><time>2026-03-29T13:45:18.916Z</time></trkpt><trkpt lat="43.0472233" lon="10.711405"><ele>46.0</ele><time>2026-03-29T13:45:19.916Z</time></trkpt><trkpt lat="43.0475367" lon="10.7117283"><ele>49.5</ele><time>2026-03-29T13:45:21.916Z</time></trkpt><trkpt lat="43.0478383" lon="10.7120583"><ele>53.0</ele><time>2026-03-29T13:45:23.916Z</time></trkpt><trkpt lat="43.0479783" lon="10.71221"><ele>53.0</ele><time>2026-03-29T13:45:24.916Z</time></trkpt><trkpt lat="43.0481167" lon="10.712385"><ele>53.0</ele><time>2026-03-29T13:45:25.916Z</time></trkpt><trkpt lat="43.0482617" lon="10.71257"><ele>53.0</ele><time>2026-03-29T13:45:26.916Z</time></trkpt><trkpt lat="43.0484033" lon="10.7127567"><ele>48.333333333333336</ele><time>2026-03-29T13:45:27.916Z</time></trkpt><trkpt lat="43.0485467" lon="10.712935"><ele>43.66666666666667</ele><time>2026-03-29T13:45:28.916Z</time></trkpt><trkpt lat="43.0486733" lon="10.7131033"><ele>39.0</ele><time>2026-03-29T13:45:29.916Z</time></trkpt><trkpt lat="43.0487933" lon="10.7132683"><ele>39.0</ele><time>2026-03-29T13:45:30.916Z</time></trkpt><trkpt lat="43.0489133" lon="10.713435"><ele>39.0</ele><time>2026-03-29T13:45:31.916Z</time></trkpt><trkpt lat="43.049035" lon="10.7136017"><ele>39.0</ele><time>2026-03-29T13:45:32.916Z</time></trkpt><trkpt lat="43.0491667" lon="10.7137683"><ele>37.666666666666664</ele><time>2026-03-29T13:45:33.916Z</time></trkpt><trkpt lat="43.0493033" lon="10.7139383"><ele>36.33333333333333</ele><time>2026-03-29T13:45:34.916Z</time></trkpt><trkpt lat="43.0494367" lon="10.7141067"><ele>35.0</ele><time>2026-03-29T13:45:35.916Z</time></trkpt><trkpt lat="43.04956" lon="10.7142817"><ele>34.666666666666664</ele><time>2026-03-29T13:45:36.916Z</time></trkpt><trkpt lat="43.0496967" lon="10.71445"><ele>34.333333333333336</ele><time>2026-03-29T13:45:37.916Z</time></trkpt><trkpt lat="43.0498383" lon="10.71462"><ele>34.0</ele><time>2026-03-29T13:45:38.916Z</time></trkpt><trkpt lat="43.0499783" lon="10.7147817"><ele>34.333333333333336</ele><time>2026-03-29T13:45:39.916Z</time></trkpt><trkpt lat="43.0501183" lon="10.7149567"><ele>34.666666666666664</ele><time>2026-03-29T13:45:40.916Z</time></trkpt><trkpt lat="43.0502583" lon="10.7151383"><ele>35.0</ele><time>2026-03-29T13:45:41.916Z</time></trkpt><trkpt lat="43.0503917" lon="10.7153283"><ele>35.0</ele><time>2026-03-29T13:45:42.916Z</time></trkpt><trkpt lat="43.05053" lon="10.71551"><ele>35.0</ele><time>2026-03-29T13:45:43.916Z</time></trkpt><trkpt lat="43.0506733" lon="10.7156867"><ele>35.0</ele><time>2026-03-29T13:45:44.916Z</time></trkpt><trkpt lat="43.050815" lon="10.7158617"><ele>35.0</ele><time>2026-03-29T13:45:45.916Z</time></trkpt><trkpt lat="43.0509517" lon="10.7160467"><ele>35.0</ele><time>2026-03-29T13:45:46.916Z</time></trkpt><trkpt lat="43.05109" lon="10.7162233"><ele>35.0</ele><time>2026-03-29T13:45:47.916Z</time></trkpt><trkpt lat="43.05122" lon="10.7164083"><ele>35.0</ele><time>2026-03-29T13:45:48.916Z</time></trkpt><trkpt lat="43.051365" lon="10.7165983"><ele>35.0</ele><time>2026-03-29T13:45:49.916Z</time></trkpt><trkpt lat="43.0515183" lon="10.7167833"><ele>35.0</ele><time>2026-03-29T13:45:50.916Z</time></trkpt><trkpt lat="43.0516683" lon="10.7169633"><ele>36.0</ele><time>2026-03-29T13:45:51.916Z</time></trkpt><trkpt lat="43.0518167" lon="10.71714"><ele>37.0</ele><time>2026-03-29T13:45:52.916Z</time></trkpt><trkpt lat="43.05196" lon="10.71733"><ele>38.0</ele><time>2026-03-29T13:45:53.916Z</time></trkpt><trkpt lat="43.0520983" lon="10.7175167"><ele>38.0</ele><time>2026-03-29T13:45:54.916Z</time></trkpt><trkpt lat="43.0522483" lon="10.7177067"><ele>38.0</ele><time>2026-03-29T13:45:55.916Z</time></trkpt><trkpt lat="43.0523917" lon="10.7178933"><ele>38.0</ele><time>2026-03-29T13:45:56.916Z</time></trkpt><trkpt lat="43.0525417" lon="10.71809"><ele>38.33333333333333</ele><time>2026-03-29T13:45:57.916Z</time></trkpt><trkpt lat="43.0526917" lon="10.7182917"><ele>38.666666666666664</ele><time>2026-03-29T13:45:58.916Z</time></trkpt><trkpt lat="43.05284" lon="10.7184883"><ele>39.0</ele><time>2026-03-29T13:45:59.916Z</time></trkpt><trkpt lat="43.0529883" lon="10.71868"><ele>39.0</ele><time>2026-03-29T13:46:00.916Z</time></trkpt><trkpt lat="43.053135" lon="10.7188717"><ele>39.0</ele><time>2026-03-29T13:46:01.916Z</time></trkpt><trkpt lat="43.0532833" lon="10.7190583"><ele>39.0</ele><time>2026-03-29T13:46:02.916Z</time></trkpt><trkpt lat="43.0534367" lon="10.7192533"><ele>41.0</ele><time>2026-03-29T13:46:03.916Z</time></trkpt><trkpt lat="43.0535883" lon="10.7194417"><ele>43.0</ele><time>2026-03-29T13:46:04.916Z</time></trkpt><trkpt lat="43.0537417" lon="10.7196367"><ele>45.0</ele><time>2026-03-29T13:46:05.916Z</time></trkpt><trkpt lat="43.053895" lon="10.71983"><ele>45.0</ele><time>2026-03-29T13:46:06.916Z</time></trkpt><trkpt lat="43.0540533" lon="10.7200333"><ele>45.0</ele><time>2026-03-29T13:46:07.916Z</time></trkpt><trkpt lat="43.054205" lon="10.7202183"><ele>45.0</ele><time>2026-03-29T13:46:08.917Z</time></trkpt><trkpt lat="43.054345" lon="10.7204017"><ele>45.0</ele><time>2026-03-29T13:46:09.916Z</time></trkpt><trkpt lat="43.0544821" lon="10.7205763"><ele>45.0</ele><time>2026-03-29T13:46:10.916Z</time></trkpt><trkpt lat="43.0546064" lon="10.720745"><ele>45.0</ele><time>2026-03-29T13:46:11.916Z</time></trkpt><trkpt lat="43.0547285" lon="10.7209081"><ele>45.0</ele><time>2026-03-29T13:46:12.916Z</time></trkpt><trkpt lat="43.0548439" lon="10.7210634"><ele>45.0</ele><time>2026-03-29T13:46:13.916Z</time></trkpt><trkpt lat="43.0549503" lon="10.7212135"><ele>45.0</ele><time>2026-03-29T13:46:14.916Z</time></trkpt><trkpt lat="43.055054" lon="10.7213531"><ele>45.4</ele><time>2026-03-29T13:46:15.916Z</time></trkpt><trkpt lat="43.0551526" lon="10.7214766"><ele>45.8</ele><time>2026-03-29T13:46:16.916Z</time></trkpt><trkpt lat="43.0552375" lon="10.7215918"><ele>46.2</ele><time>2026-03-29T13:46:17.916Z</time></trkpt><trkpt lat="43.0553038" lon="10.7216852"><ele>46.6</ele><time>2026-03-29T13:46:18.916Z</time></trkpt><trkpt lat="43.0553506" lon="10.7217552"><ele>47.0</ele><time>2026-03-29T13:46:19.916Z</time></trkpt><trkpt lat="43.0553952" lon="10.7218647"><ele>48.0</ele><time>2026-03-29T13:46:21.916Z</time></trkpt><trkpt lat="43.0554417" lon="10.7219817"><ele>49.0</ele><time>2026-03-29T13:47:33.917Z</time></trkpt><trkpt lat="43.05556" lon="10.7220533"><ele>50.0</ele><time>2026-03-29T13:47:35.916Z</time></trkpt><trkpt lat="43.0556333" lon="10.7220967"><ele>51.0</ele><time>2026-03-29T13:47:36.916Z</time></trkpt><trkpt lat="43.0557117" lon="10.7221667"><ele>52.0</ele><time>2026-03-29T13:47:37.916Z</time></trkpt><trkpt lat="43.0557967" lon="10.7222667"><ele>52.666666666666664</ele><time>2026-03-29T13:47:38.916Z</time></trkpt><trkpt lat="43.0559133" lon="10.72241"><ele>53.33333333333333</ele><time>2026-03-29T13:47:39.916Z</time></trkpt><trkpt lat="43.05603" lon="10.722565"><ele>54.0</ele><time>2026-03-29T13:47:40.916Z</time></trkpt><trkpt lat="43.0561517" lon="10.7227267"><ele>55.0</ele><time>2026-03-29T13:47:41.916Z</time></trkpt><trkpt lat="43.0562833" lon="10.7228867"><ele>56.0</ele><time>2026-03-29T13:47:42.917Z</time></trkpt><trkpt lat="43.0564083" lon="10.723055"><ele>57.0</ele><time>2026-03-29T13:47:43.916Z</time></trkpt><trkpt lat="43.0565233" lon="10.7232133"><ele>57.0</ele><time>2026-03-29T13:47:44.916Z</time></trkpt><trkpt lat="43.0566417" lon="10.7233783"><ele>57.0</ele><time>2026-03-29T13:47:45.917Z</time></trkpt><trkpt lat="43.05676" lon="10.72354"><ele>57.0</ele><time>2026-03-29T13:47:46.916Z</time></trkpt><trkpt lat="43.0568867" lon="10.7237067"><ele>57.0</ele><time>2026-03-29T13:47:47.916Z</time></trkpt><trkpt lat="43.0570217" lon="10.723875"><ele>57.0</ele><time>2026-03-29T13:47:48.916Z</time></trkpt><trkpt lat="43.057155" lon="10.72404"><ele>57.0</ele><time>2026-03-29T13:47:49.916Z</time></trkpt><trkpt lat="43.0572867" lon="10.7242017"><ele>57.0</ele><time>2026-03-29T13:47:50.916Z</time></trkpt><trkpt lat="43.0574217" lon="10.7243733"><ele>57.0</ele><time>2026-03-29T13:47:51.916Z</time></trkpt><trkpt lat="43.0575617" lon="10.724555"><ele>57.0</ele><time>2026-03-29T13:47:52.916Z</time></trkpt><trkpt lat="43.057705" lon="10.7247433"><ele>56.33333333333333</ele><time>2026-03-29T13:47:53.916Z</time></trkpt><trkpt lat="43.0578433" lon="10.7249183"><ele>55.666666666666664</ele><time>2026-03-29T13:47:54.916Z</time></trkpt><trkpt lat="43.0579817" lon="10.72509"><ele>55.0</ele><time>2026-03-29T13:47:55.915Z</time></trkpt><trkpt lat="43.0581217" lon="10.7252583"><ele>55.0</ele><time>2026-03-29T13:47:56.915Z</time></trkpt><trkpt lat="43.0582567" lon="10.7254467"><ele>55.0</ele><time>2026-03-29T13:47:57.915Z</time></trkpt><trkpt lat="43.0584017" lon="10.7256283"><ele>55.0</ele><time>2026-03-29T13:47:58.915Z</time></trkpt><trkpt lat="43.0585467" lon="10.7258067"><ele>53.33333333333333</ele><time>2026-03-29T13:47:59.915Z</time></trkpt><trkpt lat="43.0587017" lon="10.7260017"><ele>51.66666666666667</ele><time>2026-03-29T13:48:00.915Z</time></trkpt><trkpt lat="43.058865" lon="10.726195"><ele>50.0</ele><time>2026-03-29T13:48:01.915Z</time></trkpt><trkpt lat="43.05902" lon="10.7263883"><ele>49.333333333333336</ele><time>2026-03-29T13:48:02.915Z</time></trkpt><trkpt lat="43.05917" lon="10.7265867"><ele>48.66666666666667</ele><time>2026-03-29T13:48:03.915Z</time></trkpt><trkpt lat="43.0593367" lon="10.7267867"><ele>48.0</ele><time>2026-03-29T13:48:04.915Z</time></trkpt><trkpt lat="43.0595017" lon="10.7269967"><ele>48.0</ele><time>2026-03-29T13:48:05.916Z</time></trkpt><trkpt lat="43.0596533" lon="10.7272167"><ele>48.0</ele><time>2026-03-29T13:48:06.915Z</time></trkpt><trkpt lat="43.0598167" lon="10.7274283"><ele>48.0</ele><time>2026-03-29T13:48:07.915Z</time></trkpt><trkpt lat="43.0599817" lon="10.7276417"><ele>48.0</ele><time>2026-03-29T13:48:08.915Z</time></trkpt><trkpt lat="43.0601483" lon="10.7278617"><ele>48.0</ele><time>2026-03-29T13:48:09.915Z</time></trkpt><trkpt lat="43.0603183" lon="10.72807"><ele>48.0</ele><time>2026-03-29T13:48:10.915Z</time></trkpt><trkpt lat="43.06048" lon="10.7282883"><ele>48.0</ele><time>2026-03-29T13:48:11.915Z</time></trkpt><trkpt lat="43.0606367" lon="10.728495"><ele>48.0</ele><time>2026-03-29T13:48:12.916Z</time></trkpt><trkpt lat="43.0608" lon="10.7287133"><ele>48.33333333333333</ele><time>2026-03-29T13:48:13.915Z</time></trkpt><trkpt lat="43.06096" lon="10.7289133"><ele>48.666666666666664</ele><time>2026-03-29T13:48:14.915Z</time></trkpt><trkpt lat="43.0611183" lon="10.729115"><ele>49.0</ele><time>2026-03-29T13:48:15.915Z</time></trkpt><trkpt lat="43.0612733" lon="10.7293167"><ele>49.33333333333333</ele><time>2026-03-29T13:48:16.916Z</time></trkpt><trkpt lat="43.06143" lon="10.7295267"><ele>49.66666666666667</ele><time>2026-03-29T13:48:17.915Z</time></trkpt><trkpt lat="43.0616" lon="10.7297367"><ele>50.0</ele><time>2026-03-29T13:48:18.915Z</time></trkpt><trkpt lat="43.0617633" lon="10.7299517"><ele>50.0</ele><time>2026-03-29T13:48:19.915Z</time></trkpt><trkpt lat="43.0619283" lon="10.7301533"><ele>50.0</ele><time>2026-03-29T13:48:20.915Z</time></trkpt><trkpt lat="43.062075" lon="10.730345"><ele>50.0</ele><time>2026-03-29T13:48:21.915Z</time></trkpt><trkpt lat="43.0622167" lon="10.7305333"><ele>50.0</ele><time>2026-03-29T13:48:22.915Z</time></trkpt><trkpt lat="43.0623667" lon="10.7307167"><ele>50.0</ele><time>2026-03-29T13:48:23.915Z</time></trkpt><trkpt lat="43.0625167" lon="10.7309133"><ele>50.0</ele><time>2026-03-29T13:48:24.915Z</time></trkpt><trkpt lat="43.062665" lon="10.73111"><ele>50.66666666666667</ele><time>2026-03-29T13:48:25.915Z</time></trkpt><trkpt lat="43.0628133" lon="10.7313083"><ele>51.33333333333333</ele><time>2026-03-29T13:48:26.915Z</time></trkpt><trkpt lat="43.0629567" lon="10.7314983"><ele>52.0</ele><time>2026-03-29T13:48:27.916Z</time></trkpt><trkpt lat="43.0631067" lon="10.731695"><ele>52.0</ele><time>2026-03-29T13:48:28.916Z</time></trkpt><trkpt lat="43.063245" lon="10.7318917"><ele>52.0</ele><time>2026-03-29T13:48:29.915Z</time></trkpt><trkpt lat="43.0633867" lon="10.7320833"><ele>52.0</ele><time>2026-03-29T13:48:30.915Z</time></trkpt><trkpt lat="43.06354" lon="10.7322833"><ele>52.33333333333333</ele><time>2026-03-29T13:48:31.915Z</time></trkpt><trkpt lat="43.0636967" lon="10.732475"><ele>52.66666666666667</ele><time>2026-03-29T13:48:32.915Z</time></trkpt><trkpt lat="43.0638517" lon="10.7326783"><ele>53.0</ele><time>2026-03-29T13:48:33.915Z</time></trkpt><trkpt lat="43.064015" lon="10.7328867"><ele>52.0</ele><time>2026-03-29T13:48:34.915Z</time></trkpt><trkpt lat="43.06418" lon="10.7331017"><ele>51.0</ele><time>2026-03-29T13:48:35.915Z</time></trkpt><trkpt lat="43.06435" lon="10.7333267"><ele>51.0</ele><time>2026-03-29T13:48:36.915Z</time></trkpt><trkpt lat="43.0645117" lon="10.7335567"><ele>51.0</ele><time>2026-03-29T13:48:37.915Z</time></trkpt><trkpt lat="43.0646667" lon="10.733785"><ele>51.0</ele><time>2026-03-29T13:48:38.915Z</time></trkpt><trkpt lat="43.0648217" lon="10.7340117"><ele>51.0</ele><time>2026-03-29T13:48:39.915Z</time></trkpt><trkpt lat="43.0649683" lon="10.7342417"><ele>51.33333333333333</ele><time>2026-03-29T13:48:40.916Z</time></trkpt><trkpt lat="43.0651133" lon="10.734475"><ele>51.666666666666664</ele><time>2026-03-29T13:48:41.915Z</time></trkpt><trkpt lat="43.0652533" lon="10.7347033"><ele>52.0</ele><time>2026-03-29T13:48:42.915Z</time></trkpt><trkpt lat="43.0653933" lon="10.7349367"><ele>52.0</ele><time>2026-03-29T13:48:43.915Z</time></trkpt><trkpt lat="43.065535" lon="10.7351917"><ele>52.0</ele><time>2026-03-29T13:48:44.915Z</time></trkpt><trkpt lat="43.06568" lon="10.7354467"><ele>52.5</ele><time>2026-03-29T13:48:45.915Z</time></trkpt><trkpt lat="43.0658117" lon="10.7357017"><ele>53.0</ele><time>2026-03-29T13:48:46.915Z</time></trkpt><trkpt lat="43.065945" lon="10.735955"><ele>53.0</ele><time>2026-03-29T13:48:47.915Z</time></trkpt><trkpt lat="43.06608" lon="10.736215"><ele>53.0</ele><time>2026-03-29T13:48:48.915Z</time></trkpt><trkpt lat="43.0662117" lon="10.7364817"><ele>53.0</ele><time>2026-03-29T13:48:49.915Z</time></trkpt><trkpt lat="43.0663367" lon="10.7367467"><ele>53.0</ele><time>2026-03-29T13:48:50.915Z</time></trkpt><trkpt lat="43.0664583" lon="10.7370217"><ele>53.0</ele><time>2026-03-29T13:48:51.915Z</time></trkpt><trkpt lat="43.0665767" lon="10.7372767"><ele>53.0</ele><time>2026-03-29T13:48:52.915Z</time></trkpt><trkpt lat="43.0666917" lon="10.7375283"><ele>53.0</ele><time>2026-03-29T13:48:53.915Z</time></trkpt><trkpt lat="43.0668" lon="10.73779"><ele>53.333333333333336</ele><time>2026-03-29T13:48:54.915Z</time></trkpt><trkpt lat="43.06691" lon="10.73805"><ele>53.66666666666667</ele><time>2026-03-29T13:48:55.915Z</time></trkpt><trkpt lat="43.0670233" lon="10.7383033"><ele>54.0</ele><time>2026-03-29T13:48:56.915Z</time></trkpt><trkpt lat="43.0671333" lon="10.7385683"><ele>54.0</ele><time>2026-03-29T13:48:57.915Z</time></trkpt><trkpt lat="43.067245" lon="10.73884"><ele>54.0</ele><time>2026-03-29T13:48:58.915Z</time></trkpt><trkpt lat="43.0673617" lon="10.739125"><ele>54.5</ele><time>2026-03-29T13:48:59.915Z</time></trkpt><trkpt lat="43.0674817" lon="10.7394067"><ele>55.0</ele><time>2026-03-29T13:49:00.915Z</time></trkpt><trkpt lat="43.0675983" lon="10.7396883"><ele>55.0</ele><time>2026-03-29T13:49:01.915Z</time></trkpt><trkpt lat="43.0677167" lon="10.7399583"><ele>55.0</ele><time>2026-03-29T13:49:02.915Z</time></trkpt><trkpt lat="43.0678317" lon="10.7402167"><ele>54.666666666666664</ele><time>2026-03-29T13:49:03.915Z</time></trkpt><trkpt lat="43.0679417" lon="10.7404733"><ele>54.33333333333333</ele><time>2026-03-29T13:49:04.915Z</time></trkpt><trkpt lat="43.0680517" lon="10.7407267"><ele>54.0</ele><time>2026-03-29T13:49:05.915Z</time></trkpt><trkpt lat="43.06816" lon="10.7409833"><ele>54.5</ele><time>2026-03-29T13:49:06.915Z</time></trkpt><trkpt lat="43.068275" lon="10.7412483"><ele>55.0</ele><time>2026-03-29T13:49:07.915Z</time></trkpt><trkpt lat="43.068385" lon="10.7415283"><ele>55.0</ele><time>2026-03-29T13:49:08.915Z</time></trkpt><trkpt lat="43.0685" lon="10.7418017"><ele>55.0</ele><time>2026-03-29T13:49:09.915Z</time></trkpt><trkpt lat="43.0686217" lon="10.7420733"><ele>55.5</ele><time>2026-03-29T13:49:10.915Z</time></trkpt><trkpt lat="43.0687333" lon="10.7423567"><ele>56.0</ele><time>2026-03-29T13:49:11.916Z</time></trkpt><trkpt lat="43.0688533" lon="10.74263"><ele>56.5</ele><time>2026-03-29T13:49:12.915Z</time></trkpt><trkpt lat="43.068975" lon="10.7429083"><ele>57.0</ele><time>2026-03-29T13:49:13.915Z</time></trkpt><trkpt lat="43.0691017" lon="10.7431883"><ele>57.5</ele><time>2026-03-29T13:49:14.915Z</time></trkpt><trkpt lat="43.069215" lon="10.743465"><ele>58.0</ele><time>2026-03-29T13:49:15.915Z</time></trkpt><trkpt lat="43.069335" lon="10.7437333"><ele>58.5</ele><time>2026-03-29T13:49:16.915Z</time></trkpt><trkpt lat="43.0694433" lon="10.7440033"><ele>59.0</ele><time>2026-03-29T13:49:17.915Z</time></trkpt><trkpt lat="43.0695583" lon="10.7442733"><ele>59.0</ele><time>2026-03-29T13:49:18.915Z</time></trkpt><trkpt lat="43.0696733" lon="10.7445483"><ele>59.0</ele><time>2026-03-29T13:49:19.915Z</time></trkpt><trkpt lat="43.0697833" lon="10.744815"><ele>59.0</ele><time>2026-03-29T13:49:20.915Z</time></trkpt><trkpt lat="43.0698917" lon="10.7450833"><ele>59.0</ele><time>2026-03-29T13:49:21.915Z</time></trkpt><trkpt lat="43.0702117" lon="10.745845"><ele>59.66666666666667</ele><time>2026-03-29T13:49:24.915Z</time></trkpt><trkpt lat="43.0703167" lon="10.74611"><ele>60.33333333333333</ele><time>2026-03-29T13:49:25.915Z</time></trkpt><trkpt lat="43.0704283" lon="10.74637"><ele>61.0</ele><time>2026-03-29T13:49:26.915Z</time></trkpt><trkpt lat="43.070545" lon="10.74664"><ele>61.0</ele><time>2026-03-29T13:49:27.915Z</time></trkpt><trkpt lat="43.0706641" lon="10.746912"><ele>61.0</ele><time>2026-03-29T13:49:28.915Z</time></trkpt><trkpt lat="43.0707807" lon="10.7471901"><ele>61.0</ele><time>2026-03-29T13:49:29.915Z</time></trkpt><trkpt lat="43.0708947" lon="10.7474644"><ele>61.0</ele><time>2026-03-29T13:49:30.915Z</time></trkpt><trkpt lat="43.0710111" lon="10.7477398"><ele>61.5</ele><time>2026-03-29T13:49:31.915Z</time></trkpt><trkpt lat="43.0711264" lon="10.7480159"><ele>62.0</ele><time>2026-03-29T13:49:32.915Z</time></trkpt><trkpt lat="43.0712398" lon="10.7482846"><ele>62.0</ele><time>2026-03-29T13:49:33.916Z</time></trkpt><trkpt lat="43.0713528" lon="10.7485405"><ele>62.0</ele><time>2026-03-29T13:49:34.915Z</time></trkpt><trkpt lat="43.0714662" lon="10.7487972"><ele>62.0</ele><time>2026-03-29T13:49:35.915Z</time></trkpt><trkpt lat="43.0715711" lon="10.7490473"><ele>62.66666666666667</ele><time>2026-03-29T13:49:36.915Z</time></trkpt><trkpt lat="43.071682" lon="10.749294"><ele>63.33333333333333</ele><time>2026-03-29T13:49:37.915Z</time></trkpt><trkpt lat="43.0718023" lon="10.7495442"><ele>64.0</ele><time>2026-03-29T13:49:38.915Z</time></trkpt><trkpt lat="43.0719328" lon="10.7497804"><ele>64.0</ele><time>2026-03-29T13:49:39.915Z</time></trkpt><trkpt lat="43.0720695" lon="10.7500041"><ele>64.0</ele><time>2026-03-29T13:49:40.915Z</time></trkpt><trkpt lat="43.0722108" lon="10.7502122"><ele>64.0</ele><time>2026-03-29T13:49:41.915Z</time></trkpt><trkpt lat="43.0723559" lon="10.7504039"><ele>63.666666666666664</ele><time>2026-03-29T13:49:42.915Z</time></trkpt><trkpt lat="43.0724972" lon="10.7505782"><ele>63.33333333333333</ele><time>2026-03-29T13:49:43.915Z</time></trkpt><trkpt lat="43.0726321" lon="10.750745"><ele>63.0</ele><time>2026-03-29T13:49:44.915Z</time></trkpt><trkpt lat="43.0727544" lon="10.7509059"><ele>63.66666666666667</ele><time>2026-03-29T13:49:45.915Z</time></trkpt><trkpt lat="43.0728573" lon="10.7510829"><ele>64.33333333333334</ele><time>2026-03-29T13:49:46.915Z</time></trkpt><trkpt lat="43.0729463" lon="10.7512884"><ele>65.0</ele><time>2026-03-29T13:49:47.915Z</time></trkpt><trkpt lat="43.0730319" lon="10.7515175"><ele>65.0</ele><time>2026-03-29T13:49:48.915Z</time></trkpt><trkpt lat="43.0731289" lon="10.7517626"><ele>65.0</ele><time>2026-03-29T13:49:49.915Z</time></trkpt><trkpt lat="43.0732339" lon="10.752026"><ele>65.0</ele><time>2026-03-29T13:49:50.915Z</time></trkpt><trkpt lat="43.0733331" lon="10.7522882"><ele>65.66666666666667</ele><time>2026-03-29T13:49:51.915Z</time></trkpt><trkpt lat="43.0734292" lon="10.752546"><ele>66.33333333333333</ele><time>2026-03-29T13:49:52.915Z</time></trkpt><trkpt lat="43.0735297" lon="10.7527988"><ele>67.0</ele><time>2026-03-29T13:49:53.915Z</time></trkpt><trkpt lat="43.0736269" lon="10.7530501"><ele>67.66666666666666</ele><time>2026-03-29T13:49:54.915Z</time></trkpt><trkpt lat="43.0737229" lon="10.7532831"><ele>68.33333333333333</ele><time>2026-03-29T13:49:55.915Z</time></trkpt><trkpt lat="43.0738048" lon="10.7535068"><ele>69.0</ele><time>2026-03-29T13:49:56.915Z</time></trkpt><trkpt lat="43.0738728" lon="10.7537356"><ele>70.0</ele><time>2026-03-29T13:49:57.915Z</time></trkpt><trkpt lat="43.073929" lon="10.7539677"><ele>71.0</ele><time>2026-03-29T13:49:58.915Z</time></trkpt><trkpt lat="43.0739867" lon="10.7542089"><ele>72.0</ele><time>2026-03-29T13:49:59.915Z</time></trkpt><trkpt lat="43.0740344" lon="10.7544619"><ele>72.0</ele><time>2026-03-29T13:50:00.915Z</time></trkpt><trkpt lat="43.0740883" lon="10.7547226"><ele>72.0</ele><time>2026-03-29T13:50:01.915Z</time></trkpt><trkpt lat="43.0741412" lon="10.7549922"><ele>72.0</ele><time>2026-03-29T13:50:02.915Z</time></trkpt><trkpt lat="43.0741661" lon="10.7552771"><ele>71.5</ele><time>2026-03-29T13:50:03.915Z</time></trkpt><trkpt lat="43.0741774" lon="10.7555812"><ele>71.0</ele><time>2026-03-29T13:50:04.915Z</time></trkpt><trkpt lat="43.0741936" lon="10.7558928"><ele>71.66666666666667</ele><time>2026-03-29T13:50:05.916Z</time></trkpt><trkpt lat="43.0742098" lon="10.7561993"><ele>72.33333333333333</ele><time>2026-03-29T13:50:06.915Z</time></trkpt><trkpt lat="43.0742249" lon="10.7565049"><ele>73.0</ele><time>2026-03-29T13:50:07.915Z</time></trkpt><trkpt lat="43.0742434" lon="10.7568117"><ele>75.33333333333333</ele><time>2026-03-29T13:50:08.915Z</time></trkpt><trkpt lat="43.0742579" lon="10.757114"><ele>77.66666666666667</ele><time>2026-03-29T13:50:09.915Z</time></trkpt><trkpt lat="43.0742681" lon="10.757405"><ele>80.0</ele><time>2026-03-29T13:50:10.915Z</time></trkpt><trkpt lat="43.074285" lon="10.7576822"><ele>87.5</ele><time>2026-03-29T13:50:11.915Z</time></trkpt><trkpt lat="43.074312" lon="10.7581863"><ele>95.0</ele><time>2026-03-29T13:50:13.915Z</time></trkpt><trkpt lat="43.0743158" lon="10.7584331"><ele>98.66666666666667</ele><time>2026-03-29T13:50:14.915Z</time></trkpt><trkpt lat="43.0743256" lon="10.7586692"><ele>102.33333333333334</ele><time>2026-03-29T13:50:15.915Z</time></trkpt><trkpt lat="43.0743389" lon="10.7588794"><ele>106.0</ele><time>2026-03-29T13:50:16.915Z</time></trkpt><trkpt lat="43.0743563" lon="10.7590724"><ele>106.0</ele><time>2026-03-29T13:50:17.915Z</time></trkpt><trkpt lat="43.0743811" lon="10.759243"><ele>106.0</ele><time>2026-03-29T13:50:18.915Z</time></trkpt><trkpt lat="43.0744195" lon="10.7593848"><ele>106.0</ele><time>2026-03-29T13:50:19.915Z</time></trkpt><trkpt lat="43.074479" lon="10.7594853"><ele>106.0</ele><time>2026-03-29T13:50:20.915Z</time></trkpt><trkpt lat="43.0745667" lon="10.7595314"><ele>106.0</ele><time>2026-03-29T13:50:21.915Z</time></trkpt><trkpt lat="43.0746798" lon="10.7595179"><ele>108.25</ele><time>2026-03-29T13:50:22.915Z</time></trkpt><trkpt lat="43.0748015" lon="10.7594802"><ele>110.5</ele><time>2026-03-29T13:50:23.915Z</time></trkpt><trkpt lat="43.0749321" lon="10.7594394"><ele>112.75</ele><time>2026-03-29T13:50:24.915Z</time></trkpt><trkpt lat="43.075068" lon="10.7594297"><ele>115.0</ele><time>2026-03-29T13:50:25.915Z</time></trkpt><trkpt lat="43.0751875" lon="10.7594798"><ele>115.0</ele><time>2026-03-29T13:50:26.915Z</time></trkpt><trkpt lat="43.0752882" lon="10.7595737"><ele>115.0</ele><time>2026-03-29T13:50:27.915Z</time></trkpt><trkpt lat="43.0753681" lon="10.7597102"><ele>115.0</ele><time>2026-03-29T13:50:28.915Z</time></trkpt><trkpt lat="43.0754302" lon="10.7598836"><ele>115.0</ele><time>2026-03-29T13:50:29.915Z</time></trkpt><trkpt lat="43.0754794" lon="10.7600681"><ele>117.0</ele><time>2026-03-29T13:50:30.915Z</time></trkpt><trkpt lat="43.0755112" lon="10.7602507"><ele>119.0</ele><time>2026-03-29T13:50:31.915Z</time></trkpt><trkpt lat="43.0754974" lon="10.760423"><ele>121.0</ele><time>2026-03-29T13:50:32.915Z</time></trkpt><trkpt lat="43.0754597" lon="10.7605679"><ele>123.0</ele><time>2026-03-29T13:50:33.915Z</time></trkpt><trkpt lat="43.0754123" lon="10.7606717"><ele>123.0</ele><time>2026-03-29T13:50:34.915Z</time></trkpt><trkpt lat="43.0753607" lon="10.7607321"><ele>123.0</ele><time>2026-03-29T13:50:35.915Z</time></trkpt><trkpt lat="43.0752709" lon="10.7607592"><ele>123.0</ele><time>2026-03-29T13:50:37.915Z</time></trkpt><trkpt lat="43.0752578" lon="10.7606366"><ele>123.0</ele><time>2026-03-29T13:50:38.915Z</time></trkpt><trkpt lat="43.0752495" lon="10.7605003"><ele>123.0</ele><time>2026-03-29T13:50:39.915Z</time></trkpt><trkpt lat="43.0752254" lon="10.7603717"><ele>123.0</ele><time>2026-03-29T13:50:40.915Z</time></trkpt><trkpt lat="43.0751873" lon="10.7602548"><ele>123.0</ele><time>2026-03-29T13:50:41.916Z</time></trkpt><trkpt lat="43.0750973" lon="10.7602009"><ele>123.0</ele><time>2026-03-29T13:50:42.915Z</time></trkpt><trkpt lat="43.0749775" lon="10.7602023"><ele>123.0</ele><time>2026-03-29T13:50:43.915Z</time></trkpt><trkpt lat="43.0748371" lon="10.7602505"><ele>123.0</ele><time>2026-03-29T13:50:44.915Z</time></trkpt><trkpt lat="43.0746695" lon="10.7603526"><ele>124.66666666666666</ele><time>2026-03-29T13:50:45.915Z</time></trkpt><trkpt lat="43.0744788" lon="10.7604994"><ele>126.33333333333333</ele><time>2026-03-29T13:50:46.915Z</time></trkpt><trkpt lat="43.0742911" lon="10.7606575"><ele>128.0</ele><time>2026-03-29T13:50:47.915Z</time></trkpt><trkpt lat="43.0741391" lon="10.7607883"><ele>125.25</ele><time>2026-03-29T13:50:48.915Z</time></trkpt><trkpt lat="43.0740193" lon="10.7608912"><ele>122.5</ele><time>2026-03-29T13:50:49.915Z</time></trkpt><trkpt lat="43.0739334" lon="10.760995"><ele>119.75</ele><time>2026-03-29T13:50:50.915Z</time></trkpt><trkpt lat="43.0738917" lon="10.7611245"><ele>117.0</ele><time>2026-03-29T13:50:51.915Z</time></trkpt><trkpt lat="43.0738777" lon="10.7612783"><ele>117.0</ele><time>2026-03-29T13:50:52.915Z</time></trkpt><trkpt lat="43.0738889" lon="10.761462"><ele>117.0</ele><time>2026-03-29T13:50:53.915Z</time></trkpt><trkpt lat="43.0739199" lon="10.7616647"><ele>117.0</ele><time>2026-03-29T13:50:54.915Z</time></trkpt><trkpt lat="43.0739516" lon="10.7618771"><ele>117.0</ele><time>2026-03-29T13:50:55.915Z</time></trkpt><trkpt lat="43.0739777" lon="10.7620892"><ele>118.0</ele><time>2026-03-29T13:50:56.915Z</time></trkpt><trkpt lat="43.074" lon="10.7622863"><ele>119.0</ele><time>2026-03-29T13:50:57.915Z</time></trkpt><trkpt lat="43.0740117" lon="10.7624774"><ele>120.0</ele><time>2026-03-29T13:50:58.915Z</time></trkpt><trkpt lat="43.0740315" lon="10.7626646"><ele>121.0</ele><time>2026-03-29T13:50:59.915Z</time></trkpt><trkpt lat="43.0740673" lon="10.7628285"><ele>125.5</ele><time>2026-03-29T13:51:00.915Z</time></trkpt><trkpt lat="43.0741261" lon="10.76296"><ele>130.0</ele><time>2026-03-29T13:51:01.915Z</time></trkpt><trkpt lat="43.0742153" lon="10.7630716"><ele>134.5</ele><time>2026-03-29T13:51:02.916Z</time></trkpt><trkpt lat="43.0743345" lon="10.7631549"><ele>139.0</ele><time>2026-03-29T13:51:03.915Z</time></trkpt><trkpt lat="43.0744699" lon="10.7632087"><ele>139.0</ele><time>2026-03-29T13:51:04.915Z</time></trkpt><trkpt lat="43.0746244" lon="10.7632406"><ele>139.0</ele><time>2026-03-29T13:51:05.915Z</time></trkpt><trkpt lat="43.0747841" lon="10.7632648"><ele>139.0</ele><time>2026-03-29T13:51:06.915Z</time></trkpt><trkpt lat="43.0749193" lon="10.7632883"><ele>141.0</ele><time>2026-03-29T13:51:07.915Z</time></trkpt><trkpt lat="43.0750333" lon="10.7633206"><ele>143.0</ele><time>2026-03-29T13:51:08.915Z</time></trkpt><trkpt lat="43.0751317" lon="10.7633767"><ele>145.0</ele><time>2026-03-29T13:51:09.915Z</time></trkpt><trkpt lat="43.075215" lon="10.76346"><ele>147.0</ele><time>2026-03-29T13:51:10.915Z</time></trkpt><trkpt lat="43.075285" lon="10.7635833"><ele>149.0</ele><time>2026-03-29T13:51:11.915Z</time></trkpt><trkpt lat="43.0753517" lon="10.76375"><ele>152.66666666666666</ele><time>2026-03-29T13:51:12.915Z</time></trkpt><trkpt lat="43.0754267" lon="10.7639633"><ele>156.33333333333334</ele><time>2026-03-29T13:51:13.915Z</time></trkpt><trkpt lat="43.075525" lon="10.7641917"><ele>160.0</ele><time>2026-03-29T13:51:14.915Z</time></trkpt><trkpt lat="43.0756233" lon="10.764385"><ele>161.66666666666669</ele><time>2026-03-29T13:51:15.915Z</time></trkpt><trkpt lat="43.0757067" lon="10.7645633"><ele>163.33333333333334</ele><time>2026-03-29T13:51:16.915Z</time></trkpt><trkpt lat="43.0757683" lon="10.7647533"><ele>165.0</ele><time>2026-03-29T13:51:17.915Z</time></trkpt><trkpt lat="43.0758283" lon="10.764985"><ele>170.33333333333334</ele><time>2026-03-29T13:51:18.915Z</time></trkpt><trkpt lat="43.0758917" lon="10.7652467"><ele>175.66666666666669</ele><time>2026-03-29T13:51:19.915Z</time></trkpt><trkpt lat="43.0759717" lon="10.7655133"><ele>181.0</ele><time>2026-03-29T13:51:20.915Z</time></trkpt><trkpt lat="43.0760483" lon="10.76576"><ele>181.0</ele><time>2026-03-29T13:51:21.915Z</time></trkpt><trkpt lat="43.076125" lon="10.7659667"><ele>181.0</ele><time>2026-03-29T13:51:22.915Z</time></trkpt><trkpt lat="43.07621" lon="10.7661383"><ele>181.0</ele><time>2026-03-29T13:51:23.915Z</time></trkpt><trkpt lat="43.0763117" lon="10.7663017"><ele>184.33333333333334</ele><time>2026-03-29T13:51:24.916Z</time></trkpt><trkpt lat="43.0764133" lon="10.766455"><ele>187.66666666666666</ele><time>2026-03-29T13:51:25.915Z</time></trkpt><trkpt lat="43.0765017" lon="10.766645"><ele>191.0</ele><time>2026-03-29T13:51:26.915Z</time></trkpt><trkpt lat="43.0765683" lon="10.766855"><ele>193.33333333333331</ele><time>2026-03-29T13:51:27.915Z</time></trkpt><trkpt lat="43.0766483" lon="10.76706"><ele>195.66666666666666</ele><time>2026-03-29T13:51:28.915Z</time></trkpt><trkpt lat="43.0767367" lon="10.767235"><ele>198.0</ele><time>2026-03-29T13:51:29.915Z</time></trkpt><trkpt lat="43.0768083" lon="10.7673917"><ele>198.0</ele><time>2026-03-29T13:51:30.915Z</time></trkpt><trkpt lat="43.07686" lon="10.76755"><ele>198.0</ele><time>2026-03-29T13:51:31.915Z</time></trkpt><trkpt lat="43.0768717" lon="10.7677167"><ele>198.0</ele><time>2026-03-29T13:51:32.915Z</time></trkpt><trkpt lat="43.07686" lon="10.767905"><ele>198.0</ele><time>2026-03-29T13:51:33.915Z</time></trkpt><trkpt lat="43.076805" lon="10.768105"><ele>199.0</ele><time>2026-03-29T13:51:34.915Z</time></trkpt><trkpt lat="43.0767533" lon="10.7683117"><ele>200.0</ele><time>2026-03-29T13:51:35.915Z</time></trkpt><trkpt lat="43.0766967" lon="10.7685067"><ele>201.0</ele><time>2026-03-29T13:51:36.915Z</time></trkpt><trkpt lat="43.07664" lon="10.7686817"><ele>202.25</ele><time>2026-03-29T13:51:37.915Z</time></trkpt><trkpt lat="43.0765517" lon="10.7688483"><ele>203.5</ele><time>2026-03-29T13:51:38.915Z</time></trkpt><trkpt lat="43.07649" lon="10.7690133"><ele>204.75</ele><time>2026-03-29T13:51:39.915Z</time></trkpt><trkpt lat="43.07647" lon="10.76918"><ele>206.0</ele><time>2026-03-29T13:51:40.915Z</time></trkpt><trkpt lat="43.0764883" lon="10.7693583"><ele>206.33333333333334</ele><time>2026-03-29T13:51:41.915Z</time></trkpt><trkpt lat="43.076545" lon="10.769565"><ele>206.66666666666669</ele><time>2026-03-29T13:51:42.915Z</time></trkpt><trkpt lat="43.07663" lon="10.7697683"><ele>207.0</ele><time>2026-03-29T13:51:43.915Z</time></trkpt><trkpt lat="43.0767033" lon="10.7699783"><ele>207.0</ele><time>2026-03-29T13:51:44.915Z</time></trkpt><trkpt lat="43.0767883" lon="10.7701733"><ele>207.0</ele><time>2026-03-29T13:51:45.915Z</time></trkpt><trkpt lat="43.076885" lon="10.7703483"><ele>207.0</ele><time>2026-03-29T13:51:46.915Z</time></trkpt><trkpt lat="43.07699" lon="10.7705233"><ele>211.0</ele><time>2026-03-29T13:51:47.915Z</time></trkpt><trkpt lat="43.0771033" lon="10.7707017"><ele>215.0</ele><time>2026-03-29T13:51:48.915Z</time></trkpt><trkpt lat="43.07721" lon="10.7709033"><ele>219.0</ele><time>2026-03-29T13:51:49.915Z</time></trkpt><trkpt lat="43.0773083" lon="10.7710983"><ele>220.0</ele><time>2026-03-29T13:51:50.915Z</time></trkpt><trkpt lat="43.077405" lon="10.7712783"><ele>221.0</ele><time>2026-03-29T13:51:51.915Z</time></trkpt><trkpt lat="43.0775" lon="10.7714583"><ele>222.0</ele><time>2026-03-29T13:51:52.915Z</time></trkpt><trkpt lat="43.0777417" lon="10.7719883"><ele>223.66666666666669</ele><time>2026-03-29T13:51:55.915Z</time></trkpt><trkpt lat="43.077805" lon="10.7721883"><ele>225.33333333333334</ele><time>2026-03-29T13:51:56.915Z</time></trkpt><trkpt lat="43.0778317" lon="10.77239"><ele>227.0</ele><time>2026-03-29T13:51:57.915Z</time></trkpt><trkpt lat="43.0778467" lon="10.7726067"><ele>229.33333333333334</ele><time>2026-03-29T13:51:58.915Z</time></trkpt><trkpt lat="43.0778317" lon="10.7728417"><ele>231.66666666666669</ele><time>2026-03-29T13:51:59.915Z</time></trkpt><trkpt lat="43.0778" lon="10.7731017"><ele>234.0</ele><time>2026-03-29T13:52:00.915Z</time></trkpt><trkpt lat="43.0777667" lon="10.773375"><ele>236.33333333333331</ele><time>2026-03-29T13:52:01.915Z</time></trkpt><trkpt lat="43.07774" lon="10.7736583"><ele>238.66666666666666</ele><time>2026-03-29T13:52:02.915Z</time></trkpt><trkpt lat="43.0777117" lon="10.7739383"><ele>241.0</ele><time>2026-03-29T13:52:03.915Z</time></trkpt><trkpt lat="43.077685" lon="10.7741983"><ele>242.33333333333331</ele><time>2026-03-29T13:52:04.915Z</time></trkpt><trkpt lat="43.077665" lon="10.77445"><ele>243.66666666666669</ele><time>2026-03-29T13:52:05.915Z</time></trkpt><trkpt lat="43.0776533" lon="10.7746967"><ele>245.0</ele><time>2026-03-29T13:52:06.915Z</time></trkpt><trkpt lat="43.07762" lon="10.7749633"><ele>247.0</ele><time>2026-03-29T13:52:07.915Z</time></trkpt><trkpt lat="43.0775867" lon="10.775215"><ele>249.0</ele><time>2026-03-29T13:52:08.915Z</time></trkpt><trkpt lat="43.07755" lon="10.7754667"><ele>251.0</ele><time>2026-03-29T13:52:09.915Z</time></trkpt><trkpt lat="43.0775083" lon="10.7757133"><ele>251.0</ele><time>2026-03-29T13:52:10.915Z</time></trkpt><trkpt lat="43.0774683" lon="10.77596"><ele>251.0</ele><time>2026-03-29T13:52:11.915Z</time></trkpt><trkpt lat="43.07742" lon="10.7762033"><ele>251.0</ele><time>2026-03-29T13:52:12.915Z</time></trkpt><trkpt lat="43.0773783" lon="10.7764217"><ele>261.0</ele><time>2026-03-29T13:52:13.915Z</time></trkpt><trkpt lat="43.0773383" lon="10.776645"><ele>271.0</ele><time>2026-03-29T13:52:14.915Z</time></trkpt><trkpt lat="43.0773" lon="10.7768583"><ele>281.0</ele><time>2026-03-29T13:52:15.915Z</time></trkpt><trkpt lat="43.077265" lon="10.7770683"><ele>283.0</ele><time>2026-03-29T13:52:16.915Z</time></trkpt><trkpt lat="43.077235" lon="10.77727"><ele>285.0</ele><time>2026-03-29T13:52:17.915Z</time></trkpt><trkpt lat="43.0771968" lon="10.777468"><ele>287.0</ele><time>2026-03-29T13:52:18.915Z</time></trkpt><trkpt lat="43.0771561" lon="10.7776514"><ele>289.0</ele><time>2026-03-29T13:52:19.916Z</time></trkpt><trkpt lat="43.0771028" lon="10.777827"><ele>289.25</ele><time>2026-03-29T13:52:20.915Z</time></trkpt><trkpt lat="43.0770387" lon="10.7779994"><ele>289.5</ele><time>2026-03-29T13:52:21.915Z</time></trkpt><trkpt lat="43.076968" lon="10.778161"><ele>289.75</ele><time>2026-03-29T13:52:22.915Z</time></trkpt><trkpt lat="43.0769156" lon="10.7783088"><ele>290.0</ele><time>2026-03-29T13:52:23.915Z</time></trkpt><trkpt lat="43.0768748" lon="10.7784573"><ele>290.5</ele><time>2026-03-29T13:52:24.915Z</time></trkpt><trkpt lat="43.0768543" lon="10.778628"><ele>291.0</ele><time>2026-03-29T13:52:25.915Z</time></trkpt><trkpt lat="43.0768513" lon="10.7787939"><ele>291.5</ele><time>2026-03-29T13:52:26.915Z</time></trkpt><trkpt lat="43.0768339" lon="10.7789464"><ele>292.0</ele><time>2026-03-29T13:52:27.915Z</time></trkpt><trkpt lat="43.0767929" lon="10.7790967"><ele>292.0</ele><time>2026-03-29T13:52:28.915Z</time></trkpt><trkpt lat="43.0767343" lon="10.7792671"><ele>292.0</ele><time>2026-03-29T13:52:29.915Z</time></trkpt><trkpt lat="43.0766711" lon="10.7794643"><ele>292.0</ele><time>2026-03-29T13:52:30.915Z</time></trkpt><trkpt lat="43.0766042" lon="10.7796597"><ele>298.66666666666663</ele><time>2026-03-29T13:52:31.915Z</time></trkpt><trkpt lat="43.0765289" lon="10.7798504"><ele>305.3333333333333</ele><time>2026-03-29T13:52:32.915Z</time></trkpt><trkpt lat="43.0764377" lon="10.7800207"><ele>312.0</ele><time>2026-03-29T13:52:33.915Z</time></trkpt><trkpt lat="43.0763252" lon="10.7801816"><ele>312.0</ele><time>2026-03-29T13:52:34.915Z</time></trkpt><trkpt lat="43.0762071" lon="10.780348"><ele>312.0</ele><time>2026-03-29T13:52:35.915Z</time></trkpt><trkpt lat="43.0760903" lon="10.7805225"><ele>312.0</ele><time>2026-03-29T13:52:36.915Z</time></trkpt><trkpt lat="43.0759859" lon="10.7807154"><ele>312.0</ele><time>2026-03-29T13:52:37.915Z</time></trkpt><trkpt lat="43.0758937" lon="10.7808797"><ele>312.0</ele><time>2026-03-29T13:52:38.915Z</time></trkpt><trkpt lat="43.0757994" lon="10.7810437"><ele>312.0</ele><time>2026-03-29T13:52:39.915Z</time></trkpt><trkpt lat="43.0757222" lon="10.781205"><ele>312.0</ele><time>2026-03-29T13:52:40.915Z</time></trkpt><trkpt lat="43.0756732" lon="10.7813592"><ele>316.75</ele><time>2026-03-29T13:52:41.915Z</time></trkpt><trkpt lat="43.075644" lon="10.7815211"><ele>321.5</ele><time>2026-03-29T13:52:42.915Z</time></trkpt><trkpt lat="43.0756373" lon="10.7816785"><ele>326.25</ele><time>2026-03-29T13:52:43.915Z</time></trkpt><trkpt lat="43.0756773" lon="10.7818199"><ele>331.0</ele><time>2026-03-29T13:52:44.915Z</time></trkpt><trkpt lat="43.0757563" lon="10.7819576"><ele>330.5</ele><time>2026-03-29T13:52:45.915Z</time></trkpt><trkpt lat="43.0758471" lon="10.7820994"><ele>330.0</ele><time>2026-03-29T13:52:46.915Z</time></trkpt><trkpt lat="43.0759246" lon="10.7822563"><ele>329.5</ele><time>2026-03-29T13:52:47.915Z</time></trkpt><trkpt lat="43.0759967" lon="10.7824355"><ele>329.0</ele><time>2026-03-29T13:52:48.915Z</time></trkpt><trkpt lat="43.0760483" lon="10.7826332"><ele>330.0</ele><time>2026-03-29T13:52:49.915Z</time></trkpt><trkpt lat="43.0760905" lon="10.7828391"><ele>331.0</ele><time>2026-03-29T13:52:50.915Z</time></trkpt><trkpt lat="43.076117" lon="10.7830437"><ele>332.0</ele><time>2026-03-29T13:52:51.915Z</time></trkpt><trkpt lat="43.0761261" lon="10.7832493"><ele>332.0</ele><time>2026-03-29T13:52:52.915Z</time></trkpt><trkpt lat="43.0761133" lon="10.7834568"><ele>332.0</ele><time>2026-03-29T13:52:53.915Z</time></trkpt><trkpt lat="43.076091" lon="10.7836668"><ele>332.0</ele><time>2026-03-29T13:52:54.915Z</time></trkpt><trkpt lat="43.0760666" lon="10.7838872"><ele>332.33333333333337</ele><time>2026-03-29T13:52:55.915Z</time></trkpt><trkpt lat="43.0760399" lon="10.7841163"><ele>332.6666666666667</ele><time>2026-03-29T13:52:56.915Z</time></trkpt><trkpt lat="43.0760144" lon="10.7843471"><ele>333.0</ele><time>2026-03-29T13:52:57.915Z</time></trkpt><trkpt lat="43.0759923" lon="10.7845864"><ele>334.6666666666667</ele><time>2026-03-29T13:52:58.915Z</time></trkpt><trkpt lat="43.0759741" lon="10.7848245"><ele>336.33333333333337</ele><time>2026-03-29T13:52:59.915Z</time></trkpt><trkpt lat="43.0759724" lon="10.7850572"><ele>338.0</ele><time>2026-03-29T13:53:00.915Z</time></trkpt><trkpt lat="43.0759847" lon="10.7852617"><ele>338.33333333333337</ele><time>2026-03-29T13:53:01.915Z</time></trkpt><trkpt lat="43.0759905" lon="10.7854595"><ele>338.6666666666667</ele><time>2026-03-29T13:53:02.915Z</time></trkpt><trkpt lat="43.0759804" lon="10.7856628"><ele>339.0</ele><time>2026-03-29T13:53:03.916Z</time></trkpt><trkpt lat="43.0759477" lon="10.7858776"><ele>338.0</ele><time>2026-03-29T13:53:04.916Z</time></trkpt><trkpt lat="43.0758983" lon="10.7861057"><ele>337.0</ele><time>2026-03-29T13:53:05.915Z</time></trkpt><trkpt lat="43.0758504" lon="10.7863503"><ele>336.0</ele><time>2026-03-29T13:53:06.915Z</time></trkpt><trkpt lat="43.0757976" lon="10.7866035"><ele>338.0</ele><time>2026-03-29T13:53:07.915Z</time></trkpt><trkpt lat="43.0757405" lon="10.7868511"><ele>340.0</ele><time>2026-03-29T13:53:08.915Z</time></trkpt><trkpt lat="43.0756817" lon="10.787085"><ele>342.0</ele><time>2026-03-29T13:53:09.915Z</time></trkpt><trkpt lat="43.0756266" lon="10.7873035"><ele>342.0</ele><time>2026-03-29T13:53:10.915Z</time></trkpt><trkpt lat="43.0755866" lon="10.787529"><ele>342.0</ele><time>2026-03-29T13:53:11.915Z</time></trkpt><trkpt lat="43.0755529" lon="10.7877481"><ele>342.0</ele><time>2026-03-29T13:53:12.915Z</time></trkpt><trkpt lat="43.0755283" lon="10.7879791"><ele>345.3333333333333</ele><time>2026-03-29T13:53:13.915Z</time></trkpt><trkpt lat="43.0755209" lon="10.7882127"><ele>348.66666666666663</ele><time>2026-03-29T13:53:14.915Z</time></trkpt><trkpt lat="43.0755267" lon="10.7884479"><ele>352.0</ele><time>2026-03-29T13:53:15.915Z</time></trkpt><trkpt lat="43.0755658" lon="10.7886892"><ele>352.66666666666663</ele><time>2026-03-29T13:53:16.915Z</time></trkpt><trkpt lat="43.0756119" lon="10.7889425"><ele>353.3333333333333</ele><time>2026-03-29T13:53:17.915Z</time></trkpt><trkpt lat="43.075643" lon="10.789206"><ele>354.0</ele><time>2026-03-29T13:53:18.915Z</time></trkpt><trkpt lat="43.0756977" lon="10.7894662"><ele>351.6666666666667</ele><time>2026-03-29T13:53:19.915Z</time></trkpt><trkpt lat="43.0757757" lon="10.7897151"><ele>349.33333333333337</ele><time>2026-03-29T13:53:20.915Z</time></trkpt><trkpt lat="43.0758646" lon="10.7899524"><ele>347.0</ele><time>2026-03-29T13:53:21.915Z</time></trkpt><trkpt lat="43.0759559" lon="10.7901917"><ele>345.6666666666667</ele><time>2026-03-29T13:53:22.915Z</time></trkpt><trkpt lat="43.0760315" lon="10.7904333"><ele>344.3333333333333</ele><time>2026-03-29T13:53:23.915Z</time></trkpt><trkpt lat="43.0761007" lon="10.7906703"><ele>343.0</ele><time>2026-03-29T13:53:24.915Z</time></trkpt><trkpt lat="43.0761477" lon="10.7909222"><ele>341.66666666666663</ele><time>2026-03-29T13:53:25.915Z</time></trkpt><trkpt lat="43.0761697" lon="10.7911842"><ele>340.3333333333333</ele><time>2026-03-29T13:53:26.915Z</time></trkpt><trkpt lat="43.0761788" lon="10.7914554"><ele>339.0</ele><time>2026-03-29T13:53:27.915Z</time></trkpt><trkpt lat="43.076172" lon="10.7917276"><ele>338.3333333333333</ele><time>2026-03-29T13:53:28.915Z</time></trkpt><trkpt lat="43.0761481" lon="10.7919816"><ele>337.66666666666663</ele><time>2026-03-29T13:53:29.915Z</time></trkpt><trkpt lat="43.0761009" lon="10.7922084"><ele>337.0</ele><time>2026-03-29T13:53:30.915Z</time></trkpt><trkpt lat="43.0760296" lon="10.7924227"><ele>337.0</ele><time>2026-03-29T13:53:31.915Z</time></trkpt><trkpt lat="43.075908" lon="10.792631"><ele>337.0</ele><time>2026-03-29T13:53:32.915Z</time></trkpt><trkpt lat="43.075778" lon="10.792867"><ele>337.0</ele><time>2026-03-29T13:53:33.915Z</time></trkpt><trkpt lat="43.0754797" lon="10.7933785"><ele>334.0</ele><time>2026-03-29T13:53:35.915Z</time></trkpt><trkpt lat="43.0753419" lon="10.7936337"><ele>331.0</ele><time>2026-03-29T13:53:36.915Z</time></trkpt><trkpt lat="43.0752091" lon="10.7938739"><ele>331.0</ele><time>2026-03-29T13:53:37.915Z</time></trkpt><trkpt lat="43.0750767" lon="10.7941102"><ele>331.0</ele><time>2026-03-29T13:53:38.916Z</time></trkpt><trkpt lat="43.0749621" lon="10.79434"><ele>331.0</ele><time>2026-03-29T13:53:39.915Z</time></trkpt><trkpt lat="43.0748433" lon="10.7945688"><ele>328.66666666666663</ele><time>2026-03-29T13:53:40.915Z</time></trkpt><trkpt lat="43.0747283" lon="10.7948011"><ele>326.3333333333333</ele><time>2026-03-29T13:53:41.915Z</time></trkpt><trkpt lat="43.0746307" lon="10.7950315"><ele>324.0</ele><time>2026-03-29T13:53:42.915Z</time></trkpt><trkpt lat="43.074565" lon="10.7952641"><ele>324.0</ele><time>2026-03-29T13:53:43.915Z</time></trkpt><trkpt lat="43.0745257" lon="10.7955184"><ele>324.0</ele><time>2026-03-29T13:53:44.916Z</time></trkpt><trkpt lat="43.0745127" lon="10.7957872"><ele>324.0</ele><time>2026-03-29T13:53:45.915Z</time></trkpt><trkpt lat="43.0745258" lon="10.7960628"><ele>324.3333333333333</ele><time>2026-03-29T13:53:46.915Z</time></trkpt><trkpt lat="43.0745564" lon="10.7963344"><ele>324.66666666666663</ele><time>2026-03-29T13:53:47.915Z</time></trkpt><trkpt lat="43.0745899" lon="10.7966013"><ele>325.0</ele><time>2026-03-29T13:53:48.915Z</time></trkpt><trkpt lat="43.0746153" lon="10.7968756"><ele>325.0</ele><time>2026-03-29T13:53:49.915Z</time></trkpt><trkpt lat="43.0746371" lon="10.7971635"><ele>325.0</ele><time>2026-03-29T13:53:50.915Z</time></trkpt><trkpt lat="43.074647" lon="10.7974591"><ele>325.0</ele><time>2026-03-29T13:53:51.915Z</time></trkpt><trkpt lat="43.0746537" lon="10.7977308"><ele>324.3333333333333</ele><time>2026-03-29T13:53:52.915Z</time></trkpt><trkpt lat="43.0746561" lon="10.79799"><ele>323.6666666666667</ele><time>2026-03-29T13:53:53.915Z</time></trkpt><trkpt lat="43.0746623" lon="10.7982343"><ele>323.0</ele><time>2026-03-29T13:53:54.915Z</time></trkpt><trkpt lat="43.0746753" lon="10.7984641"><ele>322.33333333333337</ele><time>2026-03-29T13:53:55.915Z</time></trkpt><trkpt lat="43.074685" lon="10.798695"><ele>321.6666666666667</ele><time>2026-03-29T13:53:56.915Z</time></trkpt><trkpt lat="43.0746933" lon="10.798935"><ele>321.0</ele><time>2026-03-29T13:53:57.915Z</time></trkpt><trkpt lat="43.0747083" lon="10.79919"><ele>320.3333333333333</ele><time>2026-03-29T13:53:58.915Z</time></trkpt><trkpt lat="43.074715" lon="10.79944"><ele>319.66666666666663</ele><time>2026-03-29T13:53:59.915Z</time></trkpt><trkpt lat="43.074735" lon="10.7997267"><ele>319.0</ele><time>2026-03-29T13:54:00.915Z</time></trkpt><trkpt lat="43.0747483" lon="10.80003"><ele>320.5</ele><time>2026-03-29T13:54:01.915Z</time></trkpt><trkpt lat="43.0747533" lon="10.8003483"><ele>322.0</ele><time>2026-03-29T13:54:02.915Z</time></trkpt><trkpt lat="43.0747233" lon="10.800685"><ele>324.5</ele><time>2026-03-29T13:54:03.915Z</time></trkpt><trkpt lat="43.0746783" lon="10.80102"><ele>327.0</ele><time>2026-03-29T13:54:04.916Z</time></trkpt><trkpt lat="43.0746417" lon="10.8013467"><ele>327.0</ele><time>2026-03-29T13:54:05.915Z</time></trkpt><trkpt lat="43.0746167" lon="10.8016283"><ele>327.0</ele><time>2026-03-29T13:54:06.915Z</time></trkpt><trkpt lat="43.0746167" lon="10.8018933"><ele>327.0</ele><time>2026-03-29T13:54:07.915Z</time></trkpt><trkpt lat="43.0746183" lon="10.802145"><ele>327.6666666666667</ele><time>2026-03-29T13:54:08.916Z</time></trkpt><trkpt lat="43.07466" lon="10.8024"><ele>328.33333333333337</ele><time>2026-03-29T13:54:09.915Z</time></trkpt><trkpt lat="43.0747317" lon="10.802685"><ele>329.0</ele><time>2026-03-29T13:54:10.915Z</time></trkpt><trkpt lat="43.0748383" lon="10.8029567"><ele>329.0</ele><time>2026-03-29T13:54:11.915Z</time></trkpt><trkpt lat="43.074915" lon="10.803225"><ele>329.0</ele><time>2026-03-29T13:54:12.915Z</time></trkpt><trkpt lat="43.0749867" lon="10.803475"><ele>329.0</ele><time>2026-03-29T13:54:13.915Z</time></trkpt><trkpt lat="43.0750567" lon="10.8036983"><ele>330.0</ele><time>2026-03-29T13:54:14.915Z</time></trkpt><trkpt lat="43.0751017" lon="10.8039033"><ele>331.0</ele><time>2026-03-29T13:54:15.915Z</time></trkpt><trkpt lat="43.0751383" lon="10.8041133"><ele>332.0</ele><time>2026-03-29T13:54:16.916Z</time></trkpt><trkpt lat="43.0751517" lon="10.8043233"><ele>330.6666666666667</ele><time>2026-03-29T13:54:17.915Z</time></trkpt><trkpt lat="43.075155" lon="10.8045567"><ele>329.3333333333333</ele><time>2026-03-29T13:54:18.916Z</time></trkpt><trkpt lat="43.0751467" lon="10.8048133"><ele>328.0</ele><time>2026-03-29T13:54:19.915Z</time></trkpt><trkpt lat="43.0751433" lon="10.8050733"><ele>327.3333333333333</ele><time>2026-03-29T13:54:20.915Z</time></trkpt><trkpt lat="43.07513" lon="10.8053383"><ele>326.6666666666667</ele><time>2026-03-29T13:54:21.915Z</time></trkpt><trkpt lat="43.075115" lon="10.805575"><ele>326.0</ele><time>2026-03-29T13:54:22.915Z</time></trkpt><trkpt lat="43.0751" lon="10.8058383"><ele>327.0</ele><time>2026-03-29T13:54:23.916Z</time></trkpt><trkpt lat="43.0752067" lon="10.8065183"><ele>327.0</ele><time>2026-03-29T13:54:26.915Z</time></trkpt><trkpt lat="43.075295" lon="10.806735"><ele>327.0</ele><time>2026-03-29T13:54:27.915Z</time></trkpt><trkpt lat="43.075415" lon="10.80695"><ele>327.0</ele><time>2026-03-29T13:54:28.916Z</time></trkpt><trkpt lat="43.0755433" lon="10.8071717"><ele>327.0</ele><time>2026-03-29T13:54:29.915Z</time></trkpt><trkpt lat="43.075669" lon="10.8073737"><ele>327.0</ele><time>2026-03-29T13:54:30.915Z</time></trkpt><trkpt lat="43.0757865" lon="10.8075633"><ele>327.0</ele><time>2026-03-29T13:54:31.915Z</time></trkpt><trkpt lat="43.0758903" lon="10.8077354"><ele>327.0</ele><time>2026-03-29T13:54:32.915Z</time></trkpt><trkpt lat="43.0759775" lon="10.8079193"><ele>327.0</ele><time>2026-03-29T13:54:33.915Z</time></trkpt><trkpt lat="43.0760423" lon="10.8081126"><ele>327.0</ele><time>2026-03-29T13:54:34.915Z</time></trkpt><trkpt lat="43.0760789" lon="10.808316"><ele>326.0</ele><time>2026-03-29T13:54:35.915Z</time></trkpt><trkpt lat="43.0761004" lon="10.8084948"><ele>325.0</ele><time>2026-03-29T13:54:36.915Z</time></trkpt><trkpt lat="43.0761414" lon="10.808634"><ele>324.0</ele><time>2026-03-29T13:54:37.915Z</time></trkpt><trkpt lat="43.0762173" lon="10.8087583"><ele>323.0</ele><time>2026-03-29T13:54:38.915Z</time></trkpt><trkpt lat="43.0763235" lon="10.8088637"><ele>323.0</ele><time>2026-03-29T13:54:39.915Z</time></trkpt><trkpt lat="43.0764405" lon="10.8089563"><ele>323.0</ele><time>2026-03-29T13:54:40.915Z</time></trkpt><trkpt lat="43.076569" lon="10.8090563"><ele>323.0</ele><time>2026-03-29T13:54:41.915Z</time></trkpt><trkpt lat="43.0767023" lon="10.8091592"><ele>323.0</ele><time>2026-03-29T13:54:42.915Z</time></trkpt><trkpt lat="43.0768266" lon="10.8092541"><ele>324.4</ele><time>2026-03-29T13:54:43.915Z</time></trkpt><trkpt lat="43.0769444" lon="10.809338"><ele>325.79999999999995</ele><time>2026-03-29T13:54:44.915Z</time></trkpt><trkpt lat="43.07703" lon="10.809431"><ele>327.2</ele><time>2026-03-29T13:54:45.915Z</time></trkpt><trkpt lat="43.077086" lon="10.8095453"><ele>328.6</ele><time>2026-03-29T13:54:46.915Z</time></trkpt><trkpt lat="43.0771027" lon="10.8096654"><ele>330.0</ele><time>2026-03-29T13:54:47.915Z</time></trkpt><trkpt lat="43.077091" lon="10.8098002"><ele>330.0</ele><time>2026-03-29T13:54:48.915Z</time></trkpt><trkpt lat="43.077054" lon="10.8099686"><ele>330.0</ele><time>2026-03-29T13:54:49.915Z</time></trkpt><trkpt lat="43.0770029" lon="10.8101686"><ele>330.0</ele><time>2026-03-29T13:54:50.915Z</time></trkpt><trkpt lat="43.0769591" lon="10.8103687"><ele>330.0</ele><time>2026-03-29T13:54:51.915Z</time></trkpt><trkpt lat="43.0769065" lon="10.8105645"><ele>330.75</ele><time>2026-03-29T13:54:52.915Z</time></trkpt><trkpt lat="43.0768549" lon="10.8107389"><ele>331.5</ele><time>2026-03-29T13:54:53.915Z</time></trkpt><trkpt lat="43.0767928" lon="10.8108864"><ele>332.25</ele><time>2026-03-29T13:54:54.915Z</time></trkpt><trkpt lat="43.0767271" lon="10.8110231"><ele>333.0</ele><time>2026-03-29T13:54:55.915Z</time></trkpt><trkpt lat="43.0766368" lon="10.8111536"><ele>325.6666666666667</ele><time>2026-03-29T13:54:56.915Z</time></trkpt><trkpt lat="43.0765178" lon="10.8113006"><ele>318.33333333333337</ele><time>2026-03-29T13:54:57.915Z</time></trkpt><trkpt lat="43.0763932" lon="10.8114654"><ele>311.0</ele><time>2026-03-29T13:54:58.915Z</time></trkpt><trkpt lat="43.0762737" lon="10.8116372"><ele>308.6666666666667</ele><time>2026-03-29T13:54:59.915Z</time></trkpt><trkpt lat="43.0761585" lon="10.8118256"><ele>306.3333333333333</ele><time>2026-03-29T13:55:00.915Z</time></trkpt><trkpt lat="43.0760535" lon="10.8119984"><ele>304.0</ele><time>2026-03-29T13:55:01.915Z</time></trkpt><trkpt lat="43.0759753" lon="10.8121397"><ele>304.0</ele><time>2026-03-29T13:55:02.915Z</time></trkpt><trkpt lat="43.0759221" lon="10.8122517"><ele>304.0</ele><time>2026-03-29T13:55:03.915Z</time></trkpt><trkpt lat="43.0759099" lon="10.8123391"><ele>304.0</ele><time>2026-03-29T13:55:04.915Z</time></trkpt><trkpt lat="43.0759169" lon="10.8124251"><ele>304.0</ele><time>2026-03-29T13:55:05.915Z</time></trkpt><trkpt lat="43.075946" lon="10.8125214"><ele>304.0</ele><time>2026-03-29T13:55:06.915Z</time></trkpt><trkpt lat="43.0760075" lon="10.8126186"><ele>304.0</ele><time>2026-03-29T13:55:07.915Z</time></trkpt><trkpt lat="43.0760977" lon="10.8127092"><ele>302.4</ele><time>2026-03-29T13:55:08.915Z</time></trkpt><trkpt lat="43.0761833" lon="10.8127819"><ele>300.79999999999995</ele><time>2026-03-29T13:55:09.915Z</time></trkpt><trkpt lat="43.0762553" lon="10.8128398"><ele>299.20000000000005</ele><time>2026-03-29T13:55:10.915Z</time></trkpt><trkpt lat="43.0763016" lon="10.8129095"><ele>297.6</ele><time>2026-03-29T13:55:11.915Z</time></trkpt><trkpt lat="43.0762833" lon="10.813071"><ele>296.0</ele><time>2026-03-29T13:55:13.915Z</time></trkpt><trkpt lat="43.0761781" lon="10.8131439"><ele>296.0</ele><time>2026-03-29T13:55:14.915Z</time></trkpt><trkpt lat="43.0760515" lon="10.8132346"><ele>296.0</ele><time>2026-03-29T13:55:15.915Z</time></trkpt><trkpt lat="43.0759213" lon="10.8133544"><ele>296.0</ele><time>2026-03-29T13:55:16.915Z</time></trkpt><trkpt lat="43.0758088" lon="10.8135197"><ele>293.0</ele><time>2026-03-29T13:55:17.915Z</time></trkpt><trkpt lat="43.075699" lon="10.813719"><ele>290.0</ele><time>2026-03-29T13:55:18.915Z</time></trkpt><trkpt lat="43.075599" lon="10.8139496"><ele>287.0</ele><time>2026-03-29T13:55:19.915Z</time></trkpt><trkpt lat="43.0754929" lon="10.8142024"><ele>286.6666666666667</ele><time>2026-03-29T13:55:20.915Z</time></trkpt><trkpt lat="43.0753906" lon="10.8144458"><ele>286.3333333333333</ele><time>2026-03-29T13:55:21.915Z</time></trkpt><trkpt lat="43.0752798" lon="10.8146729"><ele>286.0</ele><time>2026-03-29T13:55:22.915Z</time></trkpt><trkpt lat="43.0751714" lon="10.8148686"><ele>286.0</ele><time>2026-03-29T13:55:23.915Z</time></trkpt><trkpt lat="43.0750682" lon="10.8150566"><ele>286.0</ele><time>2026-03-29T13:55:24.915Z</time></trkpt><trkpt lat="43.0749666" lon="10.8152589"><ele>286.0</ele><time>2026-03-29T13:55:25.915Z</time></trkpt><trkpt lat="43.0748561" lon="10.815486"><ele>284.5</ele><time>2026-03-29T13:55:26.915Z</time></trkpt><trkpt lat="43.074729" lon="10.81574"><ele>283.0</ele><time>2026-03-29T13:55:27.915Z</time></trkpt><trkpt lat="43.0745829" lon="10.816014"><ele>286.5</ele><time>2026-03-29T13:55:28.915Z</time></trkpt><trkpt lat="43.0744409" lon="10.8162741"><ele>290.0</ele><time>2026-03-29T13:55:29.915Z</time></trkpt><trkpt lat="43.0743124" lon="10.8165213"><ele>290.0</ele><time>2026-03-29T13:55:30.915Z</time></trkpt><trkpt lat="43.0741897" lon="10.8167566"><ele>290.0</ele><time>2026-03-29T13:55:31.915Z</time></trkpt><trkpt lat="43.0740766" lon="10.8169837"><ele>290.0</ele><time>2026-03-29T13:55:32.915Z</time></trkpt><trkpt lat="43.0739626" lon="10.8171964"><ele>290.33333333333337</ele><time>2026-03-29T13:55:33.915Z</time></trkpt><trkpt lat="43.0738483" lon="10.8174213"><ele>290.6666666666667</ele><time>2026-03-29T13:55:34.915Z</time></trkpt><trkpt lat="43.0737368" lon="10.8176475"><ele>291.0</ele><time>2026-03-29T13:55:35.915Z</time></trkpt><trkpt lat="43.0736243" lon="10.8178606"><ele>291.0</ele><time>2026-03-29T13:55:36.915Z</time></trkpt><trkpt lat="43.0735017" lon="10.81807"><ele>291.0</ele><time>2026-03-29T13:55:37.915Z</time></trkpt><trkpt lat="43.07337" lon="10.8182733"><ele>291.0</ele><time>2026-03-29T13:55:38.915Z</time></trkpt><trkpt lat="43.07323" lon="10.8184733"><ele>292.0</ele><time>2026-03-29T13:55:39.915Z</time></trkpt><trkpt lat="43.0730783" lon="10.818665"><ele>293.0</ele><time>2026-03-29T13:55:40.915Z</time></trkpt><trkpt lat="43.072915" lon="10.8188483"><ele>294.0</ele><time>2026-03-29T13:55:41.915Z</time></trkpt><trkpt lat="43.07275" lon="10.8190283"><ele>294.0</ele><time>2026-03-29T13:55:42.915Z</time></trkpt><trkpt lat="43.0725717" lon="10.8192"><ele>294.0</ele><time>2026-03-29T13:55:43.915Z</time></trkpt><trkpt lat="43.0724067" lon="10.8193617"><ele>294.0</ele><time>2026-03-29T13:55:44.915Z</time></trkpt><trkpt lat="43.0722417" lon="10.8195233"><ele>296.0</ele><time>2026-03-29T13:55:45.915Z</time></trkpt><trkpt lat="43.0720833" lon="10.8196933"><ele>298.0</ele><time>2026-03-29T13:55:46.916Z</time></trkpt><trkpt lat="43.0719167" lon="10.8198633"><ele>300.0</ele><time>2026-03-29T13:55:47.915Z</time></trkpt><trkpt lat="43.0717533" lon="10.8200367"><ele>302.0</ele><time>2026-03-29T13:55:48.915Z</time></trkpt><trkpt lat="43.071585" lon="10.820205"><ele>304.0</ele><time>2026-03-29T13:55:49.915Z</time></trkpt><trkpt lat="43.0714183" lon="10.8203683"><ele>306.0</ele><time>2026-03-29T13:55:50.915Z</time></trkpt><trkpt lat="43.0712517" lon="10.8205333"><ele>306.0</ele><time>2026-03-29T13:55:51.915Z</time></trkpt><trkpt lat="43.0711" lon="10.820675"><ele>306.0</ele><time>2026-03-29T13:55:52.915Z</time></trkpt><trkpt lat="43.0709617" lon="10.820795"><ele>306.0</ele><time>2026-03-29T13:55:53.915Z</time></trkpt><trkpt lat="43.0708317" lon="10.8208883"><ele>306.0</ele><time>2026-03-29T13:55:54.915Z</time></trkpt><trkpt lat="43.0706083" lon="10.8209817"><ele>306.0</ele><time>2026-03-29T13:55:56.915Z</time></trkpt><trkpt lat="43.070495" lon="10.82096"><ele>306.0</ele><time>2026-03-29T13:55:57.915Z</time></trkpt><trkpt lat="43.0703683" lon="10.8209117"><ele>306.0</ele><time>2026-03-29T13:55:58.915Z</time></trkpt><trkpt lat="43.0702367" lon="10.8208567"><ele>306.0</ele><time>2026-03-29T13:55:59.916Z</time></trkpt><trkpt lat="43.0701183" lon="10.8208167"><ele>306.0</ele><time>2026-03-29T13:56:00.915Z</time></trkpt><trkpt lat="43.0700167" lon="10.8207933"><ele>306.0</ele><time>2026-03-29T13:56:01.915Z</time></trkpt><trkpt lat="43.06992" lon="10.8208183"><ele>306.0</ele><time>2026-03-29T13:56:02.915Z</time></trkpt><trkpt lat="43.0698233" lon="10.82089"><ele>306.0</ele><time>2026-03-29T13:56:03.915Z</time></trkpt><trkpt lat="43.0697433" lon="10.8209983"><ele>306.0</ele><time>2026-03-29T13:56:04.915Z</time></trkpt><trkpt lat="43.069655" lon="10.8211517"><ele>306.0</ele><time>2026-03-29T13:56:05.915Z</time></trkpt><trkpt lat="43.069555" lon="10.82133"><ele>306.0</ele><time>2026-03-29T13:56:06.915Z</time></trkpt><trkpt lat="43.06947" lon="10.8215183"><ele>306.0</ele><time>2026-03-29T13:56:07.915Z</time></trkpt><trkpt lat="43.0694233" lon="10.8217017"><ele>306.0</ele><time>2026-03-29T13:56:08.915Z</time></trkpt><trkpt lat="43.069395" lon="10.8219183"><ele>308.6666666666667</ele><time>2026-03-29T13:56:09.915Z</time></trkpt><trkpt lat="43.0693867" lon="10.8221567"><ele>311.33333333333337</ele><time>2026-03-29T13:56:10.915Z</time></trkpt><trkpt lat="43.06938" lon="10.8223967"><ele>314.0</ele><time>2026-03-29T13:56:11.915Z</time></trkpt><trkpt lat="43.0693617" lon="10.82261"><ele>317.0</ele><time>2026-03-29T13:56:12.915Z</time></trkpt><trkpt lat="43.06932" lon="10.8228267"><ele>320.0</ele><time>2026-03-29T13:56:13.915Z</time></trkpt><trkpt lat="43.0692717" lon="10.8230417"><ele>323.0</ele><time>2026-03-29T13:56:14.915Z</time></trkpt><trkpt lat="43.0692067" lon="10.823275"><ele>324.6666666666667</ele><time>2026-03-29T13:56:15.915Z</time></trkpt><trkpt lat="43.06914" lon="10.8235083"><ele>326.3333333333333</ele><time>2026-03-29T13:56:16.915Z</time></trkpt><trkpt lat="43.06907" lon="10.8237367"><ele>328.0</ele><time>2026-03-29T13:56:17.915Z</time></trkpt><trkpt lat="43.0690117" lon="10.823955"><ele>331.0</ele><time>2026-03-29T13:56:18.915Z</time></trkpt><trkpt lat="43.0689617" lon="10.8241533"><ele>334.0</ele><time>2026-03-29T13:56:19.915Z</time></trkpt><trkpt lat="43.0689033" lon="10.82434"><ele>337.0</ele><time>2026-03-29T13:56:20.915Z</time></trkpt><trkpt lat="43.0688517" lon="10.8245083"><ele>340.0</ele><time>2026-03-29T13:56:21.915Z</time></trkpt><trkpt lat="43.0687817" lon="10.8246717"><ele>340.0</ele><time>2026-03-29T13:56:22.915Z</time></trkpt><trkpt lat="43.0686833" lon="10.8248133"><ele>340.0</ele><time>2026-03-29T13:56:23.915Z</time></trkpt><trkpt lat="43.0685883" lon="10.8249583"><ele>340.0</ele><time>2026-03-29T13:56:24.915Z</time></trkpt><trkpt lat="43.0685083" lon="10.8250833"><ele>340.0</ele><time>2026-03-29T13:56:25.915Z</time></trkpt><trkpt lat="43.0684733" lon="10.8252267"><ele>340.5</ele><time>2026-03-29T13:56:26.915Z</time></trkpt><trkpt lat="43.0684783" lon="10.8253917"><ele>341.0</ele><time>2026-03-29T13:56:27.915Z</time></trkpt><trkpt lat="43.0685" lon="10.8255617"><ele>341.5</ele><time>2026-03-29T13:56:28.915Z</time></trkpt><trkpt lat="43.06855" lon="10.82572"><ele>342.0</ele><time>2026-03-29T13:56:29.915Z</time></trkpt><trkpt lat="43.0686033" lon="10.8258933"><ele>341.3333333333333</ele><time>2026-03-29T13:56:30.915Z</time></trkpt><trkpt lat="43.06862" lon="10.8261067"><ele>340.66666666666663</ele><time>2026-03-29T13:56:31.915Z</time></trkpt><trkpt lat="43.068635" lon="10.8263217"><ele>340.0</ele><time>2026-03-29T13:56:32.915Z</time></trkpt><trkpt lat="43.0686517" lon="10.8265333"><ele>340.0</ele><time>2026-03-29T13:56:33.915Z</time></trkpt><trkpt lat="43.068665" lon="10.8267217"><ele>340.0</ele><time>2026-03-29T13:56:34.915Z</time></trkpt><trkpt lat="43.0687017" lon="10.82689"><ele>340.0</ele><time>2026-03-29T13:56:35.915Z</time></trkpt><trkpt lat="43.0687583" lon="10.8270417"><ele>340.0</ele><time>2026-03-29T13:56:36.916Z</time></trkpt><trkpt lat="43.0688483" lon="10.8271717"><ele>340.0</ele><time>2026-03-29T13:56:37.915Z</time></trkpt><trkpt lat="43.0689717" lon="10.827285"><ele>340.0</ele><time>2026-03-29T13:56:38.915Z</time></trkpt><trkpt lat="43.0691083" lon="10.8273883"><ele>340.0</ele><time>2026-03-29T13:56:39.915Z</time></trkpt><trkpt lat="43.0692483" lon="10.8274967"><ele>340.0</ele><time>2026-03-29T13:56:40.915Z</time></trkpt><trkpt lat="43.0693633" lon="10.8276433"><ele>340.0</ele><time>2026-03-29T13:56:41.915Z</time></trkpt><trkpt lat="43.069465" lon="10.827855"><ele>340.0</ele><time>2026-03-29T13:56:42.915Z</time></trkpt><trkpt lat="43.06958" lon="10.8280867"><ele>337.66666666666663</ele><time>2026-03-29T13:56:43.915Z</time></trkpt><trkpt lat="43.069695" lon="10.8283233"><ele>335.3333333333333</ele><time>2026-03-29T13:56:44.915Z</time></trkpt><trkpt lat="43.0698067" lon="10.8285583"><ele>333.0</ele><time>2026-03-29T13:56:45.915Z</time></trkpt><trkpt lat="43.0699157" lon="10.8287778"><ele>335.6666666666667</ele><time>2026-03-29T13:56:46.915Z</time></trkpt><trkpt lat="43.0700188" lon="10.8289817"><ele>338.33333333333337</ele><time>2026-03-29T13:56:47.915Z</time></trkpt><trkpt lat="43.070105" lon="10.829158"><ele>341.0</ele><time>2026-03-29T13:56:48.915Z</time></trkpt><trkpt lat="43.070164" lon="10.8293347"><ele>341.6666666666667</ele><time>2026-03-29T13:56:49.915Z</time></trkpt><trkpt lat="43.0701854" lon="10.8295243"><ele>342.3333333333333</ele><time>2026-03-29T13:56:50.915Z</time></trkpt><trkpt lat="43.0701719" lon="10.8297338"><ele>343.0</ele><time>2026-03-29T13:56:51.915Z</time></trkpt><trkpt lat="43.0701327" lon="10.8299659"><ele>344.3333333333333</ele><time>2026-03-29T13:56:52.915Z</time></trkpt><trkpt lat="43.0700961" lon="10.8301994"><ele>345.6666666666667</ele><time>2026-03-29T13:56:53.915Z</time></trkpt><trkpt lat="43.0700773" lon="10.8304285"><ele>347.0</ele><time>2026-03-29T13:56:54.915Z</time></trkpt><trkpt lat="43.0700702" lon="10.8306588"><ele>347.0</ele><time>2026-03-29T13:56:55.916Z</time></trkpt><trkpt lat="43.0700736" lon="10.8309072"><ele>347.0</ele><time>2026-03-29T13:56:56.915Z</time></trkpt><trkpt lat="43.0700747" lon="10.8311544"><ele>347.0</ele><time>2026-03-29T13:56:57.915Z</time></trkpt><trkpt lat="43.0700632" lon="10.8314113"><ele>347.0</ele><time>2026-03-29T13:56:58.915Z</time></trkpt><trkpt lat="43.0700639" lon="10.8316793"><ele>347.0</ele><time>2026-03-29T13:56:59.915Z</time></trkpt><trkpt lat="43.0700802" lon="10.8319586"><ele>347.0</ele><time>2026-03-29T13:57:00.915Z</time></trkpt><trkpt lat="43.0700968" lon="10.8322436"><ele>347.0</ele><time>2026-03-29T13:57:01.915Z</time></trkpt><trkpt lat="43.0701066" lon="10.8325337"><ele>347.0</ele><time>2026-03-29T13:57:02.915Z</time></trkpt><trkpt lat="43.0701115" lon="10.8328216"><ele>347.0</ele><time>2026-03-29T13:57:03.915Z</time></trkpt><trkpt lat="43.0701151" lon="10.8330995"><ele>346.33333333333337</ele><time>2026-03-29T13:57:04.915Z</time></trkpt><trkpt lat="43.0701295" lon="10.8333776"><ele>345.6666666666667</ele><time>2026-03-29T13:57:05.915Z</time></trkpt><trkpt lat="43.0701408" lon="10.8336507"><ele>345.0</ele><time>2026-03-29T13:57:06.915Z</time></trkpt><trkpt lat="43.070174" lon="10.833908"><ele>345.0</ele><time>2026-03-29T13:57:07.915Z</time></trkpt><trkpt lat="43.0702379" lon="10.8341555"><ele>345.0</ele><time>2026-03-29T13:57:08.915Z</time></trkpt><trkpt lat="43.0703163" lon="10.8344116"><ele>345.0</ele><time>2026-03-29T13:57:09.915Z</time></trkpt><trkpt lat="43.0703948" lon="10.8346939"><ele>345.0</ele><time>2026-03-29T13:57:10.915Z</time></trkpt><trkpt lat="43.070466" lon="10.8349819"><ele>345.0</ele><time>2026-03-29T13:57:11.915Z</time></trkpt><trkpt lat="43.0705174" lon="10.8352713"><ele>345.0</ele><time>2026-03-29T13:57:12.915Z</time></trkpt><trkpt lat="43.0705558" lon="10.8355358"><ele>342.3333333333333</ele><time>2026-03-29T13:57:13.915Z</time></trkpt><trkpt lat="43.0705882" lon="10.8357935"><ele>339.66666666666663</ele><time>2026-03-29T13:57:14.915Z</time></trkpt><trkpt lat="43.0706278" lon="10.8360587"><ele>337.0</ele><time>2026-03-29T13:57:15.915Z</time></trkpt><trkpt lat="43.0706662" lon="10.8363288"><ele>335.0</ele><time>2026-03-29T13:57:16.915Z</time></trkpt><trkpt lat="43.0707105" lon="10.8365952"><ele>333.0</ele><time>2026-03-29T13:57:17.915Z</time></trkpt><trkpt lat="43.0707609" lon="10.8368523"><ele>331.0</ele><time>2026-03-29T13:57:18.915Z</time></trkpt><trkpt lat="43.0708317" lon="10.8370983"><ele>336.66666666666663</ele><time>2026-03-29T13:57:19.915Z</time></trkpt><trkpt lat="43.0709033" lon="10.8373467"><ele>342.3333333333333</ele><time>2026-03-29T13:57:20.914Z</time></trkpt><trkpt lat="43.07096" lon="10.8375967"><ele>348.0</ele><time>2026-03-29T13:57:21.914Z</time></trkpt><trkpt lat="43.07099" lon="10.83785"><ele>348.0</ele><time>2026-03-29T13:57:22.914Z</time></trkpt><trkpt lat="43.070985" lon="10.8381067"><ele>348.0</ele><time>2026-03-29T13:57:23.914Z</time></trkpt><trkpt lat="43.07097" lon="10.8383767"><ele>348.0</ele><time>2026-03-29T13:57:24.914Z</time></trkpt><trkpt lat="43.07095" lon="10.838635"><ele>347.0</ele><time>2026-03-29T13:57:25.914Z</time></trkpt><trkpt lat="43.0709367" lon="10.8389083"><ele>346.0</ele><time>2026-03-29T13:57:26.914Z</time></trkpt><trkpt lat="43.0709283" lon="10.8391517"><ele>345.0</ele><time>2026-03-29T13:57:27.914Z</time></trkpt><trkpt lat="43.0709167" lon="10.8393767"><ele>343.3333333333333</ele><time>2026-03-29T13:57:28.914Z</time></trkpt><trkpt lat="43.070925" lon="10.8396"><ele>341.66666666666663</ele><time>2026-03-29T13:57:29.914Z</time></trkpt><trkpt lat="43.0709483" lon="10.8398183"><ele>340.0</ele><time>2026-03-29T13:57:30.914Z</time></trkpt><trkpt lat="43.070985" lon="10.8400317"><ele>336.66666666666663</ele><time>2026-03-29T13:57:31.914Z</time></trkpt><trkpt lat="43.0710233" lon="10.8402467"><ele>333.3333333333333</ele><time>2026-03-29T13:57:32.914Z</time></trkpt><trkpt lat="43.0710567" lon="10.8404717"><ele>330.0</ele><time>2026-03-29T13:57:33.914Z</time></trkpt><trkpt lat="43.0710733" lon="10.840945"><ele>328.0</ele><time>2026-03-29T13:57:35.914Z</time></trkpt><trkpt lat="43.071075" lon="10.8412067"><ele>326.0</ele><time>2026-03-29T13:57:36.914Z</time></trkpt><trkpt lat="43.0710817" lon="10.84148"><ele>324.0</ele><time>2026-03-29T13:57:37.914Z</time></trkpt><trkpt lat="43.07108" lon="10.8417367"><ele>322.3333333333333</ele><time>2026-03-29T13:57:38.914Z</time></trkpt><trkpt lat="43.0710683" lon="10.8419683"><ele>320.66666666666663</ele><time>2026-03-29T13:57:39.914Z</time></trkpt><trkpt lat="43.0710317" lon="10.8421833"><ele>319.0</ele><time>2026-03-29T13:57:40.914Z</time></trkpt><trkpt lat="43.0709767" lon="10.8423767"><ele>319.0</ele><time>2026-03-29T13:57:41.914Z</time></trkpt><trkpt lat="43.0709183" lon="10.8425583"><ele>319.0</ele><time>2026-03-29T13:57:42.914Z</time></trkpt><trkpt lat="43.07086" lon="10.8427383"><ele>319.0</ele><time>2026-03-29T13:57:43.914Z</time></trkpt><trkpt lat="43.0708183" lon="10.8429167"><ele>319.0</ele><time>2026-03-29T13:57:44.914Z</time></trkpt><trkpt lat="43.0708083" lon="10.843095"><ele>319.0</ele><time>2026-03-29T13:57:45.914Z</time></trkpt><trkpt lat="43.0708333" lon="10.8432783"><ele>319.0</ele><time>2026-03-29T13:57:46.914Z</time></trkpt><trkpt lat="43.0708367" lon="10.8434467"><ele>319.0</ele><time>2026-03-29T13:57:47.914Z</time></trkpt><trkpt lat="43.0708217" lon="10.8435783"><ele>319.0</ele><time>2026-03-29T13:57:48.914Z</time></trkpt><trkpt lat="43.0707783" lon="10.84368"><ele>319.0</ele><time>2026-03-29T13:57:49.914Z</time></trkpt><trkpt lat="43.0707067" lon="10.84375"><ele>317.75</ele><time>2026-03-29T13:57:50.914Z</time></trkpt><trkpt lat="43.0706117" lon="10.8437967"><ele>316.5</ele><time>2026-03-29T13:57:51.914Z</time></trkpt><trkpt lat="43.0704733" lon="10.8438367"><ele>315.25</ele><time>2026-03-29T13:57:52.914Z</time></trkpt><trkpt lat="43.0702817" lon="10.8438733"><ele>314.0</ele><time>2026-03-29T13:57:53.914Z</time></trkpt><trkpt lat="43.0701483" lon="10.843945"><ele>314.0</ele><time>2026-03-29T13:57:54.914Z</time></trkpt><trkpt lat="43.0700133" lon="10.844035"><ele>314.0</ele><time>2026-03-29T13:57:55.914Z</time></trkpt><trkpt lat="43.0699017" lon="10.8441817"><ele>314.0</ele><time>2026-03-29T13:57:56.914Z</time></trkpt><trkpt lat="43.0697983" lon="10.8443583"><ele>315.6666666666667</ele><time>2026-03-29T13:57:57.914Z</time></trkpt><trkpt lat="43.0696767" lon="10.8445467"><ele>317.3333333333333</ele><time>2026-03-29T13:57:58.914Z</time></trkpt><trkpt lat="43.0695867" lon="10.84471"><ele>319.0</ele><time>2026-03-29T13:57:59.914Z</time></trkpt><trkpt lat="43.0695317" lon="10.8448767"><ele>319.0</ele><time>2026-03-29T13:58:00.914Z</time></trkpt><trkpt lat="43.0695017" lon="10.8450567"><ele>319.0</ele><time>2026-03-29T13:58:01.914Z</time></trkpt><trkpt lat="43.0694833" lon="10.8452733"><ele>319.0</ele><time>2026-03-29T13:58:02.914Z</time></trkpt><trkpt lat="43.0694533" lon="10.8455067"><ele>323.66666666666663</ele><time>2026-03-29T13:58:03.914Z</time></trkpt><trkpt lat="43.0694283" lon="10.8457933"><ele>328.3333333333333</ele><time>2026-03-29T13:58:04.914Z</time></trkpt><trkpt lat="43.06939" lon="10.8460767"><ele>333.0</ele><time>2026-03-29T13:58:05.914Z</time></trkpt><trkpt lat="43.0693567" lon="10.8463133"><ele>335.59999999999997</ele><time>2026-03-29T13:58:06.914Z</time></trkpt><trkpt lat="43.069305" lon="10.8464717"><ele>338.2</ele><time>2026-03-29T13:58:07.914Z</time></trkpt><trkpt lat="43.069265" lon="10.8465783"><ele>340.8</ele><time>2026-03-29T13:58:08.914Z</time></trkpt><trkpt lat="43.0691817" lon="10.8466233"><ele>343.4</ele><time>2026-03-29T13:58:09.914Z</time></trkpt><trkpt lat="43.0690883" lon="10.84665"><ele>346.0</ele><time>2026-03-29T13:58:10.914Z</time></trkpt><trkpt lat="43.0689733" lon="10.8466517"><ele>346.0</ele><time>2026-03-29T13:58:11.914Z</time></trkpt><trkpt lat="43.0688483" lon="10.8466567"><ele>346.0</ele><time>2026-03-29T13:58:12.914Z</time></trkpt><trkpt lat="43.0687283" lon="10.84668"><ele>346.0</ele><time>2026-03-29T13:58:13.914Z</time></trkpt><trkpt lat="43.0686383" lon="10.8467383"><ele>346.0</ele><time>2026-03-29T13:58:14.914Z</time></trkpt><trkpt lat="43.0685667" lon="10.8468383"><ele>346.0</ele><time>2026-03-29T13:58:15.914Z</time></trkpt><trkpt lat="43.068515" lon="10.8470133"><ele>350.0</ele><time>2026-03-29T13:58:16.914Z</time></trkpt><trkpt lat="43.068465" lon="10.847245"><ele>354.0</ele><time>2026-03-29T13:58:17.914Z</time></trkpt><trkpt lat="43.0684167" lon="10.8474667"><ele>358.0</ele><time>2026-03-29T13:58:18.914Z</time></trkpt><trkpt lat="43.06838" lon="10.84767"><ele>358.25</ele><time>2026-03-29T13:58:19.914Z</time></trkpt><trkpt lat="43.0683283" lon="10.8478517"><ele>358.5</ele><time>2026-03-29T13:58:20.914Z</time></trkpt><trkpt lat="43.0682883" lon="10.848025"><ele>358.75</ele><time>2026-03-29T13:58:21.914Z</time></trkpt><trkpt lat="43.0682467" lon="10.8481633"><ele>359.0</ele><time>2026-03-29T13:58:22.914Z</time></trkpt><trkpt lat="43.0681717" lon="10.8482883"><ele>356.5</ele><time>2026-03-29T13:58:23.914Z</time></trkpt><trkpt lat="43.0680767" lon="10.848405"><ele>354.0</ele><time>2026-03-29T13:58:24.914Z</time></trkpt><trkpt lat="43.06779" lon="10.8487583"><ele>351.0</ele><time>2026-03-29T13:58:27.914Z</time></trkpt><trkpt lat="43.0677233" lon="10.848865"><ele>348.0</ele><time>2026-03-29T13:58:28.914Z</time></trkpt><trkpt lat="43.0676733" lon="10.8489383"><ele>345.0</ele><time>2026-03-29T13:58:29.914Z</time></trkpt><trkpt lat="43.067635" lon="10.84901"><ele>342.0</ele><time>2026-03-29T13:58:30.914Z</time></trkpt><trkpt lat="43.067605" lon="10.8491367"><ele>339.0</ele><time>2026-03-29T13:58:32.914Z</time></trkpt><trkpt lat="43.067665" lon="10.849285"><ele>336.6666666666667</ele><time>2026-03-29T13:58:34.914Z</time></trkpt><trkpt lat="43.067715" lon="10.8493883"><ele>334.3333333333333</ele><time>2026-03-29T13:58:35.914Z</time></trkpt><trkpt lat="43.06774" lon="10.849515"><ele>332.0</ele><time>2026-03-29T13:58:36.914Z</time></trkpt><trkpt lat="43.0677617" lon="10.8496533"><ele>329.66666666666663</ele><time>2026-03-29T13:58:37.914Z</time></trkpt><trkpt lat="43.06775" lon="10.8497567"><ele>327.3333333333333</ele><time>2026-03-29T13:58:38.915Z</time></trkpt><trkpt lat="43.0677467" lon="10.8498483"><ele>325.0</ele><time>2026-03-29T13:58:39.914Z</time></trkpt><trkpt lat="43.0676583" lon="10.8499567"><ele>325.0</ele><time>2026-03-29T13:58:41.914Z</time></trkpt><trkpt lat="43.0675817" lon="10.84998"><ele>325.0</ele><time>2026-03-29T13:58:42.914Z</time></trkpt><trkpt lat="43.0674567" lon="10.8499733"><ele>325.0</ele><time>2026-03-29T13:58:43.915Z</time></trkpt><trkpt lat="43.0673133" lon="10.8499617"><ele>325.0</ele><time>2026-03-29T13:58:44.914Z</time></trkpt><trkpt lat="43.0671817" lon="10.8499433"><ele>323.0</ele><time>2026-03-29T13:58:45.915Z</time></trkpt><trkpt lat="43.0670983" lon="10.8499517"><ele>321.0</ele><time>2026-03-29T13:58:46.914Z</time></trkpt><trkpt lat="43.0670367" lon="10.849985"><ele>319.0</ele><time>2026-03-29T13:58:47.914Z</time></trkpt><trkpt lat="43.0669767" lon="10.8501283"><ele>317.0</ele><time>2026-03-29T13:58:49.914Z</time></trkpt><trkpt lat="43.0670083" lon="10.850255"><ele>315.0</ele><time>2026-03-29T13:58:50.914Z</time></trkpt><trkpt lat="43.0670317" lon="10.85039"><ele>311.25</ele><time>2026-03-29T13:58:51.915Z</time></trkpt><trkpt lat="43.0670283" lon="10.8505333"><ele>307.5</ele><time>2026-03-29T13:58:52.914Z</time></trkpt><trkpt lat="43.0670267" lon="10.8506967"><ele>303.75</ele><time>2026-03-29T13:58:53.914Z</time></trkpt><trkpt lat="43.067" lon="10.85085"><ele>300.0</ele><time>2026-03-29T13:58:54.914Z</time></trkpt><trkpt lat="43.066955" lon="10.851005"><ele>297.75</ele><time>2026-03-29T13:58:55.914Z</time></trkpt><trkpt lat="43.06693" lon="10.8511833"><ele>295.5</ele><time>2026-03-29T13:58:56.914Z</time></trkpt><trkpt lat="43.066925" lon="10.8513583"><ele>293.25</ele><time>2026-03-29T13:58:57.914Z</time></trkpt><trkpt lat="43.066915" lon="10.8515367"><ele>291.0</ele><time>2026-03-29T13:58:58.914Z</time></trkpt><trkpt lat="43.0668817" lon="10.8516983"><ele>289.0</ele><time>2026-03-29T13:58:59.914Z</time></trkpt><trkpt lat="43.0668267" lon="10.8518417"><ele>287.0</ele><time>2026-03-29T13:59:00.914Z</time></trkpt><trkpt lat="43.0667367" lon="10.8519683"><ele>285.0</ele><time>2026-03-29T13:59:01.914Z</time></trkpt><trkpt lat="43.0665983" lon="10.8521083"><ele>283.0</ele><time>2026-03-29T13:59:02.914Z</time></trkpt><trkpt lat="43.066475" lon="10.8522833"><ele>280.0</ele><time>2026-03-29T13:59:03.914Z</time></trkpt><trkpt lat="43.06633" lon="10.852475"><ele>277.0</ele><time>2026-03-29T13:59:04.914Z</time></trkpt><trkpt lat="43.0662133" lon="10.8526783"><ele>274.0</ele><time>2026-03-29T13:59:05.914Z</time></trkpt><trkpt lat="43.0661" lon="10.8528783"><ele>272.3333333333333</ele><time>2026-03-29T13:59:06.914Z</time></trkpt><trkpt lat="43.0659967" lon="10.8530733"><ele>270.6666666666667</ele><time>2026-03-29T13:59:07.914Z</time></trkpt><trkpt lat="43.06591" lon="10.8532867"><ele>269.0</ele><time>2026-03-29T13:59:08.914Z</time></trkpt><trkpt lat="43.06584" lon="10.8534933"><ele>265.6666666666667</ele><time>2026-03-29T13:59:09.915Z</time></trkpt><trkpt lat="43.0657617" lon="10.853705"><ele>262.3333333333333</ele><time>2026-03-29T13:59:10.914Z</time></trkpt><trkpt lat="43.0656733" lon="10.8538883"><ele>259.0</ele><time>2026-03-29T13:59:11.914Z</time></trkpt><trkpt lat="43.0655767" lon="10.8540317"><ele>259.0</ele><time>2026-03-29T13:59:12.914Z</time></trkpt><trkpt lat="43.0654633" lon="10.8541517"><ele>259.0</ele><time>2026-03-29T13:59:13.914Z</time></trkpt><trkpt lat="43.06532" lon="10.8542367"><ele>259.0</ele><time>2026-03-29T13:59:14.914Z</time></trkpt><trkpt lat="43.0651417" lon="10.8543"><ele>258.0</ele><time>2026-03-29T13:59:15.914Z</time></trkpt><trkpt lat="43.0649583" lon="10.8543583"><ele>257.0</ele><time>2026-03-29T13:59:16.914Z</time></trkpt><trkpt lat="43.0647867" lon="10.85442"><ele>256.0</ele><time>2026-03-29T13:59:17.914Z</time></trkpt><trkpt lat="43.0646183" lon="10.8544883"><ele>253.66666666666666</ele><time>2026-03-29T13:59:18.914Z</time></trkpt><trkpt lat="43.0644567" lon="10.8545667"><ele>251.33333333333331</ele><time>2026-03-29T13:59:19.914Z</time></trkpt><trkpt lat="43.06431" lon="10.85464"><ele>249.0</ele><time>2026-03-29T13:59:20.914Z</time></trkpt><trkpt lat="43.0641783" lon="10.8547367"><ele>245.5</ele><time>2026-03-29T13:59:21.914Z</time></trkpt><trkpt lat="43.0640717" lon="10.8548467"><ele>242.0</ele><time>2026-03-29T13:59:22.915Z</time></trkpt><trkpt lat="43.0639767" lon="10.85495"><ele>238.5</ele><time>2026-03-29T13:59:23.914Z</time></trkpt><trkpt lat="43.0638917" lon="10.8550183"><ele>235.0</ele><time>2026-03-29T13:59:24.914Z</time></trkpt><trkpt lat="43.0637967" lon="10.8550433"><ele>235.0</ele><time>2026-03-29T13:59:25.914Z</time></trkpt><trkpt lat="43.0637017" lon="10.8550283"><ele>235.0</ele><time>2026-03-29T13:59:26.914Z</time></trkpt><trkpt lat="43.0635983" lon="10.8549867"><ele>235.0</ele><time>2026-03-29T13:59:27.914Z</time></trkpt><trkpt lat="43.0634783" lon="10.8548983"><ele>235.0</ele><time>2026-03-29T13:59:28.914Z</time></trkpt><trkpt lat="43.06334" lon="10.8548133"><ele>231.25</ele><time>2026-03-29T13:59:29.914Z</time></trkpt><trkpt lat="43.0631967" lon="10.8547467"><ele>227.5</ele><time>2026-03-29T13:59:30.914Z</time></trkpt><trkpt lat="43.0630583" lon="10.854705"><ele>223.75</ele><time>2026-03-29T13:59:31.914Z</time></trkpt><trkpt lat="43.0629217" lon="10.854705"><ele>220.0</ele><time>2026-03-29T13:59:32.914Z</time></trkpt><trkpt lat="43.06278" lon="10.8547567"><ele>220.0</ele><time>2026-03-29T13:59:33.914Z</time></trkpt><trkpt lat="43.0626467" lon="10.854815"><ele>220.0</ele><time>2026-03-29T13:59:34.914Z</time></trkpt><trkpt lat="43.0625183" lon="10.854915"><ele>220.0</ele><time>2026-03-29T13:59:35.914Z</time></trkpt><trkpt lat="43.0624067" lon="10.85506"><ele>220.0</ele><time>2026-03-29T13:59:36.914Z</time></trkpt><trkpt lat="43.0623167" lon="10.8552283"><ele>216.75</ele><time>2026-03-29T13:59:37.914Z</time></trkpt><trkpt lat="43.06226" lon="10.85538"><ele>213.5</ele><time>2026-03-29T13:59:38.914Z</time></trkpt><trkpt lat="43.0622367" lon="10.85553"><ele>210.25</ele><time>2026-03-29T13:59:39.914Z</time></trkpt><trkpt lat="43.06225" lon="10.8556767"><ele>207.0</ele><time>2026-03-29T13:59:40.914Z</time></trkpt><trkpt lat="43.0622867" lon="10.8558483"><ele>207.33333333333331</ele><time>2026-03-29T13:59:41.914Z</time></trkpt><trkpt lat="43.0623517" lon="10.8560733"><ele>207.66666666666666</ele><time>2026-03-29T13:59:42.914Z</time></trkpt><trkpt lat="43.06242" lon="10.8563317"><ele>208.0</ele><time>2026-03-29T13:59:43.914Z</time></trkpt><trkpt lat="43.062475" lon="10.856585"><ele>206.0</ele><time>2026-03-29T13:59:44.914Z</time></trkpt><trkpt lat="43.0625233" lon="10.856815"><ele>204.0</ele><time>2026-03-29T13:59:45.915Z</time></trkpt><trkpt lat="43.0625733" lon="10.8570317"><ele>202.0</ele><time>2026-03-29T13:59:46.914Z</time></trkpt><trkpt lat="43.062645" lon="10.8572283"><ele>202.0</ele><time>2026-03-29T13:59:47.914Z</time></trkpt><trkpt lat="43.0627533" lon="10.85742"><ele>202.0</ele><time>2026-03-29T13:59:48.914Z</time></trkpt><trkpt lat="43.0628933" lon="10.857605"><ele>202.0</ele><time>2026-03-29T13:59:49.914Z</time></trkpt><trkpt lat="43.0630267" lon="10.8577733"><ele>199.5</ele><time>2026-03-29T13:59:50.914Z</time></trkpt><trkpt lat="43.0631233" lon="10.8578933"><ele>197.0</ele><time>2026-03-29T13:59:51.914Z</time></trkpt><trkpt lat="43.0632017" lon="10.85803"><ele>194.5</ele><time>2026-03-29T13:59:52.914Z</time></trkpt><trkpt lat="43.063225" lon="10.8581667"><ele>192.0</ele><time>2026-03-29T13:59:53.914Z</time></trkpt><trkpt lat="43.0632267" lon="10.8583217"><ele>191.5</ele><time>2026-03-29T13:59:54.914Z</time></trkpt><trkpt lat="43.0632633" lon="10.8584683"><ele>191.0</ele><time>2026-03-29T13:59:55.914Z</time></trkpt><trkpt lat="43.0633467" lon="10.8585867"><ele>190.5</ele><time>2026-03-29T13:59:56.914Z</time></trkpt><trkpt lat="43.0634583" lon="10.8586967"><ele>190.0</ele><time>2026-03-29T13:59:57.914Z</time></trkpt><trkpt lat="43.06354" lon="10.8588017"><ele>191.0</ele><time>2026-03-29T13:59:58.914Z</time></trkpt><trkpt lat="43.06358" lon="10.858925"><ele>192.0</ele><time>2026-03-29T13:59:59.914Z</time></trkpt><trkpt lat="43.063585" lon="10.8590833"><ele>193.0</ele><time>2026-03-29T14:00:00.914Z</time></trkpt><trkpt lat="43.0635617" lon="10.85926"><ele>194.0</ele><time>2026-03-29T14:00:01.914Z</time></trkpt><trkpt lat="43.0634917" lon="10.859475"><ele>193.33333333333334</ele><time>2026-03-29T14:00:02.914Z</time></trkpt><trkpt lat="43.0633967" lon="10.859735"><ele>192.66666666666669</ele><time>2026-03-29T14:00:03.914Z</time></trkpt><trkpt lat="43.0632883" lon="10.8600167"><ele>192.0</ele><time>2026-03-29T14:00:04.914Z</time></trkpt><trkpt lat="43.06318" lon="10.8603033"><ele>192.0</ele><time>2026-03-29T14:00:05.915Z</time></trkpt><trkpt lat="43.06308" lon="10.8605683"><ele>192.0</ele><time>2026-03-29T14:00:06.914Z</time></trkpt><trkpt lat="43.0629867" lon="10.86081"><ele>192.0</ele><time>2026-03-29T14:00:07.914Z</time></trkpt><trkpt lat="43.0629083" lon="10.8610233"><ele>192.25</ele><time>2026-03-29T14:00:08.914Z</time></trkpt><trkpt lat="43.0628517" lon="10.8612133"><ele>192.5</ele><time>2026-03-29T14:00:09.914Z</time></trkpt><trkpt lat="43.06283" lon="10.8613767"><ele>192.75</ele><time>2026-03-29T14:00:10.914Z</time></trkpt><trkpt lat="43.0628333" lon="10.8615483"><ele>193.0</ele><time>2026-03-29T14:00:11.914Z</time></trkpt><trkpt lat="43.0628983" lon="10.86172"><ele>191.66666666666666</ele><time>2026-03-29T14:00:12.914Z</time></trkpt><trkpt lat="43.062985" lon="10.8619217"><ele>190.33333333333331</ele><time>2026-03-29T14:00:13.914Z</time></trkpt><trkpt lat="43.0630767" lon="10.8621283"><ele>189.0</ele><time>2026-03-29T14:00:14.914Z</time></trkpt><trkpt lat="43.0631533" lon="10.8623183"><ele>189.0</ele><time>2026-03-29T14:00:15.914Z</time></trkpt><trkpt lat="43.0631967" lon="10.8624983"><ele>189.0</ele><time>2026-03-29T14:00:16.914Z</time></trkpt><trkpt lat="43.0631967" lon="10.86269"><ele>189.0</ele><time>2026-03-29T14:00:17.914Z</time></trkpt><trkpt lat="43.0631633" lon="10.8628883"><ele>189.0</ele><time>2026-03-29T14:00:18.914Z</time></trkpt><trkpt lat="43.06312" lon="10.8631283"><ele>189.0</ele><time>2026-03-29T14:00:19.914Z</time></trkpt><trkpt lat="43.0630783" lon="10.8633717"><ele>189.0</ele><time>2026-03-29T14:00:20.914Z</time></trkpt><trkpt lat="43.06305" lon="10.8636267"><ele>189.0</ele><time>2026-03-29T14:00:21.914Z</time></trkpt><trkpt lat="43.0630283" lon="10.863885"><ele>189.0</ele><time>2026-03-29T14:00:22.914Z</time></trkpt><trkpt lat="43.06301" lon="10.8641467"><ele>189.0</ele><time>2026-03-29T14:00:23.915Z</time></trkpt><trkpt lat="43.062995" lon="10.8644"><ele>189.0</ele><time>2026-03-29T14:00:24.914Z</time></trkpt><trkpt lat="43.0629883" lon="10.8646517"><ele>188.66666666666666</ele><time>2026-03-29T14:00:25.914Z</time></trkpt><trkpt lat="43.06296" lon="10.8649033"><ele>188.33333333333331</ele><time>2026-03-29T14:00:26.914Z</time></trkpt><trkpt lat="43.0628967" lon="10.86515"><ele>188.0</ele><time>2026-03-29T14:00:27.914Z</time></trkpt><trkpt lat="43.0628167" lon="10.8653867"><ele>188.0</ele><time>2026-03-29T14:00:28.914Z</time></trkpt><trkpt lat="43.062725" lon="10.8656133"><ele>188.0</ele><time>2026-03-29T14:00:29.914Z</time></trkpt><trkpt lat="43.06264" lon="10.8658117"><ele>188.0</ele><time>2026-03-29T14:00:30.914Z</time></trkpt><trkpt lat="43.06258" lon="10.8660117"><ele>189.5</ele><time>2026-03-29T14:00:31.914Z</time></trkpt><trkpt lat="43.062545" lon="10.8662017"><ele>191.0</ele><time>2026-03-29T14:00:32.914Z</time></trkpt><trkpt lat="43.062525" lon="10.86639"><ele>192.5</ele><time>2026-03-29T14:00:33.914Z</time></trkpt><trkpt lat="43.062535" lon="10.866605"><ele>194.0</ele><time>2026-03-29T14:00:34.914Z</time></trkpt><trkpt lat="43.0625417" lon="10.8668183"><ele>194.0</ele><time>2026-03-29T14:00:35.914Z</time></trkpt><trkpt lat="43.0625467" lon="10.8670117"><ele>194.0</ele><time>2026-03-29T14:00:36.914Z</time></trkpt><trkpt lat="43.0625533" lon="10.8671833"><ele>194.0</ele><time>2026-03-29T14:00:37.914Z</time></trkpt><trkpt lat="43.0625533" lon="10.8673417"><ele>194.0</ele><time>2026-03-29T14:00:38.914Z</time></trkpt><trkpt lat="43.0625383" lon="10.8675167"><ele>193.75</ele><time>2026-03-29T14:00:39.914Z</time></trkpt><trkpt lat="43.0625283" lon="10.867695"><ele>193.5</ele><time>2026-03-29T14:00:40.914Z</time></trkpt><trkpt lat="43.06253" lon="10.8678967"><ele>193.25</ele><time>2026-03-29T14:00:41.914Z</time></trkpt><trkpt lat="43.062525" lon="10.868115"><ele>193.0</ele><time>2026-03-29T14:00:42.914Z</time></trkpt><trkpt lat="43.0625067" lon="10.8683533"><ele>192.33333333333331</ele><time>2026-03-29T14:00:43.914Z</time></trkpt><trkpt lat="43.0624767" lon="10.8685983"><ele>191.66666666666666</ele><time>2026-03-29T14:00:44.914Z</time></trkpt><trkpt lat="43.062435" lon="10.868835"><ele>191.0</ele><time>2026-03-29T14:00:45.914Z</time></trkpt><trkpt lat="43.062375" lon="10.8690317"><ele>189.25</ele><time>2026-03-29T14:00:46.915Z</time></trkpt><trkpt lat="43.0622967" lon="10.8691933"><ele>187.5</ele><time>2026-03-29T14:00:47.914Z</time></trkpt><trkpt lat="43.062195" lon="10.8693283"><ele>185.75</ele><time>2026-03-29T14:00:48.914Z</time></trkpt><trkpt lat="43.06207" lon="10.869435"><ele>184.0</ele><time>2026-03-29T14:00:49.914Z</time></trkpt><trkpt lat="43.061925" lon="10.869555"><ele>184.0</ele><time>2026-03-29T14:00:50.914Z</time></trkpt><trkpt lat="43.061815" lon="10.8697283"><ele>184.0</ele><time>2026-03-29T14:00:51.914Z</time></trkpt><trkpt lat="43.0617217" lon="10.8699517"><ele>184.0</ele><time>2026-03-29T14:00:52.914Z</time></trkpt><trkpt lat="43.0616333" lon="10.8701483"><ele>183.33333333333334</ele><time>2026-03-29T14:00:53.914Z</time></trkpt><trkpt lat="43.0615283" lon="10.8702967"><ele>182.66666666666666</ele><time>2026-03-29T14:00:54.914Z</time></trkpt><trkpt lat="43.06138" lon="10.8703917"><ele>182.0</ele><time>2026-03-29T14:00:55.914Z</time></trkpt><trkpt lat="43.0612083" lon="10.870495"><ele>182.0</ele><time>2026-03-29T14:00:56.914Z</time></trkpt><trkpt lat="43.061005" lon="10.870595"><ele>182.0</ele><time>2026-03-29T14:00:57.914Z</time></trkpt><trkpt lat="43.060785" lon="10.8707133"><ele>181.0</ele><time>2026-03-29T14:00:58.914Z</time></trkpt><trkpt lat="43.0605617" lon="10.8708483"><ele>180.0</ele><time>2026-03-29T14:00:59.914Z</time></trkpt><trkpt lat="43.060355" lon="10.870975"><ele>180.0</ele><time>2026-03-29T14:01:00.914Z</time></trkpt><trkpt lat="43.0601533" lon="10.87109"><ele>180.0</ele><time>2026-03-29T14:01:01.914Z</time></trkpt><trkpt lat="43.059955" lon="10.871215"><ele>180.0</ele><time>2026-03-29T14:01:02.914Z</time></trkpt><trkpt lat="43.059755" lon="10.8713467"><ele>179.33333333333334</ele><time>2026-03-29T14:01:03.914Z</time></trkpt><trkpt lat="43.0595633" lon="10.8714483"><ele>178.66666666666669</ele><time>2026-03-29T14:01:04.914Z</time></trkpt><trkpt lat="43.0593767" lon="10.871555"><ele>178.0</ele><time>2026-03-29T14:01:05.915Z</time></trkpt><trkpt lat="43.0591917" lon="10.8716367"><ele>177.5</ele><time>2026-03-29T14:01:06.914Z</time></trkpt><trkpt lat="43.0590283" lon="10.8717083"><ele>177.0</ele><time>2026-03-29T14:01:07.914Z</time></trkpt><trkpt lat="43.0589117" lon="10.8717717"><ele>176.5</ele><time>2026-03-29T14:01:08.914Z</time></trkpt><trkpt lat="43.0588217" lon="10.87186"><ele>176.0</ele><time>2026-03-29T14:01:09.914Z</time></trkpt><trkpt lat="43.05875" lon="10.8719783"><ele>176.0</ele><time>2026-03-29T14:01:10.914Z</time></trkpt><trkpt lat="43.0586917" lon="10.8721383"><ele>176.0</ele><time>2026-03-29T14:01:11.914Z</time></trkpt><trkpt lat="43.0586267" lon="10.8722817"><ele>176.0</ele><time>2026-03-29T14:01:12.914Z</time></trkpt><trkpt lat="43.0585483" lon="10.8724133"><ele>176.0</ele><time>2026-03-29T14:01:13.914Z</time></trkpt><trkpt lat="43.058485" lon="10.8725267"><ele>176.0</ele><time>2026-03-29T14:01:14.914Z</time></trkpt><trkpt lat="43.0584467" lon="10.8726667"><ele>176.0</ele><time>2026-03-29T14:01:15.914Z</time></trkpt><trkpt lat="43.0584317" lon="10.87283"><ele>176.0</ele><time>2026-03-29T14:01:16.914Z</time></trkpt><trkpt lat="43.0584383" lon="10.8729967"><ele>176.0</ele><time>2026-03-29T14:01:17.914Z</time></trkpt><trkpt lat="43.0584533" lon="10.873165"><ele>176.0</ele><time>2026-03-29T14:01:18.914Z</time></trkpt><trkpt lat="43.0584767" lon="10.8733417"><ele>176.0</ele><time>2026-03-29T14:01:19.914Z</time></trkpt><trkpt lat="43.0584683" lon="10.8735217"><ele>176.0</ele><time>2026-03-29T14:01:20.914Z</time></trkpt><trkpt lat="43.058445" lon="10.8737167"><ele>176.0</ele><time>2026-03-29T14:01:21.914Z</time></trkpt><trkpt lat="43.0583983" lon="10.8739133"><ele>176.33333333333331</ele><time>2026-03-29T14:01:22.914Z</time></trkpt><trkpt lat="43.0583383" lon="10.8741217"><ele>176.66666666666666</ele><time>2026-03-29T14:01:23.914Z</time></trkpt><trkpt lat="43.0582583" lon="10.8743133"><ele>177.0</ele><time>2026-03-29T14:01:24.914Z</time></trkpt><trkpt lat="43.0581783" lon="10.8744983"><ele>177.0</ele><time>2026-03-29T14:01:25.914Z</time></trkpt><trkpt lat="43.0581183" lon="10.87468"><ele>177.0</ele><time>2026-03-29T14:01:26.914Z</time></trkpt><trkpt lat="43.058075" lon="10.8748933"><ele>177.0</ele><time>2026-03-29T14:01:27.914Z</time></trkpt><trkpt lat="43.058045" lon="10.87512"><ele>178.0</ele><time>2026-03-29T14:01:28.914Z</time></trkpt><trkpt lat="43.0580183" lon="10.87535"><ele>179.0</ele><time>2026-03-29T14:01:29.914Z</time></trkpt><trkpt lat="43.0579867" lon="10.8755767"><ele>180.0</ele><time>2026-03-29T14:01:30.914Z</time></trkpt><trkpt lat="43.0579617" lon="10.875775"><ele>181.75</ele><time>2026-03-29T14:01:31.914Z</time></trkpt><trkpt lat="43.0579183" lon="10.875975"><ele>183.5</ele><time>2026-03-29T14:01:32.914Z</time></trkpt><trkpt lat="43.05786" lon="10.8761333"><ele>185.25</ele><time>2026-03-29T14:01:33.914Z</time></trkpt><trkpt lat="43.05777" lon="10.876245"><ele>187.0</ele><time>2026-03-29T14:01:34.914Z</time></trkpt><trkpt lat="43.0576617" lon="10.876335"><ele>187.0</ele><time>2026-03-29T14:01:35.914Z</time></trkpt><trkpt lat="43.0575483" lon="10.8764217"><ele>187.0</ele><time>2026-03-29T14:01:36.914Z</time></trkpt><trkpt lat="43.0574433" lon="10.8765317"><ele>187.0</ele><time>2026-03-29T14:01:37.914Z</time></trkpt><trkpt lat="43.057345" lon="10.87667"><ele>187.0</ele><time>2026-03-29T14:01:38.914Z</time></trkpt><trkpt lat="43.0572583" lon="10.8768167"><ele>188.0</ele><time>2026-03-29T14:01:39.914Z</time></trkpt><trkpt lat="43.0571867" lon="10.87695"><ele>189.0</ele><time>2026-03-29T14:01:40.914Z</time></trkpt><trkpt lat="43.057135" lon="10.8770733"><ele>190.0</ele><time>2026-03-29T14:01:41.914Z</time></trkpt><trkpt lat="43.0570833" lon="10.8771917"><ele>191.0</ele><time>2026-03-29T14:01:42.914Z</time></trkpt><trkpt lat="43.05701" lon="10.877295"><ele>192.0</ele><time>2026-03-29T14:01:43.914Z</time></trkpt><trkpt lat="43.056915" lon="10.8773917"><ele>192.0</ele><time>2026-03-29T14:01:44.914Z</time></trkpt><trkpt lat="43.0568133" lon="10.8774783"><ele>192.0</ele><time>2026-03-29T14:01:45.914Z</time></trkpt><trkpt lat="43.05671" lon="10.87759"><ele>192.0</ele><time>2026-03-29T14:01:46.914Z</time></trkpt><trkpt lat="43.05664" lon="10.877725"><ele>192.0</ele><time>2026-03-29T14:01:47.914Z</time></trkpt><trkpt lat="43.056605" lon="10.87789"><ele>192.5</ele><time>2026-03-29T14:01:48.914Z</time></trkpt><trkpt lat="43.0565933" lon="10.8780733"><ele>193.0</ele><time>2026-03-29T14:01:49.914Z</time></trkpt><trkpt lat="43.056585" lon="10.87827"><ele>193.5</ele><time>2026-03-29T14:01:50.914Z</time></trkpt><trkpt lat="43.056575" lon="10.8784667"><ele>194.0</ele><time>2026-03-29T14:01:51.914Z</time></trkpt><trkpt lat="43.0565383" lon="10.8786617"><ele>195.75</ele><time>2026-03-29T14:01:52.914Z</time></trkpt><trkpt lat="43.0564967" lon="10.878855"><ele>197.5</ele><time>2026-03-29T14:01:53.914Z</time></trkpt><trkpt lat="43.0564767" lon="10.8790417"><ele>199.25</ele><time>2026-03-29T14:01:54.914Z</time></trkpt><trkpt lat="43.0564333" lon="10.8792483"><ele>201.0</ele><time>2026-03-29T14:01:55.914Z</time></trkpt><trkpt lat="43.0563883" lon="10.8793983"><ele>202.4</ele><time>2026-03-29T14:01:56.914Z</time></trkpt><trkpt lat="43.05633" lon="10.8794983"><ele>203.8</ele><time>2026-03-29T14:01:57.915Z</time></trkpt><trkpt lat="43.05625" lon="10.8795767"><ele>205.20000000000002</ele><time>2026-03-29T14:01:58.914Z</time></trkpt><trkpt lat="43.0561633" lon="10.8796867"><ele>206.60000000000002</ele><time>2026-03-29T14:01:59.914Z</time></trkpt><trkpt lat="43.0560967" lon="10.8798267"><ele>208.0</ele><time>2026-03-29T14:02:00.914Z</time></trkpt><trkpt lat="43.0560433" lon="10.8799967"><ele>211.0</ele><time>2026-03-29T14:02:01.914Z</time></trkpt><trkpt lat="43.0559917" lon="10.880195"><ele>214.0</ele><time>2026-03-29T14:02:02.914Z</time></trkpt><trkpt lat="43.05594" lon="10.8804"><ele>217.0</ele><time>2026-03-29T14:02:03.914Z</time></trkpt><trkpt lat="43.0559" lon="10.8806117"><ele>217.0</ele><time>2026-03-29T14:02:04.914Z</time></trkpt><trkpt lat="43.0558783" lon="10.8808"><ele>217.0</ele><time>2026-03-29T14:02:05.914Z</time></trkpt><trkpt lat="43.0558617" lon="10.880975"><ele>217.0</ele><time>2026-03-29T14:02:06.914Z</time></trkpt><trkpt lat="43.0558283" lon="10.8811383"><ele>217.0</ele><time>2026-03-29T14:02:07.914Z</time></trkpt><trkpt lat="43.055815" lon="10.8812983"><ele>218.25</ele><time>2026-03-29T14:02:08.914Z</time></trkpt><trkpt lat="43.055825" lon="10.8814583"><ele>219.5</ele><time>2026-03-29T14:02:09.914Z</time></trkpt><trkpt lat="43.0558517" lon="10.8816183"><ele>220.75</ele><time>2026-03-29T14:02:10.914Z</time></trkpt><trkpt lat="43.05591" lon="10.8817733"><ele>222.0</ele><time>2026-03-29T14:02:11.914Z</time></trkpt><trkpt lat="43.0559533" lon="10.8819033"><ele>223.39999999999998</ele><time>2026-03-29T14:02:12.914Z</time></trkpt><trkpt lat="43.0559833" lon="10.8820183"><ele>224.79999999999998</ele><time>2026-03-29T14:02:13.914Z</time></trkpt><trkpt lat="43.0559817" lon="10.8821233"><ele>226.2</ele><time>2026-03-29T14:02:14.914Z</time></trkpt><trkpt lat="43.0559467" lon="10.8822467"><ele>227.6</ele><time>2026-03-29T14:02:15.914Z</time></trkpt><trkpt lat="43.0558817" lon="10.88239"><ele>229.0</ele><time>2026-03-29T14:02:16.914Z</time></trkpt><trkpt lat="43.055815" lon="10.8825583"><ele>232.5</ele><time>2026-03-29T14:02:17.914Z</time></trkpt><trkpt lat="43.0557433" lon="10.8827317"><ele>236.0</ele><time>2026-03-29T14:02:18.914Z</time></trkpt><trkpt lat="43.0556817" lon="10.8829133"><ele>239.5</ele><time>2026-03-29T14:02:19.914Z</time></trkpt><trkpt lat="43.0556217" lon="10.883095"><ele>243.0</ele><time>2026-03-29T14:02:20.914Z</time></trkpt><trkpt lat="43.0555917" lon="10.8832767"><ele>245.5</ele><time>2026-03-29T14:02:21.914Z</time></trkpt><trkpt lat="43.0555667" lon="10.8834417"><ele>248.0</ele><time>2026-03-29T14:02:22.914Z</time></trkpt><trkpt lat="43.0555517" lon="10.8836"><ele>250.5</ele><time>2026-03-29T14:02:23.914Z</time></trkpt><trkpt lat="43.05554" lon="10.8837583"><ele>253.0</ele><time>2026-03-29T14:02:24.914Z</time></trkpt><trkpt lat="43.0555167" lon="10.8839367"><ele>253.0</ele><time>2026-03-29T14:02:25.914Z</time></trkpt><trkpt lat="43.0554967" lon="10.8841233"><ele>253.0</ele><time>2026-03-29T14:02:26.914Z</time></trkpt><trkpt lat="43.05546" lon="10.8842883"><ele>253.0</ele><time>2026-03-29T14:02:27.914Z</time></trkpt><trkpt lat="43.05541" lon="10.8844233"><ele>253.0</ele><time>2026-03-29T14:02:28.914Z</time></trkpt><trkpt lat="43.0553533" lon="10.8845283"><ele>255.8</ele><time>2026-03-29T14:02:29.914Z</time></trkpt><trkpt lat="43.0553317" lon="10.8846283"><ele>258.6</ele><time>2026-03-29T14:02:30.914Z</time></trkpt><trkpt lat="43.055325" lon="10.8847417"><ele>261.4</ele><time>2026-03-29T14:02:31.914Z</time></trkpt><trkpt lat="43.05537" lon="10.8848567"><ele>264.2</ele><time>2026-03-29T14:02:32.914Z</time></trkpt><trkpt lat="43.05543" lon="10.8849917"><ele>267.0</ele><time>2026-03-29T14:02:33.914Z</time></trkpt><trkpt lat="43.055495" lon="10.88514"><ele>271.6666666666667</ele><time>2026-03-29T14:02:34.914Z</time></trkpt><trkpt lat="43.0555567" lon="10.8852967"><ele>276.33333333333337</ele><time>2026-03-29T14:02:35.914Z</time></trkpt><trkpt lat="43.05566" lon="10.8856117"><ele>281.0</ele><time>2026-03-29T14:02:37.914Z</time></trkpt><trkpt lat="43.0556883" lon="10.8857633"><ele>281.0</ele><time>2026-03-29T14:02:38.914Z</time></trkpt><trkpt lat="43.0556933" lon="10.8859083"><ele>281.0</ele><time>2026-03-29T14:02:39.914Z</time></trkpt><trkpt lat="43.05567" lon="10.8860633"><ele>281.0</ele><time>2026-03-29T14:02:40.914Z</time></trkpt><trkpt lat="43.055645" lon="10.8862167"><ele>281.0</ele><time>2026-03-29T14:02:41.914Z</time></trkpt><trkpt lat="43.0556417" lon="10.8863533"><ele>281.0</ele><time>2026-03-29T14:02:42.914Z</time></trkpt><trkpt lat="43.055655" lon="10.88648"><ele>280.0</ele><time>2026-03-29T14:02:43.914Z</time></trkpt><trkpt lat="43.0556933" lon="10.8865783"><ele>279.0</ele><time>2026-03-29T14:02:44.914Z</time></trkpt><trkpt lat="43.055765" lon="10.8866667"><ele>278.0</ele><time>2026-03-29T14:02:45.914Z</time></trkpt><trkpt lat="43.055865" lon="10.886775"><ele>277.0</ele><time>2026-03-29T14:02:46.914Z</time></trkpt><trkpt lat="43.055955" lon="10.886905"><ele>276.0</ele><time>2026-03-29T14:02:47.914Z</time></trkpt><trkpt lat="43.0560317" lon="10.8870683"><ele>276.0</ele><time>2026-03-29T14:02:48.914Z</time></trkpt><trkpt lat="43.05608" lon="10.8872483"><ele>276.0</ele><time>2026-03-29T14:02:49.914Z</time></trkpt><trkpt lat="43.056125" lon="10.8874267"><ele>276.0</ele><time>2026-03-29T14:02:50.914Z</time></trkpt><trkpt lat="43.0561617" lon="10.887615"><ele>276.0</ele><time>2026-03-29T14:02:51.914Z</time></trkpt><trkpt lat="43.0562117" lon="10.88781"><ele>280.6666666666667</ele><time>2026-03-29T14:02:52.914Z</time></trkpt><trkpt lat="43.05628" lon="10.8879917"><ele>285.33333333333337</ele><time>2026-03-29T14:02:53.914Z</time></trkpt><trkpt lat="43.05637" lon="10.8881683"><ele>290.0</ele><time>2026-03-29T14:02:54.914Z</time></trkpt><trkpt lat="43.05646" lon="10.8883483"><ele>294.6666666666667</ele><time>2026-03-29T14:02:55.914Z</time></trkpt><trkpt lat="43.0565367" lon="10.8885783"><ele>299.3333333333333</ele><time>2026-03-29T14:02:56.914Z</time></trkpt><trkpt lat="43.056615" lon="10.8888067"><ele>304.0</ele><time>2026-03-29T14:02:57.914Z</time></trkpt><trkpt lat="43.05667" lon="10.88905"><ele>298.3333333333333</ele><time>2026-03-29T14:02:58.914Z</time></trkpt><trkpt lat="43.0567167" lon="10.8892817"><ele>292.6666666666667</ele><time>2026-03-29T14:02:59.914Z</time></trkpt><trkpt lat="43.0567533" lon="10.8895033"><ele>287.0</ele><time>2026-03-29T14:03:00.914Z</time></trkpt><trkpt lat="43.0567917" lon="10.8897233"><ele>287.0</ele><time>2026-03-29T14:03:01.915Z</time></trkpt><trkpt lat="43.0568517" lon="10.8899283"><ele>287.0</ele><time>2026-03-29T14:03:02.914Z</time></trkpt><trkpt lat="43.0568983" lon="10.8901233"><ele>287.0</ele><time>2026-03-29T14:03:03.914Z</time></trkpt><trkpt lat="43.0569333" lon="10.89029"><ele>287.0</ele><time>2026-03-29T14:03:04.914Z</time></trkpt><trkpt lat="43.0569517" lon="10.890435"><ele>288.25</ele><time>2026-03-29T14:03:05.914Z</time></trkpt><trkpt lat="43.0569483" lon="10.8905967"><ele>289.5</ele><time>2026-03-29T14:03:06.915Z</time></trkpt><trkpt lat="43.056935" lon="10.8907867"><ele>290.75</ele><time>2026-03-29T14:03:07.914Z</time></trkpt><trkpt lat="43.0569383" lon="10.8910033"><ele>292.0</ele><time>2026-03-29T14:03:08.914Z</time></trkpt><trkpt lat="43.0569733" lon="10.8912183"><ele>292.66666666666663</ele><time>2026-03-29T14:03:09.914Z</time></trkpt><trkpt lat="43.0570217" lon="10.8914533"><ele>293.3333333333333</ele><time>2026-03-29T14:03:10.914Z</time></trkpt><trkpt lat="43.0570467" lon="10.8916883"><ele>294.0</ele><time>2026-03-29T14:03:11.914Z</time></trkpt><trkpt lat="43.05708" lon="10.8919333"><ele>294.6666666666667</ele><time>2026-03-29T14:03:12.914Z</time></trkpt><trkpt lat="43.0571383" lon="10.89216"><ele>295.33333333333337</ele><time>2026-03-29T14:03:13.914Z</time></trkpt><trkpt lat="43.0572083" lon="10.8923683"><ele>296.0</ele><time>2026-03-29T14:03:14.914Z</time></trkpt><trkpt lat="43.0572817" lon="10.892575"><ele>297.75</ele><time>2026-03-29T14:03:15.914Z</time></trkpt><trkpt lat="43.0573483" lon="10.89277"><ele>299.5</ele><time>2026-03-29T14:03:16.914Z</time></trkpt><trkpt lat="43.0574017" lon="10.8929533"><ele>301.25</ele><time>2026-03-29T14:03:17.914Z</time></trkpt><trkpt lat="43.0574283" lon="10.8931183"><ele>303.0</ele><time>2026-03-29T14:03:18.914Z</time></trkpt><trkpt lat="43.0574367" lon="10.8932867"><ele>303.6</ele><time>2026-03-29T14:03:19.914Z</time></trkpt><trkpt lat="43.0574483" lon="10.8934567"><ele>304.20000000000005</ele><time>2026-03-29T14:03:20.914Z</time></trkpt><trkpt lat="43.0574533" lon="10.8936017"><ele>304.8</ele><time>2026-03-29T14:03:21.914Z</time></trkpt><trkpt lat="43.0574533" lon="10.8937167"><ele>305.40000000000003</ele><time>2026-03-29T14:03:22.914Z</time></trkpt><trkpt lat="43.0574517" lon="10.8938167"><ele>306.0</ele><time>2026-03-29T14:03:23.914Z</time></trkpt><trkpt lat="43.0574483" lon="10.8939083"><ele>300.3333333333333</ele><time>2026-03-29T14:03:24.914Z</time></trkpt><trkpt lat="43.0574717" lon="10.8941417"><ele>294.66666666666663</ele><time>2026-03-29T14:03:26.914Z</time></trkpt><trkpt lat="43.0575183" lon="10.89432"><ele>289.0</ele><time>2026-03-29T14:03:27.914Z</time></trkpt><trkpt lat="43.0575767" lon="10.8945517"><ele>289.3333333333333</ele><time>2026-03-29T14:03:28.914Z</time></trkpt><trkpt lat="43.0576233" lon="10.89481"><ele>289.6666666666667</ele><time>2026-03-29T14:03:29.914Z</time></trkpt><trkpt lat="43.0576617" lon="10.8950733"><ele>290.0</ele><time>2026-03-29T14:03:30.914Z</time></trkpt><trkpt lat="43.0577017" lon="10.8953183"><ele>290.0</ele><time>2026-03-29T14:03:31.914Z</time></trkpt><trkpt lat="43.0577517" lon="10.8955567"><ele>290.0</ele><time>2026-03-29T14:03:32.914Z</time></trkpt><trkpt lat="43.0578117" lon="10.895775"><ele>290.0</ele><time>2026-03-29T14:03:33.914Z</time></trkpt><trkpt lat="43.0578717" lon="10.8959683"><ele>290.75</ele><time>2026-03-29T14:03:34.914Z</time></trkpt><trkpt lat="43.0579467" lon="10.896145"><ele>291.5</ele><time>2026-03-29T14:03:35.914Z</time></trkpt><trkpt lat="43.058015" lon="10.8963067"><ele>292.25</ele><time>2026-03-29T14:03:36.914Z</time></trkpt><trkpt lat="43.0580633" lon="10.8964833"><ele>293.0</ele><time>2026-03-29T14:03:37.914Z</time></trkpt><trkpt lat="43.05809" lon="10.8966317"><ele>292.75</ele><time>2026-03-29T14:03:38.915Z</time></trkpt><trkpt lat="43.05809" lon="10.8967933"><ele>292.5</ele><time>2026-03-29T14:03:39.914Z</time></trkpt><trkpt lat="43.0581067" lon="10.8969183"><ele>292.25</ele><time>2026-03-29T14:03:40.914Z</time></trkpt><trkpt lat="43.0581517" lon="10.8970617"><ele>292.0</ele><time>2026-03-29T14:03:41.914Z</time></trkpt><trkpt lat="43.0582167" lon="10.8972117"><ele>292.0</ele><time>2026-03-29T14:03:42.914Z</time></trkpt><trkpt lat="43.058275" lon="10.897355"><ele>292.0</ele><time>2026-03-29T14:03:43.914Z</time></trkpt><trkpt lat="43.0583383" lon="10.8975067"><ele>292.0</ele><time>2026-03-29T14:03:44.914Z</time></trkpt><trkpt lat="43.0584117" lon="10.8976517"><ele>292.0</ele><time>2026-03-29T14:03:45.914Z</time></trkpt><trkpt lat="43.0584683" lon="10.897795"><ele>290.5</ele><time>2026-03-29T14:03:46.914Z</time></trkpt><trkpt lat="43.0585283" lon="10.89795"><ele>289.0</ele><time>2026-03-29T14:03:47.915Z</time></trkpt><trkpt lat="43.05859" lon="10.8981233"><ele>287.5</ele><time>2026-03-29T14:03:48.914Z</time></trkpt><trkpt lat="43.058645" lon="10.8982917"><ele>286.0</ele><time>2026-03-29T14:03:49.914Z</time></trkpt><trkpt lat="43.05867" lon="10.8984567"><ele>285.0</ele><time>2026-03-29T14:03:50.914Z</time></trkpt><trkpt lat="43.0586817" lon="10.89863"><ele>284.0</ele><time>2026-03-29T14:03:51.915Z</time></trkpt><trkpt lat="43.05867" lon="10.8988"><ele>283.0</ele><time>2026-03-29T14:03:52.914Z</time></trkpt><trkpt lat="43.058645" lon="10.8989733"><ele>282.0</ele><time>2026-03-29T14:03:53.914Z</time></trkpt><trkpt lat="43.0586183" lon="10.8991633"><ele>281.25</ele><time>2026-03-29T14:03:54.914Z</time></trkpt><trkpt lat="43.0586017" lon="10.89935"><ele>280.5</ele><time>2026-03-29T14:03:55.914Z</time></trkpt><trkpt lat="43.0585933" lon="10.899515"><ele>279.75</ele><time>2026-03-29T14:03:56.914Z</time></trkpt><trkpt lat="43.0585983" lon="10.8996483"><ele>279.0</ele><time>2026-03-29T14:03:57.914Z</time></trkpt><trkpt lat="43.058615" lon="10.899775"><ele>279.0</ele><time>2026-03-29T14:03:58.914Z</time></trkpt><trkpt lat="43.0586367" lon="10.8998767"><ele>279.0</ele><time>2026-03-29T14:03:59.914Z</time></trkpt><trkpt lat="43.0586367" lon="10.8999633"><ele>279.0</ele><time>2026-03-29T14:04:00.914Z</time></trkpt><trkpt lat="43.0586" lon="10.9000733"><ele>279.0</ele><time>2026-03-29T14:04:02.914Z</time></trkpt><trkpt lat="43.0585967" lon="10.9001733"><ele>279.0</ele><time>2026-03-29T14:04:04.914Z</time></trkpt><trkpt lat="43.0586283" lon="10.9002617"><ele>279.0</ele><time>2026-03-29T14:04:05.914Z</time></trkpt><trkpt lat="43.0586833" lon="10.90037"><ele>278.5</ele><time>2026-03-29T14:04:06.914Z</time></trkpt><trkpt lat="43.058765" lon="10.900505"><ele>278.0</ele><time>2026-03-29T14:04:07.914Z</time></trkpt><trkpt lat="43.0588817" lon="10.9006583"><ele>277.5</ele><time>2026-03-29T14:04:08.914Z</time></trkpt><trkpt lat="43.0589783" lon="10.900825"><ele>277.0</ele><time>2026-03-29T14:04:09.914Z</time></trkpt><trkpt lat="43.059095" lon="10.901"><ele>276.3333333333333</ele><time>2026-03-29T14:04:10.914Z</time></trkpt><trkpt lat="43.059215" lon="10.9011717"><ele>275.6666666666667</ele><time>2026-03-29T14:04:11.914Z</time></trkpt><trkpt lat="43.05934" lon="10.901355"><ele>275.0</ele><time>2026-03-29T14:04:12.914Z</time></trkpt><trkpt lat="43.0594533" lon="10.9015317"><ele>275.0</ele><time>2026-03-29T14:04:13.914Z</time></trkpt><trkpt lat="43.059575" lon="10.9017183"><ele>275.0</ele><time>2026-03-29T14:04:14.914Z</time></trkpt><trkpt lat="43.059825" lon="10.9020983"><ele>274.6666666666667</ele><time>2026-03-29T14:04:16.914Z</time></trkpt><trkpt lat="43.059945" lon="10.9023067"><ele>274.3333333333333</ele><time>2026-03-29T14:04:17.914Z</time></trkpt><trkpt lat="43.060065" lon="10.9024867"><ele>274.0</ele><time>2026-03-29T14:04:18.914Z</time></trkpt><trkpt lat="43.0601867" lon="10.9026733"><ele>276.3333333333333</ele><time>2026-03-29T14:04:19.914Z</time></trkpt><trkpt lat="43.0603033" lon="10.9028567"><ele>278.6666666666667</ele><time>2026-03-29T14:04:20.914Z</time></trkpt><trkpt lat="43.0604267" lon="10.9030483"><ele>281.0</ele><time>2026-03-29T14:04:21.914Z</time></trkpt><trkpt lat="43.06055" lon="10.9032383"><ele>281.33333333333337</ele><time>2026-03-29T14:04:22.914Z</time></trkpt><trkpt lat="43.06067" lon="10.9034267"><ele>281.6666666666667</ele><time>2026-03-29T14:04:23.914Z</time></trkpt><trkpt lat="43.0607933" lon="10.9036117"><ele>282.0</ele><time>2026-03-29T14:04:24.914Z</time></trkpt><trkpt lat="43.0609283" lon="10.90381"><ele>284.0</ele><time>2026-03-29T14:04:25.914Z</time></trkpt><trkpt lat="43.0610683" lon="10.9040317"><ele>286.0</ele><time>2026-03-29T14:04:26.914Z</time></trkpt><trkpt lat="43.0612033" lon="10.9042517"><ele>288.0</ele><time>2026-03-29T14:04:27.914Z</time></trkpt><trkpt lat="43.0613367" lon="10.9044583"><ele>289.0</ele><time>2026-03-29T14:04:28.914Z</time></trkpt><trkpt lat="43.0614617" lon="10.90466"><ele>290.0</ele><time>2026-03-29T14:04:29.914Z</time></trkpt><trkpt lat="43.0615767" lon="10.9048517"><ele>291.0</ele><time>2026-03-29T14:04:30.914Z</time></trkpt><trkpt lat="43.0617017" lon="10.9050317"><ele>290.6666666666667</ele><time>2026-03-29T14:04:31.914Z</time></trkpt><trkpt lat="43.0618233" lon="10.9051983"><ele>290.33333333333337</ele><time>2026-03-29T14:04:32.914Z</time></trkpt><trkpt lat="43.0619567" lon="10.9053583"><ele>290.0</ele><time>2026-03-29T14:04:33.915Z</time></trkpt><trkpt lat="43.0621017" lon="10.9054983"><ele>290.0</ele><time>2026-03-29T14:04:34.914Z</time></trkpt><trkpt lat="43.06225" lon="10.9056233"><ele>290.0</ele><time>2026-03-29T14:04:35.914Z</time></trkpt><trkpt lat="43.06239" lon="10.9057217"><ele>290.0</ele><time>2026-03-29T14:04:36.914Z</time></trkpt><trkpt lat="43.0625083" lon="10.9057967"><ele>290.0</ele><time>2026-03-29T14:04:37.914Z</time></trkpt><trkpt lat="43.0626067" lon="10.905845"><ele>290.0</ele><time>2026-03-29T14:04:38.914Z</time></trkpt><trkpt lat="43.0626933" lon="10.9058917"><ele>290.0</ele><time>2026-03-29T14:04:39.914Z</time></trkpt><trkpt lat="43.0627783" lon="10.90593"><ele>290.0</ele><time>2026-03-29T14:04:40.914Z</time></trkpt><trkpt lat="43.0628733" lon="10.9059783"><ele>290.0</ele><time>2026-03-29T14:04:41.914Z</time></trkpt><trkpt lat="43.062975" lon="10.9060783"><ele>290.0</ele><time>2026-03-29T14:04:42.914Z</time></trkpt><trkpt lat="43.0630817" lon="10.9062117"><ele>290.0</ele><time>2026-03-29T14:04:43.914Z</time></trkpt><trkpt lat="43.063215" lon="10.9063833"><ele>290.0</ele><time>2026-03-29T14:04:44.914Z</time></trkpt><trkpt lat="43.0633617" lon="10.9065867"><ele>289.5</ele><time>2026-03-29T14:04:45.914Z</time></trkpt><trkpt lat="43.06353" lon="10.906805"><ele>289.0</ele><time>2026-03-29T14:04:46.914Z</time></trkpt><trkpt lat="43.063695" lon="10.90702"><ele>289.0</ele><time>2026-03-29T14:04:47.915Z</time></trkpt><trkpt lat="43.06386" lon="10.9072317"><ele>289.0</ele><time>2026-03-29T14:04:48.914Z</time></trkpt><trkpt lat="43.0640117" lon="10.90746"><ele>290.0</ele><time>2026-03-29T14:04:49.914Z</time></trkpt><trkpt lat="43.0641467" lon="10.9076983"><ele>291.0</ele><time>2026-03-29T14:04:50.914Z</time></trkpt><trkpt lat="43.06428" lon="10.90795"><ele>292.0</ele><time>2026-03-29T14:04:51.914Z</time></trkpt><trkpt lat="43.0644067" lon="10.9082033"><ele>293.3333333333333</ele><time>2026-03-29T14:04:52.914Z</time></trkpt><trkpt lat="43.0645283" lon="10.9084467"><ele>294.6666666666667</ele><time>2026-03-29T14:04:53.914Z</time></trkpt><trkpt lat="43.0646467" lon="10.9086933"><ele>296.0</ele><time>2026-03-29T14:04:54.914Z</time></trkpt><trkpt lat="43.0647633" lon="10.9089417"><ele>296.0</ele><time>2026-03-29T14:04:55.914Z</time></trkpt><trkpt lat="43.06488" lon="10.9091883"><ele>296.0</ele><time>2026-03-29T14:04:56.914Z</time></trkpt><trkpt lat="43.0649933" lon="10.9094333"><ele>296.0</ele><time>2026-03-29T14:04:57.914Z</time></trkpt><trkpt lat="43.0651133" lon="10.9096633"><ele>298.33333333333337</ele><time>2026-03-29T14:04:58.914Z</time></trkpt><trkpt lat="43.0652483" lon="10.9098967"><ele>300.6666666666667</ele><time>2026-03-29T14:04:59.914Z</time></trkpt><trkpt lat="43.0653817" lon="10.9101167"><ele>303.0</ele><time>2026-03-29T14:05:00.914Z</time></trkpt><trkpt lat="43.0655183" lon="10.91034"><ele>303.0</ele><time>2026-03-29T14:05:01.914Z</time></trkpt><trkpt lat="43.0656667" lon="10.910545"><ele>303.0</ele><time>2026-03-29T14:05:02.914Z</time></trkpt><trkpt lat="43.065825" lon="10.9107283"><ele>303.0</ele><time>2026-03-29T14:05:03.914Z</time></trkpt><trkpt lat="43.066" lon="10.9109"><ele>304.5</ele><time>2026-03-29T14:05:04.914Z</time></trkpt><trkpt lat="43.0663467" lon="10.9112167"><ele>306.0</ele><time>2026-03-29T14:05:06.914Z</time></trkpt><trkpt lat="43.066515" lon="10.91135"><ele>307.0</ele><time>2026-03-29T14:05:07.914Z</time></trkpt><trkpt lat="43.0666733" lon="10.9114933"><ele>308.0</ele><time>2026-03-29T14:05:08.914Z</time></trkpt><trkpt lat="43.0668367" lon="10.91163"><ele>309.0</ele><time>2026-03-29T14:05:09.914Z</time></trkpt><trkpt lat="43.0670117" lon="10.911775"><ele>309.3333333333333</ele><time>2026-03-29T14:05:10.914Z</time></trkpt><trkpt lat="43.0671867" lon="10.9118983"><ele>309.66666666666663</ele><time>2026-03-29T14:05:11.914Z</time></trkpt><trkpt lat="43.06737" lon="10.9120567"><ele>310.0</ele><time>2026-03-29T14:05:12.914Z</time></trkpt><trkpt lat="43.06755" lon="10.912215"><ele>311.0</ele><time>2026-03-29T14:05:13.914Z</time></trkpt><trkpt lat="43.0677433" lon="10.91236"><ele>312.0</ele><time>2026-03-29T14:05:14.914Z</time></trkpt><trkpt lat="43.0679267" lon="10.9125117"><ele>313.0</ele><time>2026-03-29T14:05:15.914Z</time></trkpt><trkpt lat="43.0681283" lon="10.91263"><ele>313.66666666666663</ele><time>2026-03-29T14:05:16.914Z</time></trkpt><trkpt lat="43.06831" lon="10.9127567"><ele>314.3333333333333</ele><time>2026-03-29T14:05:17.914Z</time></trkpt><trkpt lat="43.06847" lon="10.9129083"><ele>315.0</ele><time>2026-03-29T14:05:18.914Z</time></trkpt><trkpt lat="43.0686333" lon="10.9130517"><ele>315.0</ele><time>2026-03-29T14:05:19.914Z</time></trkpt><trkpt lat="43.068795" lon="10.9132017"><ele>315.0</ele><time>2026-03-29T14:05:20.914Z</time></trkpt><trkpt lat="43.068965" lon="10.9133617"><ele>315.0</ele><time>2026-03-29T14:05:21.914Z</time></trkpt><trkpt lat="43.0691317" lon="10.913515"><ele>316.3333333333333</ele><time>2026-03-29T14:05:22.914Z</time></trkpt><trkpt lat="43.0693" lon="10.9136733"><ele>317.66666666666663</ele><time>2026-03-29T14:05:23.914Z</time></trkpt><trkpt lat="43.0694717" lon="10.9138217"><ele>319.0</ele><time>2026-03-29T14:05:24.914Z</time></trkpt><trkpt lat="43.069645" lon="10.9139633"><ele>319.0</ele><time>2026-03-29T14:05:25.914Z</time></trkpt><trkpt lat="43.0697933" lon="10.9141467"><ele>319.0</ele><time>2026-03-29T14:05:26.914Z</time></trkpt><trkpt lat="43.0699367" lon="10.91433"><ele>319.0</ele><time>2026-03-29T14:05:27.914Z</time></trkpt><trkpt lat="43.070075" lon="10.9145383"><ele>320.3333333333333</ele><time>2026-03-29T14:05:28.914Z</time></trkpt><trkpt lat="43.0701967" lon="10.9147617"><ele>321.6666666666667</ele><time>2026-03-29T14:05:29.914Z</time></trkpt><trkpt lat="43.0703033" lon="10.915"><ele>323.0</ele><time>2026-03-29T14:05:30.914Z</time></trkpt><trkpt lat="43.070385" lon="10.915255"><ele>323.33333333333337</ele><time>2026-03-29T14:05:31.914Z</time></trkpt><trkpt lat="43.07044" lon="10.915525"><ele>323.6666666666667</ele><time>2026-03-29T14:05:32.914Z</time></trkpt><trkpt lat="43.07048" lon="10.91579"><ele>324.0</ele><time>2026-03-29T14:05:33.914Z</time></trkpt><trkpt lat="43.0704967" lon="10.9160683"><ele>325.3333333333333</ele><time>2026-03-29T14:05:34.914Z</time></trkpt><trkpt lat="43.0704933" lon="10.9163417"><ele>326.66666666666663</ele><time>2026-03-29T14:05:35.914Z</time></trkpt><trkpt lat="43.0704717" lon="10.9166083"><ele>328.0</ele><time>2026-03-29T14:05:36.914Z</time></trkpt><trkpt lat="43.0704333" lon="10.91689"><ele>329.66666666666663</ele><time>2026-03-29T14:05:37.914Z</time></trkpt><trkpt lat="43.0703883" lon="10.91716"><ele>331.3333333333333</ele><time>2026-03-29T14:05:38.915Z</time></trkpt><trkpt lat="43.070355" lon="10.91744"><ele>333.0</ele><time>2026-03-29T14:05:39.914Z</time></trkpt><trkpt lat="43.07034" lon="10.91772"><ele>335.3333333333333</ele><time>2026-03-29T14:05:40.914Z</time></trkpt><trkpt lat="43.070335" lon="10.91798"><ele>337.66666666666663</ele><time>2026-03-29T14:05:41.914Z</time></trkpt><trkpt lat="43.0703483" lon="10.9182467"><ele>340.0</ele><time>2026-03-29T14:05:42.914Z</time></trkpt><trkpt lat="43.07038" lon="10.9185067"><ele>342.66666666666663</ele><time>2026-03-29T14:05:43.914Z</time></trkpt><trkpt lat="43.070445" lon="10.918775"><ele>345.3333333333333</ele><time>2026-03-29T14:05:44.914Z</time></trkpt><trkpt lat="43.0705433" lon="10.919025"><ele>348.0</ele><time>2026-03-29T14:05:45.914Z</time></trkpt><trkpt lat="43.0706666" lon="10.9192529"><ele>350.3333333333333</ele><time>2026-03-29T14:05:46.914Z</time></trkpt><trkpt lat="43.0708219" lon="10.9194527"><ele>352.66666666666663</ele><time>2026-03-29T14:05:47.914Z</time></trkpt><trkpt lat="43.070995" lon="10.9196343"><ele>355.0</ele><time>2026-03-29T14:05:48.914Z</time></trkpt><trkpt lat="43.0711798" lon="10.9197766"><ele>355.0</ele><time>2026-03-29T14:05:49.914Z</time></trkpt><trkpt lat="43.0713646" lon="10.919893"><ele>355.0</ele><time>2026-03-29T14:05:50.914Z</time></trkpt><trkpt lat="43.0715504" lon="10.9200056"><ele>355.0</ele><time>2026-03-29T14:05:51.914Z</time></trkpt><trkpt lat="43.0717303" lon="10.9201133"><ele>354.66666666666663</ele><time>2026-03-29T14:05:52.914Z</time></trkpt><trkpt lat="43.071907" lon="10.9202163"><ele>354.3333333333333</ele><time>2026-03-29T14:05:53.914Z</time></trkpt><trkpt lat="43.0720895" lon="10.9203223"><ele>354.0</ele><time>2026-03-29T14:05:54.914Z</time></trkpt><trkpt lat="43.0722668" lon="10.920423"><ele>354.0</ele><time>2026-03-29T14:05:55.914Z</time></trkpt><trkpt lat="43.0724225" lon="10.9205013"><ele>354.0</ele><time>2026-03-29T14:05:56.914Z</time></trkpt><trkpt lat="43.072686" lon="10.9206245"><ele>354.0</ele><time>2026-03-29T14:05:58.914Z</time></trkpt><trkpt lat="43.0728209" lon="10.9206936"><ele>354.0</ele><time>2026-03-29T14:05:59.914Z</time></trkpt><trkpt lat="43.0729645" lon="10.9207539"><ele>354.0</ele><time>2026-03-29T14:06:00.914Z</time></trkpt><trkpt lat="43.0731103" lon="10.9208131"><ele>354.0</ele><time>2026-03-29T14:06:01.914Z</time></trkpt><trkpt lat="43.0732554" lon="10.9208674"><ele>352.75</ele><time>2026-03-29T14:06:02.914Z</time></trkpt><trkpt lat="43.0733829" lon="10.9209234"><ele>351.5</ele><time>2026-03-29T14:06:03.914Z</time></trkpt><trkpt lat="43.0735033" lon="10.9209776"><ele>350.25</ele><time>2026-03-29T14:06:04.914Z</time></trkpt><trkpt lat="43.0735991" lon="10.9210488"><ele>349.0</ele><time>2026-03-29T14:06:05.914Z</time></trkpt><trkpt lat="43.0736791" lon="10.9211379"><ele>349.0</ele><time>2026-03-29T14:06:06.914Z</time></trkpt><trkpt lat="43.073743" lon="10.9212495"><ele>349.0</ele><time>2026-03-29T14:06:07.914Z</time></trkpt><trkpt lat="43.0737986" lon="10.9213997"><ele>349.0</ele><time>2026-03-29T14:06:08.914Z</time></trkpt><trkpt lat="43.0738394" lon="10.9215841"><ele>349.0</ele><time>2026-03-29T14:06:09.914Z</time></trkpt><trkpt lat="43.0738686" lon="10.9218056"><ele>348.66666666666663</ele><time>2026-03-29T14:06:10.914Z</time></trkpt><trkpt lat="43.0738798" lon="10.9220537"><ele>348.3333333333333</ele><time>2026-03-29T14:06:11.914Z</time></trkpt><trkpt lat="43.0738795" lon="10.9223188"><ele>348.0</ele><time>2026-03-29T14:06:12.914Z</time></trkpt><trkpt lat="43.0738661" lon="10.9225961"><ele>348.0</ele><time>2026-03-29T14:06:13.914Z</time></trkpt><trkpt lat="43.073836" lon="10.9228812"><ele>348.0</ele><time>2026-03-29T14:06:14.914Z</time></trkpt><trkpt lat="43.0737957" lon="10.9231648"><ele>348.0</ele><time>2026-03-29T14:06:15.914Z</time></trkpt><trkpt lat="43.0737495" lon="10.9234411"><ele>348.3333333333333</ele><time>2026-03-29T14:06:16.914Z</time></trkpt><trkpt lat="43.0737008" lon="10.9237059"><ele>348.66666666666663</ele><time>2026-03-29T14:06:17.914Z</time></trkpt><trkpt lat="43.0736649" lon="10.9239525"><ele>349.0</ele><time>2026-03-29T14:06:18.914Z</time></trkpt><trkpt lat="43.0736201" lon="10.9241888"><ele>349.66666666666663</ele><time>2026-03-29T14:06:19.914Z</time></trkpt><trkpt lat="43.0735844" lon="10.9244153"><ele>350.3333333333333</ele><time>2026-03-29T14:06:20.914Z</time></trkpt><trkpt lat="43.0735365" lon="10.9246303"><ele>351.0</ele><time>2026-03-29T14:06:21.914Z</time></trkpt><trkpt lat="43.0734632" lon="10.9248211"><ele>351.0</ele><time>2026-03-29T14:06:22.914Z</time></trkpt><trkpt lat="43.0733644" lon="10.9249891"><ele>351.0</ele><time>2026-03-29T14:06:23.914Z</time></trkpt><trkpt lat="43.073235" lon="10.9251561"><ele>351.0</ele><time>2026-03-29T14:06:24.915Z</time></trkpt><trkpt lat="43.073094" lon="10.9253075"><ele>356.3333333333333</ele><time>2026-03-29T14:06:25.914Z</time></trkpt><trkpt lat="43.0729431" lon="10.9254063"><ele>361.66666666666663</ele><time>2026-03-29T14:06:26.914Z</time></trkpt><trkpt lat="43.0727898" lon="10.9254697"><ele>367.0</ele><time>2026-03-29T14:06:27.914Z</time></trkpt><trkpt lat="43.0726407" lon="10.92549"><ele>367.0</ele><time>2026-03-29T14:06:28.914Z</time></trkpt><trkpt lat="43.0724934" lon="10.9254505"><ele>367.0</ele><time>2026-03-29T14:06:29.914Z</time></trkpt><trkpt lat="43.072354" lon="10.9253996"><ele>367.0</ele><time>2026-03-29T14:06:30.914Z</time></trkpt><trkpt lat="43.0722219" lon="10.9253698"><ele>367.0</ele><time>2026-03-29T14:06:31.914Z</time></trkpt><trkpt lat="43.0721085" lon="10.925399"><ele>369.0</ele><time>2026-03-29T14:06:32.914Z</time></trkpt><trkpt lat="43.0720085" lon="10.9255117"><ele>371.0</ele><time>2026-03-29T14:06:33.914Z</time></trkpt><trkpt lat="43.0719175" lon="10.9256872"><ele>373.0</ele><time>2026-03-29T14:06:34.914Z</time></trkpt><trkpt lat="43.0718306" lon="10.9258751"><ele>375.0</ele><time>2026-03-29T14:06:35.914Z</time></trkpt><trkpt lat="43.0717488" lon="10.9260779"><ele>375.0</ele><time>2026-03-29T14:06:36.914Z</time></trkpt><trkpt lat="43.0716703" lon="10.9262818"><ele>375.0</ele><time>2026-03-29T14:06:37.914Z</time></trkpt><trkpt lat="43.0716053" lon="10.9264926"><ele>375.0</ele><time>2026-03-29T14:06:38.914Z</time></trkpt><trkpt lat="43.0715572" lon="10.9267215"><ele>375.3333333333333</ele><time>2026-03-29T14:06:39.914Z</time></trkpt><trkpt lat="43.0715157" lon="10.9269494"><ele>375.66666666666663</ele><time>2026-03-29T14:06:40.914Z</time></trkpt><trkpt lat="43.0714664" lon="10.9271692"><ele>376.0</ele><time>2026-03-29T14:06:41.914Z</time></trkpt><trkpt lat="43.0714146" lon="10.9273776"><ele>377.66666666666663</ele><time>2026-03-29T14:06:42.914Z</time></trkpt><trkpt lat="43.0713707" lon="10.9275872"><ele>379.3333333333333</ele><time>2026-03-29T14:06:43.914Z</time></trkpt><trkpt lat="43.0713565" lon="10.9277884"><ele>381.0</ele><time>2026-03-29T14:06:44.914Z</time></trkpt><trkpt lat="43.071381" lon="10.9279966"><ele>381.0</ele><time>2026-03-29T14:06:45.914Z</time></trkpt><trkpt lat="43.0714443" lon="10.9281982"><ele>381.0</ele><time>2026-03-29T14:06:46.914Z</time></trkpt><trkpt lat="43.0715366" lon="10.9283971"><ele>381.0</ele><time>2026-03-29T14:06:47.914Z</time></trkpt><trkpt lat="43.0716444" lon="10.9285995"><ele>382.33333333333337</ele><time>2026-03-29T14:06:48.914Z</time></trkpt><trkpt lat="43.0717363" lon="10.9288247"><ele>383.6666666666667</ele><time>2026-03-29T14:06:49.914Z</time></trkpt><trkpt lat="43.0718117" lon="10.9290705"><ele>385.0</ele><time>2026-03-29T14:06:50.914Z</time></trkpt><trkpt lat="43.0718605" lon="10.9293056"><ele>387.25</ele><time>2026-03-29T14:06:51.914Z</time></trkpt><trkpt lat="43.0718911" lon="10.9295192"><ele>389.5</ele><time>2026-03-29T14:06:52.914Z</time></trkpt><trkpt lat="43.0719206" lon="10.9297037"><ele>391.75</ele><time>2026-03-29T14:06:53.914Z</time></trkpt><trkpt lat="43.0719705" lon="10.9298649"><ele>394.0</ele><time>2026-03-29T14:06:54.914Z</time></trkpt><trkpt lat="43.0720424" lon="10.9299854"><ele>394.0</ele><time>2026-03-29T14:06:55.914Z</time></trkpt><trkpt lat="43.072139" lon="10.9300475"><ele>394.0</ele><time>2026-03-29T14:06:56.915Z</time></trkpt><trkpt lat="43.0723697" lon="10.9299628"><ele>394.0</ele><time>2026-03-29T14:06:58.914Z</time></trkpt><trkpt lat="43.0724771" lon="10.9298464"><ele>394.6666666666667</ele><time>2026-03-29T14:06:59.914Z</time></trkpt><trkpt lat="43.0725814" lon="10.9296654"><ele>395.33333333333337</ele><time>2026-03-29T14:07:00.914Z</time></trkpt><trkpt lat="43.0726968" lon="10.9294469"><ele>396.0</ele><time>2026-03-29T14:07:01.914Z</time></trkpt><trkpt lat="43.0728269" lon="10.9292417"><ele>394.66666666666663</ele><time>2026-03-29T14:07:02.914Z</time></trkpt><trkpt lat="43.0729835" lon="10.929071"><ele>393.3333333333333</ele><time>2026-03-29T14:07:03.914Z</time></trkpt><trkpt lat="43.0731432" lon="10.9289521"><ele>392.0</ele><time>2026-03-29T14:07:04.914Z</time></trkpt><trkpt lat="43.0732898" lon="10.9288831"><ele>394.66666666666663</ele><time>2026-03-29T14:07:05.914Z</time></trkpt><trkpt lat="43.0734172" lon="10.9288647"><ele>397.33333333333337</ele><time>2026-03-29T14:07:06.914Z</time></trkpt><trkpt lat="43.0736107" lon="10.9289578"><ele>400.0</ele><time>2026-03-29T14:07:08.914Z</time></trkpt><trkpt lat="43.0736112" lon="10.9291394"><ele>401.33333333333337</ele><time>2026-03-29T14:07:09.914Z</time></trkpt><trkpt lat="43.0735874" lon="10.9293393"><ele>402.66666666666663</ele><time>2026-03-29T14:07:10.914Z</time></trkpt><trkpt lat="43.0735389" lon="10.9295768"><ele>404.0</ele><time>2026-03-29T14:07:11.914Z</time></trkpt><trkpt lat="43.0734716" lon="10.9298137"><ele>404.0</ele><time>2026-03-29T14:07:12.914Z</time></trkpt><trkpt lat="43.0734131" lon="10.9300207"><ele>404.0</ele><time>2026-03-29T14:07:13.914Z</time></trkpt><trkpt lat="43.073377" lon="10.9302069"><ele>404.0</ele><time>2026-03-29T14:07:14.914Z</time></trkpt><trkpt lat="43.0733866" lon="10.9303925"><ele>404.0</ele><time>2026-03-29T14:07:15.914Z</time></trkpt><trkpt lat="43.0734515" lon="10.9305573"><ele>404.3333333333333</ele><time>2026-03-29T14:07:16.914Z</time></trkpt><trkpt lat="43.0735712" lon="10.9306838"><ele>404.66666666666663</ele><time>2026-03-29T14:07:17.914Z</time></trkpt><trkpt lat="43.0737114" lon="10.9307738"><ele>405.0</ele><time>2026-03-29T14:07:18.914Z</time></trkpt><trkpt lat="43.0738679" lon="10.9308544"><ele>407.66666666666663</ele><time>2026-03-29T14:07:19.914Z</time></trkpt><trkpt lat="43.0740298" lon="10.9309383"><ele>410.3333333333333</ele><time>2026-03-29T14:07:20.914Z</time></trkpt><trkpt lat="43.0741887" lon="10.9310394"><ele>413.0</ele><time>2026-03-29T14:07:21.914Z</time></trkpt><trkpt lat="43.074332" lon="10.9311559"><ele>414.75</ele><time>2026-03-29T14:07:22.914Z</time></trkpt><trkpt lat="43.0744487" lon="10.9312669"><ele>416.5</ele><time>2026-03-29T14:07:23.914Z</time></trkpt><trkpt lat="43.0745348" lon="10.9314027"><ele>418.25</ele><time>2026-03-29T14:07:24.914Z</time></trkpt><trkpt lat="43.0745978" lon="10.9315389"><ele>420.0</ele><time>2026-03-29T14:07:25.914Z</time></trkpt><trkpt lat="43.0746246" lon="10.9316538"><ele>422.8</ele><time>2026-03-29T14:07:26.914Z</time></trkpt><trkpt lat="43.0746279" lon="10.9317514"><ele>425.6</ele><time>2026-03-29T14:07:27.914Z</time></trkpt><trkpt lat="43.0745548" lon="10.9317958"><ele>428.4</ele><time>2026-03-29T14:07:28.914Z</time></trkpt><trkpt lat="43.0744576" lon="10.9318188"><ele>431.2</ele><time>2026-03-29T14:07:29.914Z</time></trkpt><trkpt lat="43.0743379" lon="10.9318173"><ele>434.0</ele><time>2026-03-29T14:07:30.914Z</time></trkpt><trkpt lat="43.0741866" lon="10.931807"><ele>431.0</ele><time>2026-03-29T14:07:31.914Z</time></trkpt><trkpt lat="43.0740341" lon="10.9318069"><ele>428.0</ele><time>2026-03-29T14:07:32.914Z</time></trkpt><trkpt lat="43.0738991" lon="10.9318394"><ele>425.0</ele><time>2026-03-29T14:07:33.914Z</time></trkpt><trkpt lat="43.0737833" lon="10.9319132"><ele>422.0</ele><time>2026-03-29T14:07:34.914Z</time></trkpt><trkpt lat="43.0736797" lon="10.9320232"><ele>422.0</ele><time>2026-03-29T14:07:35.914Z</time></trkpt><trkpt lat="43.0735949" lon="10.9321846"><ele>422.0</ele><time>2026-03-29T14:07:36.914Z</time></trkpt><trkpt lat="43.0735316" lon="10.9323861"><ele>422.0</ele><time>2026-03-29T14:07:37.914Z</time></trkpt><trkpt lat="43.0734762" lon="10.9326068"><ele>423.0</ele><time>2026-03-29T14:07:38.914Z</time></trkpt><trkpt lat="43.07341" lon="10.9328247"><ele>424.0</ele><time>2026-03-29T14:07:39.914Z</time></trkpt><trkpt lat="43.0733366" lon="10.9330326"><ele>425.0</ele><time>2026-03-29T14:07:40.914Z</time></trkpt><trkpt lat="43.0732593" lon="10.9332326"><ele>423.66666666666663</ele><time>2026-03-29T14:07:41.914Z</time></trkpt><trkpt lat="43.0731816" lon="10.933434"><ele>422.33333333333337</ele><time>2026-03-29T14:07:42.914Z</time></trkpt><trkpt lat="43.0731169" lon="10.9336315"><ele>421.0</ele><time>2026-03-29T14:07:43.914Z</time></trkpt><trkpt lat="43.0730684" lon="10.9338257"><ele>421.0</ele><time>2026-03-29T14:07:44.914Z</time></trkpt><trkpt lat="43.073039" lon="10.9340179"><ele>421.0</ele><time>2026-03-29T14:07:45.914Z</time></trkpt><trkpt lat="43.0730346" lon="10.9342211"><ele>421.0</ele><time>2026-03-29T14:07:46.914Z</time></trkpt><trkpt lat="43.0730615" lon="10.9344205"><ele>421.0</ele><time>2026-03-29T14:07:47.914Z</time></trkpt><trkpt lat="43.0731213" lon="10.9346292"><ele>422.6666666666667</ele><time>2026-03-29T14:07:48.914Z</time></trkpt><trkpt lat="43.0732013" lon="10.9348504"><ele>424.33333333333337</ele><time>2026-03-29T14:07:49.914Z</time></trkpt><trkpt lat="43.0732892" lon="10.9350686"><ele>426.0</ele><time>2026-03-29T14:07:50.914Z</time></trkpt><trkpt lat="43.0733816" lon="10.9352846"><ele>426.0</ele><time>2026-03-29T14:07:51.914Z</time></trkpt><trkpt lat="43.0734816" lon="10.9355041"><ele>426.0</ele><time>2026-03-29T14:07:52.914Z</time></trkpt><trkpt lat="43.0735798" lon="10.9357111"><ele>426.0</ele><time>2026-03-29T14:07:53.914Z</time></trkpt><trkpt lat="43.0736859" lon="10.9358842"><ele>427.25</ele><time>2026-03-29T14:07:54.914Z</time></trkpt><trkpt lat="43.0738002" lon="10.9360294"><ele>428.5</ele><time>2026-03-29T14:07:55.914Z</time></trkpt><trkpt lat="43.0739165" lon="10.9361375"><ele>429.75</ele><time>2026-03-29T14:07:56.914Z</time></trkpt><trkpt lat="43.0740429" lon="10.9361795"><ele>431.0</ele><time>2026-03-29T14:07:57.914Z</time></trkpt><trkpt lat="43.0741816" lon="10.936165"><ele>431.0</ele><time>2026-03-29T14:07:58.914Z</time></trkpt><trkpt lat="43.0743333" lon="10.9360846"><ele>431.0</ele><time>2026-03-29T14:07:59.914Z</time></trkpt><trkpt lat="43.0744864" lon="10.9359602"><ele>431.0</ele><time>2026-03-29T14:08:00.914Z</time></trkpt><trkpt lat="43.0746453" lon="10.9358463"><ele>436.66666666666663</ele><time>2026-03-29T14:08:01.915Z</time></trkpt><trkpt lat="43.0747983" lon="10.9357658"><ele>442.33333333333337</ele><time>2026-03-29T14:08:02.914Z</time></trkpt><trkpt lat="43.0749616" lon="10.9357367"><ele>448.0</ele><time>2026-03-29T14:08:03.914Z</time></trkpt><trkpt lat="43.0751271" lon="10.9357631"><ele>448.6666666666667</ele><time>2026-03-29T14:08:04.914Z</time></trkpt><trkpt lat="43.0752938" lon="10.9358322"><ele>449.33333333333337</ele><time>2026-03-29T14:08:05.914Z</time></trkpt><trkpt lat="43.0754431" lon="10.9359504"><ele>450.0</ele><time>2026-03-29T14:08:06.914Z</time></trkpt><trkpt lat="43.0755567" lon="10.9361018"><ele>450.33333333333337</ele><time>2026-03-29T14:08:07.914Z</time></trkpt><trkpt lat="43.0756372" lon="10.9363033"><ele>450.6666666666667</ele><time>2026-03-29T14:08:08.914Z</time></trkpt><trkpt lat="43.0757065" lon="10.9365343"><ele>451.0</ele><time>2026-03-29T14:08:09.914Z</time></trkpt><trkpt lat="43.0757741" lon="10.9367851"><ele>451.0</ele><time>2026-03-29T14:08:10.914Z</time></trkpt><trkpt lat="43.0758488" lon="10.9370322"><ele>451.0</ele><time>2026-03-29T14:08:11.914Z</time></trkpt><trkpt lat="43.0759285" lon="10.9372748"><ele>451.0</ele><time>2026-03-29T14:08:12.914Z</time></trkpt><trkpt lat="43.0760044" lon="10.9375111"><ele>449.6666666666667</ele><time>2026-03-29T14:08:13.914Z</time></trkpt><trkpt lat="43.0760782" lon="10.9377429"><ele>448.33333333333337</ele><time>2026-03-29T14:08:14.914Z</time></trkpt><trkpt lat="43.0761516" lon="10.9379799"><ele>447.0</ele><time>2026-03-29T14:08:15.914Z</time></trkpt><trkpt lat="43.0762322" lon="10.9382176"><ele>445.0</ele><time>2026-03-29T14:08:16.914Z</time></trkpt><trkpt lat="43.0763176" lon="10.9384573"><ele>443.0</ele><time>2026-03-29T14:08:17.914Z</time></trkpt><trkpt lat="43.0763982" lon="10.9387011"><ele>441.0</ele><time>2026-03-29T14:08:18.914Z</time></trkpt><trkpt lat="43.0764818" lon="10.9389344"><ele>441.0</ele><time>2026-03-29T14:08:19.914Z</time></trkpt><trkpt lat="43.0765583" lon="10.9391777"><ele>441.0</ele><time>2026-03-29T14:08:20.914Z</time></trkpt><trkpt lat="43.0766451" lon="10.9394026"><ele>441.0</ele><time>2026-03-29T14:08:21.914Z</time></trkpt><trkpt lat="43.0767624" lon="10.9396081"><ele>443.0</ele><time>2026-03-29T14:08:22.914Z</time></trkpt><trkpt lat="43.076895" lon="10.9397985"><ele>445.0</ele><time>2026-03-29T14:08:23.914Z</time></trkpt><trkpt lat="43.0770428" lon="10.9399779"><ele>447.0</ele><time>2026-03-29T14:08:24.915Z</time></trkpt><trkpt lat="43.0771964" lon="10.9401762"><ele>447.0</ele><time>2026-03-29T14:08:25.914Z</time></trkpt><trkpt lat="43.0773301" lon="10.9404094"><ele>447.0</ele><time>2026-03-29T14:08:26.914Z</time></trkpt><trkpt lat="43.0774463" lon="10.9406478"><ele>447.0</ele><time>2026-03-29T14:08:27.914Z</time></trkpt><trkpt lat="43.0775356" lon="10.9408893"><ele>452.0</ele><time>2026-03-29T14:08:28.914Z</time></trkpt><trkpt lat="43.077597" lon="10.9411354"><ele>457.0</ele><time>2026-03-29T14:08:29.914Z</time></trkpt><trkpt lat="43.0776358" lon="10.9413951"><ele>462.0</ele><time>2026-03-29T14:08:30.914Z</time></trkpt><trkpt lat="43.0776543" lon="10.9416597"><ele>462.0</ele><time>2026-03-29T14:08:31.914Z</time></trkpt><trkpt lat="43.0776512" lon="10.9419268"><ele>462.0</ele><time>2026-03-29T14:08:32.914Z</time></trkpt><trkpt lat="43.0776528" lon="10.942204"><ele>462.0</ele><time>2026-03-29T14:08:33.914Z</time></trkpt><trkpt lat="43.0776592" lon="10.9424779"><ele>462.33333333333337</ele><time>2026-03-29T14:08:34.915Z</time></trkpt><trkpt lat="43.0776721" lon="10.9427518"><ele>462.6666666666667</ele><time>2026-03-29T14:08:35.914Z</time></trkpt><trkpt lat="43.0776922" lon="10.9430348"><ele>463.0</ele><time>2026-03-29T14:08:36.914Z</time></trkpt><trkpt lat="43.0777157" lon="10.9433146"><ele>465.0</ele><time>2026-03-29T14:08:37.914Z</time></trkpt><trkpt lat="43.0777277" lon="10.9435987"><ele>467.0</ele><time>2026-03-29T14:08:38.914Z</time></trkpt><trkpt lat="43.0777224" lon="10.9438739"><ele>469.0</ele><time>2026-03-29T14:08:39.914Z</time></trkpt><trkpt lat="43.0777104" lon="10.9441578"><ele>468.6666666666667</ele><time>2026-03-29T14:08:40.914Z</time></trkpt><trkpt lat="43.0776961" lon="10.9444485"><ele>468.33333333333337</ele><time>2026-03-29T14:08:41.914Z</time></trkpt><trkpt lat="43.0776835" lon="10.9447308"><ele>468.0</ele><time>2026-03-29T14:08:42.914Z</time></trkpt><trkpt lat="43.0776855" lon="10.9449891"><ele>467.66666666666663</ele><time>2026-03-29T14:08:43.914Z</time></trkpt><trkpt lat="43.0777138" lon="10.9452483"><ele>467.3333333333333</ele><time>2026-03-29T14:08:44.914Z</time></trkpt><trkpt lat="43.0777526" lon="10.9455036"><ele>467.0</ele><time>2026-03-29T14:08:45.914Z</time></trkpt><trkpt lat="43.0777989" lon="10.9457528"><ele>468.66666666666663</ele><time>2026-03-29T14:08:46.914Z</time></trkpt><trkpt lat="43.0778484" lon="10.946011"><ele>470.33333333333337</ele><time>2026-03-29T14:08:47.914Z</time></trkpt><trkpt lat="43.0778774" lon="10.9462601"><ele>472.0</ele><time>2026-03-29T14:08:48.914Z</time></trkpt><trkpt lat="43.0779008" lon="10.9465148"><ele>474.0</ele><time>2026-03-29T14:08:49.915Z</time></trkpt><trkpt lat="43.0779183" lon="10.9467644"><ele>476.0</ele><time>2026-03-29T14:08:50.914Z</time></trkpt><trkpt lat="43.077934" lon="10.9469982"><ele>478.0</ele><time>2026-03-29T14:08:51.914Z</time></trkpt><trkpt lat="43.0779333" lon="10.9472085"><ele>478.0</ele><time>2026-03-29T14:08:52.914Z</time></trkpt><trkpt lat="43.0779042" lon="10.9473885"><ele>478.0</ele><time>2026-03-29T14:08:53.914Z</time></trkpt><trkpt lat="43.0778432" lon="10.9475338"><ele>478.0</ele><time>2026-03-29T14:08:54.914Z</time></trkpt><trkpt lat="43.0777487" lon="10.9476589"><ele>478.0</ele><time>2026-03-29T14:08:55.914Z</time></trkpt><trkpt lat="43.0776316" lon="10.9477807"><ele>477.75</ele><time>2026-03-29T14:08:56.914Z</time></trkpt><trkpt lat="43.0775231" lon="10.9479208"><ele>477.5</ele><time>2026-03-29T14:08:57.915Z</time></trkpt><trkpt lat="43.077457" lon="10.9480936"><ele>477.25</ele><time>2026-03-29T14:08:58.914Z</time></trkpt><trkpt lat="43.077432" lon="10.9482675"><ele>477.0</ele><time>2026-03-29T14:08:59.914Z</time></trkpt><trkpt lat="43.077456" lon="10.9484244"><ele>477.0</ele><time>2026-03-29T14:09:00.914Z</time></trkpt><trkpt lat="43.0775521" lon="10.9485591"><ele>477.0</ele><time>2026-03-29T14:09:01.914Z</time></trkpt><trkpt lat="43.077705" lon="10.9486501"><ele>477.0</ele><time>2026-03-29T14:09:02.914Z</time></trkpt><trkpt lat="43.0778764" lon="10.9486936"><ele>477.0</ele><time>2026-03-29T14:09:03.914Z</time></trkpt><trkpt lat="43.0780665" lon="10.9487082"><ele>477.0</ele><time>2026-03-29T14:09:04.914Z</time></trkpt><trkpt lat="43.0782387" lon="10.9487486"><ele>477.0</ele><time>2026-03-29T14:09:05.914Z</time></trkpt><trkpt lat="43.0783865" lon="10.948837"><ele>480.75</ele><time>2026-03-29T14:09:06.914Z</time></trkpt><trkpt lat="43.0784858" lon="10.9489634"><ele>484.5</ele><time>2026-03-29T14:09:07.914Z</time></trkpt><trkpt lat="43.0785318" lon="10.9491344"><ele>488.25</ele><time>2026-03-29T14:09:08.914Z</time></trkpt><trkpt lat="43.0785603" lon="10.9493256"><ele>492.0</ele><time>2026-03-29T14:09:09.914Z</time></trkpt><trkpt lat="43.0785721" lon="10.9495477"><ele>492.66666666666663</ele><time>2026-03-29T14:09:10.914Z</time></trkpt><trkpt lat="43.0786109" lon="10.9497743"><ele>493.3333333333333</ele><time>2026-03-29T14:09:11.914Z</time></trkpt><trkpt lat="43.0786799" lon="10.9499754"><ele>494.0</ele><time>2026-03-29T14:09:12.914Z</time></trkpt><trkpt lat="43.0787572" lon="10.9501439"><ele>496.6</ele><time>2026-03-29T14:09:13.915Z</time></trkpt><trkpt lat="43.078807" lon="10.9503051"><ele>499.2</ele><time>2026-03-29T14:09:14.914Z</time></trkpt><trkpt lat="43.0788303" lon="10.9504415"><ele>501.80000000000007</ele><time>2026-03-29T14:09:15.914Z</time></trkpt><trkpt lat="43.0787938" lon="10.9505505"><ele>504.40000000000003</ele><time>2026-03-29T14:09:16.914Z</time></trkpt><trkpt lat="43.0787111" lon="10.9506362"><ele>507.0</ele><time>2026-03-29T14:09:17.914Z</time></trkpt><trkpt lat="43.0786011" lon="10.9507129"><ele>507.0</ele><time>2026-03-29T14:09:18.914Z</time></trkpt><trkpt lat="43.0784749" lon="10.9507987"><ele>507.0</ele><time>2026-03-29T14:09:19.914Z</time></trkpt><trkpt lat="43.0783556" lon="10.950885"><ele>507.0</ele><time>2026-03-29T14:09:20.914Z</time></trkpt><trkpt lat="43.0782519" lon="10.9509735"><ele>507.0</ele><time>2026-03-29T14:09:21.914Z</time></trkpt><trkpt lat="43.0781583" lon="10.9510558"><ele>505.40000000000003</ele><time>2026-03-29T14:09:22.914Z</time></trkpt><trkpt lat="43.0780734" lon="10.9511447"><ele>503.80000000000007</ele><time>2026-03-29T14:09:23.914Z</time></trkpt><trkpt lat="43.0780089" lon="10.9512549"><ele>502.2</ele><time>2026-03-29T14:09:24.914Z</time></trkpt><trkpt lat="43.0779713" lon="10.9514025"><ele>500.6</ele><time>2026-03-29T14:09:25.914Z</time></trkpt><trkpt lat="43.0779678" lon="10.9515669"><ele>499.0</ele><time>2026-03-29T14:09:26.914Z</time></trkpt><trkpt lat="43.0779877" lon="10.9517673"><ele>499.0</ele><time>2026-03-29T14:09:27.914Z</time></trkpt><trkpt lat="43.0780381" lon="10.9520115"><ele>499.0</ele><time>2026-03-29T14:09:28.914Z</time></trkpt><trkpt lat="43.0781016" lon="10.9522874"><ele>499.0</ele><time>2026-03-29T14:09:29.914Z</time></trkpt><trkpt lat="43.0781851" lon="10.9525645"><ele>507.0</ele><time>2026-03-29T14:09:30.914Z</time></trkpt><trkpt lat="43.0782753" lon="10.9528354"><ele>515.0</ele><time>2026-03-29T14:09:31.914Z</time></trkpt><trkpt lat="43.0783591" lon="10.9530935"><ele>523.0</ele><time>2026-03-29T14:09:32.914Z</time></trkpt><trkpt lat="43.0784094" lon="10.9533195"><ele>522.25</ele><time>2026-03-29T14:09:33.914Z</time></trkpt><trkpt lat="43.0784343" lon="10.9535208"><ele>521.5</ele><time>2026-03-29T14:09:34.914Z</time></trkpt><trkpt lat="43.0784715" lon="10.9537155"><ele>520.75</ele><time>2026-03-29T14:09:35.914Z</time></trkpt><trkpt lat="43.078535" lon="10.9538929"><ele>520.0</ele><time>2026-03-29T14:09:36.914Z</time></trkpt><trkpt lat="43.0786248" lon="10.954051"><ele>516.0</ele><time>2026-03-29T14:09:37.914Z</time></trkpt><trkpt lat="43.0787422" lon="10.9542101"><ele>512.0</ele><time>2026-03-29T14:09:38.914Z</time></trkpt><trkpt lat="43.0788607" lon="10.9543487"><ele>508.0</ele><time>2026-03-29T14:09:39.914Z</time></trkpt><trkpt lat="43.0789513" lon="10.9545244"><ele>508.0</ele><time>2026-03-29T14:09:40.914Z</time></trkpt><trkpt lat="43.0790001" lon="10.9547033"><ele>508.0</ele><time>2026-03-29T14:09:41.914Z</time></trkpt><trkpt lat="43.0790255" lon="10.954877"><ele>508.0</ele><time>2026-03-29T14:09:42.914Z</time></trkpt><trkpt lat="43.0790707" lon="10.9550266"><ele>508.0</ele><time>2026-03-29T14:09:43.914Z</time></trkpt><trkpt lat="43.0791512" lon="10.9551423"><ele>508.0</ele><time>2026-03-29T14:09:44.914Z</time></trkpt><trkpt lat="43.0792645" lon="10.955203"><ele>508.0</ele><time>2026-03-29T14:09:45.914Z</time></trkpt><trkpt lat="43.0794029" lon="10.9552084"><ele>508.0</ele><time>2026-03-29T14:09:46.914Z</time></trkpt><trkpt lat="43.0795606" lon="10.9551568"><ele>508.0</ele><time>2026-03-29T14:09:47.914Z</time></trkpt><trkpt lat="43.0797321" lon="10.9551041"><ele>512.6666666666667</ele><time>2026-03-29T14:09:48.914Z</time></trkpt><trkpt lat="43.0800414" lon="10.9550949"><ele>517.3333333333334</ele><time>2026-03-29T14:09:50.914Z</time></trkpt><trkpt lat="43.0801632" lon="10.9551277"><ele>522.0</ele><time>2026-03-29T14:09:51.914Z</time></trkpt><trkpt lat="43.0802598" lon="10.9551744"><ele>522.0</ele><time>2026-03-29T14:09:52.914Z</time></trkpt><trkpt lat="43.0803237" lon="10.9552504"><ele>522.0</ele><time>2026-03-29T14:09:53.914Z</time></trkpt><trkpt lat="43.0803535" lon="10.9553569"><ele>522.0</ele><time>2026-03-29T14:09:54.914Z</time></trkpt><trkpt lat="43.0803461" lon="10.9554954"><ele>522.0</ele><time>2026-03-29T14:09:55.914Z</time></trkpt><trkpt lat="43.0803125" lon="10.9556722"><ele>522.0</ele><time>2026-03-29T14:09:56.914Z</time></trkpt><trkpt lat="43.080266" lon="10.9558829"><ele>522.0</ele><time>2026-03-29T14:09:57.914Z</time></trkpt><trkpt lat="43.0802391" lon="10.9561112"><ele>522.0</ele><time>2026-03-29T14:09:58.914Z</time></trkpt><trkpt lat="43.0802313" lon="10.9563632"><ele>522.0</ele><time>2026-03-29T14:09:59.914Z</time></trkpt><trkpt lat="43.0802335" lon="10.9566122"><ele>524.0</ele><time>2026-03-29T14:10:00.914Z</time></trkpt><trkpt lat="43.0802431" lon="10.9568572"><ele>526.0</ele><time>2026-03-29T14:10:01.914Z</time></trkpt><trkpt lat="43.0802461" lon="10.9570877"><ele>528.0</ele><time>2026-03-29T14:10:02.914Z</time></trkpt><trkpt lat="43.0802321" lon="10.9573041"><ele>528.0</ele><time>2026-03-29T14:10:03.914Z</time></trkpt><trkpt lat="43.0802145" lon="10.9575048"><ele>528.0</ele><time>2026-03-29T14:10:04.914Z</time></trkpt><trkpt lat="43.0802136" lon="10.9576945"><ele>528.0</ele><time>2026-03-29T14:10:05.914Z</time></trkpt><trkpt lat="43.0802425" lon="10.9578831"><ele>528.0</ele><time>2026-03-29T14:10:06.914Z</time></trkpt><trkpt lat="43.080308" lon="10.9580615"><ele>527.6666666666666</ele><time>2026-03-29T14:10:07.914Z</time></trkpt><trkpt lat="43.0804258" lon="10.9582233"><ele>527.3333333333333</ele><time>2026-03-29T14:10:08.914Z</time></trkpt><trkpt lat="43.0805631" lon="10.9583841"><ele>527.0</ele><time>2026-03-29T14:10:09.914Z</time></trkpt><trkpt lat="43.0806993" lon="10.9585397"><ele>526.6666666666666</ele><time>2026-03-29T14:10:10.914Z</time></trkpt><trkpt lat="43.0808338" lon="10.9586839"><ele>526.3333333333334</ele><time>2026-03-29T14:10:11.914Z</time></trkpt><trkpt lat="43.0809594" lon="10.958818"><ele>526.0</ele><time>2026-03-29T14:10:12.914Z</time></trkpt><trkpt lat="43.0810748" lon="10.9589342"><ele>526.0</ele><time>2026-03-29T14:10:13.914Z</time></trkpt><trkpt lat="43.0811969" lon="10.9590104"><ele>526.0</ele><time>2026-03-29T14:10:14.914Z</time></trkpt><trkpt lat="43.0813328" lon="10.9590566"><ele>526.0</ele><time>2026-03-29T14:10:15.914Z</time></trkpt><trkpt lat="43.0814847" lon="10.9590592"><ele>526.0</ele><time>2026-03-29T14:10:16.914Z</time></trkpt><trkpt lat="43.0816449" lon="10.9590067"><ele>530.0</ele><time>2026-03-29T14:10:17.914Z</time></trkpt><trkpt lat="43.0817951" lon="10.9589118"><ele>534.0</ele><time>2026-03-29T14:10:18.914Z</time></trkpt><trkpt lat="43.0819269" lon="10.958781"><ele>538.0</ele><time>2026-03-29T14:10:19.914Z</time></trkpt><trkpt lat="43.0820374" lon="10.9586265"><ele>538.0</ele><time>2026-03-29T14:10:20.914Z</time></trkpt><trkpt lat="43.0821307" lon="10.9584747"><ele>538.0</ele><time>2026-03-29T14:10:21.914Z</time></trkpt><trkpt lat="43.0822083" lon="10.9583334"><ele>538.0</ele><time>2026-03-29T14:10:22.914Z</time></trkpt><trkpt lat="43.0822664" lon="10.9582416"><ele>538.0</ele><time>2026-03-29T14:10:23.914Z</time></trkpt><trkpt lat="43.0823253" lon="10.9581914"><ele>538.0</ele><time>2026-03-29T14:10:24.914Z</time></trkpt><trkpt lat="43.0824412" lon="10.9582127"><ele>540.0</ele><time>2026-03-29T14:10:26.914Z</time></trkpt><trkpt lat="43.0825051" lon="10.9583308"><ele>542.0</ele><time>2026-03-29T14:10:27.914Z</time></trkpt><trkpt lat="43.0825751" lon="10.9585648"><ele>544.0</ele><time>2026-03-29T14:10:28.914Z</time></trkpt><trkpt lat="43.0826541" lon="10.9588011"><ele>544.0</ele><time>2026-03-29T14:10:29.914Z</time></trkpt><trkpt lat="43.0827496" lon="10.9590146"><ele>544.0</ele><time>2026-03-29T14:10:30.914Z</time></trkpt><trkpt lat="43.0828695" lon="10.9591878"><ele>544.0</ele><time>2026-03-29T14:10:31.914Z</time></trkpt><trkpt lat="43.082998" lon="10.9593094"><ele>542.0</ele><time>2026-03-29T14:10:32.914Z</time></trkpt><trkpt lat="43.0831289" lon="10.9593941"><ele>540.0</ele><time>2026-03-29T14:10:33.914Z</time></trkpt><trkpt lat="43.0832544" lon="10.9594531"><ele>538.0</ele><time>2026-03-29T14:10:34.914Z</time></trkpt><trkpt lat="43.0833477" lon="10.9595134"><ele>536.0</ele><time>2026-03-29T14:10:35.914Z</time></trkpt><trkpt lat="43.0834046" lon="10.9595968"><ele>539.4</ele><time>2026-03-29T14:10:36.914Z</time></trkpt><trkpt lat="43.0834404" lon="10.959701"><ele>542.8</ele><time>2026-03-29T14:10:37.915Z</time></trkpt><trkpt lat="43.0834462" lon="10.9598192"><ele>546.1999999999999</ele><time>2026-03-29T14:10:38.914Z</time></trkpt><trkpt lat="43.0834206" lon="10.9599603"><ele>549.6</ele><time>2026-03-29T14:10:39.914Z</time></trkpt><trkpt lat="43.0834054" lon="10.9601253"><ele>553.0</ele><time>2026-03-29T14:10:40.914Z</time></trkpt><trkpt lat="43.0834112" lon="10.9602918"><ele>553.0</ele><time>2026-03-29T14:10:41.914Z</time></trkpt><trkpt lat="43.0834533" lon="10.9604592"><ele>553.0</ele><time>2026-03-29T14:10:42.914Z</time></trkpt><trkpt lat="43.0835219" lon="10.9606275"><ele>553.0</ele><time>2026-03-29T14:10:43.914Z</time></trkpt><trkpt lat="43.0835861" lon="10.9608013"><ele>553.0</ele><time>2026-03-29T14:10:44.914Z</time></trkpt><trkpt lat="43.0836349" lon="10.9609905"><ele>552.0</ele><time>2026-03-29T14:10:45.914Z</time></trkpt><trkpt lat="43.0836761" lon="10.9611865"><ele>551.0</ele><time>2026-03-29T14:10:46.914Z</time></trkpt><trkpt lat="43.0837185" lon="10.9613893"><ele>550.0</ele><time>2026-03-29T14:10:47.914Z</time></trkpt><trkpt lat="43.0837483" lon="10.9615944"><ele>549.75</ele><time>2026-03-29T14:10:48.914Z</time></trkpt><trkpt lat="43.0837811" lon="10.9617863"><ele>549.5</ele><time>2026-03-29T14:10:49.914Z</time></trkpt><trkpt lat="43.0838467" lon="10.96195"><ele>549.25</ele><time>2026-03-29T14:10:50.914Z</time></trkpt><trkpt lat="43.0839417" lon="10.9620883"><ele>549.0</ele><time>2026-03-29T14:10:51.914Z</time></trkpt><trkpt lat="43.0840633" lon="10.962215"><ele>554.6666666666666</ele><time>2026-03-29T14:10:52.914Z</time></trkpt><trkpt lat="43.0842033" lon="10.96233"><ele>560.3333333333333</ele><time>2026-03-29T14:10:53.914Z</time></trkpt><trkpt lat="43.0843467" lon="10.9624367"><ele>566.0</ele><time>2026-03-29T14:10:54.914Z</time></trkpt><trkpt lat="43.0844617" lon="10.9625467"><ele>566.0</ele><time>2026-03-29T14:10:55.914Z</time></trkpt><trkpt lat="43.0845267" lon="10.962695"><ele>566.0</ele><time>2026-03-29T14:10:56.914Z</time></trkpt><trkpt lat="43.0845683" lon="10.962865"><ele>566.0</ele><time>2026-03-29T14:10:57.914Z</time></trkpt><trkpt lat="43.0845967" lon="10.96305"><ele>566.0</ele><time>2026-03-29T14:10:58.914Z</time></trkpt><trkpt lat="43.0846333" lon="10.9632483"><ele>564.75</ele><time>2026-03-29T14:10:59.915Z</time></trkpt><trkpt lat="43.0846633" lon="10.96346"><ele>563.5</ele><time>2026-03-29T14:11:00.914Z</time></trkpt><trkpt lat="43.08469" lon="10.9636633"><ele>562.25</ele><time>2026-03-29T14:11:01.914Z</time></trkpt><trkpt lat="43.0846967" lon="10.9638517"><ele>561.0</ele><time>2026-03-29T14:11:02.914Z</time></trkpt><trkpt lat="43.0847133" lon="10.9640283"><ele>563.0</ele><time>2026-03-29T14:11:03.915Z</time></trkpt><trkpt lat="43.08476" lon="10.9642017"><ele>565.0</ele><time>2026-03-29T14:11:04.914Z</time></trkpt><trkpt lat="43.0848217" lon="10.9643767"><ele>567.0</ele><time>2026-03-29T14:11:05.914Z</time></trkpt><trkpt lat="43.084865" lon="10.9645417"><ele>569.0</ele><time>2026-03-29T14:11:06.914Z</time></trkpt><trkpt lat="43.0848783" lon="10.9647167"><ele>569.0</ele><time>2026-03-29T14:11:07.914Z</time></trkpt><trkpt lat="43.0848617" lon="10.9648883"><ele>569.0</ele><time>2026-03-29T14:11:08.914Z</time></trkpt><trkpt lat="43.0848" lon="10.9650467"><ele>569.0</ele><time>2026-03-29T14:11:09.915Z</time></trkpt><trkpt lat="43.0846833" lon="10.9651883"><ele>569.0</ele><time>2026-03-29T14:11:10.914Z</time></trkpt><trkpt lat="43.0845783" lon="10.9653133"><ele>569.0</ele><time>2026-03-29T14:11:11.914Z</time></trkpt><trkpt lat="43.0844867" lon="10.96544"><ele>569.0</ele><time>2026-03-29T14:11:12.914Z</time></trkpt><trkpt lat="43.0844533" lon="10.9655733"><ele>569.0</ele><time>2026-03-29T14:11:13.914Z</time></trkpt><trkpt lat="43.084445" lon="10.965715"><ele>569.0</ele><time>2026-03-29T14:11:14.914Z</time></trkpt><trkpt lat="43.08446" lon="10.9658517"><ele>569.0</ele><time>2026-03-29T14:11:15.914Z</time></trkpt><trkpt lat="43.0844817" lon="10.96599"><ele>568.8</ele><time>2026-03-29T14:11:16.914Z</time></trkpt><trkpt lat="43.08451" lon="10.96612"><ele>568.5999999999999</ele><time>2026-03-29T14:11:17.914Z</time></trkpt><trkpt lat="43.084555" lon="10.96624"><ele>568.4</ele><time>2026-03-29T14:11:18.914Z</time></trkpt><trkpt lat="43.084605" lon="10.9663483"><ele>568.1999999999999</ele><time>2026-03-29T14:11:19.914Z</time></trkpt><trkpt lat="43.0846617" lon="10.9664517"><ele>568.0</ele><time>2026-03-29T14:11:20.914Z</time></trkpt><trkpt lat="43.0847083" lon="10.96656"><ele>568.0</ele><time>2026-03-29T14:11:21.914Z</time></trkpt><trkpt lat="43.0847333" lon="10.966665"><ele>568.0</ele><time>2026-03-29T14:11:22.914Z</time></trkpt><trkpt lat="43.0847467" lon="10.96678"><ele>568.0</ele><time>2026-03-29T14:11:23.914Z</time></trkpt><trkpt lat="43.0847317" lon="10.96689"><ele>568.0</ele><time>2026-03-29T14:11:24.914Z</time></trkpt><trkpt lat="43.0846417" lon="10.966965"><ele>568.0</ele><time>2026-03-29T14:11:25.914Z</time></trkpt><trkpt lat="43.08456" lon="10.967035"><ele>568.0</ele><time>2026-03-29T14:11:26.914Z</time></trkpt><trkpt lat="43.084485" lon="10.967115"><ele>568.8</ele><time>2026-03-29T14:11:27.914Z</time></trkpt><trkpt lat="43.0844183" lon="10.9672067"><ele>569.5999999999999</ele><time>2026-03-29T14:11:28.914Z</time></trkpt><trkpt lat="43.084405" lon="10.967335"><ele>570.4000000000001</ele><time>2026-03-29T14:11:29.914Z</time></trkpt><trkpt lat="43.0844183" lon="10.9674533"><ele>571.2</ele><time>2026-03-29T14:11:30.914Z</time></trkpt><trkpt lat="43.08445" lon="10.9675717"><ele>572.0</ele><time>2026-03-29T14:11:31.914Z</time></trkpt><trkpt lat="43.0845033" lon="10.9676833"><ele>572.6</ele><time>2026-03-29T14:11:32.914Z</time></trkpt><trkpt lat="43.084575" lon="10.9677967"><ele>573.2</ele><time>2026-03-29T14:11:33.914Z</time></trkpt><trkpt lat="43.0846167" lon="10.9679183"><ele>573.8</ele><time>2026-03-29T14:11:34.914Z</time></trkpt><trkpt lat="43.0846517" lon="10.9680517"><ele>574.4</ele><time>2026-03-29T14:11:35.914Z</time></trkpt><trkpt lat="43.0846533" lon="10.96817"><ele>575.0</ele><time>2026-03-29T14:11:36.914Z</time></trkpt><trkpt lat="43.0846167" lon="10.968265"><ele>575.0</ele><time>2026-03-29T14:11:37.915Z</time></trkpt><trkpt lat="43.0845033" lon="10.968305"><ele>575.0</ele><time>2026-03-29T14:11:38.914Z</time></trkpt><trkpt lat="43.0844083" lon="10.9683283"><ele>575.0</ele><time>2026-03-29T14:11:39.914Z</time></trkpt><trkpt lat="43.0843083" lon="10.96833"><ele>575.0</ele><time>2026-03-29T14:11:40.914Z</time></trkpt><trkpt lat="43.084225" lon="10.9683083"><ele>575.0</ele><time>2026-03-29T14:11:41.914Z</time></trkpt><trkpt lat="43.084145" lon="10.9683083"><ele>573.0</ele><time>2026-03-29T14:11:42.914Z</time></trkpt><trkpt lat="43.084075" lon="10.968315"><ele>571.0</ele><time>2026-03-29T14:11:43.914Z</time></trkpt><trkpt lat="43.0840033" lon="10.9683467"><ele>569.0</ele><time>2026-03-29T14:11:44.914Z</time></trkpt><trkpt lat="43.08394" lon="10.968405"><ele>567.0</ele><time>2026-03-29T14:11:45.914Z</time></trkpt><trkpt lat="43.0839283" lon="10.9685517"><ele>565.0</ele><time>2026-03-29T14:11:46.914Z</time></trkpt><trkpt lat="43.0839217" lon="10.9687033"><ele>563.0</ele><time>2026-03-29T14:11:47.914Z</time></trkpt><trkpt lat="43.083935" lon="10.9688783"><ele>563.0</ele><time>2026-03-29T14:11:48.914Z</time></trkpt><trkpt lat="43.0839633" lon="10.9690433"><ele>563.0</ele><time>2026-03-29T14:11:49.914Z</time></trkpt><trkpt lat="43.084" lon="10.969205"><ele>563.0</ele><time>2026-03-29T14:11:50.914Z</time></trkpt><trkpt lat="43.08405" lon="10.9693533"><ele>563.0</ele><time>2026-03-29T14:11:51.914Z</time></trkpt><trkpt lat="43.0841017" lon="10.9694767"><ele>563.8333333333333</ele><time>2026-03-29T14:11:52.914Z</time></trkpt><trkpt lat="43.084155" lon="10.969585"><ele>564.6666666666666</ele><time>2026-03-29T14:11:53.915Z</time></trkpt><trkpt lat="43.0842067" lon="10.96969"><ele>565.5</ele><time>2026-03-29T14:11:54.914Z</time></trkpt><trkpt lat="43.0842383" lon="10.9697967"><ele>566.3333333333334</ele><time>2026-03-29T14:11:55.914Z</time></trkpt><trkpt lat="43.0842517" lon="10.9699083"><ele>567.1666666666667</ele><time>2026-03-29T14:11:56.914Z</time></trkpt><trkpt lat="43.0842317" lon="10.9700117"><ele>568.0</ele><time>2026-03-29T14:11:57.914Z</time></trkpt><trkpt lat="43.0841883" lon="10.97012"><ele>568.0</ele><time>2026-03-29T14:11:58.914Z</time></trkpt><trkpt lat="43.0841283" lon="10.9702533"><ele>568.0</ele><time>2026-03-29T14:11:59.914Z</time></trkpt><trkpt lat="43.0840817" lon="10.9703783"><ele>568.0</ele><time>2026-03-29T14:12:00.914Z</time></trkpt><trkpt lat="43.0840417" lon="10.970505"><ele>568.0</ele><time>2026-03-29T14:12:01.914Z</time></trkpt><trkpt lat="43.08402" lon="10.970625"><ele>568.0</ele><time>2026-03-29T14:12:02.914Z</time></trkpt><trkpt lat="43.0840133" lon="10.97073"><ele>563.6</ele><time>2026-03-29T14:12:03.914Z</time></trkpt><trkpt lat="43.0840267" lon="10.9708367"><ele>559.1999999999999</ele><time>2026-03-29T14:12:04.914Z</time></trkpt><trkpt lat="43.0840733" lon="10.970935"><ele>554.8</ele><time>2026-03-29T14:12:05.914Z</time></trkpt><trkpt lat="43.0841917" lon="10.97101"><ele>550.4</ele><time>2026-03-29T14:12:06.914Z</time></trkpt><trkpt lat="43.0843067" lon="10.9710667"><ele>546.0</ele><time>2026-03-29T14:12:07.914Z</time></trkpt><trkpt lat="43.0844367" lon="10.9711033"><ele>545.5</ele><time>2026-03-29T14:12:08.914Z</time></trkpt><trkpt lat="43.084565" lon="10.9711267"><ele>545.0</ele><time>2026-03-29T14:12:09.914Z</time></trkpt><trkpt lat="43.0846917" lon="10.9711467"><ele>544.5</ele><time>2026-03-29T14:12:10.914Z</time></trkpt><trkpt lat="43.0848067" lon="10.97118"><ele>544.0</ele><time>2026-03-29T14:12:11.914Z</time></trkpt><trkpt lat="43.0849217" lon="10.9712417"><ele>549.6666666666667</ele><time>2026-03-29T14:12:12.914Z</time></trkpt><trkpt lat="43.0850233" lon="10.9713417"><ele>555.3333333333334</ele><time>2026-03-29T14:12:13.914Z</time></trkpt><trkpt lat="43.0851267" lon="10.9715117"><ele>561.0</ele><time>2026-03-29T14:12:14.914Z</time></trkpt><trkpt lat="43.0852467" lon="10.97169"><ele>556.6666666666666</ele><time>2026-03-29T14:12:15.914Z</time></trkpt><trkpt lat="43.0853783" lon="10.971865"><ele>552.3333333333333</ele><time>2026-03-29T14:12:16.914Z</time></trkpt><trkpt lat="43.0855" lon="10.9720183"><ele>548.0</ele><time>2026-03-29T14:12:17.914Z</time></trkpt><trkpt lat="43.0856067" lon="10.9721567"><ele>548.0</ele><time>2026-03-29T14:12:18.915Z</time></trkpt><trkpt lat="43.0857083" lon="10.97227"><ele>548.0</ele><time>2026-03-29T14:12:19.914Z</time></trkpt><trkpt lat="43.0857933" lon="10.9723767"><ele>548.0</ele><time>2026-03-29T14:12:20.914Z</time></trkpt><trkpt lat="43.0858683" lon="10.972465"><ele>548.0</ele><time>2026-03-29T14:12:21.914Z</time></trkpt><trkpt lat="43.0859217" lon="10.9725633"><ele>548.0</ele><time>2026-03-29T14:12:22.914Z</time></trkpt><trkpt lat="43.0859533" lon="10.9726733"><ele>550.5</ele><time>2026-03-29T14:12:23.914Z</time></trkpt><trkpt lat="43.085965" lon="10.972775"><ele>553.0</ele><time>2026-03-29T14:12:24.914Z</time></trkpt><trkpt lat="43.0859483" lon="10.9728783"><ele>555.5</ele><time>2026-03-29T14:12:25.914Z</time></trkpt><trkpt lat="43.0859133" lon="10.97297"><ele>558.0</ele><time>2026-03-29T14:12:26.914Z</time></trkpt><trkpt lat="43.085855" lon="10.9730383"><ele>560.5</ele><time>2026-03-29T14:12:27.914Z</time></trkpt><trkpt lat="43.085775" lon="10.9730867"><ele>563.0</ele><time>2026-03-29T14:12:28.914Z</time></trkpt><trkpt lat="43.085605" lon="10.9730333"><ele>563.0</ele><time>2026-03-29T14:12:29.914Z</time></trkpt><trkpt lat="43.0854933" lon="10.9729867"><ele>563.0</ele><time>2026-03-29T14:12:30.914Z</time></trkpt><trkpt lat="43.0853917" lon="10.9729683"><ele>563.0</ele><time>2026-03-29T14:12:31.914Z</time></trkpt><trkpt lat="43.0852933" lon="10.9729717"><ele>563.0</ele><time>2026-03-29T14:12:32.915Z</time></trkpt><trkpt lat="43.0851867" lon="10.972985"><ele>563.0</ele><time>2026-03-29T14:12:33.914Z</time></trkpt><trkpt lat="43.0850667" lon="10.973025"><ele>563.0</ele><time>2026-03-29T14:12:34.914Z</time></trkpt><trkpt lat="43.0849433" lon="10.97311"><ele>563.0</ele><time>2026-03-29T14:12:35.914Z</time></trkpt><trkpt lat="43.0848" lon="10.9732267"><ele>563.0</ele><time>2026-03-29T14:12:36.914Z</time></trkpt><trkpt lat="43.084645" lon="10.9733833"><ele>568.3333333333333</ele><time>2026-03-29T14:12:37.914Z</time></trkpt><trkpt lat="43.0844883" lon="10.973565"><ele>573.6666666666666</ele><time>2026-03-29T14:12:38.914Z</time></trkpt><trkpt lat="43.0843417" lon="10.9737183"><ele>579.0</ele><time>2026-03-29T14:12:39.914Z</time></trkpt><trkpt lat="43.084195" lon="10.9737967"><ele>575.0</ele><time>2026-03-29T14:12:40.914Z</time></trkpt><trkpt lat="43.0840333" lon="10.9738067"><ele>571.0</ele><time>2026-03-29T14:12:41.914Z</time></trkpt><trkpt lat="43.0838717" lon="10.97379"><ele>567.0</ele><time>2026-03-29T14:12:42.914Z</time></trkpt><trkpt lat="43.0836933" lon="10.9738233"><ele>567.0</ele><time>2026-03-29T14:12:43.914Z</time></trkpt><trkpt lat="43.0834983" lon="10.973895"><ele>567.0</ele><time>2026-03-29T14:12:44.914Z</time></trkpt><trkpt lat="43.0833033" lon="10.9740067"><ele>567.0</ele><time>2026-03-29T14:12:45.914Z</time></trkpt><trkpt lat="43.0831117" lon="10.9741317"><ele>562.3333333333334</ele><time>2026-03-29T14:12:46.914Z</time></trkpt><trkpt lat="43.0829367" lon="10.9742733"><ele>557.6666666666667</ele><time>2026-03-29T14:12:47.914Z</time></trkpt><trkpt lat="43.082785" lon="10.9744433"><ele>553.0</ele><time>2026-03-29T14:12:48.914Z</time></trkpt><trkpt lat="43.08267" lon="10.9746583"><ele>553.0</ele><time>2026-03-29T14:12:49.914Z</time></trkpt><trkpt lat="43.0825983" lon="10.974905"><ele>553.0</ele><time>2026-03-29T14:12:50.914Z</time></trkpt><trkpt lat="43.0825767" lon="10.9751867"><ele>553.0</ele><time>2026-03-29T14:12:51.914Z</time></trkpt><trkpt lat="43.082575" lon="10.97551"><ele>546.0</ele><time>2026-03-29T14:12:52.914Z</time></trkpt><trkpt lat="43.0825933" lon="10.9758717"><ele>539.0</ele><time>2026-03-29T14:12:53.914Z</time></trkpt><trkpt lat="43.0826217" lon="10.9762417"><ele>539.0</ele><time>2026-03-29T14:12:54.914Z</time></trkpt><trkpt lat="43.0826417" lon="10.9766433"><ele>539.0</ele><time>2026-03-29T14:12:55.914Z</time></trkpt><trkpt lat="43.0826633" lon="10.9770767"><ele>538.5</ele><time>2026-03-29T14:12:56.914Z</time></trkpt><trkpt lat="43.0826717" lon="10.977525"><ele>538.0</ele><time>2026-03-29T14:12:57.914Z</time></trkpt><trkpt lat="43.082655" lon="10.9779617"><ele>533.5</ele><time>2026-03-29T14:12:58.914Z</time></trkpt><trkpt lat="43.08261" lon="10.9783983"><ele>529.0</ele><time>2026-03-29T14:12:59.914Z</time></trkpt><trkpt lat="43.0825483" lon="10.9788367"><ele>515.5</ele><time>2026-03-29T14:13:00.914Z</time></trkpt><trkpt lat="43.0824667" lon="10.9792517"><ele>502.0</ele><time>2026-03-29T14:13:01.914Z</time></trkpt><trkpt lat="43.0823717" lon="10.9796133"><ele>496.0</ele><time>2026-03-29T14:13:02.914Z</time></trkpt><trkpt lat="43.0822683" lon="10.97995"><ele>490.0</ele><time>2026-03-29T14:13:03.914Z</time></trkpt><trkpt lat="43.0821517" lon="10.980265"><ele>483.5</ele><time>2026-03-29T14:13:04.914Z</time></trkpt><trkpt lat="43.082035" lon="10.980545"><ele>477.0</ele><time>2026-03-29T14:13:05.914Z</time></trkpt><trkpt lat="43.08191" lon="10.9808283"><ele>489.0</ele><time>2026-03-29T14:13:06.914Z</time></trkpt><trkpt lat="43.0817833" lon="10.9811133"><ele>501.0</ele><time>2026-03-29T14:13:07.914Z</time></trkpt><trkpt lat="43.0816717" lon="10.9813883"><ele>493.0</ele><time>2026-03-29T14:13:08.914Z</time></trkpt><trkpt lat="43.0815467" lon="10.98166"><ele>485.0</ele><time>2026-03-29T14:13:09.914Z</time></trkpt><trkpt lat="43.0814233" lon="10.9819233"><ele>502.0</ele><time>2026-03-29T14:13:10.914Z</time></trkpt><trkpt lat="43.0813117" lon="10.9821933"><ele>519.0</ele><time>2026-03-29T14:13:11.914Z</time></trkpt><trkpt lat="43.0812" lon="10.98246"><ele>525.3333333333334</ele><time>2026-03-29T14:13:12.914Z</time></trkpt><trkpt lat="43.0810883" lon="10.9827233"><ele>531.6666666666667</ele><time>2026-03-29T14:13:13.914Z</time></trkpt><trkpt lat="43.0809817" lon="10.982975"><ele>538.0</ele><time>2026-03-29T14:13:14.914Z</time></trkpt><trkpt lat="43.08087" lon="10.9832217"><ele>536.0</ele><time>2026-03-29T14:13:15.914Z</time></trkpt><trkpt lat="43.0807617" lon="10.9834633"><ele>534.0</ele><time>2026-03-29T14:13:16.914Z</time></trkpt><trkpt lat="43.0806617" lon="10.9837183"><ele>532.0</ele><time>2026-03-29T14:13:17.914Z</time></trkpt><trkpt lat="43.08055" lon="10.9839667"><ele>535.3333333333334</ele><time>2026-03-29T14:13:18.914Z</time></trkpt><trkpt lat="43.08044" lon="10.984205"><ele>538.6666666666666</ele><time>2026-03-29T14:13:19.914Z</time></trkpt><trkpt lat="43.0803167" lon="10.9844333"><ele>542.0</ele><time>2026-03-29T14:13:20.914Z</time></trkpt><trkpt lat="43.0802" lon="10.9846683"><ele>542.0</ele><time>2026-03-29T14:13:21.914Z</time></trkpt><trkpt lat="43.080075" lon="10.9849033"><ele>542.0</ele><time>2026-03-29T14:13:22.914Z</time></trkpt><trkpt lat="43.07994" lon="10.9851383"><ele>542.0</ele><time>2026-03-29T14:13:23.914Z</time></trkpt><trkpt lat="43.0798167" lon="10.98535"><ele>541.6666666666666</ele><time>2026-03-29T14:13:24.914Z</time></trkpt><trkpt lat="43.0796917" lon="10.985555"><ele>541.3333333333334</ele><time>2026-03-29T14:13:25.914Z</time></trkpt><trkpt lat="43.07956" lon="10.98573"><ele>541.0</ele><time>2026-03-29T14:13:26.914Z</time></trkpt><trkpt lat="43.0794183" lon="10.9858733"><ele>541.6666666666667</ele><time>2026-03-29T14:13:27.914Z</time></trkpt><trkpt lat="43.079285" lon="10.9859717"><ele>542.3333333333334</ele><time>2026-03-29T14:13:28.914Z</time></trkpt><trkpt lat="43.0791533" lon="10.9860917"><ele>543.0</ele><time>2026-03-29T14:13:29.914Z</time></trkpt><trkpt lat="43.0790483" lon="10.98624"><ele>543.0</ele><time>2026-03-29T14:13:30.914Z</time></trkpt><trkpt lat="43.0789767" lon="10.98643"><ele>543.0</ele><time>2026-03-29T14:13:31.914Z</time></trkpt><trkpt lat="43.0789367" lon="10.9866483"><ele>543.0</ele><time>2026-03-29T14:13:32.914Z</time></trkpt><trkpt lat="43.0789267" lon="10.9868783"><ele>543.3333333333334</ele><time>2026-03-29T14:13:33.914Z</time></trkpt><trkpt lat="43.07895" lon="10.9871133"><ele>543.6666666666667</ele><time>2026-03-29T14:13:34.915Z</time></trkpt><trkpt lat="43.0789817" lon="10.987335"><ele>544.0</ele><time>2026-03-29T14:13:35.914Z</time></trkpt><trkpt lat="43.0790133" lon="10.9875483"><ele>541.5</ele><time>2026-03-29T14:13:36.914Z</time></trkpt><trkpt lat="43.0790267" lon="10.98774"><ele>539.0</ele><time>2026-03-29T14:13:37.914Z</time></trkpt><trkpt lat="43.079" lon="10.9879417"><ele>536.5</ele><time>2026-03-29T14:13:38.914Z</time></trkpt><trkpt lat="43.0789433" lon="10.988115"><ele>534.0</ele><time>2026-03-29T14:13:39.914Z</time></trkpt><trkpt lat="43.07885" lon="10.9882317"><ele>534.0</ele><time>2026-03-29T14:13:40.914Z</time></trkpt><trkpt lat="43.07874" lon="10.9882917"><ele>534.0</ele><time>2026-03-29T14:13:41.914Z</time></trkpt><trkpt lat="43.0786283" lon="10.988325"><ele>534.0</ele><time>2026-03-29T14:13:42.914Z</time></trkpt><trkpt lat="43.078495" lon="10.9882983"><ele>534.0</ele><time>2026-03-29T14:13:43.914Z</time></trkpt><trkpt lat="43.078315" lon="10.988165"><ele>533.0</ele><time>2026-03-29T14:13:44.914Z</time></trkpt><trkpt lat="43.0781367" lon="10.9880433"><ele>532.0</ele><time>2026-03-29T14:13:45.914Z</time></trkpt><trkpt lat="43.0779733" lon="10.9879633"><ele>531.0</ele><time>2026-03-29T14:13:46.914Z</time></trkpt><trkpt lat="43.0777917" lon="10.9879583"><ele>531.0</ele><time>2026-03-29T14:13:47.914Z</time></trkpt><trkpt lat="43.0776067" lon="10.9880017"><ele>531.0</ele><time>2026-03-29T14:13:48.914Z</time></trkpt><trkpt lat="43.0772883" lon="10.9881883"><ele>535.6666666666666</ele><time>2026-03-29T14:13:50.914Z</time></trkpt><trkpt lat="43.07714" lon="10.9882683"><ele>540.3333333333333</ele><time>2026-03-29T14:13:51.914Z</time></trkpt><trkpt lat="43.0769783" lon="10.9885567"><ele>545.0</ele><time>2026-03-29T14:13:53.914Z</time></trkpt><trkpt lat="43.0769233" lon="10.9887717"><ele>545.0</ele><time>2026-03-29T14:13:54.914Z</time></trkpt><trkpt lat="43.0768933" lon="10.9890183"><ele>545.0</ele><time>2026-03-29T14:13:55.914Z</time></trkpt><trkpt lat="43.076895" lon="10.9892833"><ele>545.0</ele><time>2026-03-29T14:13:56.915Z</time></trkpt><trkpt lat="43.0769067" lon="10.9895333"><ele>541.75</ele><time>2026-03-29T14:13:57.914Z</time></trkpt><trkpt lat="43.076915" lon="10.98976"><ele>538.5</ele><time>2026-03-29T14:13:58.914Z</time></trkpt><trkpt lat="43.0768933" lon="10.98996"><ele>535.25</ele><time>2026-03-29T14:13:59.914Z</time></trkpt><trkpt lat="43.0768417" lon="10.9901283"><ele>532.0</ele><time>2026-03-29T14:14:00.914Z</time></trkpt><trkpt lat="43.0767433" lon="10.99026"><ele>532.3333333333334</ele><time>2026-03-29T14:14:01.914Z</time></trkpt><trkpt lat="43.0766267" lon="10.990375"><ele>532.6666666666666</ele><time>2026-03-29T14:14:02.914Z</time></trkpt><trkpt lat="43.07649" lon="10.9905"><ele>533.0</ele><time>2026-03-29T14:14:03.914Z</time></trkpt><trkpt lat="43.0763417" lon="10.99062"><ele>533.0</ele><time>2026-03-29T14:14:04.914Z</time></trkpt><trkpt lat="43.076195" lon="10.9907533"><ele>533.0</ele><time>2026-03-29T14:14:05.914Z</time></trkpt><trkpt lat="43.0760617" lon="10.99089"><ele>533.0</ele><time>2026-03-29T14:14:06.914Z</time></trkpt><trkpt lat="43.07595" lon="10.991055"><ele>529.6666666666666</ele><time>2026-03-29T14:14:07.914Z</time></trkpt><trkpt lat="43.07588" lon="10.9912217"><ele>526.3333333333334</ele><time>2026-03-29T14:14:08.914Z</time></trkpt><trkpt lat="43.0758483" lon="10.9914133"><ele>523.0</ele><time>2026-03-29T14:14:09.914Z</time></trkpt><trkpt lat="43.075855" lon="10.9916433"><ele>523.3333333333334</ele><time>2026-03-29T14:14:10.915Z</time></trkpt><trkpt lat="43.0759083" lon="10.9918783"><ele>523.6666666666666</ele><time>2026-03-29T14:14:11.914Z</time></trkpt><trkpt lat="43.0759817" lon="10.992145"><ele>524.0</ele><time>2026-03-29T14:14:12.914Z</time></trkpt><trkpt lat="43.0760517" lon="10.992425"><ele>524.3333333333333</ele><time>2026-03-29T14:14:13.914Z</time></trkpt><trkpt lat="43.0761333" lon="10.9926967"><ele>524.6666666666666</ele><time>2026-03-29T14:14:14.914Z</time></trkpt><trkpt lat="43.0761983" lon="10.9929533"><ele>525.0</ele><time>2026-03-29T14:14:15.914Z</time></trkpt><trkpt lat="43.0762583" lon="10.9932083"><ele>523.3333333333334</ele><time>2026-03-29T14:14:16.914Z</time></trkpt><trkpt lat="43.0762917" lon="10.99347"><ele>521.6666666666667</ele><time>2026-03-29T14:14:17.914Z</time></trkpt><trkpt lat="43.0762917" lon="10.993755"><ele>520.0</ele><time>2026-03-29T14:14:18.914Z</time></trkpt><trkpt lat="43.07629" lon="10.9940367"><ele>517.3333333333334</ele><time>2026-03-29T14:14:19.914Z</time></trkpt><trkpt lat="43.0762883" lon="10.994335"><ele>514.6666666666666</ele><time>2026-03-29T14:14:20.914Z</time></trkpt><trkpt lat="43.07628" lon="10.994615"><ele>512.0</ele><time>2026-03-29T14:14:21.914Z</time></trkpt><trkpt lat="43.0762617" lon="10.99487"><ele>509.0</ele><time>2026-03-29T14:14:22.914Z</time></trkpt><trkpt lat="43.0762267" lon="10.9950967"><ele>506.0</ele><time>2026-03-29T14:14:23.914Z</time></trkpt><trkpt lat="43.0761783" lon="10.9953117"><ele>503.0</ele><time>2026-03-29T14:14:24.914Z</time></trkpt><trkpt lat="43.076095" lon="10.995455"><ele>503.0</ele><time>2026-03-29T14:14:25.914Z</time></trkpt><trkpt lat="43.0759817" lon="10.9955433"><ele>503.0</ele><time>2026-03-29T14:14:26.914Z</time></trkpt><trkpt lat="43.0758517" lon="10.9955717"><ele>503.0</ele><time>2026-03-29T14:14:27.914Z</time></trkpt><trkpt lat="43.0757183" lon="10.9955633"><ele>503.0</ele><time>2026-03-29T14:14:28.914Z</time></trkpt><trkpt lat="43.0755967" lon="10.9955567"><ele>508.0</ele><time>2026-03-29T14:14:29.914Z</time></trkpt><trkpt lat="43.07549" lon="10.9955967"><ele>513.0</ele><time>2026-03-29T14:14:30.914Z</time></trkpt><trkpt lat="43.075395" lon="10.9956883"><ele>518.0</ele><time>2026-03-29T14:14:31.914Z</time></trkpt><trkpt lat="43.0753483" lon="10.9958417"><ele>523.0</ele><time>2026-03-29T14:14:32.914Z</time></trkpt><trkpt lat="43.0753367" lon="10.9960317"><ele>523.0</ele><time>2026-03-29T14:14:33.914Z</time></trkpt><trkpt lat="43.0753633" lon="10.996235"><ele>523.0</ele><time>2026-03-29T14:14:34.914Z</time></trkpt><trkpt lat="43.0754267" lon="10.9964333"><ele>523.0</ele><time>2026-03-29T14:14:35.914Z</time></trkpt><trkpt lat="43.0755267" lon="10.9966583"><ele>517.6666666666667</ele><time>2026-03-29T14:14:36.914Z</time></trkpt><trkpt lat="43.0755817" lon="10.9968883"><ele>512.3333333333334</ele><time>2026-03-29T14:14:37.914Z</time></trkpt><trkpt lat="43.0756167" lon="10.9971083"><ele>507.0</ele><time>2026-03-29T14:14:38.914Z</time></trkpt><trkpt lat="43.0756033" lon="10.9973267"><ele>503.66666666666663</ele><time>2026-03-29T14:14:39.915Z</time></trkpt><trkpt lat="43.0755467" lon="10.99753"><ele>500.3333333333333</ele><time>2026-03-29T14:14:40.914Z</time></trkpt><trkpt lat="43.0754479" lon="10.9977187"><ele>497.0</ele><time>2026-03-29T14:14:41.914Z</time></trkpt><trkpt lat="43.0753226" lon="10.9978878"><ele>497.0</ele><time>2026-03-29T14:14:42.914Z</time></trkpt><trkpt lat="43.0751765" lon="10.9980562"><ele>497.0</ele><time>2026-03-29T14:14:43.914Z</time></trkpt><trkpt lat="43.0750273" lon="10.9982151"><ele>497.0</ele><time>2026-03-29T14:14:44.914Z</time></trkpt><trkpt lat="43.0749086" lon="10.9984016"><ele>500.0</ele><time>2026-03-29T14:14:45.914Z</time></trkpt><trkpt lat="43.0748359" lon="10.998603"><ele>503.0</ele><time>2026-03-29T14:14:46.914Z</time></trkpt><trkpt lat="43.0748004" lon="10.9988219"><ele>506.0</ele><time>2026-03-29T14:14:47.914Z</time></trkpt><trkpt lat="43.0748212" lon="10.9990517"><ele>504.66666666666663</ele><time>2026-03-29T14:14:48.914Z</time></trkpt><trkpt lat="43.0748829" lon="10.9992849"><ele>503.33333333333337</ele><time>2026-03-29T14:14:49.914Z</time></trkpt><trkpt lat="43.0749752" lon="10.9995363"><ele>502.0</ele><time>2026-03-29T14:14:50.914Z</time></trkpt><trkpt lat="43.0750884" lon="10.9997907"><ele>500.0</ele><time>2026-03-29T14:14:51.914Z</time></trkpt><trkpt lat="43.0751977" lon="11.0000313"><ele>498.0</ele><time>2026-03-29T14:14:52.914Z</time></trkpt><trkpt lat="43.0753044" lon="11.0002746"><ele>496.0</ele><time>2026-03-29T14:14:53.914Z</time></trkpt><trkpt lat="43.0754107" lon="11.0005071"><ele>496.0</ele><time>2026-03-29T14:14:54.914Z</time></trkpt><trkpt lat="43.0755168" lon="11.0007476"><ele>496.0</ele><time>2026-03-29T14:14:55.914Z</time></trkpt><trkpt lat="43.075626" lon="11.0009859"><ele>496.0</ele><time>2026-03-29T14:14:56.914Z</time></trkpt><trkpt lat="43.0757382" lon="11.0012237"><ele>495.6666666666667</ele><time>2026-03-29T14:14:57.914Z</time></trkpt><trkpt lat="43.0758558" lon="11.0014652"><ele>495.33333333333337</ele><time>2026-03-29T14:14:58.914Z</time></trkpt><trkpt lat="43.0759765" lon="11.0016992"><ele>495.0</ele><time>2026-03-29T14:14:59.914Z</time></trkpt><trkpt lat="43.0760996" lon="11.001932"><ele>493.33333333333337</ele><time>2026-03-29T14:15:00.914Z</time></trkpt><trkpt lat="43.0762081" lon="11.0021667"><ele>491.6666666666667</ele><time>2026-03-29T14:15:01.914Z</time></trkpt><trkpt lat="43.0763077" lon="11.0023953"><ele>490.0</ele><time>2026-03-29T14:15:02.914Z</time></trkpt><trkpt lat="43.0764074" lon="11.0026351"><ele>488.6666666666667</ele><time>2026-03-29T14:15:03.914Z</time></trkpt><trkpt lat="43.0765009" lon="11.0028735"><ele>487.33333333333337</ele><time>2026-03-29T14:15:04.914Z</time></trkpt><trkpt lat="43.0765821" lon="11.0031194"><ele>486.0</ele><time>2026-03-29T14:15:05.914Z</time></trkpt><trkpt lat="43.0766465" lon="11.0033831"><ele>486.0</ele><time>2026-03-29T14:15:06.914Z</time></trkpt><trkpt lat="43.0766953" lon="11.0036492"><ele>486.0</ele><time>2026-03-29T14:15:07.914Z</time></trkpt><trkpt lat="43.0767342" lon="11.0039146"><ele>486.0</ele><time>2026-03-29T14:15:08.914Z</time></trkpt><trkpt lat="43.076771" lon="11.0041829"><ele>484.5</ele><time>2026-03-29T14:15:09.914Z</time></trkpt><trkpt lat="43.0768336" lon="11.004746"><ele>483.0</ele><time>2026-03-29T14:15:11.914Z</time></trkpt><trkpt lat="43.0768712" lon="11.0050351"><ele>483.0</ele><time>2026-03-29T14:15:12.914Z</time></trkpt><trkpt lat="43.0769094" lon="11.0053273"><ele>483.0</ele><time>2026-03-29T14:15:13.915Z</time></trkpt><trkpt lat="43.0769454" lon="11.0056113"><ele>483.0</ele><time>2026-03-29T14:15:14.914Z</time></trkpt><trkpt lat="43.0769843" lon="11.0059013"><ele>482.66666666666663</ele><time>2026-03-29T14:15:15.914Z</time></trkpt><trkpt lat="43.0770264" lon="11.006185"><ele>482.3333333333333</ele><time>2026-03-29T14:15:16.914Z</time></trkpt><trkpt lat="43.0770681" lon="11.0064755"><ele>482.0</ele><time>2026-03-29T14:15:17.914Z</time></trkpt><trkpt lat="43.0771076" lon="11.0067642"><ele>482.0</ele><time>2026-03-29T14:15:18.914Z</time></trkpt><trkpt lat="43.0771459" lon="11.0070485"><ele>482.0</ele><time>2026-03-29T14:15:19.914Z</time></trkpt><trkpt lat="43.0771831" lon="11.0073342"><ele>482.0</ele><time>2026-03-29T14:15:20.914Z</time></trkpt><trkpt lat="43.07722" lon="11.0076208"><ele>481.66666666666663</ele><time>2026-03-29T14:15:21.914Z</time></trkpt><trkpt lat="43.0772568" lon="11.0079101"><ele>481.33333333333337</ele><time>2026-03-29T14:15:22.914Z</time></trkpt><trkpt lat="43.0772971" lon="11.0082059"><ele>481.0</ele><time>2026-03-29T14:15:23.914Z</time></trkpt><trkpt lat="43.0773395" lon="11.0085074"><ele>479.5</ele><time>2026-03-29T14:15:24.914Z</time></trkpt><trkpt lat="43.0773844" lon="11.0088187"><ele>478.0</ele><time>2026-03-29T14:15:25.914Z</time></trkpt><trkpt lat="43.0774249" lon="11.0091341"><ele>477.0</ele><time>2026-03-29T14:15:26.914Z</time></trkpt><trkpt lat="43.0774697" lon="11.0094496"><ele>476.0</ele><time>2026-03-29T14:15:27.915Z</time></trkpt><trkpt lat="43.0775136" lon="11.0097621"><ele>476.5</ele><time>2026-03-29T14:15:28.914Z</time></trkpt><trkpt lat="43.0775537" lon="11.0100754"><ele>477.0</ele><time>2026-03-29T14:15:29.914Z</time></trkpt><trkpt lat="43.0775962" lon="11.0103943"><ele>477.0</ele><time>2026-03-29T14:15:30.914Z</time></trkpt><trkpt lat="43.0776371" lon="11.010711"><ele>477.0</ele><time>2026-03-29T14:15:31.914Z</time></trkpt><trkpt lat="43.077683" lon="11.0110243"><ele>476.5</ele><time>2026-03-29T14:15:32.914Z</time></trkpt><trkpt lat="43.077732" lon="11.0113314"><ele>476.0</ele><time>2026-03-29T14:15:33.914Z</time></trkpt><trkpt lat="43.077788" lon="11.0116374"><ele>474.5</ele><time>2026-03-29T14:15:34.914Z</time></trkpt><trkpt lat="43.0778446" lon="11.0119422"><ele>473.0</ele><time>2026-03-29T14:15:35.914Z</time></trkpt><trkpt lat="43.0778942" lon="11.0122518"><ele>472.0</ele><time>2026-03-29T14:15:36.914Z</time></trkpt><trkpt lat="43.0779304" lon="11.0125677"><ele>471.0</ele><time>2026-03-29T14:15:37.914Z</time></trkpt><trkpt lat="43.0779645" lon="11.0128807"><ele>471.0</ele><time>2026-03-29T14:15:38.914Z</time></trkpt><trkpt lat="43.0779989" lon="11.0131916"><ele>471.0</ele><time>2026-03-29T14:15:39.914Z</time></trkpt><trkpt lat="43.0780347" lon="11.0134961"><ele>471.66666666666663</ele><time>2026-03-29T14:15:40.914Z</time></trkpt><trkpt lat="43.0780722" lon="11.0137916"><ele>472.3333333333333</ele><time>2026-03-29T14:15:41.914Z</time></trkpt><trkpt lat="43.078109" lon="11.0140837"><ele>473.0</ele><time>2026-03-29T14:15:42.914Z</time></trkpt><trkpt lat="43.0781468" lon="11.0143746"><ele>473.0</ele><time>2026-03-29T14:15:43.914Z</time></trkpt><trkpt lat="43.0781837" lon="11.0146569"><ele>473.0</ele><time>2026-03-29T14:15:44.914Z</time></trkpt><trkpt lat="43.0782188" lon="11.0149314"><ele>473.0</ele><time>2026-03-29T14:15:45.914Z</time></trkpt><trkpt lat="43.0782538" lon="11.0152038"><ele>473.0</ele><time>2026-03-29T14:15:46.915Z</time></trkpt><trkpt lat="43.0782833" lon="11.015465"><ele>473.0</ele><time>2026-03-29T14:15:47.914Z</time></trkpt><trkpt lat="43.078315" lon="11.0157217"><ele>473.0</ele><time>2026-03-29T14:15:48.914Z</time></trkpt><trkpt lat="43.0783533" lon="11.0159817"><ele>473.0</ele><time>2026-03-29T14:15:49.914Z</time></trkpt><trkpt lat="43.078385" lon="11.0162383"><ele>473.0</ele><time>2026-03-29T14:15:50.915Z</time></trkpt><trkpt lat="43.0784217" lon="11.0164833"><ele>473.0</ele><time>2026-03-29T14:15:51.914Z</time></trkpt><trkpt lat="43.0784567" lon="11.0167433"><ele>473.3333333333333</ele><time>2026-03-29T14:15:52.914Z</time></trkpt><trkpt lat="43.0785017" lon="11.0170033"><ele>473.66666666666663</ele><time>2026-03-29T14:15:53.914Z</time></trkpt><trkpt lat="43.0785383" lon="11.0172467"><ele>474.0</ele><time>2026-03-29T14:15:54.914Z</time></trkpt><trkpt lat="43.0785833" lon="11.017495"><ele>474.0</ele><time>2026-03-29T14:15:55.914Z</time></trkpt><trkpt lat="43.0786183" lon="11.0177367"><ele>474.0</ele><time>2026-03-29T14:15:56.914Z</time></trkpt><trkpt lat="43.0786533" lon="11.0179783"><ele>474.0</ele><time>2026-03-29T14:15:57.914Z</time></trkpt><trkpt lat="43.078695" lon="11.0181983"><ele>473.66666666666663</ele><time>2026-03-29T14:15:58.914Z</time></trkpt><trkpt lat="43.07873" lon="11.01842"><ele>473.3333333333333</ele><time>2026-03-29T14:15:59.914Z</time></trkpt><trkpt lat="43.0788" lon="11.0185983"><ele>473.0</ele><time>2026-03-29T14:16:00.914Z</time></trkpt><trkpt lat="43.078905" lon="11.018765"><ele>473.0</ele><time>2026-03-29T14:16:01.914Z</time></trkpt><trkpt lat="43.0790317" lon="11.0188967"><ele>473.0</ele><time>2026-03-29T14:16:02.914Z</time></trkpt><trkpt lat="43.07917" lon="11.0190133"><ele>473.0</ele><time>2026-03-29T14:16:03.914Z</time></trkpt><trkpt lat="43.079335" lon="11.019095"><ele>473.66666666666663</ele><time>2026-03-29T14:16:04.914Z</time></trkpt><trkpt lat="43.0795183" lon="11.0191517"><ele>474.33333333333337</ele><time>2026-03-29T14:16:05.914Z</time></trkpt><trkpt lat="43.0797083" lon="11.019215"><ele>475.0</ele><time>2026-03-29T14:16:06.914Z</time></trkpt><trkpt lat="43.0799133" lon="11.01929"><ele>475.0</ele><time>2026-03-29T14:16:07.914Z</time></trkpt><trkpt lat="43.0801267" lon="11.019375"><ele>475.0</ele><time>2026-03-29T14:16:08.914Z</time></trkpt><trkpt lat="43.0803383" lon="11.0194683"><ele>475.0</ele><time>2026-03-29T14:16:09.914Z</time></trkpt><trkpt lat="43.080545" lon="11.0195967"><ele>475.0</ele><time>2026-03-29T14:16:10.914Z</time></trkpt><trkpt lat="43.0807517" lon="11.0197367"><ele>475.0</ele><time>2026-03-29T14:16:11.914Z</time></trkpt><trkpt lat="43.080955" lon="11.0198867"><ele>477.0</ele><time>2026-03-29T14:16:12.914Z</time></trkpt><trkpt lat="43.08114" lon="11.0200367"><ele>479.0</ele><time>2026-03-29T14:16:13.914Z</time></trkpt><trkpt lat="43.081325" lon="11.020175"><ele>481.0</ele><time>2026-03-29T14:16:14.914Z</time></trkpt><trkpt lat="43.0814983" lon="11.0203067"><ele>486.0</ele><time>2026-03-29T14:16:15.914Z</time></trkpt><trkpt lat="43.0816517" lon="11.02044"><ele>491.0</ele><time>2026-03-29T14:16:16.914Z</time></trkpt><trkpt lat="43.08179" lon="11.0206033"><ele>496.0</ele><time>2026-03-29T14:16:17.914Z</time></trkpt><trkpt lat="43.0818983" lon="11.0208083"><ele>491.33333333333337</ele><time>2026-03-29T14:16:18.914Z</time></trkpt><trkpt lat="43.0819883" lon="11.021045"><ele>486.66666666666663</ele><time>2026-03-29T14:16:19.914Z</time></trkpt><trkpt lat="43.0820567" lon="11.0213267"><ele>482.0</ele><time>2026-03-29T14:16:20.914Z</time></trkpt><trkpt lat="43.08212" lon="11.0216183"><ele>483.0</ele><time>2026-03-29T14:16:21.914Z</time></trkpt><trkpt lat="43.0821967" lon="11.0219017"><ele>484.0</ele><time>2026-03-29T14:16:22.914Z</time></trkpt><trkpt lat="43.0822983" lon="11.0221883"><ele>484.0</ele><time>2026-03-29T14:16:23.914Z</time></trkpt><trkpt lat="43.0824233" lon="11.022475"><ele>484.0</ele><time>2026-03-29T14:16:24.914Z</time></trkpt><trkpt lat="43.0825383" lon="11.0227667"><ele>483.5</ele><time>2026-03-29T14:16:25.914Z</time></trkpt><trkpt lat="43.0826517" lon="11.02306"><ele>483.0</ele><time>2026-03-29T14:16:26.914Z</time></trkpt><trkpt lat="43.082765" lon="11.0233567"><ele>483.0</ele><time>2026-03-29T14:16:27.914Z</time></trkpt><trkpt lat="43.0828567" lon="11.0236317"><ele>483.0</ele><time>2026-03-29T14:16:28.914Z</time></trkpt><trkpt lat="43.0829483" lon="11.02389"><ele>483.0</ele><time>2026-03-29T14:16:29.914Z</time></trkpt><trkpt lat="43.0831" lon="11.02436"><ele>483.0</ele><time>2026-03-29T14:16:31.914Z</time></trkpt><trkpt lat="43.0831617" lon="11.024585"><ele>483.0</ele><time>2026-03-29T14:16:32.914Z</time></trkpt><trkpt lat="43.0832117" lon="11.0247967"><ele>483.0</ele><time>2026-03-29T14:16:33.914Z</time></trkpt><trkpt lat="43.0832467" lon="11.0250133"><ele>482.25</ele><time>2026-03-29T14:16:34.914Z</time></trkpt><trkpt lat="43.0832733" lon="11.0251967"><ele>481.5</ele><time>2026-03-29T14:16:35.914Z</time></trkpt><trkpt lat="43.0832833" lon="11.02536"><ele>480.75</ele><time>2026-03-29T14:16:36.914Z</time></trkpt><trkpt lat="43.08331" lon="11.025505"><ele>480.0</ele><time>2026-03-29T14:16:37.915Z</time></trkpt><trkpt lat="43.083365" lon="11.0256317"><ele>480.0</ele><time>2026-03-29T14:16:38.914Z</time></trkpt><trkpt lat="43.0834633" lon="11.02571"><ele>480.0</ele><time>2026-03-29T14:16:39.914Z</time></trkpt><trkpt lat="43.0835683" lon="11.0257517"><ele>480.0</ele><time>2026-03-29T14:16:40.914Z</time></trkpt><trkpt lat="43.0837" lon="11.025765"><ele>480.0</ele><time>2026-03-29T14:16:41.914Z</time></trkpt><trkpt lat="43.083825" lon="11.02577"><ele>480.0</ele><time>2026-03-29T14:16:42.914Z</time></trkpt><trkpt lat="43.0839417" lon="11.0257767"><ele>480.0</ele><time>2026-03-29T14:16:43.914Z</time></trkpt><trkpt lat="43.084075" lon="11.0257883"><ele>480.0</ele><time>2026-03-29T14:16:44.914Z</time></trkpt><trkpt lat="43.0842217" lon="11.025805"><ele>480.0</ele><time>2026-03-29T14:16:45.914Z</time></trkpt><trkpt lat="43.0843883" lon="11.0258283"><ele>477.33333333333337</ele><time>2026-03-29T14:16:46.914Z</time></trkpt><trkpt lat="43.0845667" lon="11.0258533"><ele>474.6666666666667</ele><time>2026-03-29T14:16:47.914Z</time></trkpt><trkpt lat="43.0847483" lon="11.0258767"><ele>472.0</ele><time>2026-03-29T14:16:48.914Z</time></trkpt><trkpt lat="43.0849217" lon="11.0259117"><ele>472.6666666666667</ele><time>2026-03-29T14:16:49.914Z</time></trkpt><trkpt lat="43.0850967" lon="11.025975"><ele>473.33333333333337</ele><time>2026-03-29T14:16:50.914Z</time></trkpt><trkpt lat="43.0852667" lon="11.02604"><ele>474.0</ele><time>2026-03-29T14:16:51.914Z</time></trkpt><trkpt lat="43.0854267" lon="11.026105"><ele>474.0</ele><time>2026-03-29T14:16:52.915Z</time></trkpt><trkpt lat="43.08559" lon="11.0261483"><ele>474.0</ele><time>2026-03-29T14:16:53.914Z</time></trkpt><trkpt lat="43.0857617" lon="11.026165"><ele>474.0</ele><time>2026-03-29T14:16:54.914Z</time></trkpt><trkpt lat="43.0859583" lon="11.026155"><ele>474.0</ele><time>2026-03-29T14:16:55.914Z</time></trkpt><trkpt lat="43.0862" lon="11.0261117"><ele>474.0</ele><time>2026-03-29T14:16:56.914Z</time></trkpt><trkpt lat="43.086435" lon="11.0260833"><ele>473.66666666666663</ele><time>2026-03-29T14:16:57.914Z</time></trkpt><trkpt lat="43.086655" lon="11.0260317"><ele>473.3333333333333</ele><time>2026-03-29T14:16:58.914Z</time></trkpt><trkpt lat="43.0868583" lon="11.02595"><ele>473.0</ele><time>2026-03-29T14:16:59.914Z</time></trkpt><trkpt lat="43.08704" lon="11.0258483"><ele>474.66666666666663</ele><time>2026-03-29T14:17:00.914Z</time></trkpt><trkpt lat="43.087215" lon="11.0257167"><ele>476.33333333333337</ele><time>2026-03-29T14:17:01.914Z</time></trkpt><trkpt lat="43.087395" lon="11.025535"><ele>478.0</ele><time>2026-03-29T14:17:02.914Z</time></trkpt><trkpt lat="43.0875817" lon="11.0252833"><ele>478.0</ele><time>2026-03-29T14:17:03.914Z</time></trkpt><trkpt lat="43.08775" lon="11.02506"><ele>478.0</ele><time>2026-03-29T14:17:04.914Z</time></trkpt><trkpt lat="43.0879083" lon="11.0248533"><ele>479.6666666666667</ele><time>2026-03-29T14:17:05.914Z</time></trkpt><trkpt lat="43.0880483" lon="11.02469"><ele>481.33333333333337</ele><time>2026-03-29T14:17:06.914Z</time></trkpt><trkpt lat="43.0881833" lon="11.024575"><ele>483.0</ele><time>2026-03-29T14:17:07.914Z</time></trkpt><trkpt lat="43.0883167" lon="11.0245183"><ele>476.66666666666663</ele><time>2026-03-29T14:17:08.914Z</time></trkpt><trkpt lat="43.0884667" lon="11.0245133"><ele>470.3333333333333</ele><time>2026-03-29T14:17:09.914Z</time></trkpt><trkpt lat="43.0886033" lon="11.0245683"><ele>464.0</ele><time>2026-03-29T14:17:10.914Z</time></trkpt><trkpt lat="43.0887583" lon="11.0246917"><ele>464.0</ele><time>2026-03-29T14:17:11.914Z</time></trkpt><trkpt lat="43.0889467" lon="11.024865"><ele>464.0</ele><time>2026-03-29T14:17:12.914Z</time></trkpt><trkpt lat="43.0891417" lon="11.0250983"><ele>468.5</ele><time>2026-03-29T14:17:13.914Z</time></trkpt><trkpt lat="43.089345" lon="11.0253283"><ele>473.0</ele><time>2026-03-29T14:17:14.914Z</time></trkpt><trkpt lat="43.089535" lon="11.0255317"><ele>473.0</ele><time>2026-03-29T14:17:15.914Z</time></trkpt><trkpt lat="43.08974" lon="11.0256783"><ele>473.0</ele><time>2026-03-29T14:17:16.914Z</time></trkpt><trkpt lat="43.0899467" lon="11.0257867"><ele>471.5</ele><time>2026-03-29T14:17:17.914Z</time></trkpt><trkpt lat="43.09016" lon="11.0258533"><ele>470.0</ele><time>2026-03-29T14:17:18.914Z</time></trkpt><trkpt lat="43.090395" lon="11.0258933"><ele>470.0</ele><time>2026-03-29T14:17:19.914Z</time></trkpt><trkpt lat="43.0906017" lon="11.0259333"><ele>470.0</ele><time>2026-03-29T14:17:20.914Z</time></trkpt><trkpt lat="43.0907983" lon="11.0259817"><ele>470.0</ele><time>2026-03-29T14:17:21.914Z</time></trkpt><trkpt lat="43.090965" lon="11.02603"><ele>468.3333333333333</ele><time>2026-03-29T14:17:22.914Z</time></trkpt><trkpt lat="43.091125" lon="11.02609"><ele>466.66666666666663</ele><time>2026-03-29T14:17:23.914Z</time></trkpt><trkpt lat="43.0912917" lon="11.0261917"><ele>465.0</ele><time>2026-03-29T14:17:24.914Z</time></trkpt><trkpt lat="43.09147" lon="11.0263467"><ele>466.0</ele><time>2026-03-29T14:17:25.914Z</time></trkpt><trkpt lat="43.0916483" lon="11.0265333"><ele>467.0</ele><time>2026-03-29T14:17:26.914Z</time></trkpt><trkpt lat="43.091835" lon="11.0267033"><ele>468.0</ele><time>2026-03-29T14:17:27.914Z</time></trkpt><trkpt lat="43.09203" lon="11.0268367"><ele>470.66666666666663</ele><time>2026-03-29T14:17:28.914Z</time></trkpt><trkpt lat="43.09222" lon="11.0269283"><ele>473.3333333333333</ele><time>2026-03-29T14:17:29.914Z</time></trkpt><trkpt lat="43.0923983" lon="11.0270083"><ele>476.0</ele><time>2026-03-29T14:17:30.914Z</time></trkpt><trkpt lat="43.092555" lon="11.0271117"><ele>476.0</ele><time>2026-03-29T14:17:31.914Z</time></trkpt><trkpt lat="43.092685" lon="11.0272633"><ele>476.0</ele><time>2026-03-29T14:17:32.914Z</time></trkpt><trkpt lat="43.09279" lon="11.0274567"><ele>476.0</ele><time>2026-03-29T14:17:33.914Z</time></trkpt><trkpt lat="43.0928517" lon="11.0277233"><ele>473.3333333333333</ele><time>2026-03-29T14:17:34.914Z</time></trkpt><trkpt lat="43.0929183" lon="11.0279967"><ele>470.66666666666663</ele><time>2026-03-29T14:17:35.915Z</time></trkpt><trkpt lat="43.0930067" lon="11.0282133"><ele>468.0</ele><time>2026-03-29T14:17:36.914Z</time></trkpt><trkpt lat="43.0931367" lon="11.0283817"><ele>466.0</ele><time>2026-03-29T14:17:37.914Z</time></trkpt><trkpt lat="43.0933033" lon="11.0285083"><ele>464.0</ele><time>2026-03-29T14:17:38.915Z</time></trkpt><trkpt lat="43.09352" lon="11.0285883"><ele>462.0</ele><time>2026-03-29T14:17:39.914Z</time></trkpt><trkpt lat="43.093725" lon="11.028665"><ele>462.0</ele><time>2026-03-29T14:17:40.914Z</time></trkpt><trkpt lat="43.093905" lon="11.028755"><ele>462.0</ele><time>2026-03-29T14:17:41.914Z</time></trkpt><trkpt lat="43.0940617" lon="11.0289083"><ele>462.0</ele><time>2026-03-29T14:17:42.914Z</time></trkpt><trkpt lat="43.094215" lon="11.02911"><ele>459.0</ele><time>2026-03-29T14:17:43.914Z</time></trkpt><trkpt lat="43.0943767" lon="11.0293733"><ele>456.0</ele><time>2026-03-29T14:17:44.914Z</time></trkpt><trkpt lat="43.0945617" lon="11.029665"><ele>456.0</ele><time>2026-03-29T14:17:45.914Z</time></trkpt><trkpt lat="43.0947533" lon="11.0299633"><ele>456.0</ele><time>2026-03-29T14:17:46.914Z</time></trkpt><trkpt lat="43.0949183" lon="11.0302717"><ele>455.5</ele><time>2026-03-29T14:17:47.914Z</time></trkpt><trkpt lat="43.095055" lon="11.0305783"><ele>455.0</ele><time>2026-03-29T14:17:48.914Z</time></trkpt><trkpt lat="43.09518" lon="11.03085"><ele>461.0</ele><time>2026-03-29T14:17:49.914Z</time></trkpt><trkpt lat="43.0954067" lon="11.0310283"><ele>467.0</ele><time>2026-03-29T14:17:50.914Z</time></trkpt><trkpt lat="43.09557" lon="11.0312183"><ele>460.0</ele><time>2026-03-29T14:17:51.914Z</time></trkpt><trkpt lat="43.0958133" lon="11.0313283"><ele>453.0</ele><time>2026-03-29T14:17:52.914Z</time></trkpt><trkpt lat="43.0960317" lon="11.03146"><ele>453.0</ele><time>2026-03-29T14:17:53.914Z</time></trkpt><trkpt lat="43.0962683" lon="11.0315983"><ele>453.0</ele><time>2026-03-29T14:17:54.914Z</time></trkpt><trkpt lat="43.0965283" lon="11.031725"><ele>454.5</ele><time>2026-03-29T14:17:55.914Z</time></trkpt><trkpt lat="43.0968067" lon="11.0318467"><ele>456.0</ele><time>2026-03-29T14:17:56.914Z</time></trkpt><trkpt lat="43.0970567" lon="11.031965"><ele>456.0</ele><time>2026-03-29T14:17:57.914Z</time></trkpt><trkpt lat="43.0972983" lon="11.0320833"><ele>456.0</ele><time>2026-03-29T14:17:58.914Z</time></trkpt><trkpt lat="43.0975217" lon="11.032215"><ele>455.33333333333337</ele><time>2026-03-29T14:17:59.914Z</time></trkpt><trkpt lat="43.0977283" lon="11.0323567"><ele>454.6666666666667</ele><time>2026-03-29T14:18:00.914Z</time></trkpt><trkpt lat="43.0978917" lon="11.0325267"><ele>454.0</ele><time>2026-03-29T14:18:01.914Z</time></trkpt><trkpt lat="43.0980333" lon="11.0327233"><ele>455.33333333333337</ele><time>2026-03-29T14:18:02.914Z</time></trkpt><trkpt lat="43.09816" lon="11.0329367"><ele>456.66666666666663</ele><time>2026-03-29T14:18:03.914Z</time></trkpt><trkpt lat="43.0982417" lon="11.0331767"><ele>458.0</ele><time>2026-03-29T14:18:04.914Z</time></trkpt><trkpt lat="43.0983067" lon="11.0334483"><ele>455.3333333333333</ele><time>2026-03-29T14:18:05.914Z</time></trkpt><trkpt lat="43.0983633" lon="11.033735"><ele>452.66666666666663</ele><time>2026-03-29T14:18:06.914Z</time></trkpt><trkpt lat="43.0983917" lon="11.0340367"><ele>450.0</ele><time>2026-03-29T14:18:07.914Z</time></trkpt><trkpt lat="43.0984283" lon="11.0343033"><ele>448.33333333333337</ele><time>2026-03-29T14:18:08.914Z</time></trkpt><trkpt lat="43.0984667" lon="11.0345617"><ele>446.6666666666667</ele><time>2026-03-29T14:18:09.914Z</time></trkpt><trkpt lat="43.0985017" lon="11.0347967"><ele>445.0</ele><time>2026-03-29T14:18:10.915Z</time></trkpt><trkpt lat="43.0985433" lon="11.0350267"><ele>449.25</ele><time>2026-03-29T14:18:11.914Z</time></trkpt><trkpt lat="43.098585" lon="11.0352367"><ele>453.5</ele><time>2026-03-29T14:18:12.914Z</time></trkpt><trkpt lat="43.09865" lon="11.03541"><ele>457.75</ele><time>2026-03-29T14:18:13.914Z</time></trkpt><trkpt lat="43.09875" lon="11.0355483"><ele>462.0</ele><time>2026-03-29T14:18:14.914Z</time></trkpt><trkpt lat="43.0988783" lon="11.0356383"><ele>462.0</ele><time>2026-03-29T14:18:15.914Z</time></trkpt><trkpt lat="43.0990067" lon="11.03569"><ele>462.0</ele><time>2026-03-29T14:18:16.914Z</time></trkpt><trkpt lat="43.09917" lon="11.0356917"><ele>462.0</ele><time>2026-03-29T14:18:17.914Z</time></trkpt><trkpt lat="43.0993617" lon="11.0356617"><ele>456.33333333333337</ele><time>2026-03-29T14:18:18.914Z</time></trkpt><trkpt lat="43.09956" lon="11.035655"><ele>450.6666666666667</ele><time>2026-03-29T14:18:19.914Z</time></trkpt><trkpt lat="43.0997633" lon="11.0356517"><ele>445.0</ele><time>2026-03-29T14:18:20.914Z</time></trkpt><trkpt lat="43.0999733" lon="11.03566"><ele>445.0</ele><time>2026-03-29T14:18:21.914Z</time></trkpt><trkpt lat="43.1001417" lon="11.0356583"><ele>445.0</ele><time>2026-03-29T14:18:22.915Z</time></trkpt><trkpt lat="43.10029" lon="11.0356383"><ele>445.0</ele><time>2026-03-29T14:18:23.914Z</time></trkpt><trkpt lat="43.1004267" lon="11.0355967"><ele>445.0</ele><time>2026-03-29T14:18:24.914Z</time></trkpt><trkpt lat="43.100555" lon="11.035515"><ele>445.0</ele><time>2026-03-29T14:18:25.914Z</time></trkpt><trkpt lat="43.100665" lon="11.035385"><ele>445.0</ele><time>2026-03-29T14:18:26.914Z</time></trkpt><trkpt lat="43.1007517" lon="11.035255"><ele>445.0</ele><time>2026-03-29T14:18:27.914Z</time></trkpt><trkpt lat="43.1008383" lon="11.0351233"><ele>445.5</ele><time>2026-03-29T14:18:28.914Z</time></trkpt><trkpt lat="43.1009517" lon="11.0350217"><ele>446.0</ele><time>2026-03-29T14:18:29.914Z</time></trkpt><trkpt lat="43.1010667" lon="11.0349517"><ele>446.5</ele><time>2026-03-29T14:18:30.914Z</time></trkpt><trkpt lat="43.1012" lon="11.0349117"><ele>447.0</ele><time>2026-03-29T14:18:31.914Z</time></trkpt><trkpt lat="43.1013767" lon="11.0349317"><ele>445.66666666666663</ele><time>2026-03-29T14:18:32.914Z</time></trkpt><trkpt lat="43.1015583" lon="11.0349317"><ele>444.3333333333333</ele><time>2026-03-29T14:18:33.914Z</time></trkpt><trkpt lat="43.1017567" lon="11.0349267"><ele>443.0</ele><time>2026-03-29T14:18:34.914Z</time></trkpt><trkpt lat="43.10194" lon="11.0348533"><ele>440.3333333333333</ele><time>2026-03-29T14:18:35.914Z</time></trkpt><trkpt lat="43.1020917" lon="11.0347383"><ele>437.66666666666663</ele><time>2026-03-29T14:18:36.914Z</time></trkpt><trkpt lat="43.10225" lon="11.034655"><ele>435.0</ele><time>2026-03-29T14:18:37.914Z</time></trkpt><trkpt lat="43.10238" lon="11.0345967"><ele>433.25</ele><time>2026-03-29T14:18:38.914Z</time></trkpt><trkpt lat="43.10251" lon="11.03458"><ele>431.5</ele><time>2026-03-29T14:18:39.914Z</time></trkpt><trkpt lat="43.10263" lon="11.034655"><ele>429.75</ele><time>2026-03-29T14:18:40.914Z</time></trkpt><trkpt lat="43.1027617" lon="11.0347983"><ele>428.0</ele><time>2026-03-29T14:18:41.914Z</time></trkpt><trkpt lat="43.1029083" lon="11.0349483"><ele>431.66666666666663</ele><time>2026-03-29T14:18:42.914Z</time></trkpt><trkpt lat="43.10307" lon="11.0351033"><ele>435.33333333333337</ele><time>2026-03-29T14:18:43.914Z</time></trkpt><trkpt lat="43.1032567" lon="11.0352267"><ele>439.0</ele><time>2026-03-29T14:18:44.914Z</time></trkpt><trkpt lat="43.1034867" lon="11.0353033"><ele>439.0</ele><time>2026-03-29T14:18:45.914Z</time></trkpt><trkpt lat="43.1037533" lon="11.0353767"><ele>439.0</ele><time>2026-03-29T14:18:46.914Z</time></trkpt><trkpt lat="43.1040467" lon="11.03546"><ele>431.0</ele><time>2026-03-29T14:18:47.914Z</time></trkpt><trkpt lat="43.1043283" lon="11.0355617"><ele>423.0</ele><time>2026-03-29T14:18:48.914Z</time></trkpt><trkpt lat="43.104585" lon="11.0356683"><ele>423.0</ele><time>2026-03-29T14:18:49.914Z</time></trkpt><trkpt lat="43.1047983" lon="11.0357733"><ele>423.0</ele><time>2026-03-29T14:18:50.914Z</time></trkpt><trkpt lat="43.10499" lon="11.0358267"><ele>423.0</ele><time>2026-03-29T14:18:51.914Z</time></trkpt><trkpt lat="43.105175" lon="11.0358333"><ele>425.0</ele><time>2026-03-29T14:18:52.914Z</time></trkpt><trkpt lat="43.1053383" lon="11.035815"><ele>427.0</ele><time>2026-03-29T14:18:53.914Z</time></trkpt><trkpt lat="43.1054867" lon="11.035815"><ele>429.0</ele><time>2026-03-29T14:18:54.914Z</time></trkpt><trkpt lat="43.1056133" lon="11.0358783"><ele>431.0</ele><time>2026-03-29T14:18:55.914Z</time></trkpt><trkpt lat="43.1057217" lon="11.036"><ele>428.3333333333333</ele><time>2026-03-29T14:18:56.914Z</time></trkpt><trkpt lat="43.1058233" lon="11.0361733"><ele>425.66666666666663</ele><time>2026-03-29T14:18:57.914Z</time></trkpt><trkpt lat="43.1058967" lon="11.03642"><ele>423.0</ele><time>2026-03-29T14:18:58.914Z</time></trkpt><trkpt lat="43.1059617" lon="11.0367"><ele>423.0</ele><time>2026-03-29T14:18:59.914Z</time></trkpt><trkpt lat="43.1060017" lon="11.0370267"><ele>423.0</ele><time>2026-03-29T14:19:00.914Z</time></trkpt><trkpt lat="43.1060367" lon="11.037395"><ele>423.0</ele><time>2026-03-29T14:19:01.914Z</time></trkpt><trkpt lat="43.1060467" lon="11.0377467"><ele>423.0</ele><time>2026-03-29T14:19:02.914Z</time></trkpt><trkpt lat="43.1060517" lon="11.03806"><ele>423.33333333333337</ele><time>2026-03-29T14:19:03.914Z</time></trkpt><trkpt lat="43.1060683" lon="11.0383467"><ele>423.6666666666667</ele><time>2026-03-29T14:19:04.914Z</time></trkpt><trkpt lat="43.1060817" lon="11.0386083"><ele>424.0</ele><time>2026-03-29T14:19:05.914Z</time></trkpt><trkpt lat="43.1061317" lon="11.0388333"><ele>424.0</ele><time>2026-03-29T14:19:06.914Z</time></trkpt><trkpt lat="43.1062483" lon="11.0390233"><ele>424.0</ele><time>2026-03-29T14:19:07.914Z</time></trkpt><trkpt lat="43.1064267" lon="11.0391583"><ele>424.0</ele><time>2026-03-29T14:19:08.914Z</time></trkpt><trkpt lat="43.10661" lon="11.039255"><ele>421.0</ele><time>2026-03-29T14:19:09.914Z</time></trkpt><trkpt lat="43.1067633" lon="11.03934"><ele>418.0</ele><time>2026-03-29T14:19:10.914Z</time></trkpt><trkpt lat="43.1069" lon="11.0394283"><ele>415.0</ele><time>2026-03-29T14:19:11.914Z</time></trkpt><trkpt lat="43.1069783" lon="11.0395717"><ele>412.0</ele><time>2026-03-29T14:19:12.914Z</time></trkpt><trkpt lat="43.1070283" lon="11.0397533"><ele>413.6666666666667</ele><time>2026-03-29T14:19:13.914Z</time></trkpt><trkpt lat="43.1070433" lon="11.0399767"><ele>415.33333333333337</ele><time>2026-03-29T14:19:14.914Z</time></trkpt><trkpt lat="43.1070367" lon="11.040235"><ele>417.0</ele><time>2026-03-29T14:19:15.914Z</time></trkpt><trkpt lat="43.1070133" lon="11.0404967"><ele>417.0</ele><time>2026-03-29T14:19:16.914Z</time></trkpt><trkpt lat="43.106995" lon="11.04078"><ele>417.0</ele><time>2026-03-29T14:19:17.914Z</time></trkpt><trkpt lat="43.10698" lon="11.04105"><ele>417.0</ele><time>2026-03-29T14:19:18.914Z</time></trkpt><trkpt lat="43.1069717" lon="11.0413067"><ele>414.66666666666663</ele><time>2026-03-29T14:19:19.914Z</time></trkpt><trkpt lat="43.1069717" lon="11.0415483"><ele>412.3333333333333</ele><time>2026-03-29T14:19:20.914Z</time></trkpt><trkpt lat="43.1069883" lon="11.0417917"><ele>410.0</ele><time>2026-03-29T14:19:21.914Z</time></trkpt><trkpt lat="43.1070217" lon="11.0420283"><ele>410.0</ele><time>2026-03-29T14:19:22.914Z</time></trkpt><trkpt lat="43.1071067" lon="11.042275"><ele>410.0</ele><time>2026-03-29T14:19:23.914Z</time></trkpt><trkpt lat="43.1072083" lon="11.04249"><ele>410.0</ele><time>2026-03-29T14:19:24.914Z</time></trkpt><trkpt lat="43.1073233" lon="11.04268"><ele>407.0</ele><time>2026-03-29T14:19:25.914Z</time></trkpt><trkpt lat="43.1074467" lon="11.0428483"><ele>404.0</ele><time>2026-03-29T14:19:26.914Z</time></trkpt><trkpt lat="43.107595" lon="11.0429917"><ele>401.0</ele><time>2026-03-29T14:19:27.914Z</time></trkpt><trkpt lat="43.1077583" lon="11.0431083"><ele>401.0</ele><time>2026-03-29T14:19:28.914Z</time></trkpt><trkpt lat="43.1079283" lon="11.043185"><ele>401.0</ele><time>2026-03-29T14:19:29.914Z</time></trkpt><trkpt lat="43.108085" lon="11.0432633"><ele>401.0</ele><time>2026-03-29T14:19:30.914Z</time></trkpt><trkpt lat="43.1082217" lon="11.0433767"><ele>401.66666666666663</ele><time>2026-03-29T14:19:31.914Z</time></trkpt><trkpt lat="43.1083333" lon="11.043545"><ele>402.33333333333337</ele><time>2026-03-29T14:19:32.914Z</time></trkpt><trkpt lat="43.108435" lon="11.04375"><ele>403.0</ele><time>2026-03-29T14:19:33.914Z</time></trkpt><trkpt lat="43.10852" lon="11.043985"><ele>406.6666666666667</ele><time>2026-03-29T14:19:34.914Z</time></trkpt><trkpt lat="43.1086117" lon="11.0442067"><ele>410.33333333333337</ele><time>2026-03-29T14:19:35.914Z</time></trkpt><trkpt lat="43.1087233" lon="11.0444117"><ele>414.0</ele><time>2026-03-29T14:19:36.914Z</time></trkpt><trkpt lat="43.108875" lon="11.0445517"><ele>414.0</ele><time>2026-03-29T14:19:37.914Z</time></trkpt><trkpt lat="43.1090567" lon="11.04464"><ele>414.0</ele><time>2026-03-29T14:19:38.914Z</time></trkpt><trkpt lat="43.1092567" lon="11.0446567"><ele>414.0</ele><time>2026-03-29T14:19:39.914Z</time></trkpt><trkpt lat="43.109455" lon="11.044615"><ele>409.0</ele><time>2026-03-29T14:19:40.914Z</time></trkpt><trkpt lat="43.10965" lon="11.0445483"><ele>404.0</ele><time>2026-03-29T14:19:41.914Z</time></trkpt><trkpt lat="43.1098033" lon="11.0445683"><ele>399.0</ele><time>2026-03-29T14:19:42.914Z</time></trkpt><trkpt lat="43.109955" lon="11.044635"><ele>399.0</ele><time>2026-03-29T14:19:43.914Z</time></trkpt><trkpt lat="43.1100783" lon="11.0447717"><ele>399.0</ele><time>2026-03-29T14:19:44.914Z</time></trkpt><trkpt lat="43.1101917" lon="11.0449567"><ele>399.0</ele><time>2026-03-29T14:19:45.914Z</time></trkpt><trkpt lat="43.11027" lon="11.045205"><ele>401.0</ele><time>2026-03-29T14:19:46.914Z</time></trkpt><trkpt lat="43.1103667" lon="11.04542"><ele>403.0</ele><time>2026-03-29T14:19:47.914Z</time></trkpt><trkpt lat="43.1104417" lon="11.045595"><ele>405.0</ele><time>2026-03-29T14:19:48.914Z</time></trkpt><trkpt lat="43.1105317" lon="11.0457317"><ele>404.5</ele><time>2026-03-29T14:19:49.914Z</time></trkpt><trkpt lat="43.110635" lon="11.0458117"><ele>404.0</ele><time>2026-03-29T14:19:50.914Z</time></trkpt><trkpt lat="43.110765" lon="11.045835"><ele>403.5</ele><time>2026-03-29T14:19:51.914Z</time></trkpt><trkpt lat="43.1109183" lon="11.045845"><ele>403.0</ele><time>2026-03-29T14:19:52.914Z</time></trkpt><trkpt lat="43.1110967" lon="11.0458883"><ele>403.0</ele><time>2026-03-29T14:19:53.914Z</time></trkpt><trkpt lat="43.1112667" lon="11.0459417"><ele>403.0</ele><time>2026-03-29T14:19:54.914Z</time></trkpt><trkpt lat="43.1114383" lon="11.0460367"><ele>403.0</ele><time>2026-03-29T14:19:55.914Z</time></trkpt><trkpt lat="43.1115967" lon="11.0461683"><ele>405.33333333333337</ele><time>2026-03-29T14:19:56.914Z</time></trkpt><trkpt lat="43.1117417" lon="11.04632"><ele>407.66666666666663</ele><time>2026-03-29T14:19:57.914Z</time></trkpt><trkpt lat="43.1118583" lon="11.0464867"><ele>410.0</ele><time>2026-03-29T14:19:58.914Z</time></trkpt><trkpt lat="43.111955" lon="11.0466617"><ele>410.0</ele><time>2026-03-29T14:19:59.914Z</time></trkpt><trkpt lat="43.1120367" lon="11.046855"><ele>410.0</ele><time>2026-03-29T14:20:00.914Z</time></trkpt><trkpt lat="43.1121317" lon="11.0470683"><ele>410.0</ele><time>2026-03-29T14:20:01.914Z</time></trkpt><trkpt lat="43.1122033" lon="11.0473133"><ele>413.0</ele><time>2026-03-29T14:20:02.914Z</time></trkpt><trkpt lat="43.1122283" lon="11.04757"><ele>416.0</ele><time>2026-03-29T14:20:03.915Z</time></trkpt><trkpt lat="43.11227" lon="11.0478283"><ele>419.0</ele><time>2026-03-29T14:20:04.914Z</time></trkpt><trkpt lat="43.1123367" lon="11.048075"><ele>421.0</ele><time>2026-03-29T14:20:05.914Z</time></trkpt><trkpt lat="43.1122767" lon="11.0483067"><ele>423.0</ele><time>2026-03-29T14:20:06.914Z</time></trkpt><trkpt lat="43.1123417" lon="11.04853"><ele>425.0</ele><time>2026-03-29T14:20:07.914Z</time></trkpt><trkpt lat="43.11245" lon="11.0487317"><ele>414.3333333333333</ele><time>2026-03-29T14:20:08.914Z</time></trkpt><trkpt lat="43.1126033" lon="11.0489133"><ele>403.66666666666663</ele><time>2026-03-29T14:20:09.914Z</time></trkpt><trkpt lat="43.112755" lon="11.04912"><ele>393.0</ele><time>2026-03-29T14:20:10.914Z</time></trkpt><trkpt lat="43.1129267" lon="11.0493267"><ele>393.0</ele><time>2026-03-29T14:20:11.914Z</time></trkpt><trkpt lat="43.11311" lon="11.0495117"><ele>393.0</ele><time>2026-03-29T14:20:12.914Z</time></trkpt><trkpt lat="43.1132917" lon="11.0497033"><ele>392.0</ele><time>2026-03-29T14:20:13.914Z</time></trkpt><trkpt lat="43.11347" lon="11.0498867"><ele>391.0</ele><time>2026-03-29T14:20:14.914Z</time></trkpt><trkpt lat="43.11365" lon="11.0500633"><ele>390.0</ele><time>2026-03-29T14:20:15.914Z</time></trkpt><trkpt lat="43.1138233" lon="11.050225"><ele>390.0</ele><time>2026-03-29T14:20:16.914Z</time></trkpt><trkpt lat="43.1139983" lon="11.0503717"><ele>390.0</ele><time>2026-03-29T14:20:17.914Z</time></trkpt><trkpt lat="43.11418" lon="11.05049"><ele>390.0</ele><time>2026-03-29T14:20:18.914Z</time></trkpt><trkpt lat="43.1143685" lon="11.0505683"><ele>387.6666666666667</ele><time>2026-03-29T14:20:19.914Z</time></trkpt><trkpt lat="43.1145745" lon="11.0506167"><ele>385.33333333333337</ele><time>2026-03-29T14:20:20.914Z</time></trkpt><trkpt lat="43.1147877" lon="11.0506552"><ele>383.0</ele><time>2026-03-29T14:20:21.914Z</time></trkpt><trkpt lat="43.1149935" lon="11.0507112"><ele>384.33333333333337</ele><time>2026-03-29T14:20:22.914Z</time></trkpt><trkpt lat="43.1151962" lon="11.0508066"><ele>385.6666666666667</ele><time>2026-03-29T14:20:23.914Z</time></trkpt><trkpt lat="43.1153779" lon="11.0509186"><ele>387.0</ele><time>2026-03-29T14:20:24.914Z</time></trkpt><trkpt lat="43.1155476" lon="11.0510107"><ele>387.0</ele><time>2026-03-29T14:20:25.914Z</time></trkpt><trkpt lat="43.1157221" lon="11.0510727"><ele>387.0</ele><time>2026-03-29T14:20:26.914Z</time></trkpt><trkpt lat="43.1159088" lon="11.0511123"><ele>387.0</ele><time>2026-03-29T14:20:27.914Z</time></trkpt><trkpt lat="43.1160965" lon="11.0511743"><ele>386.66666666666663</ele><time>2026-03-29T14:20:28.914Z</time></trkpt><trkpt lat="43.11627" lon="11.051294"><ele>386.3333333333333</ele><time>2026-03-29T14:20:29.914Z</time></trkpt><trkpt lat="43.116422" lon="11.0514748"><ele>386.0</ele><time>2026-03-29T14:20:30.914Z</time></trkpt><trkpt lat="43.1165467" lon="11.051712"><ele>382.3333333333333</ele><time>2026-03-29T14:20:31.914Z</time></trkpt><trkpt lat="43.1166617" lon="11.0519471"><ele>378.66666666666663</ele><time>2026-03-29T14:20:32.914Z</time></trkpt><trkpt lat="43.1167849" lon="11.0521604"><ele>375.0</ele><time>2026-03-29T14:20:33.914Z</time></trkpt><trkpt lat="43.1169266" lon="11.0523141"><ele>375.0</ele><time>2026-03-29T14:20:34.914Z</time></trkpt><trkpt lat="43.1170952" lon="11.0524082"><ele>375.0</ele><time>2026-03-29T14:20:35.914Z</time></trkpt><trkpt lat="43.1172754" lon="11.0524396"><ele>375.0</ele><time>2026-03-29T14:20:36.914Z</time></trkpt><trkpt lat="43.1174655" lon="11.052461"><ele>374.6666666666667</ele><time>2026-03-29T14:20:37.914Z</time></trkpt><trkpt lat="43.1176464" lon="11.0525411"><ele>374.33333333333337</ele><time>2026-03-29T14:20:38.914Z</time></trkpt><trkpt lat="43.1178194" lon="11.0526882"><ele>374.0</ele><time>2026-03-29T14:20:39.914Z</time></trkpt><trkpt lat="43.1179675" lon="11.0528824"><ele>374.0</ele><time>2026-03-29T14:20:40.914Z</time></trkpt><trkpt lat="43.1180771" lon="11.0531061"><ele>374.0</ele><time>2026-03-29T14:20:41.914Z</time></trkpt><trkpt lat="43.1181584" lon="11.0533586"><ele>374.0</ele><time>2026-03-29T14:20:42.914Z</time></trkpt><trkpt lat="43.1181976" lon="11.0536383"><ele>375.0</ele><time>2026-03-29T14:20:43.914Z</time></trkpt><trkpt lat="43.1182198" lon="11.0538958"><ele>376.0</ele><time>2026-03-29T14:20:44.914Z</time></trkpt><trkpt lat="43.1182439" lon="11.0541278"><ele>377.0</ele><time>2026-03-29T14:20:45.914Z</time></trkpt><trkpt lat="43.1182923" lon="11.0543282"><ele>377.0</ele><time>2026-03-29T14:20:46.914Z</time></trkpt><trkpt lat="43.1183799" lon="11.0545016"><ele>377.0</ele><time>2026-03-29T14:20:47.914Z</time></trkpt><trkpt lat="43.1185116" lon="11.0546643"><ele>377.0</ele><time>2026-03-29T14:20:48.914Z</time></trkpt><trkpt lat="43.1186878" lon="11.0548068"><ele>377.0</ele><time>2026-03-29T14:20:49.914Z</time></trkpt><trkpt lat="43.1188864" lon="11.0549464"><ele>377.0</ele><time>2026-03-29T14:20:50.914Z</time></trkpt><trkpt lat="43.119079" lon="11.0550877"><ele>377.0</ele><time>2026-03-29T14:20:51.914Z</time></trkpt><trkpt lat="43.1192598" lon="11.055239"><ele>376.6666666666667</ele><time>2026-03-29T14:20:52.914Z</time></trkpt><trkpt lat="43.1194366" lon="11.0553939"><ele>376.3333333333333</ele><time>2026-03-29T14:20:53.914Z</time></trkpt><trkpt lat="43.1196067" lon="11.0555654"><ele>376.0</ele><time>2026-03-29T14:20:54.914Z</time></trkpt><trkpt lat="43.1197747" lon="11.0557474"><ele>374.66666666666663</ele><time>2026-03-29T14:20:55.914Z</time></trkpt><trkpt lat="43.1199332" lon="11.0559497"><ele>373.3333333333333</ele><time>2026-03-29T14:20:56.914Z</time></trkpt><trkpt lat="43.1200832" lon="11.0561669"><ele>372.0</ele><time>2026-03-29T14:20:57.914Z</time></trkpt><trkpt lat="43.120231" lon="11.0563973"><ele>372.0</ele><time>2026-03-29T14:20:58.914Z</time></trkpt><trkpt lat="43.1203863" lon="11.0566192"><ele>372.0</ele><time>2026-03-29T14:20:59.914Z</time></trkpt><trkpt lat="43.1205422" lon="11.0568397"><ele>372.0</ele><time>2026-03-29T14:21:00.914Z</time></trkpt><trkpt lat="43.1206911" lon="11.0570525"><ele>369.6666666666667</ele><time>2026-03-29T14:21:01.914Z</time></trkpt><trkpt lat="43.1208331" lon="11.0572627"><ele>367.33333333333337</ele><time>2026-03-29T14:21:02.914Z</time></trkpt><trkpt lat="43.1209709" lon="11.0574788"><ele>365.0</ele><time>2026-03-29T14:21:03.914Z</time></trkpt><trkpt lat="43.121119" lon="11.0576996"><ele>365.0</ele><time>2026-03-29T14:21:04.915Z</time></trkpt><trkpt lat="43.1212705" lon="11.0579254"><ele>365.0</ele><time>2026-03-29T14:21:05.914Z</time></trkpt><trkpt lat="43.1214219" lon="11.0581469"><ele>365.0</ele><time>2026-03-29T14:21:06.914Z</time></trkpt><trkpt lat="43.121566" lon="11.0583786"><ele>366.33333333333337</ele><time>2026-03-29T14:21:07.914Z</time></trkpt><trkpt lat="43.1216948" lon="11.0586317"><ele>367.6666666666667</ele><time>2026-03-29T14:21:08.914Z</time></trkpt><trkpt lat="43.1218284" lon="11.0588729"><ele>369.0</ele><time>2026-03-29T14:21:09.914Z</time></trkpt><trkpt lat="43.1219648" lon="11.0591006"><ele>368.3333333333333</ele><time>2026-03-29T14:21:10.914Z</time></trkpt><trkpt lat="43.1221116" lon="11.0593228"><ele>367.66666666666663</ele><time>2026-03-29T14:21:11.914Z</time></trkpt><trkpt lat="43.1222604" lon="11.0595376"><ele>367.0</ele><time>2026-03-29T14:21:12.914Z</time></trkpt><trkpt lat="43.1224108" lon="11.0597616"><ele>365.5</ele><time>2026-03-29T14:21:13.914Z</time></trkpt><trkpt lat="43.1225535" lon="11.0600131"><ele>364.0</ele><time>2026-03-29T14:21:14.914Z</time></trkpt><trkpt lat="43.1226799" lon="11.0602841"><ele>364.0</ele><time>2026-03-29T14:21:15.914Z</time></trkpt><trkpt lat="43.1227948" lon="11.0605554"><ele>364.0</ele><time>2026-03-29T14:21:16.914Z</time></trkpt><trkpt lat="43.1229057" lon="11.0608235"><ele>364.0</ele><time>2026-03-29T14:21:17.914Z</time></trkpt><trkpt lat="43.1230196" lon="11.0610851"><ele>364.0</ele><time>2026-03-29T14:21:18.914Z</time></trkpt><trkpt lat="43.1231392" lon="11.061343"><ele>364.0</ele><time>2026-03-29T14:21:19.914Z</time></trkpt><trkpt lat="43.1232665" lon="11.0615881"><ele>362.0</ele><time>2026-03-29T14:21:20.914Z</time></trkpt><trkpt lat="43.1234165" lon="11.061819"><ele>360.0</ele><time>2026-03-29T14:21:21.914Z</time></trkpt><trkpt lat="43.1235871" lon="11.0620425"><ele>360.0</ele><time>2026-03-29T14:21:22.914Z</time></trkpt><trkpt lat="43.1237475" lon="11.0622736"><ele>360.0</ele><time>2026-03-29T14:21:23.914Z</time></trkpt><trkpt lat="43.1239133" lon="11.0625022"><ele>362.0</ele><time>2026-03-29T14:21:24.914Z</time></trkpt><trkpt lat="43.1240703" lon="11.0627294"><ele>364.0</ele><time>2026-03-29T14:21:25.914Z</time></trkpt><trkpt lat="43.1242253" lon="11.0629563"><ele>364.0</ele><time>2026-03-29T14:21:26.914Z</time></trkpt><trkpt lat="43.124373" lon="11.0631883"><ele>364.0</ele><time>2026-03-29T14:21:27.914Z</time></trkpt><trkpt lat="43.1245241" lon="11.0634235"><ele>362.0</ele><time>2026-03-29T14:21:28.915Z</time></trkpt><trkpt lat="43.1246761" lon="11.0636544"><ele>360.0</ele><time>2026-03-29T14:21:29.914Z</time></trkpt><trkpt lat="43.1248097" lon="11.0638897"><ele>358.0</ele><time>2026-03-29T14:21:30.914Z</time></trkpt><trkpt lat="43.1249282" lon="11.0641432"><ele>365.0</ele><time>2026-03-29T14:21:31.914Z</time></trkpt><trkpt lat="43.1250389" lon="11.0644047"><ele>372.0</ele><time>2026-03-29T14:21:32.914Z</time></trkpt><trkpt lat="43.1251443" lon="11.0646961"><ele>365.5</ele><time>2026-03-29T14:21:33.914Z</time></trkpt><trkpt lat="43.1252363" lon="11.0649975"><ele>359.0</ele><time>2026-03-29T14:21:34.914Z</time></trkpt><trkpt lat="43.1253243" lon="11.065297"><ele>359.0</ele><time>2026-03-29T14:21:35.914Z</time></trkpt><trkpt lat="43.1254152" lon="11.0655779"><ele>359.0</ele><time>2026-03-29T14:21:36.914Z</time></trkpt><trkpt lat="43.1255246" lon="11.0658468"><ele>359.0</ele><time>2026-03-29T14:21:37.914Z</time></trkpt><trkpt lat="43.1256458" lon="11.0661018"><ele>358.33333333333337</ele><time>2026-03-29T14:21:38.914Z</time></trkpt><trkpt lat="43.1257838" lon="11.0663297"><ele>357.6666666666667</ele><time>2026-03-29T14:21:39.914Z</time></trkpt><trkpt lat="43.1259473" lon="11.0665529"><ele>357.0</ele><time>2026-03-29T14:21:40.914Z</time></trkpt><trkpt lat="43.1261186" lon="11.0667614"><ele>357.0</ele><time>2026-03-29T14:21:41.914Z</time></trkpt><trkpt lat="43.1262853" lon="11.0669682"><ele>357.0</ele><time>2026-03-29T14:21:42.914Z</time></trkpt><trkpt lat="43.1264405" lon="11.0671822"><ele>357.0</ele><time>2026-03-29T14:21:43.914Z</time></trkpt><trkpt lat="43.1265837" lon="11.0674136"><ele>360.5</ele><time>2026-03-29T14:21:44.914Z</time></trkpt><trkpt lat="43.1267089" lon="11.0676704"><ele>364.0</ele><time>2026-03-29T14:21:45.914Z</time></trkpt><trkpt lat="43.1268135" lon="11.0679539"><ele>364.0</ele><time>2026-03-29T14:21:46.914Z</time></trkpt><trkpt lat="43.1269036" lon="11.0682518"><ele>364.0</ele><time>2026-03-29T14:21:47.914Z</time></trkpt><trkpt lat="43.1269846" lon="11.0685445"><ele>360.66666666666663</ele><time>2026-03-29T14:21:48.914Z</time></trkpt><trkpt lat="43.1270399" lon="11.0688247"><ele>357.3333333333333</ele><time>2026-03-29T14:21:49.914Z</time></trkpt><trkpt lat="43.1270964" lon="11.069073"><ele>354.0</ele><time>2026-03-29T14:21:50.914Z</time></trkpt><trkpt lat="43.1271875" lon="11.0693157"><ele>351.5</ele><time>2026-03-29T14:21:51.914Z</time></trkpt><trkpt lat="43.1273127" lon="11.0695661"><ele>349.0</ele><time>2026-03-29T14:21:52.914Z</time></trkpt><trkpt lat="43.1274527" lon="11.0698154"><ele>352.0</ele><time>2026-03-29T14:21:53.914Z</time></trkpt><trkpt lat="43.1275914" lon="11.0700539"><ele>355.0</ele><time>2026-03-29T14:21:54.914Z</time></trkpt><trkpt lat="43.1277276" lon="11.070275"><ele>358.0</ele><time>2026-03-29T14:21:55.914Z</time></trkpt><trkpt lat="43.1278472" lon="11.0705049"><ele>358.0</ele><time>2026-03-29T14:21:56.914Z</time></trkpt><trkpt lat="43.1279472" lon="11.0707648"><ele>358.0</ele><time>2026-03-29T14:21:57.914Z</time></trkpt><trkpt lat="43.1280298" lon="11.0710429"><ele>358.0</ele><time>2026-03-29T14:21:58.914Z</time></trkpt><trkpt lat="43.1280905" lon="11.0713265"><ele>352.5</ele><time>2026-03-29T14:21:59.914Z</time></trkpt><trkpt lat="43.1281414" lon="11.0716311"><ele>347.0</ele><time>2026-03-29T14:22:00.914Z</time></trkpt><trkpt lat="43.1281922" lon="11.0719462"><ele>352.0</ele><time>2026-03-29T14:22:01.914Z</time></trkpt><trkpt lat="43.1282467" lon="11.0722529"><ele>357.0</ele><time>2026-03-29T14:22:02.914Z</time></trkpt><trkpt lat="43.1283029" lon="11.0725528"><ele>357.0</ele><time>2026-03-29T14:22:03.914Z</time></trkpt><trkpt lat="43.128357" lon="11.0728565"><ele>357.0</ele><time>2026-03-29T14:22:04.914Z</time></trkpt><trkpt lat="43.1284101" lon="11.073162"><ele>355.0</ele><time>2026-03-29T14:22:05.914Z</time></trkpt><trkpt lat="43.1284591" lon="11.0734635"><ele>353.0</ele><time>2026-03-29T14:22:06.914Z</time></trkpt><trkpt lat="43.128499" lon="11.0737678"><ele>353.0</ele><time>2026-03-29T14:22:07.914Z</time></trkpt><trkpt lat="43.1285354" lon="11.0740703"><ele>353.0</ele><time>2026-03-29T14:22:08.914Z</time></trkpt><trkpt lat="43.1285722" lon="11.0743797"><ele>351.0</ele><time>2026-03-29T14:22:09.914Z</time></trkpt><trkpt lat="43.128607" lon="11.0746903"><ele>349.0</ele><time>2026-03-29T14:22:10.914Z</time></trkpt><trkpt lat="43.1286348" lon="11.0749988"><ele>348.5</ele><time>2026-03-29T14:22:11.914Z</time></trkpt><trkpt lat="43.1286679" lon="11.0753077"><ele>348.0</ele><time>2026-03-29T14:22:12.914Z</time></trkpt><trkpt lat="43.128699" lon="11.0756126"><ele>347.3333333333333</ele><time>2026-03-29T14:22:13.914Z</time></trkpt><trkpt lat="43.1287222" lon="11.0759074"><ele>346.66666666666663</ele><time>2026-03-29T14:22:14.914Z</time></trkpt><trkpt lat="43.1287514" lon="11.0761789"><ele>346.0</ele><time>2026-03-29T14:22:15.914Z</time></trkpt><trkpt lat="43.1287864" lon="11.076397"><ele>346.0</ele><time>2026-03-29T14:22:16.914Z</time></trkpt><trkpt lat="43.1288432" lon="11.0765795"><ele>346.0</ele><time>2026-03-29T14:22:17.914Z</time></trkpt><trkpt lat="43.1289368" lon="11.0767234"><ele>346.0</ele><time>2026-03-29T14:22:18.914Z</time></trkpt><trkpt lat="43.1290724" lon="11.076824"><ele>346.0</ele><time>2026-03-29T14:22:19.914Z</time></trkpt><trkpt lat="43.1292496" lon="11.0769022"><ele>347.3333333333333</ele><time>2026-03-29T14:22:20.914Z</time></trkpt><trkpt lat="43.1294475" lon="11.0769822"><ele>348.6666666666667</ele><time>2026-03-29T14:22:21.914Z</time></trkpt><trkpt lat="43.1296511" lon="11.0770621"><ele>350.0</ele><time>2026-03-29T14:22:22.914Z</time></trkpt><trkpt lat="43.1298509" lon="11.0771513"><ele>351.0</ele><time>2026-03-29T14:22:23.914Z</time></trkpt><trkpt lat="43.1300414" lon="11.0772373"><ele>352.0</ele><time>2026-03-29T14:22:24.914Z</time></trkpt><trkpt lat="43.1302156" lon="11.0773539"><ele>353.0</ele><time>2026-03-29T14:22:25.914Z</time></trkpt><trkpt lat="43.1303682" lon="11.0775108"><ele>350.6666666666667</ele><time>2026-03-29T14:22:26.914Z</time></trkpt><trkpt lat="43.1304905" lon="11.0777136"><ele>348.3333333333333</ele><time>2026-03-29T14:22:27.914Z</time></trkpt><trkpt lat="43.1305748" lon="11.0779601"><ele>346.0</ele><time>2026-03-29T14:22:28.915Z</time></trkpt><trkpt lat="43.1306349" lon="11.0782438"><ele>346.3333333333333</ele><time>2026-03-29T14:22:29.914Z</time></trkpt><trkpt lat="43.1306831" lon="11.0785212"><ele>346.6666666666667</ele><time>2026-03-29T14:22:30.914Z</time></trkpt><trkpt lat="43.1307404" lon="11.0787802"><ele>347.0</ele><time>2026-03-29T14:22:31.914Z</time></trkpt><trkpt lat="43.1308259" lon="11.0790422"><ele>346.5</ele><time>2026-03-29T14:22:32.914Z</time></trkpt><trkpt lat="43.1309444" lon="11.0792982"><ele>346.0</ele><time>2026-03-29T14:22:33.914Z</time></trkpt><trkpt lat="43.1311031" lon="11.0795459"><ele>346.0</ele><time>2026-03-29T14:22:34.914Z</time></trkpt><trkpt lat="43.1312741" lon="11.0797806"><ele>346.0</ele><time>2026-03-29T14:22:35.915Z</time></trkpt><trkpt lat="43.1314391" lon="11.0800094"><ele>347.0</ele><time>2026-03-29T14:22:36.914Z</time></trkpt><trkpt lat="43.1315993" lon="11.0802278"><ele>348.0</ele><time>2026-03-29T14:22:37.914Z</time></trkpt><trkpt lat="43.131757" lon="11.0804345"><ele>349.0</ele><time>2026-03-29T14:22:38.914Z</time></trkpt><trkpt lat="43.1319152" lon="11.0806373"><ele>347.66666666666663</ele><time>2026-03-29T14:22:39.914Z</time></trkpt><trkpt lat="43.1320689" lon="11.0808379"><ele>346.3333333333333</ele><time>2026-03-29T14:22:40.914Z</time></trkpt><trkpt lat="43.1322256" lon="11.0810408"><ele>345.0</ele><time>2026-03-29T14:22:41.914Z</time></trkpt><trkpt lat="43.1323894" lon="11.0812502"><ele>346.0</ele><time>2026-03-29T14:22:42.914Z</time></trkpt><trkpt lat="43.132558" lon="11.0814653"><ele>347.0</ele><time>2026-03-29T14:22:43.914Z</time></trkpt><trkpt lat="43.1327229" lon="11.0816779"><ele>345.33333333333337</ele><time>2026-03-29T14:22:44.914Z</time></trkpt><trkpt lat="43.1328791" lon="11.081887"><ele>343.6666666666667</ele><time>2026-03-29T14:22:45.914Z</time></trkpt><trkpt lat="43.1330291" lon="11.0820864"><ele>342.0</ele><time>2026-03-29T14:22:46.915Z</time></trkpt><trkpt lat="43.1331789" lon="11.0822842"><ele>343.0</ele><time>2026-03-29T14:22:47.914Z</time></trkpt><trkpt lat="43.1333271" lon="11.0824737"><ele>344.0</ele><time>2026-03-29T14:22:48.914Z</time></trkpt><trkpt lat="43.1334747" lon="11.0826711"><ele>345.0</ele><time>2026-03-29T14:22:49.914Z</time></trkpt><trkpt lat="43.1336223" lon="11.082861"><ele>345.0</ele><time>2026-03-29T14:22:50.914Z</time></trkpt><trkpt lat="43.1337701" lon="11.0830498"><ele>345.0</ele><time>2026-03-29T14:22:51.914Z</time></trkpt><trkpt lat="43.1339182" lon="11.0832468"><ele>345.0</ele><time>2026-03-29T14:22:52.914Z</time></trkpt><trkpt lat="43.1340619" lon="11.0834458"><ele>345.0</ele><time>2026-03-29T14:22:53.914Z</time></trkpt><trkpt lat="43.1342092" lon="11.0836399"><ele>345.0</ele><time>2026-03-29T14:22:54.914Z</time></trkpt><trkpt lat="43.1343663" lon="11.0838274"><ele>345.0</ele><time>2026-03-29T14:22:55.914Z</time></trkpt><trkpt lat="43.1345317" lon="11.0840096"><ele>344.3333333333333</ele><time>2026-03-29T14:22:56.914Z</time></trkpt><trkpt lat="43.1347114" lon="11.084179"><ele>343.66666666666663</ele><time>2026-03-29T14:22:57.914Z</time></trkpt><trkpt lat="43.1348991" lon="11.0843266"><ele>343.0</ele><time>2026-03-29T14:22:58.914Z</time></trkpt><trkpt lat="43.1350876" lon="11.0844557"><ele>343.0</ele><time>2026-03-29T14:22:59.914Z</time></trkpt><trkpt lat="43.135267" lon="11.0845924"><ele>343.0</ele><time>2026-03-29T14:23:00.914Z</time></trkpt><trkpt lat="43.1354297" lon="11.0847674"><ele>343.0</ele><time>2026-03-29T14:23:01.914Z</time></trkpt><trkpt lat="43.135559" lon="11.0850056"><ele>343.3333333333333</ele><time>2026-03-29T14:23:02.914Z</time></trkpt><trkpt lat="43.1356568" lon="11.0852702"><ele>343.6666666666667</ele><time>2026-03-29T14:23:03.914Z</time></trkpt><trkpt lat="43.1357362" lon="11.0855505"><ele>344.0</ele><time>2026-03-29T14:23:04.914Z</time></trkpt><trkpt lat="43.1358058" lon="11.0858562"><ele>344.0</ele><time>2026-03-29T14:23:05.914Z</time></trkpt><trkpt lat="43.1358743" lon="11.0861725"><ele>344.0</ele><time>2026-03-29T14:23:06.914Z</time></trkpt><trkpt lat="43.1359372" lon="11.0864966"><ele>342.5</ele><time>2026-03-29T14:23:07.914Z</time></trkpt><trkpt lat="43.1359959" lon="11.0868042"><ele>341.0</ele><time>2026-03-29T14:23:08.914Z</time></trkpt><trkpt lat="43.1360498" lon="11.0870989"><ele>341.0</ele><time>2026-03-29T14:23:09.914Z</time></trkpt><trkpt lat="43.1360991" lon="11.0873755"><ele>341.0</ele><time>2026-03-29T14:23:10.914Z</time></trkpt><trkpt lat="43.136144" lon="11.0876195"><ele>341.0</ele><time>2026-03-29T14:23:11.914Z</time></trkpt><trkpt lat="43.1361926" lon="11.0878197"><ele>341.33333333333337</ele><time>2026-03-29T14:23:12.914Z</time></trkpt><trkpt lat="43.1362729" lon="11.0879854"><ele>341.6666666666667</ele><time>2026-03-29T14:23:13.914Z</time></trkpt><trkpt lat="43.1363987" lon="11.0881248"><ele>342.0</ele><time>2026-03-29T14:23:14.914Z</time></trkpt><trkpt lat="43.1365582" lon="11.0882556"><ele>342.6666666666667</ele><time>2026-03-29T14:23:15.914Z</time></trkpt><trkpt lat="43.1367279" lon="11.0883803"><ele>343.33333333333337</ele><time>2026-03-29T14:23:16.914Z</time></trkpt><trkpt lat="43.1368953" lon="11.0885093"><ele>344.0</ele><time>2026-03-29T14:23:17.914Z</time></trkpt><trkpt lat="43.1370613" lon="11.0886483"><ele>344.0</ele><time>2026-03-29T14:23:18.914Z</time></trkpt><trkpt lat="43.137232" lon="11.0887961"><ele>344.0</ele><time>2026-03-29T14:23:19.914Z</time></trkpt><trkpt lat="43.1374047" lon="11.0889362"><ele>344.0</ele><time>2026-03-29T14:23:20.914Z</time></trkpt><trkpt lat="43.137578" lon="11.0890579"><ele>342.6666666666667</ele><time>2026-03-29T14:23:21.914Z</time></trkpt><trkpt lat="43.1377538" lon="11.0891699"><ele>341.3333333333333</ele><time>2026-03-29T14:23:22.914Z</time></trkpt><trkpt lat="43.1379304" lon="11.0892768"><ele>340.0</ele><time>2026-03-29T14:23:23.914Z</time></trkpt><trkpt lat="43.1381097" lon="11.0893647"><ele>342.3333333333333</ele><time>2026-03-29T14:23:24.914Z</time></trkpt><trkpt lat="43.1382986" lon="11.0894458"><ele>344.6666666666667</ele><time>2026-03-29T14:23:25.914Z</time></trkpt><trkpt lat="43.138497" lon="11.0894933"><ele>347.0</ele><time>2026-03-29T14:23:26.914Z</time></trkpt><trkpt lat="43.1387055" lon="11.089515"><ele>347.0</ele><time>2026-03-29T14:23:27.914Z</time></trkpt><trkpt lat="43.1389272" lon="11.0895007"><ele>347.0</ele><time>2026-03-29T14:23:28.914Z</time></trkpt><trkpt lat="43.139157" lon="11.0894747"><ele>347.0</ele><time>2026-03-29T14:23:29.914Z</time></trkpt><trkpt lat="43.1393816" lon="11.089447"><ele>347.0</ele><time>2026-03-29T14:23:30.914Z</time></trkpt><trkpt lat="43.139593" lon="11.089416"><ele>347.0</ele><time>2026-03-29T14:23:31.915Z</time></trkpt><trkpt lat="43.1397916" lon="11.0894112"><ele>343.6666666666667</ele><time>2026-03-29T14:23:32.914Z</time></trkpt><trkpt lat="43.139994" lon="11.0894398"><ele>340.3333333333333</ele><time>2026-03-29T14:23:33.914Z</time></trkpt><trkpt lat="43.1402037" lon="11.0894963"><ele>337.0</ele><time>2026-03-29T14:23:34.914Z</time></trkpt><trkpt lat="43.1404126" lon="11.0895755"><ele>337.0</ele><time>2026-03-29T14:23:35.914Z</time></trkpt><trkpt lat="43.1405988" lon="11.0896787"><ele>337.0</ele><time>2026-03-29T14:23:36.914Z</time></trkpt><trkpt lat="43.1407509" lon="11.0898096"><ele>337.0</ele><time>2026-03-29T14:23:37.914Z</time></trkpt><trkpt lat="43.140879" lon="11.0899766"><ele>336.66666666666663</ele><time>2026-03-29T14:23:38.914Z</time></trkpt><trkpt lat="43.1409826" lon="11.0901761"><ele>336.3333333333333</ele><time>2026-03-29T14:23:39.914Z</time></trkpt><trkpt lat="43.1410775" lon="11.0904083"><ele>336.0</ele><time>2026-03-29T14:23:40.914Z</time></trkpt><trkpt lat="43.1411742" lon="11.0906622"><ele>334.0</ele><time>2026-03-29T14:23:41.914Z</time></trkpt><trkpt lat="43.1412748" lon="11.0909403"><ele>332.0</ele><time>2026-03-29T14:23:42.914Z</time></trkpt><trkpt lat="43.1413826" lon="11.0912165"><ele>332.0</ele><time>2026-03-29T14:23:43.914Z</time></trkpt><trkpt lat="43.1415007" lon="11.0914691"><ele>332.0</ele><time>2026-03-29T14:23:44.914Z</time></trkpt><trkpt lat="43.1416186" lon="11.0916934"><ele>332.0</ele><time>2026-03-29T14:23:45.914Z</time></trkpt><trkpt lat="43.1417419" lon="11.0918845"><ele>333.6666666666667</ele><time>2026-03-29T14:23:46.914Z</time></trkpt><trkpt lat="43.1418757" lon="11.0920442"><ele>335.3333333333333</ele><time>2026-03-29T14:23:47.914Z</time></trkpt><trkpt lat="43.1420329" lon="11.0921776"><ele>337.0</ele><time>2026-03-29T14:23:48.914Z</time></trkpt><trkpt lat="43.1422104" lon="11.0923003"><ele>336.66666666666663</ele><time>2026-03-29T14:23:49.914Z</time></trkpt><trkpt lat="43.1423961" lon="11.0924294"><ele>336.3333333333333</ele><time>2026-03-29T14:23:50.914Z</time></trkpt><trkpt lat="43.1425953" lon="11.0925759"><ele>336.0</ele><time>2026-03-29T14:23:51.914Z</time></trkpt><trkpt lat="43.1427979" lon="11.0927428"><ele>336.0</ele><time>2026-03-29T14:23:52.914Z</time></trkpt><trkpt lat="43.1430088" lon="11.0929135"><ele>336.0</ele><time>2026-03-29T14:23:53.914Z</time></trkpt><trkpt lat="43.1432197" lon="11.0930753"><ele>335.5</ele><time>2026-03-29T14:23:54.914Z</time></trkpt><trkpt lat="43.143427" lon="11.0932239"><ele>335.0</ele><time>2026-03-29T14:23:55.914Z</time></trkpt><trkpt lat="43.1436233" lon="11.0933672"><ele>335.0</ele><time>2026-03-29T14:23:56.914Z</time></trkpt><trkpt lat="43.1438198" lon="11.0935005"><ele>335.0</ele><time>2026-03-29T14:23:57.914Z</time></trkpt><trkpt lat="43.1440007" lon="11.093637"><ele>335.0</ele><time>2026-03-29T14:23:58.914Z</time></trkpt><trkpt lat="43.1441752" lon="11.0937617"><ele>336.0</ele><time>2026-03-29T14:23:59.914Z</time></trkpt><trkpt lat="43.1443418" lon="11.0938782"><ele>337.0</ele><time>2026-03-29T14:24:00.914Z</time></trkpt><trkpt lat="43.1444844" lon="11.0939965"><ele>338.0</ele><time>2026-03-29T14:24:01.914Z</time></trkpt><trkpt lat="43.144616" lon="11.0941254"><ele>338.0</ele><time>2026-03-29T14:24:02.915Z</time></trkpt><trkpt lat="43.1447215" lon="11.0942943"><ele>338.0</ele><time>2026-03-29T14:24:03.915Z</time></trkpt><trkpt lat="43.1447931" lon="11.0944948"><ele>338.0</ele><time>2026-03-29T14:24:04.915Z</time></trkpt><trkpt lat="43.1448281" lon="11.0947341"><ele>338.0</ele><time>2026-03-29T14:24:05.915Z</time></trkpt><trkpt lat="43.1448411" lon="11.095008"><ele>338.0</ele><time>2026-03-29T14:24:06.915Z</time></trkpt><trkpt lat="43.1448442" lon="11.0952945"><ele>338.0</ele><time>2026-03-29T14:24:07.915Z</time></trkpt><trkpt lat="43.1448551" lon="11.0955841"><ele>338.0</ele><time>2026-03-29T14:24:08.915Z</time></trkpt><trkpt lat="43.1448722" lon="11.0958785"><ele>338.0</ele><time>2026-03-29T14:24:09.915Z</time></trkpt><trkpt lat="43.1448903" lon="11.0961809"><ele>338.0</ele><time>2026-03-29T14:24:10.915Z</time></trkpt><trkpt lat="43.1449097" lon="11.0964789"><ele>339.0</ele><time>2026-03-29T14:24:11.915Z</time></trkpt><trkpt lat="43.1449226" lon="11.0967798"><ele>340.0</ele><time>2026-03-29T14:24:12.915Z</time></trkpt><trkpt lat="43.1449373" lon="11.0970827"><ele>341.0</ele><time>2026-03-29T14:24:13.915Z</time></trkpt><trkpt lat="43.144952" lon="11.0973741"><ele>340.6666666666667</ele><time>2026-03-29T14:24:14.915Z</time></trkpt><trkpt lat="43.1449333" lon="11.097659"><ele>340.3333333333333</ele><time>2026-03-29T14:24:15.916Z</time></trkpt><trkpt lat="43.1448944" lon="11.0979419"><ele>340.0</ele><time>2026-03-29T14:24:16.915Z</time></trkpt><trkpt lat="43.1448242" lon="11.0982219"><ele>337.0</ele><time>2026-03-29T14:24:17.915Z</time></trkpt><trkpt lat="43.1447387" lon="11.0985051"><ele>334.0</ele><time>2026-03-29T14:24:18.915Z</time></trkpt><trkpt lat="43.1446453" lon="11.0988013"><ele>335.0</ele><time>2026-03-29T14:24:19.915Z</time></trkpt><trkpt lat="43.1445435" lon="11.099102"><ele>336.0</ele><time>2026-03-29T14:24:20.915Z</time></trkpt><trkpt lat="43.1444443" lon="11.099399"><ele>336.0</ele><time>2026-03-29T14:24:21.915Z</time></trkpt><trkpt lat="43.1443459" lon="11.0996994"><ele>336.0</ele><time>2026-03-29T14:24:22.915Z</time></trkpt><trkpt lat="43.1442552" lon="11.0999856"><ele>335.6666666666667</ele><time>2026-03-29T14:24:23.915Z</time></trkpt><trkpt lat="43.1441746" lon="11.1002603"><ele>335.33333333333337</ele><time>2026-03-29T14:24:24.915Z</time></trkpt><trkpt lat="43.1440983" lon="11.1005149"><ele>335.0</ele><time>2026-03-29T14:24:25.915Z</time></trkpt><trkpt lat="43.1440223" lon="11.1007597"><ele>335.0</ele><time>2026-03-29T14:24:26.915Z</time></trkpt><trkpt lat="43.1439622" lon="11.1009952"><ele>335.0</ele><time>2026-03-29T14:24:27.915Z</time></trkpt><trkpt lat="43.143923" lon="11.1012384"><ele>335.0</ele><time>2026-03-29T14:24:28.915Z</time></trkpt><trkpt lat="43.14391" lon="11.1014872"><ele>335.6666666666667</ele><time>2026-03-29T14:24:29.915Z</time></trkpt><trkpt lat="43.1439372" lon="11.1017266"><ele>336.3333333333333</ele><time>2026-03-29T14:24:30.915Z</time></trkpt><trkpt lat="43.1439743" lon="11.101946"><ele>337.0</ele><time>2026-03-29T14:24:31.915Z</time></trkpt><trkpt lat="43.1439813" lon="11.1021367"><ele>337.0</ele><time>2026-03-29T14:24:32.915Z</time></trkpt><trkpt lat="43.1439477" lon="11.1023066"><ele>337.0</ele><time>2026-03-29T14:24:33.915Z</time></trkpt><trkpt lat="43.1438545" lon="11.1024429"><ele>337.0</ele><time>2026-03-29T14:24:34.915Z</time></trkpt><trkpt lat="43.143716" lon="11.102544"><ele>337.0</ele><time>2026-03-29T14:24:35.915Z</time></trkpt><trkpt lat="43.1435511" lon="11.1026077"><ele>339.3333333333333</ele><time>2026-03-29T14:24:36.915Z</time></trkpt><trkpt lat="43.1433804" lon="11.1026495"><ele>341.6666666666667</ele><time>2026-03-29T14:24:37.915Z</time></trkpt><trkpt lat="43.1432224" lon="11.1026912"><ele>344.0</ele><time>2026-03-29T14:24:38.915Z</time></trkpt><trkpt lat="43.1430779" lon="11.1027523"><ele>344.5</ele><time>2026-03-29T14:24:39.915Z</time></trkpt><trkpt lat="43.142946" lon="11.1028282"><ele>345.0</ele><time>2026-03-29T14:24:40.915Z</time></trkpt><trkpt lat="43.1428243" lon="11.1029157"><ele>345.5</ele><time>2026-03-29T14:24:41.915Z</time></trkpt><trkpt lat="43.1427249" lon="11.1030237"><ele>346.0</ele><time>2026-03-29T14:24:42.915Z</time></trkpt><trkpt lat="43.1426461" lon="11.1031601"><ele>346.75</ele><time>2026-03-29T14:24:43.915Z</time></trkpt><trkpt lat="43.1425837" lon="11.1033095"><ele>347.5</ele><time>2026-03-29T14:24:44.915Z</time></trkpt><trkpt lat="43.1425242" lon="11.1034861"><ele>348.25</ele><time>2026-03-29T14:24:45.915Z</time></trkpt><trkpt lat="43.1424687" lon="11.1036969"><ele>349.0</ele><time>2026-03-29T14:24:46.915Z</time></trkpt><trkpt lat="43.1424154" lon="11.1039137"><ele>349.0</ele><time>2026-03-29T14:24:47.915Z</time></trkpt><trkpt lat="43.1423569" lon="11.1041336"><ele>349.0</ele><time>2026-03-29T14:24:48.915Z</time></trkpt><trkpt lat="43.1423047" lon="11.1043497"><ele>349.0</ele><time>2026-03-29T14:24:49.915Z</time></trkpt><trkpt lat="43.1422596" lon="11.1045634"><ele>349.0</ele><time>2026-03-29T14:24:50.915Z</time></trkpt><trkpt lat="43.1422131" lon="11.1047736"><ele>349.0</ele><time>2026-03-29T14:24:51.916Z</time></trkpt><trkpt lat="43.1421579" lon="11.1049684"><ele>349.0</ele><time>2026-03-29T14:24:52.915Z</time></trkpt><trkpt lat="43.1421052" lon="11.1051594"><ele>348.75</ele><time>2026-03-29T14:24:53.915Z</time></trkpt><trkpt lat="43.1420537" lon="11.1053484"><ele>348.5</ele><time>2026-03-29T14:24:54.915Z</time></trkpt><trkpt lat="43.1420026" lon="11.1055448"><ele>348.25</ele><time>2026-03-29T14:24:55.915Z</time></trkpt><trkpt lat="43.1419596" lon="11.1057386"><ele>348.0</ele><time>2026-03-29T14:24:56.915Z</time></trkpt><trkpt lat="43.1419293" lon="11.1059375"><ele>348.0</ele><time>2026-03-29T14:24:57.915Z</time></trkpt><trkpt lat="43.1419145" lon="11.1061649"><ele>348.0</ele><time>2026-03-29T14:24:58.915Z</time></trkpt><trkpt lat="43.1419208" lon="11.1064343"><ele>348.0</ele><time>2026-03-29T14:24:59.915Z</time></trkpt><trkpt lat="43.1419378" lon="11.1067513"><ele>347.0</ele><time>2026-03-29T14:25:00.915Z</time></trkpt><trkpt lat="43.1419503" lon="11.1070887"><ele>346.0</ele><time>2026-03-29T14:25:01.915Z</time></trkpt><trkpt lat="43.1419698" lon="11.1074007"><ele>345.3333333333333</ele><time>2026-03-29T14:25:02.915Z</time></trkpt><trkpt lat="43.1419904" lon="11.1076862"><ele>344.6666666666667</ele><time>2026-03-29T14:25:03.915Z</time></trkpt><trkpt lat="43.1420038" lon="11.1079487"><ele>344.0</ele><time>2026-03-29T14:25:04.916Z</time></trkpt><trkpt lat="43.1420206" lon="11.1081901"><ele>343.6666666666667</ele><time>2026-03-29T14:25:05.915Z</time></trkpt><trkpt lat="43.1420386" lon="11.1084199"><ele>343.3333333333333</ele><time>2026-03-29T14:25:06.915Z</time></trkpt><trkpt lat="43.1420412" lon="11.1086429"><ele>343.0</ele><time>2026-03-29T14:25:07.915Z</time></trkpt><trkpt lat="43.1420373" lon="11.1088621"><ele>342.3333333333333</ele><time>2026-03-29T14:25:08.915Z</time></trkpt><trkpt lat="43.1420231" lon="11.1090866"><ele>341.6666666666667</ele><time>2026-03-29T14:25:09.915Z</time></trkpt><trkpt lat="43.1419969" lon="11.1093069"><ele>341.0</ele><time>2026-03-29T14:25:10.915Z</time></trkpt><trkpt lat="43.1419572" lon="11.1095096"><ele>341.0</ele><time>2026-03-29T14:25:11.915Z</time></trkpt><trkpt lat="43.1419063" lon="11.1097005"><ele>341.0</ele><time>2026-03-29T14:25:12.915Z</time></trkpt><trkpt lat="43.1418442" lon="11.1098959"><ele>341.0</ele><time>2026-03-29T14:25:13.916Z</time></trkpt><trkpt lat="43.1417941" lon="11.1101014"><ele>340.6666666666667</ele><time>2026-03-29T14:25:14.915Z</time></trkpt><trkpt lat="43.1417557" lon="11.1103117"><ele>340.3333333333333</ele><time>2026-03-29T14:25:15.915Z</time></trkpt><trkpt lat="43.1417242" lon="11.1105507"><ele>340.0</ele><time>2026-03-29T14:25:16.915Z</time></trkpt><trkpt lat="43.141698" lon="11.1108205"><ele>339.66666666666663</ele><time>2026-03-29T14:25:17.915Z</time></trkpt><trkpt lat="43.1416789" lon="11.1110901"><ele>339.3333333333333</ele><time>2026-03-29T14:25:18.915Z</time></trkpt><trkpt lat="43.1416602" lon="11.111345"><ele>339.0</ele><time>2026-03-29T14:25:19.915Z</time></trkpt><trkpt lat="43.1416626" lon="11.1115881"><ele>339.0</ele><time>2026-03-29T14:25:20.915Z</time></trkpt><trkpt lat="43.1416742" lon="11.1118289"><ele>339.0</ele><time>2026-03-29T14:25:21.915Z</time></trkpt><trkpt lat="43.1416933" lon="11.1120867"><ele>339.0</ele><time>2026-03-29T14:25:22.915Z</time></trkpt><trkpt lat="43.1417317" lon="11.1123783"><ele>339.5</ele><time>2026-03-29T14:25:23.915Z</time></trkpt><trkpt lat="43.1417817" lon="11.11272"><ele>340.0</ele><time>2026-03-29T14:25:24.916Z</time></trkpt><trkpt lat="43.1418183" lon="11.1130933"><ele>341.5</ele><time>2026-03-29T14:25:25.915Z</time></trkpt><trkpt lat="43.141855" lon="11.113495"><ele>343.0</ele><time>2026-03-29T14:25:26.915Z</time></trkpt><trkpt lat="43.141895" lon="11.1138983"><ele>343.0</ele><time>2026-03-29T14:25:27.915Z</time></trkpt><trkpt lat="43.1419317" lon="11.1142683"><ele>343.0</ele><time>2026-03-29T14:25:28.915Z</time></trkpt><trkpt lat="43.14198" lon="11.1145867"><ele>343.0</ele><time>2026-03-29T14:25:29.915Z</time></trkpt><trkpt lat="43.1420417" lon="11.114915"><ele>343.0</ele><time>2026-03-29T14:25:30.915Z</time></trkpt><trkpt lat="43.1421" lon="11.1152267"><ele>343.0</ele><time>2026-03-29T14:25:31.915Z</time></trkpt><trkpt lat="43.1421683" lon="11.11553"><ele>343.0</ele><time>2026-03-29T14:25:32.915Z</time></trkpt><trkpt lat="43.1422317" lon="11.1158367"><ele>342.5</ele><time>2026-03-29T14:25:33.915Z</time></trkpt><trkpt lat="43.1423" lon="11.1161467"><ele>342.0</ele><time>2026-03-29T14:25:34.915Z</time></trkpt><trkpt lat="43.1423683" lon="11.1164483"><ele>343.0</ele><time>2026-03-29T14:25:35.915Z</time></trkpt><trkpt lat="43.142435" lon="11.1167433"><ele>344.0</ele><time>2026-03-29T14:25:36.915Z</time></trkpt><trkpt lat="43.1424933" lon="11.1170317"><ele>345.0</ele><time>2026-03-29T14:25:37.915Z</time></trkpt><trkpt lat="43.142535" lon="11.1173333"><ele>344.3333333333333</ele><time>2026-03-29T14:25:38.915Z</time></trkpt><trkpt lat="43.1425533" lon="11.1176067"><ele>343.66666666666663</ele><time>2026-03-29T14:25:39.915Z</time></trkpt><trkpt lat="43.1425333" lon="11.117885"><ele>343.0</ele><time>2026-03-29T14:25:40.915Z</time></trkpt><trkpt lat="43.142485" lon="11.1181617"><ele>343.66666666666663</ele><time>2026-03-29T14:25:41.915Z</time></trkpt><trkpt lat="43.142405" lon="11.1184383"><ele>344.3333333333333</ele><time>2026-03-29T14:25:42.915Z</time></trkpt><trkpt lat="43.1423133" lon="11.1186983"><ele>345.0</ele><time>2026-03-29T14:25:43.915Z</time></trkpt><trkpt lat="43.1422367" lon="11.1189567"><ele>341.6666666666667</ele><time>2026-03-29T14:25:44.915Z</time></trkpt><trkpt lat="43.1421917" lon="11.1191917"><ele>338.33333333333337</ele><time>2026-03-29T14:25:45.915Z</time></trkpt><trkpt lat="43.1421833" lon="11.1194183"><ele>335.0</ele><time>2026-03-29T14:25:46.915Z</time></trkpt><trkpt lat="43.1422083" lon="11.1196317"><ele>335.0</ele><time>2026-03-29T14:25:47.915Z</time></trkpt><trkpt lat="43.1422817" lon="11.119825"><ele>335.0</ele><time>2026-03-29T14:25:48.915Z</time></trkpt><trkpt lat="43.1424017" lon="11.1200067"><ele>335.0</ele><time>2026-03-29T14:25:49.915Z</time></trkpt><trkpt lat="43.1425183" lon="11.1201717"><ele>335.75</ele><time>2026-03-29T14:25:50.915Z</time></trkpt><trkpt lat="43.1426067" lon="11.1203533"><ele>336.5</ele><time>2026-03-29T14:25:51.915Z</time></trkpt><trkpt lat="43.1426517" lon="11.120535"><ele>337.25</ele><time>2026-03-29T14:25:52.915Z</time></trkpt><trkpt lat="43.1426483" lon="11.1207267"><ele>338.0</ele><time>2026-03-29T14:25:53.915Z</time></trkpt><trkpt lat="43.1426217" lon="11.12093"><ele>338.0</ele><time>2026-03-29T14:25:54.915Z</time></trkpt><trkpt lat="43.142555" lon="11.1211433"><ele>338.0</ele><time>2026-03-29T14:25:55.915Z</time></trkpt><trkpt lat="43.1424804" lon="11.1213565"><ele>338.0</ele><time>2026-03-29T14:25:56.915Z</time></trkpt><trkpt lat="43.1424137" lon="11.1215636"><ele>338.0</ele><time>2026-03-29T14:25:57.915Z</time></trkpt><trkpt lat="43.1423639" lon="11.1217605"><ele>338.0</ele><time>2026-03-29T14:25:58.915Z</time></trkpt><trkpt lat="43.1423413" lon="11.1219569"><ele>338.0</ele><time>2026-03-29T14:25:59.916Z</time></trkpt><trkpt lat="43.1423451" lon="11.1221643"><ele>338.0</ele><time>2026-03-29T14:26:00.915Z</time></trkpt><trkpt lat="43.1423828" lon="11.1223708"><ele>340.0</ele><time>2026-03-29T14:26:01.915Z</time></trkpt><trkpt lat="43.1424376" lon="11.122589"><ele>342.0</ele><time>2026-03-29T14:26:02.915Z</time></trkpt><trkpt lat="43.142496" lon="11.1228303"><ele>344.0</ele><time>2026-03-29T14:26:03.915Z</time></trkpt><trkpt lat="43.142557" lon="11.1230876"><ele>343.6666666666667</ele><time>2026-03-29T14:26:04.915Z</time></trkpt><trkpt lat="43.1426111" lon="11.1233519"><ele>343.3333333333333</ele><time>2026-03-29T14:26:05.915Z</time></trkpt><trkpt lat="43.1426664" lon="11.1236296"><ele>343.0</ele><time>2026-03-29T14:26:06.915Z</time></trkpt><trkpt lat="43.1427285" lon="11.1239178"><ele>341.5</ele><time>2026-03-29T14:26:07.915Z</time></trkpt><trkpt lat="43.1427915" lon="11.1242102"><ele>340.0</ele><time>2026-03-29T14:26:08.915Z</time></trkpt><trkpt lat="43.1428414" lon="11.1245163"><ele>340.0</ele><time>2026-03-29T14:26:09.915Z</time></trkpt><trkpt lat="43.1428907" lon="11.1248129"><ele>340.0</ele><time>2026-03-29T14:26:10.915Z</time></trkpt><trkpt lat="43.1429359" lon="11.1251184"><ele>340.0</ele><time>2026-03-29T14:26:11.915Z</time></trkpt><trkpt lat="43.1429741" lon="11.12543"><ele>340.0</ele><time>2026-03-29T14:26:12.915Z</time></trkpt><trkpt lat="43.1430111" lon="11.1257428"><ele>340.0</ele><time>2026-03-29T14:26:13.915Z</time></trkpt><trkpt lat="43.1430642" lon="11.126065"><ele>340.0</ele><time>2026-03-29T14:26:14.915Z</time></trkpt><trkpt lat="43.14311" lon="11.1263732"><ele>340.0</ele><time>2026-03-29T14:26:15.915Z</time></trkpt><trkpt lat="43.143156" lon="11.1266852"><ele>338.0</ele><time>2026-03-29T14:26:16.915Z</time></trkpt><trkpt lat="43.1432052" lon="11.1269996"><ele>336.0</ele><time>2026-03-29T14:26:17.915Z</time></trkpt><trkpt lat="43.1432572" lon="11.1273191"><ele>335.5</ele><time>2026-03-29T14:26:18.915Z</time></trkpt><trkpt lat="43.1433035" lon="11.1276379"><ele>335.0</ele><time>2026-03-29T14:26:19.915Z</time></trkpt><trkpt lat="43.1433454" lon="11.1279474"><ele>335.0</ele><time>2026-03-29T14:26:20.915Z</time></trkpt><trkpt lat="43.1433954" lon="11.1282598"><ele>335.0</ele><time>2026-03-29T14:26:21.915Z</time></trkpt><trkpt lat="43.1434502" lon="11.1285806"><ele>335.0</ele><time>2026-03-29T14:26:22.915Z</time></trkpt><trkpt lat="43.1435015" lon="11.1289056"><ele>335.0</ele><time>2026-03-29T14:26:23.915Z</time></trkpt><trkpt lat="43.1435507" lon="11.1292361"><ele>334.5</ele><time>2026-03-29T14:26:24.915Z</time></trkpt><trkpt lat="43.1435996" lon="11.1295666"><ele>334.0</ele><time>2026-03-29T14:26:25.915Z</time></trkpt><trkpt lat="43.1436512" lon="11.1298997"><ele>333.5</ele><time>2026-03-29T14:26:26.915Z</time></trkpt><trkpt lat="43.1437015" lon="11.1302154"><ele>333.0</ele><time>2026-03-29T14:26:27.915Z</time></trkpt><trkpt lat="43.1437466" lon="11.130523"><ele>333.0</ele><time>2026-03-29T14:26:28.915Z</time></trkpt><trkpt lat="43.143786" lon="11.1308245"><ele>333.0</ele><time>2026-03-29T14:26:29.915Z</time></trkpt><trkpt lat="43.1438295" lon="11.1311264"><ele>333.0</ele><time>2026-03-29T14:26:30.915Z</time></trkpt><trkpt lat="43.143871" lon="11.1314329"><ele>332.0</ele><time>2026-03-29T14:26:31.915Z</time></trkpt><trkpt lat="43.1439125" lon="11.1317401"><ele>331.0</ele><time>2026-03-29T14:26:32.915Z</time></trkpt><trkpt lat="43.1439539" lon="11.1320455"><ele>331.0</ele><time>2026-03-29T14:26:33.915Z</time></trkpt><trkpt lat="43.143996" lon="11.1323566"><ele>331.0</ele><time>2026-03-29T14:26:34.915Z</time></trkpt><trkpt lat="43.1440388" lon="11.1326652"><ele>328.5</ele><time>2026-03-29T14:26:35.915Z</time></trkpt><trkpt lat="43.1440821" lon="11.1329815"><ele>326.0</ele><time>2026-03-29T14:26:36.915Z</time></trkpt><trkpt lat="43.1441223" lon="11.1333022"><ele>326.0</ele><time>2026-03-29T14:26:37.915Z</time></trkpt><trkpt lat="43.1441656" lon="11.1336242"><ele>326.0</ele><time>2026-03-29T14:26:38.915Z</time></trkpt><trkpt lat="43.1442081" lon="11.1339482"><ele>325.0</ele><time>2026-03-29T14:26:39.915Z</time></trkpt><trkpt lat="43.144248" lon="11.1342763"><ele>324.0</ele><time>2026-03-29T14:26:40.915Z</time></trkpt><trkpt lat="43.1442867" lon="11.1346016"><ele>323.0</ele><time>2026-03-29T14:26:41.915Z</time></trkpt><trkpt lat="43.1443218" lon="11.1349329"><ele>322.0</ele><time>2026-03-29T14:26:42.916Z</time></trkpt><trkpt lat="43.1443617" lon="11.1352724"><ele>322.0</ele><time>2026-03-29T14:26:43.915Z</time></trkpt><trkpt lat="43.1443992" lon="11.1356126"><ele>322.0</ele><time>2026-03-29T14:26:44.915Z</time></trkpt><trkpt lat="43.1444441" lon="11.1359479"><ele>322.5</ele><time>2026-03-29T14:26:45.915Z</time></trkpt><trkpt lat="43.1444857" lon="11.1362804"><ele>323.0</ele><time>2026-03-29T14:26:46.915Z</time></trkpt><trkpt lat="43.1445294" lon="11.1366068"><ele>323.0</ele><time>2026-03-29T14:26:47.915Z</time></trkpt><trkpt lat="43.1445695" lon="11.136923"><ele>323.0</ele><time>2026-03-29T14:26:48.916Z</time></trkpt><trkpt lat="43.1446061" lon="11.1372217"><ele>322.6666666666667</ele><time>2026-03-29T14:26:49.915Z</time></trkpt><trkpt lat="43.1446531" lon="11.1374974"><ele>322.3333333333333</ele><time>2026-03-29T14:26:50.915Z</time></trkpt><trkpt lat="43.1447164" lon="11.1377608"><ele>322.0</ele><time>2026-03-29T14:26:51.916Z</time></trkpt><trkpt lat="43.1448042" lon="11.1380167"><ele>320.0</ele><time>2026-03-29T14:26:52.915Z</time></trkpt><trkpt lat="43.1449189" lon="11.1382747"><ele>318.0</ele><time>2026-03-29T14:26:53.915Z</time></trkpt><trkpt lat="43.1450397" lon="11.1385234"><ele>316.0</ele><time>2026-03-29T14:26:54.915Z</time></trkpt><trkpt lat="43.1451506" lon="11.1387787"><ele>316.0</ele><time>2026-03-29T14:26:55.916Z</time></trkpt><trkpt lat="43.1452438" lon="11.1390387"><ele>316.0</ele><time>2026-03-29T14:26:56.915Z</time></trkpt><trkpt lat="43.1453111" lon="11.1393153"><ele>316.0</ele><time>2026-03-29T14:26:57.915Z</time></trkpt><trkpt lat="43.1453536" lon="11.139612"><ele>317.0</ele><time>2026-03-29T14:26:58.915Z</time></trkpt><trkpt lat="43.1453978" lon="11.1399392"><ele>318.0</ele><time>2026-03-29T14:26:59.915Z</time></trkpt><trkpt lat="43.1454449" lon="11.1402732"><ele>318.0</ele><time>2026-03-29T14:27:00.915Z</time></trkpt><trkpt lat="43.1454886" lon="11.1406114"><ele>318.0</ele><time>2026-03-29T14:27:01.916Z</time></trkpt><trkpt lat="43.1455287" lon="11.1409463"><ele>318.5</ele><time>2026-03-29T14:27:02.915Z</time></trkpt><trkpt lat="43.1455754" lon="11.1412761"><ele>319.0</ele><time>2026-03-29T14:27:03.915Z</time></trkpt><trkpt lat="43.1456206" lon="11.1415889"><ele>319.3333333333333</ele><time>2026-03-29T14:27:04.915Z</time></trkpt><trkpt lat="43.1456698" lon="11.1418765"><ele>319.6666666666667</ele><time>2026-03-29T14:27:05.915Z</time></trkpt><trkpt lat="43.145715" lon="11.1421614"><ele>320.0</ele><time>2026-03-29T14:27:06.915Z</time></trkpt><trkpt lat="43.1457721" lon="11.1424327"><ele>316.6666666666667</ele><time>2026-03-29T14:27:07.916Z</time></trkpt><trkpt lat="43.1458436" lon="11.1427065"><ele>313.3333333333333</ele><time>2026-03-29T14:27:08.915Z</time></trkpt><trkpt lat="43.1459514" lon="11.1429709"><ele>310.0</ele><time>2026-03-29T14:27:09.915Z</time></trkpt><trkpt lat="43.1460982" lon="11.143214"><ele>310.0</ele><time>2026-03-29T14:27:10.915Z</time></trkpt><trkpt lat="43.1462799" lon="11.1434304"><ele>310.0</ele><time>2026-03-29T14:27:11.915Z</time></trkpt><trkpt lat="43.1464958" lon="11.1436355"><ele>308.5</ele><time>2026-03-29T14:27:12.915Z</time></trkpt><trkpt lat="43.1467136" lon="11.1438441"><ele>307.0</ele><time>2026-03-29T14:27:13.915Z</time></trkpt><trkpt lat="43.1469199" lon="11.144048"><ele>307.0</ele><time>2026-03-29T14:27:14.915Z</time></trkpt><trkpt lat="43.1471242" lon="11.1442677"><ele>307.0</ele><time>2026-03-29T14:27:15.915Z</time></trkpt><trkpt lat="43.1473191" lon="11.1444787"><ele>305.5</ele><time>2026-03-29T14:27:16.915Z</time></trkpt><trkpt lat="43.1475185" lon="11.1446847"><ele>304.0</ele><time>2026-03-29T14:27:17.915Z</time></trkpt><trkpt lat="43.1477184" lon="11.1448929"><ele>304.0</ele><time>2026-03-29T14:27:18.915Z</time></trkpt><trkpt lat="43.1479171" lon="11.1451011"><ele>304.0</ele><time>2026-03-29T14:27:19.915Z</time></trkpt><trkpt lat="43.1481176" lon="11.1453044"><ele>305.0</ele><time>2026-03-29T14:27:20.915Z</time></trkpt><trkpt lat="43.1483096" lon="11.1455027"><ele>306.0</ele><time>2026-03-29T14:27:21.915Z</time></trkpt><trkpt lat="43.1484956" lon="11.1456934"><ele>305.5</ele><time>2026-03-29T14:27:22.915Z</time></trkpt><trkpt lat="43.14868" lon="11.1458848"><ele>305.0</ele><time>2026-03-29T14:27:23.915Z</time></trkpt><trkpt lat="43.1488561" lon="11.1460717"><ele>305.0</ele><time>2026-03-29T14:27:24.915Z</time></trkpt><trkpt lat="43.1490273" lon="11.1462614"><ele>305.0</ele><time>2026-03-29T14:27:25.915Z</time></trkpt><trkpt lat="43.1492019" lon="11.1464488"><ele>305.0</ele><time>2026-03-29T14:27:26.916Z</time></trkpt><trkpt lat="43.1493821" lon="11.1466296"><ele>304.6666666666667</ele><time>2026-03-29T14:27:27.915Z</time></trkpt><trkpt lat="43.1495608" lon="11.1468162"><ele>304.3333333333333</ele><time>2026-03-29T14:27:28.915Z</time></trkpt><trkpt lat="43.1497376" lon="11.1470034"><ele>304.0</ele><time>2026-03-29T14:27:29.915Z</time></trkpt><trkpt lat="43.1499112" lon="11.1471972"><ele>303.0</ele><time>2026-03-29T14:27:30.915Z</time></trkpt><trkpt lat="43.1500831" lon="11.1474034"><ele>302.0</ele><time>2026-03-29T14:27:31.915Z</time></trkpt><trkpt lat="43.1502374" lon="11.1476188"><ele>301.0</ele><time>2026-03-29T14:27:32.915Z</time></trkpt><trkpt lat="43.1503796" lon="11.147841"><ele>301.0</ele><time>2026-03-29T14:27:33.916Z</time></trkpt><trkpt lat="43.1505096" lon="11.1480505"><ele>301.0</ele><time>2026-03-29T14:27:34.915Z</time></trkpt><trkpt lat="43.1506405" lon="11.1482506"><ele>301.0</ele><time>2026-03-29T14:27:35.915Z</time></trkpt><trkpt lat="43.1507651" lon="11.1484245"><ele>300.3333333333333</ele><time>2026-03-29T14:27:36.915Z</time></trkpt><trkpt lat="43.1508919" lon="11.1485806"><ele>299.6666666666667</ele><time>2026-03-29T14:27:37.915Z</time></trkpt><trkpt lat="43.1510156" lon="11.1487139"><ele>299.0</ele><time>2026-03-29T14:27:38.915Z</time></trkpt><trkpt lat="43.1511666" lon="11.1488104"><ele>299.0</ele><time>2026-03-29T14:27:39.915Z</time></trkpt><trkpt lat="43.1513428" lon="11.1488671"><ele>299.0</ele><time>2026-03-29T14:27:40.915Z</time></trkpt><trkpt lat="43.1515329" lon="11.1488898"><ele>299.0</ele><time>2026-03-29T14:27:41.915Z</time></trkpt><trkpt lat="43.1517193" lon="11.148907"><ele>298.0</ele><time>2026-03-29T14:27:42.915Z</time></trkpt><trkpt lat="43.1519011" lon="11.1489626"><ele>297.0</ele><time>2026-03-29T14:27:43.915Z</time></trkpt><trkpt lat="43.1520838" lon="11.1490687"><ele>296.0</ele><time>2026-03-29T14:27:44.915Z</time></trkpt><trkpt lat="43.1522646" lon="11.1491976"><ele>294.33333333333337</ele><time>2026-03-29T14:27:45.915Z</time></trkpt><trkpt lat="43.1524627" lon="11.1493008"><ele>292.6666666666667</ele><time>2026-03-29T14:27:46.915Z</time></trkpt><trkpt lat="43.1526841" lon="11.1493566"><ele>291.0</ele><time>2026-03-29T14:27:47.915Z</time></trkpt><trkpt lat="43.1529242" lon="11.1493618"><ele>291.0</ele><time>2026-03-29T14:27:48.915Z</time></trkpt><trkpt lat="43.153179" lon="11.14935"><ele>291.0</ele><time>2026-03-29T14:27:49.915Z</time></trkpt><trkpt lat="43.1534475" lon="11.1493376"><ele>289.0</ele><time>2026-03-29T14:27:50.915Z</time></trkpt><trkpt lat="43.1537207" lon="11.149328"><ele>287.0</ele><time>2026-03-29T14:27:51.916Z</time></trkpt><trkpt lat="43.1539977" lon="11.1493128"><ele>286.0</ele><time>2026-03-29T14:27:52.915Z</time></trkpt><trkpt lat="43.1542768" lon="11.1493039"><ele>285.0</ele><time>2026-03-29T14:27:53.915Z</time></trkpt><trkpt lat="43.1548142" lon="11.1492985"><ele>284.0</ele><time>2026-03-29T14:27:55.915Z</time></trkpt><trkpt lat="43.1550699" lon="11.1492929"><ele>283.0</ele><time>2026-03-29T14:27:56.915Z</time></trkpt><trkpt lat="43.1553052" lon="11.1492974"><ele>283.0</ele><time>2026-03-29T14:27:57.915Z</time></trkpt><trkpt lat="43.1555147" lon="11.1493175"><ele>283.0</ele><time>2026-03-29T14:27:58.915Z</time></trkpt><trkpt lat="43.1557101" lon="11.1493832"><ele>283.0</ele><time>2026-03-29T14:27:59.915Z</time></trkpt><trkpt lat="43.155882" lon="11.1494958"><ele>283.0</ele><time>2026-03-29T14:28:00.915Z</time></trkpt><trkpt lat="43.1560248" lon="11.1496742"><ele>283.0</ele><time>2026-03-29T14:28:01.915Z</time></trkpt><trkpt lat="43.1561391" lon="11.1499078"><ele>283.0</ele><time>2026-03-29T14:28:02.915Z</time></trkpt><trkpt lat="43.1562404" lon="11.1501702"><ele>283.0</ele><time>2026-03-29T14:28:03.915Z</time></trkpt><trkpt lat="43.1563332" lon="11.1504451"><ele>283.0</ele><time>2026-03-29T14:28:04.915Z</time></trkpt><trkpt lat="43.1564301" lon="11.1506949"><ele>283.0</ele><time>2026-03-29T14:28:05.915Z</time></trkpt><trkpt lat="43.1565416" lon="11.1509075"><ele>279.66666666666663</ele><time>2026-03-29T14:28:06.915Z</time></trkpt><trkpt lat="43.1566777" lon="11.1510797"><ele>276.3333333333333</ele><time>2026-03-29T14:28:07.915Z</time></trkpt><trkpt lat="43.1568374" lon="11.1511936"><ele>273.0</ele><time>2026-03-29T14:28:08.915Z</time></trkpt><trkpt lat="43.157033" lon="11.1512815"><ele>273.0</ele><time>2026-03-29T14:28:09.915Z</time></trkpt><trkpt lat="43.1572657" lon="11.1513355"><ele>273.0</ele><time>2026-03-29T14:28:10.915Z</time></trkpt><trkpt lat="43.1575367" lon="11.151365"><ele>272.0</ele><time>2026-03-29T14:28:11.915Z</time></trkpt><trkpt lat="43.157795" lon="11.1514083"><ele>271.0</ele><time>2026-03-29T14:28:12.915Z</time></trkpt><trkpt lat="43.15804" lon="11.15145"><ele>271.0</ele><time>2026-03-29T14:28:13.915Z</time></trkpt><trkpt lat="43.1582933" lon="11.15148"><ele>271.0</ele><time>2026-03-29T14:28:14.915Z</time></trkpt><trkpt lat="43.1585283" lon="11.1515117"><ele>271.0</ele><time>2026-03-29T14:28:15.915Z</time></trkpt><trkpt lat="43.1587383" lon="11.1515467"><ele>271.0</ele><time>2026-03-29T14:28:16.915Z</time></trkpt><trkpt lat="43.1589333" lon="11.1515883"><ele>271.0</ele><time>2026-03-29T14:28:17.915Z</time></trkpt><trkpt lat="43.15911" lon="11.1516283"><ele>271.0</ele><time>2026-03-29T14:28:18.915Z</time></trkpt><trkpt lat="43.159265" lon="11.15168"><ele>271.0</ele><time>2026-03-29T14:28:19.915Z</time></trkpt><trkpt lat="43.1594033" lon="11.15177"><ele>271.0</ele><time>2026-03-29T14:28:20.915Z</time></trkpt><trkpt lat="43.1595467" lon="11.1519"><ele>271.0</ele><time>2026-03-29T14:28:21.915Z</time></trkpt><trkpt lat="43.1596833" lon="11.1520767"><ele>271.0</ele><time>2026-03-29T14:28:22.916Z</time></trkpt><trkpt lat="43.159805" lon="11.1523033"><ele>271.0</ele><time>2026-03-29T14:28:23.915Z</time></trkpt><trkpt lat="43.159925" lon="11.1525467"><ele>272.66666666666663</ele><time>2026-03-29T14:28:24.915Z</time></trkpt><trkpt lat="43.1600417" lon="11.152775"><ele>274.3333333333333</ele><time>2026-03-29T14:28:25.915Z</time></trkpt><trkpt lat="43.1601667" lon="11.1529683"><ele>276.0</ele><time>2026-03-29T14:28:26.915Z</time></trkpt><trkpt lat="43.1602933" lon="11.15312"><ele>275.3333333333333</ele><time>2026-03-29T14:28:27.915Z</time></trkpt><trkpt lat="43.16045" lon="11.15323"><ele>274.66666666666663</ele><time>2026-03-29T14:28:28.915Z</time></trkpt><trkpt lat="43.1606283" lon="11.153325"><ele>274.0</ele><time>2026-03-29T14:28:29.915Z</time></trkpt><trkpt lat="43.1608283" lon="11.1533917"><ele>276.3333333333333</ele><time>2026-03-29T14:28:30.915Z</time></trkpt><trkpt lat="43.1610317" lon="11.15344"><ele>278.6666666666667</ele><time>2026-03-29T14:28:31.915Z</time></trkpt><trkpt lat="43.1612233" lon="11.15347"><ele>281.0</ele><time>2026-03-29T14:28:32.915Z</time></trkpt><trkpt lat="43.1614167" lon="11.153475"><ele>283.33333333333337</ele><time>2026-03-29T14:28:33.915Z</time></trkpt><trkpt lat="43.161615" lon="11.153415"><ele>285.6666666666667</ele><time>2026-03-29T14:28:34.915Z</time></trkpt><trkpt lat="43.1618167" lon="11.153325"><ele>288.0</ele><time>2026-03-29T14:28:35.915Z</time></trkpt><trkpt lat="43.1620083" lon="11.1532433"><ele>289.3333333333333</ele><time>2026-03-29T14:28:36.915Z</time></trkpt><trkpt lat="43.1621933" lon="11.153175"><ele>290.66666666666663</ele><time>2026-03-29T14:28:37.915Z</time></trkpt><trkpt lat="43.1623517" lon="11.15314"><ele>292.0</ele><time>2026-03-29T14:28:38.916Z</time></trkpt><trkpt lat="43.1625167" lon="11.1531517"><ele>290.66666666666663</ele><time>2026-03-29T14:28:39.915Z</time></trkpt><trkpt lat="43.1626733" lon="11.1532383"><ele>289.3333333333333</ele><time>2026-03-29T14:28:40.915Z</time></trkpt><trkpt lat="43.1628383" lon="11.1533717"><ele>288.0</ele><time>2026-03-29T14:28:41.915Z</time></trkpt><trkpt lat="43.1630083" lon="11.1535317"><ele>288.0</ele><time>2026-03-29T14:28:42.915Z</time></trkpt><trkpt lat="43.1631967" lon="11.1537067"><ele>288.0</ele><time>2026-03-29T14:28:43.915Z</time></trkpt><trkpt lat="43.1633917" lon="11.1538883"><ele>285.6666666666667</ele><time>2026-03-29T14:28:44.915Z</time></trkpt><trkpt lat="43.1635733" lon="11.1540683"><ele>283.33333333333337</ele><time>2026-03-29T14:28:45.915Z</time></trkpt><trkpt lat="43.163735" lon="11.1542283"><ele>281.0</ele><time>2026-03-29T14:28:46.915Z</time></trkpt><trkpt lat="43.1638817" lon="11.1543867"><ele>281.0</ele><time>2026-03-29T14:28:47.915Z</time></trkpt><trkpt lat="43.1640217" lon="11.154525"><ele>281.0</ele><time>2026-03-29T14:28:48.915Z</time></trkpt><trkpt lat="43.1641617" lon="11.1546633"><ele>281.0</ele><time>2026-03-29T14:28:49.915Z</time></trkpt><trkpt lat="43.1643017" lon="11.154805"><ele>278.0</ele><time>2026-03-29T14:28:50.915Z</time></trkpt><trkpt lat="43.164455" lon="11.154965"><ele>275.0</ele><time>2026-03-29T14:28:51.915Z</time></trkpt><trkpt lat="43.1646333" lon="11.155135"><ele>272.0</ele><time>2026-03-29T14:28:52.915Z</time></trkpt><trkpt lat="43.164825" lon="11.1553133"><ele>271.0</ele><time>2026-03-29T14:28:53.915Z</time></trkpt><trkpt lat="43.1650233" lon="11.15552"><ele>270.0</ele><time>2026-03-29T14:28:54.915Z</time></trkpt><trkpt lat="43.1652283" lon="11.1557367"><ele>269.5</ele><time>2026-03-29T14:28:55.915Z</time></trkpt><trkpt lat="43.16545" lon="11.1559733"><ele>269.0</ele><time>2026-03-29T14:28:56.915Z</time></trkpt><trkpt lat="43.1656733" lon="11.1561967"><ele>270.0</ele><time>2026-03-29T14:28:57.915Z</time></trkpt><trkpt lat="43.1658983" lon="11.156425"><ele>271.0</ele><time>2026-03-29T14:28:58.915Z</time></trkpt><trkpt lat="43.1661083" lon="11.1566383"><ele>271.0</ele><time>2026-03-29T14:28:59.915Z</time></trkpt><trkpt lat="43.1663133" lon="11.15684"><ele>271.0</ele><time>2026-03-29T14:29:00.915Z</time></trkpt><trkpt lat="43.1665183" lon="11.1570367"><ele>268.5</ele><time>2026-03-29T14:29:01.915Z</time></trkpt><trkpt lat="43.1667233" lon="11.157225"><ele>266.0</ele><time>2026-03-29T14:29:02.915Z</time></trkpt><trkpt lat="43.1669383" lon="11.1574017"><ele>266.0</ele><time>2026-03-29T14:29:03.915Z</time></trkpt><trkpt lat="43.167145" lon="11.1575817"><ele>266.0</ele><time>2026-03-29T14:29:04.915Z</time></trkpt><trkpt lat="43.16735" lon="11.1577617"><ele>264.0</ele><time>2026-03-29T14:29:05.915Z</time></trkpt><trkpt lat="43.16754" lon="11.1579417"><ele>262.0</ele><time>2026-03-29T14:29:06.915Z</time></trkpt><trkpt lat="43.1677183" lon="11.1581267"><ele>262.0</ele><time>2026-03-29T14:29:07.915Z</time></trkpt><trkpt lat="43.1678817" lon="11.1582933"><ele>262.0</ele><time>2026-03-29T14:29:08.915Z</time></trkpt><trkpt lat="43.1680383" lon="11.15845"><ele>262.0</ele><time>2026-03-29T14:29:09.915Z</time></trkpt><trkpt lat="43.1681783" lon="11.1585783"><ele>262.0</ele><time>2026-03-29T14:29:10.915Z</time></trkpt><trkpt lat="43.168295" lon="11.1586883"><ele>262.0</ele><time>2026-03-29T14:29:11.915Z</time></trkpt><trkpt lat="43.168395" lon="11.1587833"><ele>262.0</ele><time>2026-03-29T14:29:12.915Z</time></trkpt><trkpt lat="43.1684767" lon="11.15887"><ele>262.0</ele><time>2026-03-29T14:29:13.915Z</time></trkpt><trkpt lat="43.1685433" lon="11.1589383"><ele>262.0</ele><time>2026-03-29T14:29:14.915Z</time></trkpt><trkpt lat="43.1685933" lon="11.1589933"><ele>262.0</ele><time>2026-03-29T14:29:15.915Z</time></trkpt><trkpt lat="43.1686667" lon="11.1590383"><ele>262.0</ele><time>2026-03-29T14:29:17.915Z</time></trkpt><trkpt lat="43.1687733" lon="11.1589667"><ele>262.0</ele><time>2026-03-29T14:29:19.915Z</time></trkpt><trkpt lat="43.1688417" lon="11.1588667"><ele>262.0</ele><time>2026-03-29T14:29:20.915Z</time></trkpt><trkpt lat="43.168925" lon="11.1587183"><ele>262.0</ele><time>2026-03-29T14:29:21.915Z</time></trkpt><trkpt lat="43.1690333" lon="11.1585183"><ele>262.0</ele><time>2026-03-29T14:29:22.915Z</time></trkpt><trkpt lat="43.169145" lon="11.1583017"><ele>262.0</ele><time>2026-03-29T14:29:23.916Z</time></trkpt><trkpt lat="43.16925" lon="11.1580933"><ele>262.66666666666663</ele><time>2026-03-29T14:29:24.915Z</time></trkpt><trkpt lat="43.169355" lon="11.1578933"><ele>263.3333333333333</ele><time>2026-03-29T14:29:25.915Z</time></trkpt><trkpt lat="43.1694683" lon="11.15769"><ele>264.0</ele><time>2026-03-29T14:29:26.915Z</time></trkpt><trkpt lat="43.1695767" lon="11.1574633"><ele>264.0</ele><time>2026-03-29T14:29:27.915Z</time></trkpt><trkpt lat="43.1696983" lon="11.15723"><ele>264.0</ele><time>2026-03-29T14:29:28.915Z</time></trkpt><trkpt lat="43.1698167" lon="11.157005"><ele>264.0</ele><time>2026-03-29T14:29:29.916Z</time></trkpt><trkpt lat="43.1699433" lon="11.1567783"><ele>264.0</ele><time>2026-03-29T14:29:30.915Z</time></trkpt><trkpt lat="43.1700633" lon="11.1565517"><ele>264.0</ele><time>2026-03-29T14:29:31.915Z</time></trkpt><trkpt lat="43.1701867" lon="11.1563183"><ele>264.0</ele><time>2026-03-29T14:29:32.915Z</time></trkpt><trkpt lat="43.17032" lon="11.1561017"><ele>264.0</ele><time>2026-03-29T14:29:33.915Z</time></trkpt><trkpt lat="43.1704467" lon="11.15591"><ele>264.0</ele><time>2026-03-29T14:29:34.915Z</time></trkpt><trkpt lat="43.1705683" lon="11.15573"><ele>264.0</ele><time>2026-03-29T14:29:35.915Z</time></trkpt><trkpt lat="43.170705" lon="11.1555567"><ele>265.6666666666667</ele><time>2026-03-29T14:29:36.916Z</time></trkpt><trkpt lat="43.1708383" lon="11.1553833"><ele>267.33333333333337</ele><time>2026-03-29T14:29:37.915Z</time></trkpt><trkpt lat="43.1709833" lon="11.1552133"><ele>269.0</ele><time>2026-03-29T14:29:38.915Z</time></trkpt><trkpt lat="43.1711283" lon="11.15503"><ele>270.0</ele><time>2026-03-29T14:29:39.915Z</time></trkpt><trkpt lat="43.1712817" lon="11.15483"><ele>271.0</ele><time>2026-03-29T14:29:40.915Z</time></trkpt><trkpt lat="43.1714433" lon="11.1546233"><ele>272.0</ele><time>2026-03-29T14:29:41.915Z</time></trkpt><trkpt lat="43.171615" lon="11.1544267"><ele>271.0</ele><time>2026-03-29T14:29:42.916Z</time></trkpt><trkpt lat="43.171785" lon="11.154215"><ele>270.0</ele><time>2026-03-29T14:29:43.915Z</time></trkpt><trkpt lat="43.1719617" lon="11.15401"><ele>270.0</ele><time>2026-03-29T14:29:44.915Z</time></trkpt><trkpt lat="43.1721467" lon="11.1538083"><ele>270.0</ele><time>2026-03-29T14:29:45.915Z</time></trkpt><trkpt lat="43.1723133" lon="11.1536083"><ele>268.6666666666667</ele><time>2026-03-29T14:29:46.915Z</time></trkpt><trkpt lat="43.17248" lon="11.1534233"><ele>267.33333333333337</ele><time>2026-03-29T14:29:47.915Z</time></trkpt><trkpt lat="43.17264" lon="11.1532317"><ele>266.0</ele><time>2026-03-29T14:29:48.915Z</time></trkpt><trkpt lat="43.1727983" lon="11.1530333"><ele>266.0</ele><time>2026-03-29T14:29:49.915Z</time></trkpt><trkpt lat="43.1729633" lon="11.15283"><ele>266.0</ele><time>2026-03-29T14:29:50.915Z</time></trkpt><trkpt lat="43.1731233" lon="11.1526383"><ele>266.0</ele><time>2026-03-29T14:29:51.915Z</time></trkpt><trkpt lat="43.1732817" lon="11.15245"><ele>266.6666666666667</ele><time>2026-03-29T14:29:52.915Z</time></trkpt><trkpt lat="43.1734433" lon="11.1522617"><ele>267.3333333333333</ele><time>2026-03-29T14:29:53.915Z</time></trkpt><trkpt lat="43.173605" lon="11.1520733"><ele>268.0</ele><time>2026-03-29T14:29:54.915Z</time></trkpt><trkpt lat="43.1737667" lon="11.1518833"><ele>268.0</ele><time>2026-03-29T14:29:55.915Z</time></trkpt><trkpt lat="43.1739333" lon="11.15168"><ele>268.0</ele><time>2026-03-29T14:29:56.915Z</time></trkpt><trkpt lat="43.1741033" lon="11.1514733"><ele>267.66666666666663</ele><time>2026-03-29T14:29:57.915Z</time></trkpt><trkpt lat="43.17428" lon="11.151295"><ele>267.3333333333333</ele><time>2026-03-29T14:29:58.915Z</time></trkpt><trkpt lat="43.1744483" lon="11.1511267"><ele>267.0</ele><time>2026-03-29T14:29:59.915Z</time></trkpt><trkpt lat="43.1746117" lon="11.1509483"><ele>267.0</ele><time>2026-03-29T14:30:00.915Z</time></trkpt><trkpt lat="43.1747567" lon="11.15079"><ele>267.0</ele><time>2026-03-29T14:30:01.915Z</time></trkpt><trkpt lat="43.1749" lon="11.1506383"><ele>267.0</ele><time>2026-03-29T14:30:02.915Z</time></trkpt><trkpt lat="43.1750217" lon="11.1505017"><ele>268.25</ele><time>2026-03-29T14:30:03.915Z</time></trkpt><trkpt lat="43.1751417" lon="11.15039"><ele>269.5</ele><time>2026-03-29T14:30:04.915Z</time></trkpt><trkpt lat="43.1752533" lon="11.1502817"><ele>270.75</ele><time>2026-03-29T14:30:05.915Z</time></trkpt><trkpt lat="43.175365" lon="11.15018"><ele>272.0</ele><time>2026-03-29T14:30:06.915Z</time></trkpt><trkpt lat="43.1754833" lon="11.1500867"><ele>272.0</ele><time>2026-03-29T14:30:07.915Z</time></trkpt><trkpt lat="43.1755883" lon="11.1500033"><ele>272.0</ele><time>2026-03-29T14:30:08.915Z</time></trkpt><trkpt lat="43.1757067" lon="11.1499117"><ele>272.0</ele><time>2026-03-29T14:30:09.915Z</time></trkpt><trkpt lat="43.1758233" lon="11.1498383"><ele>272.0</ele><time>2026-03-29T14:30:10.916Z</time></trkpt><trkpt lat="43.1759483" lon="11.1497767"><ele>272.5</ele><time>2026-03-29T14:30:11.915Z</time></trkpt><trkpt lat="43.1760717" lon="11.1497267"><ele>273.0</ele><time>2026-03-29T14:30:12.915Z</time></trkpt><trkpt lat="43.1762033" lon="11.1496933"><ele>273.5</ele><time>2026-03-29T14:30:13.915Z</time></trkpt><trkpt lat="43.1763383" lon="11.1496583"><ele>274.0</ele><time>2026-03-29T14:30:14.915Z</time></trkpt><trkpt lat="43.1764717" lon="11.1496283"><ele>274.0</ele><time>2026-03-29T14:30:15.915Z</time></trkpt><trkpt lat="43.1766133" lon="11.1495967"><ele>274.0</ele><time>2026-03-29T14:30:16.915Z</time></trkpt><trkpt lat="43.1767717" lon="11.149565"><ele>274.0</ele><time>2026-03-29T14:30:17.915Z</time></trkpt><trkpt lat="43.1769567" lon="11.1495317"><ele>274.0</ele><time>2026-03-29T14:30:18.915Z</time></trkpt><trkpt lat="43.17718" lon="11.1495"><ele>274.0</ele><time>2026-03-29T14:30:19.915Z</time></trkpt><trkpt lat="43.1774283" lon="11.1494633"><ele>274.0</ele><time>2026-03-29T14:30:20.915Z</time></trkpt><trkpt lat="43.1777033" lon="11.1494183"><ele>274.0</ele><time>2026-03-29T14:30:21.915Z</time></trkpt><trkpt lat="43.1779983" lon="11.1493533"><ele>273.0</ele><time>2026-03-29T14:30:22.915Z</time></trkpt><trkpt lat="43.178315" lon="11.1492783"><ele>272.0</ele><time>2026-03-29T14:30:23.915Z</time></trkpt><trkpt lat="43.1786367" lon="11.149205"><ele>272.0</ele><time>2026-03-29T14:30:24.915Z</time></trkpt><trkpt lat="43.1789567" lon="11.1491183"><ele>272.0</ele><time>2026-03-29T14:30:25.915Z</time></trkpt><trkpt lat="43.1792467" lon="11.1490483"><ele>272.5</ele><time>2026-03-29T14:30:26.915Z</time></trkpt><trkpt lat="43.17952" lon="11.1489717"><ele>273.0</ele><time>2026-03-29T14:30:27.915Z</time></trkpt><trkpt lat="43.1797717" lon="11.1489033"><ele>271.5</ele><time>2026-03-29T14:30:28.915Z</time></trkpt><trkpt lat="43.1800067" lon="11.1488383"><ele>270.0</ele><time>2026-03-29T14:30:29.915Z</time></trkpt><trkpt lat="43.180235" lon="11.1487383"><ele>270.0</ele><time>2026-03-29T14:30:30.916Z</time></trkpt><trkpt lat="43.1804667" lon="11.14859"><ele>270.0</ele><time>2026-03-29T14:30:31.915Z</time></trkpt><trkpt lat="43.1807017" lon="11.1484033"><ele>270.0</ele><time>2026-03-29T14:30:32.915Z</time></trkpt><trkpt lat="43.180945" lon="11.1481883"><ele>270.0</ele><time>2026-03-29T14:30:33.915Z</time></trkpt><trkpt lat="43.1812067" lon="11.1479433"><ele>270.0</ele><time>2026-03-29T14:30:34.915Z</time></trkpt><trkpt lat="43.1814767" lon="11.147705"><ele>270.0</ele><time>2026-03-29T14:30:35.915Z</time></trkpt><trkpt lat="43.1817617" lon="11.1474533"><ele>271.5</ele><time>2026-03-29T14:30:36.915Z</time></trkpt><trkpt lat="43.1820517" lon="11.1471933"><ele>273.0</ele><time>2026-03-29T14:30:37.915Z</time></trkpt><trkpt lat="43.18235" lon="11.1469217"><ele>273.0</ele><time>2026-03-29T14:30:38.915Z</time></trkpt><trkpt lat="43.1826417" lon="11.1466567"><ele>273.0</ele><time>2026-03-29T14:30:39.915Z</time></trkpt><trkpt lat="43.1829267" lon="11.1464017"><ele>273.0</ele><time>2026-03-29T14:30:40.915Z</time></trkpt><trkpt lat="43.1832067" lon="11.1461533"><ele>273.0</ele><time>2026-03-29T14:30:41.915Z</time></trkpt><trkpt lat="43.18347" lon="11.1459183"><ele>275.5</ele><time>2026-03-29T14:30:42.915Z</time></trkpt><trkpt lat="43.18372" lon="11.1456933"><ele>278.0</ele><time>2026-03-29T14:30:43.915Z</time></trkpt><trkpt lat="43.183955" lon="11.1454717"><ele>276.5</ele><time>2026-03-29T14:30:44.915Z</time></trkpt><trkpt lat="43.1841883" lon="11.14526"><ele>275.0</ele><time>2026-03-29T14:30:45.915Z</time></trkpt><trkpt lat="43.1844133" lon="11.1450483"><ele>276.5</ele><time>2026-03-29T14:30:46.915Z</time></trkpt><trkpt lat="43.1846433" lon="11.1448483"><ele>278.0</ele><time>2026-03-29T14:30:47.915Z</time></trkpt><trkpt lat="43.1848683" lon="11.1446433"><ele>278.0</ele><time>2026-03-29T14:30:48.915Z</time></trkpt><trkpt lat="43.1851" lon="11.1444233"><ele>278.0</ele><time>2026-03-29T14:30:49.915Z</time></trkpt><trkpt lat="43.1853317" lon="11.1442133"><ele>278.5</ele><time>2026-03-29T14:30:50.915Z</time></trkpt><trkpt lat="43.1855567" lon="11.144015"><ele>279.0</ele><time>2026-03-29T14:30:51.915Z</time></trkpt><trkpt lat="43.1857667" lon="11.1438267"><ele>279.0</ele><time>2026-03-29T14:30:52.915Z</time></trkpt><trkpt lat="43.1859533" lon="11.1436567"><ele>279.0</ele><time>2026-03-29T14:30:53.915Z</time></trkpt><trkpt lat="43.1861467" lon="11.1434767"><ele>279.0</ele><time>2026-03-29T14:30:54.915Z</time></trkpt><trkpt lat="43.1863367" lon="11.1433067"><ele>279.0</ele><time>2026-03-29T14:30:55.915Z</time></trkpt><trkpt lat="43.1865267" lon="11.1431417"><ele>279.0</ele><time>2026-03-29T14:30:56.915Z</time></trkpt><trkpt lat="43.1867283" lon="11.1429683"><ele>279.0</ele><time>2026-03-29T14:30:57.915Z</time></trkpt><trkpt lat="43.186925" lon="11.1427933"><ele>279.0</ele><time>2026-03-29T14:30:58.915Z</time></trkpt><trkpt lat="43.1871217" lon="11.1426067"><ele>279.0</ele><time>2026-03-29T14:30:59.915Z</time></trkpt><trkpt lat="43.18732" lon="11.1424267"><ele>279.5</ele><time>2026-03-29T14:31:00.915Z</time></trkpt><trkpt lat="43.1875167" lon="11.14225"><ele>280.0</ele><time>2026-03-29T14:31:01.915Z</time></trkpt><trkpt lat="43.1877117" lon="11.142085"><ele>280.0</ele><time>2026-03-29T14:31:02.915Z</time></trkpt><trkpt lat="43.1879033" lon="11.1419433"><ele>280.0</ele><time>2026-03-29T14:31:03.915Z</time></trkpt><trkpt lat="43.1881067" lon="11.1418"><ele>280.0</ele><time>2026-03-29T14:31:04.915Z</time></trkpt><trkpt lat="43.1883167" lon="11.141695"><ele>280.3333333333333</ele><time>2026-03-29T14:31:05.915Z</time></trkpt><trkpt lat="43.18853" lon="11.14161"><ele>280.6666666666667</ele><time>2026-03-29T14:31:06.915Z</time></trkpt><trkpt lat="43.1887483" lon="11.1415417"><ele>281.0</ele><time>2026-03-29T14:31:07.915Z</time></trkpt><trkpt lat="43.1889833" lon="11.1415"><ele>280.5</ele><time>2026-03-29T14:31:08.915Z</time></trkpt><trkpt lat="43.1892217" lon="11.1414733"><ele>280.0</ele><time>2026-03-29T14:31:09.915Z</time></trkpt><trkpt lat="43.1894617" lon="11.141475"><ele>280.0</ele><time>2026-03-29T14:31:10.915Z</time></trkpt><trkpt lat="43.1896967" lon="11.1415117"><ele>280.0</ele><time>2026-03-29T14:31:11.915Z</time></trkpt><trkpt lat="43.1899233" lon="11.1415617"><ele>280.0</ele><time>2026-03-29T14:31:12.915Z</time></trkpt><trkpt lat="43.19017" lon="11.1416467"><ele>280.0</ele><time>2026-03-29T14:31:13.916Z</time></trkpt><trkpt lat="43.1904117" lon="11.1417533"><ele>280.0</ele><time>2026-03-29T14:31:14.915Z</time></trkpt><trkpt lat="43.1906517" lon="11.1418783"><ele>280.0</ele><time>2026-03-29T14:31:15.915Z</time></trkpt><trkpt lat="43.1908817" lon="11.142015"><ele>278.5</ele><time>2026-03-29T14:31:16.915Z</time></trkpt><trkpt lat="43.1911117" lon="11.1421633"><ele>277.0</ele><time>2026-03-29T14:31:17.915Z</time></trkpt><trkpt lat="43.1913417" lon="11.14231"><ele>276.5</ele><time>2026-03-29T14:31:18.915Z</time></trkpt><trkpt lat="43.1915717" lon="11.14244"><ele>276.0</ele><time>2026-03-29T14:31:19.915Z</time></trkpt><trkpt lat="43.191785" lon="11.1425867"><ele>276.0</ele><time>2026-03-29T14:31:20.915Z</time></trkpt><trkpt lat="43.1919983" lon="11.1427133"><ele>276.0</ele><time>2026-03-29T14:31:21.915Z</time></trkpt><trkpt lat="43.1922117" lon="11.1428383"><ele>275.0</ele><time>2026-03-29T14:31:22.916Z</time></trkpt><trkpt lat="43.1924217" lon="11.1429717"><ele>274.0</ele><time>2026-03-29T14:31:23.915Z</time></trkpt><trkpt lat="43.1926433" lon="11.143105"><ele>274.0</ele><time>2026-03-29T14:31:24.915Z</time></trkpt><trkpt lat="43.1928683" lon="11.1432417"><ele>274.0</ele><time>2026-03-29T14:31:25.915Z</time></trkpt><trkpt lat="43.193105" lon="11.1433783"><ele>275.0</ele><time>2026-03-29T14:31:26.915Z</time></trkpt><trkpt lat="43.1933317" lon="11.1435233"><ele>276.0</ele><time>2026-03-29T14:31:27.915Z</time></trkpt><trkpt lat="43.1935617" lon="11.1436667"><ele>276.0</ele><time>2026-03-29T14:31:28.915Z</time></trkpt><trkpt lat="43.1938017" lon="11.1438083"><ele>276.0</ele><time>2026-03-29T14:31:29.915Z</time></trkpt><trkpt lat="43.19403" lon="11.1439583"><ele>274.5</ele><time>2026-03-29T14:31:30.915Z</time></trkpt><trkpt lat="43.1942583" lon="11.14409"><ele>273.0</ele><time>2026-03-29T14:31:31.915Z</time></trkpt><trkpt lat="43.1944883" lon="11.1442233"><ele>273.0</ele><time>2026-03-29T14:31:32.915Z</time></trkpt><trkpt lat="43.1947133" lon="11.1443667"><ele>273.0</ele><time>2026-03-29T14:31:33.915Z</time></trkpt><trkpt lat="43.1949397" lon="11.1444978"><ele>273.0</ele><time>2026-03-29T14:31:34.915Z</time></trkpt><trkpt lat="43.1951638" lon="11.1446304"><ele>273.0</ele><time>2026-03-29T14:31:35.915Z</time></trkpt><trkpt lat="43.1953879" lon="11.1447619"><ele>273.5</ele><time>2026-03-29T14:31:36.915Z</time></trkpt><trkpt lat="43.195617" lon="11.1448964"><ele>274.0</ele><time>2026-03-29T14:31:37.915Z</time></trkpt><trkpt lat="43.1958502" lon="11.1450186"><ele>275.5</ele><time>2026-03-29T14:31:38.915Z</time></trkpt><trkpt lat="43.1960872" lon="11.1451331"><ele>277.0</ele><time>2026-03-29T14:31:39.915Z</time></trkpt><trkpt lat="43.1963184" lon="11.145228"><ele>278.0</ele><time>2026-03-29T14:31:40.915Z</time></trkpt><trkpt lat="43.1965397" lon="11.1453177"><ele>279.0</ele><time>2026-03-29T14:31:41.915Z</time></trkpt><trkpt lat="43.1967495" lon="11.1453922"><ele>280.0</ele><time>2026-03-29T14:31:42.915Z</time></trkpt><trkpt lat="43.1969527" lon="11.1454731"><ele>280.0</ele><time>2026-03-29T14:31:43.915Z</time></trkpt><trkpt lat="43.1971627" lon="11.1455367"><ele>280.0</ele><time>2026-03-29T14:31:44.915Z</time></trkpt><trkpt lat="43.1973756" lon="11.1455714"><ele>280.0</ele><time>2026-03-29T14:31:45.915Z</time></trkpt><trkpt lat="43.1975945" lon="11.1455718"><ele>283.0</ele><time>2026-03-29T14:31:46.915Z</time></trkpt><trkpt lat="43.1978166" lon="11.1455404"><ele>286.0</ele><time>2026-03-29T14:31:47.915Z</time></trkpt><trkpt lat="43.198039" lon="11.1454695"><ele>287.3333333333333</ele><time>2026-03-29T14:31:48.915Z</time></trkpt><trkpt lat="43.1982472" lon="11.1453853"><ele>288.6666666666667</ele><time>2026-03-29T14:31:49.915Z</time></trkpt><trkpt lat="43.1984644" lon="11.1453332"><ele>290.0</ele><time>2026-03-29T14:31:50.915Z</time></trkpt><trkpt lat="43.1986895" lon="11.1453237"><ele>290.0</ele><time>2026-03-29T14:31:51.915Z</time></trkpt><trkpt lat="43.198929" lon="11.1453577"><ele>290.0</ele><time>2026-03-29T14:31:52.915Z</time></trkpt><trkpt lat="43.1991764" lon="11.1454023"><ele>291.5</ele><time>2026-03-29T14:31:53.915Z</time></trkpt><trkpt lat="43.1994237" lon="11.1454534"><ele>293.0</ele><time>2026-03-29T14:31:54.915Z</time></trkpt><trkpt lat="43.1996627" lon="11.1455151"><ele>294.5</ele><time>2026-03-29T14:31:55.915Z</time></trkpt><trkpt lat="43.1998966" lon="11.1455888"><ele>296.0</ele><time>2026-03-29T14:31:56.915Z</time></trkpt><trkpt lat="43.2001266" lon="11.1456961"><ele>291.5</ele><time>2026-03-29T14:31:57.915Z</time></trkpt><trkpt lat="43.2003548" lon="11.1458438"><ele>287.0</ele><time>2026-03-29T14:31:58.915Z</time></trkpt><trkpt lat="43.2005683" lon="11.1460267"><ele>291.5</ele><time>2026-03-29T14:31:59.915Z</time></trkpt><trkpt lat="43.2007713" lon="11.1462148"><ele>296.0</ele><time>2026-03-29T14:32:00.915Z</time></trkpt><trkpt lat="43.2009674" lon="11.1463932"><ele>295.33333333333337</ele><time>2026-03-29T14:32:01.915Z</time></trkpt><trkpt lat="43.2011604" lon="11.146545"><ele>294.6666666666667</ele><time>2026-03-29T14:32:02.915Z</time></trkpt><trkpt lat="43.2013468" lon="11.1466861"><ele>294.0</ele><time>2026-03-29T14:32:03.915Z</time></trkpt><trkpt lat="43.2015338" lon="11.1468043"><ele>296.3333333333333</ele><time>2026-03-29T14:32:04.915Z</time></trkpt><trkpt lat="43.2017202" lon="11.1469085"><ele>298.66666666666663</ele><time>2026-03-29T14:32:05.915Z</time></trkpt><trkpt lat="43.2018986" lon="11.1469758"><ele>301.0</ele><time>2026-03-29T14:32:06.916Z</time></trkpt><trkpt lat="43.2020741" lon="11.1469874"><ele>301.0</ele><time>2026-03-29T14:32:07.915Z</time></trkpt><trkpt lat="43.2022532" lon="11.1469888"><ele>301.0</ele><time>2026-03-29T14:32:08.915Z</time></trkpt><trkpt lat="43.2024191" lon="11.1469959"><ele>301.0</ele><time>2026-03-29T14:32:09.915Z</time></trkpt><trkpt lat="43.2025807" lon="11.147059"><ele>300.0</ele><time>2026-03-29T14:32:10.915Z</time></trkpt><trkpt lat="43.2027284" lon="11.1471486"><ele>299.0</ele><time>2026-03-29T14:32:11.915Z</time></trkpt><trkpt lat="43.2028347" lon="11.1473064"><ele>298.0</ele><time>2026-03-29T14:32:12.915Z</time></trkpt><trkpt lat="43.2029242" lon="11.1475024"><ele>298.0</ele><time>2026-03-29T14:32:13.915Z</time></trkpt><trkpt lat="43.2030087" lon="11.1477351"><ele>298.0</ele><time>2026-03-29T14:32:14.915Z</time></trkpt><trkpt lat="43.2030969" lon="11.1479888"><ele>298.0</ele><time>2026-03-29T14:32:15.915Z</time></trkpt><trkpt lat="43.2032065" lon="11.1482615"><ele>303.0</ele><time>2026-03-29T14:32:16.915Z</time></trkpt><trkpt lat="43.2033527" lon="11.1485373"><ele>308.0</ele><time>2026-03-29T14:32:17.915Z</time></trkpt><trkpt lat="43.20351" lon="11.148782"><ele>308.0</ele><time>2026-03-29T14:32:18.915Z</time></trkpt><trkpt lat="43.2036615" lon="11.1490124"><ele>308.0</ele><time>2026-03-29T14:32:19.915Z</time></trkpt><trkpt lat="43.2038013" lon="11.1492197"><ele>308.0</ele><time>2026-03-29T14:32:20.915Z</time></trkpt><trkpt lat="43.2039278" lon="11.1494191"><ele>309.33333333333337</ele><time>2026-03-29T14:32:21.915Z</time></trkpt><trkpt lat="43.2040514" lon="11.1496132"><ele>310.6666666666667</ele><time>2026-03-29T14:32:22.915Z</time></trkpt><trkpt lat="43.2041789" lon="11.1497845"><ele>312.0</ele><time>2026-03-29T14:32:23.915Z</time></trkpt><trkpt lat="43.2043185" lon="11.1499157"><ele>314.0</ele><time>2026-03-29T14:32:24.915Z</time></trkpt><trkpt lat="43.2044601" lon="11.1499996"><ele>316.0</ele><time>2026-03-29T14:32:25.915Z</time></trkpt><trkpt lat="43.2046103" lon="11.1500132"><ele>318.0</ele><time>2026-03-29T14:32:26.915Z</time></trkpt><trkpt lat="43.2047496" lon="11.1499752"><ele>320.0</ele><time>2026-03-29T14:32:27.915Z</time></trkpt><trkpt lat="43.2048739" lon="11.1498595"><ele>320.0</ele><time>2026-03-29T14:32:28.915Z</time></trkpt><trkpt lat="43.2049873" lon="11.1496985"><ele>320.0</ele><time>2026-03-29T14:32:29.915Z</time></trkpt><trkpt lat="43.2050881" lon="11.1495285"><ele>320.0</ele><time>2026-03-29T14:32:30.915Z</time></trkpt><trkpt lat="43.2051928" lon="11.1493798"><ele>320.0</ele><time>2026-03-29T14:32:31.915Z</time></trkpt><trkpt lat="43.205307" lon="11.1492634"><ele>320.0</ele><time>2026-03-29T14:32:32.915Z</time></trkpt><trkpt lat="43.2054209" lon="11.1491648"><ele>320.0</ele><time>2026-03-29T14:32:33.915Z</time></trkpt><trkpt lat="43.2055065" lon="11.1490556"><ele>320.0</ele><time>2026-03-29T14:32:34.915Z</time></trkpt><trkpt lat="43.2055465" lon="11.1489197"><ele>321.75</ele><time>2026-03-29T14:32:35.915Z</time></trkpt><trkpt lat="43.2055561" lon="11.1487676"><ele>323.5</ele><time>2026-03-29T14:32:36.915Z</time></trkpt><trkpt lat="43.2055095" lon="11.1486223"><ele>325.25</ele><time>2026-03-29T14:32:37.915Z</time></trkpt><trkpt lat="43.205399" lon="11.1485087"><ele>327.0</ele><time>2026-03-29T14:32:38.915Z</time></trkpt><trkpt lat="43.2052627" lon="11.1484409"><ele>327.0</ele><time>2026-03-29T14:32:39.915Z</time></trkpt><trkpt lat="43.2051262" lon="11.1484154"><ele>327.0</ele><time>2026-03-29T14:32:40.915Z</time></trkpt><trkpt lat="43.205018" lon="11.1483973"><ele>327.0</ele><time>2026-03-29T14:32:41.915Z</time></trkpt><trkpt lat="43.2049295" lon="11.1483639"><ele>327.0</ele><time>2026-03-29T14:32:42.915Z</time></trkpt><trkpt lat="43.2048699" lon="11.148312"><ele>327.0</ele><time>2026-03-29T14:32:43.915Z</time></trkpt><trkpt lat="43.2048293" lon="11.1482406"><ele>327.6666666666667</ele><time>2026-03-29T14:32:44.915Z</time></trkpt><trkpt lat="43.2048121" lon="11.1481455"><ele>328.3333333333333</ele><time>2026-03-29T14:32:45.915Z</time></trkpt><trkpt lat="43.2048104" lon="11.1480432"><ele>329.0</ele><time>2026-03-29T14:32:46.915Z</time></trkpt><trkpt lat="43.204842" lon="11.1479541"><ele>329.66666666666663</ele><time>2026-03-29T14:32:47.915Z</time></trkpt><trkpt lat="43.2048958" lon="11.1478781"><ele>330.3333333333333</ele><time>2026-03-29T14:32:48.915Z</time></trkpt><trkpt lat="43.2049796" lon="11.147827"><ele>331.0</ele><time>2026-03-29T14:32:49.915Z</time></trkpt><trkpt lat="43.2050956" lon="11.147803"><ele>334.0</ele><time>2026-03-29T14:32:50.915Z</time></trkpt><trkpt lat="43.2052516" lon="11.1478088"><ele>337.0</ele><time>2026-03-29T14:32:51.915Z</time></trkpt><trkpt lat="43.2054428" lon="11.1478581"><ele>340.0</ele><time>2026-03-29T14:32:52.915Z</time></trkpt><trkpt lat="43.2056174" lon="11.1479295"><ele>340.5</ele><time>2026-03-29T14:32:53.915Z</time></trkpt><trkpt lat="43.205772" lon="11.1480165"><ele>341.0</ele><time>2026-03-29T14:32:54.915Z</time></trkpt><trkpt lat="43.2059068" lon="11.1481066"><ele>341.5</ele><time>2026-03-29T14:32:55.915Z</time></trkpt><trkpt lat="43.2060116" lon="11.1481915"><ele>342.0</ele><time>2026-03-29T14:32:56.915Z</time></trkpt><trkpt lat="43.2060997" lon="11.1482636"><ele>340.8</ele><time>2026-03-29T14:32:57.915Z</time></trkpt><trkpt lat="43.2061865" lon="11.1483335"><ele>339.6</ele><time>2026-03-29T14:32:58.915Z</time></trkpt><trkpt lat="43.206277" lon="11.1484045"><ele>338.40000000000003</ele><time>2026-03-29T14:32:59.915Z</time></trkpt><trkpt lat="43.2063674" lon="11.1484823"><ele>337.20000000000005</ele><time>2026-03-29T14:33:00.915Z</time></trkpt><trkpt lat="43.206465" lon="11.1485745"><ele>336.0</ele><time>2026-03-29T14:33:01.915Z</time></trkpt><trkpt lat="43.2065907" lon="11.1486802"><ele>337.6666666666667</ele><time>2026-03-29T14:33:02.915Z</time></trkpt><trkpt lat="43.2067446" lon="11.1488061"><ele>339.33333333333337</ele><time>2026-03-29T14:33:03.915Z</time></trkpt><trkpt lat="43.2069303" lon="11.1489508"><ele>341.0</ele><time>2026-03-29T14:33:04.915Z</time></trkpt><trkpt lat="43.2071195" lon="11.1490925"><ele>341.0</ele><time>2026-03-29T14:33:05.915Z</time></trkpt><trkpt lat="43.2073085" lon="11.1492421"><ele>341.0</ele><time>2026-03-29T14:33:06.915Z</time></trkpt><trkpt lat="43.2075113" lon="11.1494089"><ele>347.0</ele><time>2026-03-29T14:33:07.915Z</time></trkpt><trkpt lat="43.2077138" lon="11.1495875"><ele>353.0</ele><time>2026-03-29T14:33:08.915Z</time></trkpt><trkpt lat="43.2079025" lon="11.1497739"><ele>353.6666666666667</ele><time>2026-03-29T14:33:09.915Z</time></trkpt><trkpt lat="43.2080697" lon="11.1499812"><ele>354.3333333333333</ele><time>2026-03-29T14:33:10.915Z</time></trkpt><trkpt lat="43.2082067" lon="11.1502122"><ele>355.0</ele><time>2026-03-29T14:33:11.915Z</time></trkpt><trkpt lat="43.2083101" lon="11.150453"><ele>355.66666666666663</ele><time>2026-03-29T14:33:12.915Z</time></trkpt><trkpt lat="43.2084008" lon="11.1507002"><ele>356.3333333333333</ele><time>2026-03-29T14:33:13.915Z</time></trkpt><trkpt lat="43.2084755" lon="11.1509395"><ele>357.0</ele><time>2026-03-29T14:33:14.915Z</time></trkpt><trkpt lat="43.2085633" lon="11.1511333"><ele>360.0</ele><time>2026-03-29T14:33:15.915Z</time></trkpt><trkpt lat="43.20868" lon="11.1512983"><ele>363.0</ele><time>2026-03-29T14:33:16.915Z</time></trkpt><trkpt lat="43.2088133" lon="11.1514133"><ele>366.0</ele><time>2026-03-29T14:33:17.915Z</time></trkpt><trkpt lat="43.2089717" lon="11.1514733"><ele>366.0</ele><time>2026-03-29T14:33:18.915Z</time></trkpt><trkpt lat="43.2091583" lon="11.1514733"><ele>366.0</ele><time>2026-03-29T14:33:19.915Z</time></trkpt><trkpt lat="43.2093483" lon="11.1514483"><ele>366.0</ele><time>2026-03-29T14:33:20.915Z</time></trkpt><trkpt lat="43.2095433" lon="11.1513933"><ele>366.0</ele><time>2026-03-29T14:33:21.915Z</time></trkpt><trkpt lat="43.2097333" lon="11.1513383"><ele>366.0</ele><time>2026-03-29T14:33:22.915Z</time></trkpt><trkpt lat="43.20991" lon="11.1512833"><ele>366.0</ele><time>2026-03-29T14:33:23.915Z</time></trkpt><trkpt lat="43.210085" lon="11.1512383"><ele>367.6666666666667</ele><time>2026-03-29T14:33:24.915Z</time></trkpt><trkpt lat="43.2102617" lon="11.1512"><ele>369.33333333333337</ele><time>2026-03-29T14:33:25.915Z</time></trkpt><trkpt lat="43.2104267" lon="11.1511717"><ele>371.0</ele><time>2026-03-29T14:33:26.915Z</time></trkpt><trkpt lat="43.2106" lon="11.151155"><ele>372.33333333333337</ele><time>2026-03-29T14:33:27.915Z</time></trkpt><trkpt lat="43.210785" lon="11.1511367"><ele>373.6666666666667</ele><time>2026-03-29T14:33:28.915Z</time></trkpt><trkpt lat="43.210975" lon="11.15114"><ele>375.0</ele><time>2026-03-29T14:33:29.915Z</time></trkpt><trkpt lat="43.2111683" lon="11.1511517"><ele>375.0</ele><time>2026-03-29T14:33:30.915Z</time></trkpt><trkpt lat="43.2113533" lon="11.1511583"><ele>375.0</ele><time>2026-03-29T14:33:31.915Z</time></trkpt><trkpt lat="43.2115333" lon="11.15117"><ele>375.0</ele><time>2026-03-29T14:33:32.915Z</time></trkpt><trkpt lat="43.211715" lon="11.1511817"><ele>376.6666666666667</ele><time>2026-03-29T14:33:33.915Z</time></trkpt><trkpt lat="43.2118833" lon="11.1511967"><ele>378.33333333333337</ele><time>2026-03-29T14:33:34.915Z</time></trkpt><trkpt lat="43.21205" lon="11.1512217"><ele>380.0</ele><time>2026-03-29T14:33:35.915Z</time></trkpt><trkpt lat="43.212215" lon="11.1512783"><ele>381.33333333333337</ele><time>2026-03-29T14:33:36.915Z</time></trkpt><trkpt lat="43.21238" lon="11.1513767"><ele>382.6666666666667</ele><time>2026-03-29T14:33:37.915Z</time></trkpt><trkpt lat="43.2125367" lon="11.1515067"><ele>384.0</ele><time>2026-03-29T14:33:38.915Z</time></trkpt><trkpt lat="43.21267" lon="11.1516717"><ele>386.66666666666663</ele><time>2026-03-29T14:33:39.915Z</time></trkpt><trkpt lat="43.2127683" lon="11.151885"><ele>389.3333333333333</ele><time>2026-03-29T14:33:40.916Z</time></trkpt><trkpt lat="43.2128617" lon="11.1521117"><ele>392.0</ele><time>2026-03-29T14:33:41.915Z</time></trkpt><trkpt lat="43.2129433" lon="11.15233"><ele>394.3333333333333</ele><time>2026-03-29T14:33:42.915Z</time></trkpt><trkpt lat="43.213015" lon="11.15255"><ele>396.66666666666663</ele><time>2026-03-29T14:33:43.915Z</time></trkpt><trkpt lat="43.2130867" lon="11.15277"><ele>399.0</ele><time>2026-03-29T14:33:44.915Z</time></trkpt><trkpt lat="43.21315" lon="11.1529833"><ele>399.33333333333337</ele><time>2026-03-29T14:33:45.915Z</time></trkpt><trkpt lat="43.21322" lon="11.1531933"><ele>399.6666666666667</ele><time>2026-03-29T14:33:46.915Z</time></trkpt><trkpt lat="43.21329" lon="11.1534117"><ele>400.0</ele><time>2026-03-29T14:33:47.915Z</time></trkpt><trkpt lat="43.213385" lon="11.1535967"><ele>400.0</ele><time>2026-03-29T14:33:48.915Z</time></trkpt><trkpt lat="43.2135033" lon="11.15376"><ele>400.0</ele><time>2026-03-29T14:33:49.915Z</time></trkpt><trkpt lat="43.2136283" lon="11.153885"><ele>400.0</ele><time>2026-03-29T14:33:50.915Z</time></trkpt><trkpt lat="43.2137833" lon="11.1539683"><ele>400.0</ele><time>2026-03-29T14:33:51.915Z</time></trkpt><trkpt lat="43.213955" lon="11.1539967"><ele>400.0</ele><time>2026-03-29T14:33:52.915Z</time></trkpt><trkpt lat="43.21413" lon="11.153985"><ele>400.0</ele><time>2026-03-29T14:33:53.915Z</time></trkpt><trkpt lat="43.214305" lon="11.1539533"><ele>400.33333333333337</ele><time>2026-03-29T14:33:54.915Z</time></trkpt><trkpt lat="43.2144783" lon="11.1539283"><ele>400.66666666666663</ele><time>2026-03-29T14:33:55.915Z</time></trkpt><trkpt lat="43.2146567" lon="11.153895"><ele>401.0</ele><time>2026-03-29T14:33:56.915Z</time></trkpt><trkpt lat="43.2148317" lon="11.153865"><ele>402.0</ele><time>2026-03-29T14:33:57.915Z</time></trkpt><trkpt lat="43.2150117" lon="11.153825"><ele>403.0</ele><time>2026-03-29T14:33:58.915Z</time></trkpt><trkpt lat="43.2152083" lon="11.1538067"><ele>404.0</ele><time>2026-03-29T14:33:59.915Z</time></trkpt><trkpt lat="43.2153883" lon="11.1538083"><ele>404.0</ele><time>2026-03-29T14:34:00.915Z</time></trkpt><trkpt lat="43.2155633" lon="11.1538617"><ele>404.0</ele><time>2026-03-29T14:34:01.915Z</time></trkpt><trkpt lat="43.2157383" lon="11.15397"><ele>404.0</ele><time>2026-03-29T14:34:02.915Z</time></trkpt><trkpt lat="43.2159017" lon="11.154115"><ele>406.66666666666663</ele><time>2026-03-29T14:34:03.915Z</time></trkpt><trkpt lat="43.2160433" lon="11.154295"><ele>409.33333333333337</ele><time>2026-03-29T14:34:04.915Z</time></trkpt><trkpt lat="43.21617" lon="11.1544817"><ele>412.0</ele><time>2026-03-29T14:34:05.915Z</time></trkpt><trkpt lat="43.216285" lon="11.1546617"><ele>412.0</ele><time>2026-03-29T14:34:06.915Z</time></trkpt><trkpt lat="43.2163517" lon="11.1548167"><ele>412.0</ele><time>2026-03-29T14:34:07.915Z</time></trkpt><trkpt lat="43.2163733" lon="11.1549933"><ele>412.0</ele><time>2026-03-29T14:34:08.915Z</time></trkpt><trkpt lat="43.2163683" lon="11.1551667"><ele>412.0</ele><time>2026-03-29T14:34:09.915Z</time></trkpt><trkpt lat="43.2163883" lon="11.1553267"><ele>412.0</ele><time>2026-03-29T14:34:10.915Z</time></trkpt><trkpt lat="43.2164617" lon="11.1554517"><ele>412.0</ele><time>2026-03-29T14:34:11.915Z</time></trkpt><trkpt lat="43.216575" lon="11.1555483"><ele>412.0</ele><time>2026-03-29T14:34:12.915Z</time></trkpt><trkpt lat="43.2167033" lon="11.1556317"><ele>412.0</ele><time>2026-03-29T14:34:13.915Z</time></trkpt><trkpt lat="43.2168083" lon="11.1557283"><ele>413.8</ele><time>2026-03-29T14:34:14.915Z</time></trkpt><trkpt lat="43.2168717" lon="11.15586"><ele>415.6</ele><time>2026-03-29T14:34:15.915Z</time></trkpt><trkpt lat="43.2168833" lon="11.1560067"><ele>417.40000000000003</ele><time>2026-03-29T14:34:16.915Z</time></trkpt><trkpt lat="43.2168583" lon="11.1561633"><ele>419.20000000000005</ele><time>2026-03-29T14:34:17.915Z</time></trkpt><trkpt lat="43.2168467" lon="11.1563033"><ele>421.0</ele><time>2026-03-29T14:34:18.915Z</time></trkpt><trkpt lat="43.2168767" lon="11.1564283"><ele>421.0</ele><time>2026-03-29T14:34:19.915Z</time></trkpt><trkpt lat="43.2169283" lon="11.156505"><ele>421.0</ele><time>2026-03-29T14:34:20.915Z</time></trkpt><trkpt lat="43.2170033" lon="11.1565333"><ele>421.0</ele><time>2026-03-29T14:34:21.915Z</time></trkpt><trkpt lat="43.2171083" lon="11.156525"><ele>421.0</ele><time>2026-03-29T14:34:22.915Z</time></trkpt><trkpt lat="43.2172317" lon="11.1564967"><ele>421.0</ele><time>2026-03-29T14:34:23.915Z</time></trkpt><trkpt lat="43.2173517" lon="11.1565133"><ele>422.20000000000005</ele><time>2026-03-29T14:34:24.915Z</time></trkpt><trkpt lat="43.2174467" lon="11.15658"><ele>423.40000000000003</ele><time>2026-03-29T14:34:25.915Z</time></trkpt><trkpt lat="43.2175167" lon="11.1566783"><ele>424.6</ele><time>2026-03-29T14:34:26.915Z</time></trkpt><trkpt lat="43.2175983" lon="11.1567783"><ele>425.8</ele><time>2026-03-29T14:34:27.915Z</time></trkpt><trkpt lat="43.217695" lon="11.156815"><ele>427.0</ele><time>2026-03-29T14:34:28.915Z</time></trkpt><trkpt lat="43.2178083" lon="11.1567733"><ele>427.0</ele><time>2026-03-29T14:34:29.915Z</time></trkpt><trkpt lat="43.2179117" lon="11.1566633"><ele>427.0</ele><time>2026-03-29T14:34:30.915Z</time></trkpt><trkpt lat="43.2180317" lon="11.1565217"><ele>427.0</ele><time>2026-03-29T14:34:31.915Z</time></trkpt><trkpt lat="43.2181517" lon="11.1563817"><ele>427.0</ele><time>2026-03-29T14:34:32.915Z</time></trkpt><trkpt lat="43.21828" lon="11.156255"><ele>426.5</ele><time>2026-03-29T14:34:33.915Z</time></trkpt><trkpt lat="43.2183983" lon="11.1561467"><ele>426.0</ele><time>2026-03-29T14:34:34.915Z</time></trkpt><trkpt lat="43.2185167" lon="11.1560933"><ele>425.5</ele><time>2026-03-29T14:34:35.915Z</time></trkpt><trkpt lat="43.2186417" lon="11.156065"><ele>425.0</ele><time>2026-03-29T14:34:36.916Z</time></trkpt><trkpt lat="43.218755" lon="11.1561133"><ele>425.0</ele><time>2026-03-29T14:34:37.915Z</time></trkpt><trkpt lat="43.21887" lon="11.1562267"><ele>425.0</ele><time>2026-03-29T14:34:38.915Z</time></trkpt><trkpt lat="43.218985" lon="11.15637"><ele>425.0</ele><time>2026-03-29T14:34:39.915Z</time></trkpt><trkpt lat="43.2191117" lon="11.15648"><ele>425.0</ele><time>2026-03-29T14:34:40.915Z</time></trkpt><trkpt lat="43.2192617" lon="11.1565683"><ele>428.0</ele><time>2026-03-29T14:34:41.915Z</time></trkpt><trkpt lat="43.21941" lon="11.156615"><ele>431.0</ele><time>2026-03-29T14:34:42.915Z</time></trkpt><trkpt lat="43.2195517" lon="11.15666"><ele>434.0</ele><time>2026-03-29T14:34:43.915Z</time></trkpt><trkpt lat="43.2196917" lon="11.1567467"><ele>431.0</ele><time>2026-03-29T14:34:44.915Z</time></trkpt><trkpt lat="43.21983" lon="11.15688"><ele>428.0</ele><time>2026-03-29T14:34:45.916Z</time></trkpt><trkpt lat="43.21995" lon="11.1570667"><ele>425.0</ele><time>2026-03-29T14:34:46.915Z</time></trkpt><trkpt lat="43.2200633" lon="11.1572683"><ele>428.3333333333333</ele><time>2026-03-29T14:34:47.915Z</time></trkpt><trkpt lat="43.220135" lon="11.15747"><ele>431.66666666666663</ele><time>2026-03-29T14:34:48.915Z</time></trkpt><trkpt lat="43.2201917" lon="11.1576717"><ele>435.0</ele><time>2026-03-29T14:34:49.915Z</time></trkpt><trkpt lat="43.2202131" lon="11.1578594"><ele>435.0</ele><time>2026-03-29T14:34:50.915Z</time></trkpt><trkpt lat="43.2201916" lon="11.1580283"><ele>435.0</ele><time>2026-03-29T14:34:51.915Z</time></trkpt><trkpt lat="43.220122" lon="11.158191"><ele>435.0</ele><time>2026-03-29T14:34:52.915Z</time></trkpt><trkpt lat="43.2200147" lon="11.1583491"><ele>435.0</ele><time>2026-03-29T14:34:53.915Z</time></trkpt><trkpt lat="43.2198991" lon="11.158526"><ele>439.0</ele><time>2026-03-29T14:34:54.915Z</time></trkpt><trkpt lat="43.2197849" lon="11.1587186"><ele>443.0</ele><time>2026-03-29T14:34:55.915Z</time></trkpt><trkpt lat="43.2197" lon="11.1589346"><ele>447.0</ele><time>2026-03-29T14:34:56.915Z</time></trkpt><trkpt lat="43.2196431" lon="11.159165"><ele>447.0</ele><time>2026-03-29T14:34:57.915Z</time></trkpt><trkpt lat="43.2196262" lon="11.1594068"><ele>447.0</ele><time>2026-03-29T14:34:58.915Z</time></trkpt><trkpt lat="43.2196427" lon="11.1596579"><ele>447.0</ele><time>2026-03-29T14:34:59.915Z</time></trkpt><trkpt lat="43.2196868" lon="11.1599113"><ele>447.0</ele><time>2026-03-29T14:35:00.915Z</time></trkpt><trkpt lat="43.2197461" lon="11.160157"><ele>447.0</ele><time>2026-03-29T14:35:01.915Z</time></trkpt><trkpt lat="43.2198231" lon="11.1603913"><ele>447.0</ele><time>2026-03-29T14:35:02.915Z</time></trkpt><trkpt lat="43.219923" lon="11.1606168"><ele>443.66666666666663</ele><time>2026-03-29T14:35:03.915Z</time></trkpt><trkpt lat="43.2200567" lon="11.1608219"><ele>440.3333333333333</ele><time>2026-03-29T14:35:04.915Z</time></trkpt><trkpt lat="43.2202001" lon="11.1610204"><ele>437.0</ele><time>2026-03-29T14:35:05.915Z</time></trkpt><trkpt lat="43.220346" lon="11.1612095"><ele>437.0</ele><time>2026-03-29T14:35:06.915Z</time></trkpt><trkpt lat="43.220489" lon="11.1613983"><ele>437.0</ele><time>2026-03-29T14:35:07.915Z</time></trkpt><trkpt lat="43.2206265" lon="11.1615984"><ele>437.0</ele><time>2026-03-29T14:35:08.915Z</time></trkpt><trkpt lat="43.220746" lon="11.1618063"><ele>434.0</ele><time>2026-03-29T14:35:09.916Z</time></trkpt><trkpt lat="43.2209378" lon="11.1625885"><ele>434.0</ele><time>2026-03-29T14:35:12.915Z</time></trkpt><trkpt lat="43.220987" lon="11.1628714"><ele>434.0</ele><time>2026-03-29T14:35:13.915Z</time></trkpt><trkpt lat="43.2210376" lon="11.1631558"><ele>434.0</ele><time>2026-03-29T14:35:14.915Z</time></trkpt><trkpt lat="43.2210944" lon="11.1634183"><ele>433.5</ele><time>2026-03-29T14:35:15.915Z</time></trkpt><trkpt lat="43.2211505" lon="11.1636422"><ele>433.0</ele><time>2026-03-29T14:35:16.915Z</time></trkpt><trkpt lat="43.2212033" lon="11.1638277"><ele>432.5</ele><time>2026-03-29T14:35:17.915Z</time></trkpt><trkpt lat="43.221271" lon="11.1639661"><ele>432.0</ele><time>2026-03-29T14:35:18.915Z</time></trkpt><trkpt lat="43.2213576" lon="11.1640752"><ele>432.25</ele><time>2026-03-29T14:35:19.915Z</time></trkpt><trkpt lat="43.2214685" lon="11.1641215"><ele>432.5</ele><time>2026-03-29T14:35:20.915Z</time></trkpt><trkpt lat="43.2215994" lon="11.1641133"><ele>432.75</ele><time>2026-03-29T14:35:21.915Z</time></trkpt><trkpt lat="43.221755" lon="11.1640702"><ele>433.0</ele><time>2026-03-29T14:35:22.915Z</time></trkpt><trkpt lat="43.2219176" lon="11.1640387"><ele>433.0</ele><time>2026-03-29T14:35:23.915Z</time></trkpt><trkpt lat="43.2220816" lon="11.1640366"><ele>433.0</ele><time>2026-03-29T14:35:24.915Z</time></trkpt><trkpt lat="43.222251" lon="11.1640993"><ele>433.0</ele><time>2026-03-29T14:35:25.915Z</time></trkpt><trkpt lat="43.2224334" lon="11.164218"><ele>433.6666666666667</ele><time>2026-03-29T14:35:26.915Z</time></trkpt><trkpt lat="43.2226162" lon="11.1643451"><ele>434.33333333333337</ele><time>2026-03-29T14:35:27.915Z</time></trkpt><trkpt lat="43.2227942" lon="11.1644544"><ele>435.0</ele><time>2026-03-29T14:35:28.915Z</time></trkpt><trkpt lat="43.2229602" lon="11.1645562"><ele>435.0</ele><time>2026-03-29T14:35:29.915Z</time></trkpt><trkpt lat="43.2231166" lon="11.164684"><ele>435.0</ele><time>2026-03-29T14:35:30.915Z</time></trkpt><trkpt lat="43.2232525" lon="11.1648259"><ele>435.0</ele><time>2026-03-29T14:35:31.915Z</time></trkpt><trkpt lat="43.2233676" lon="11.1650178"><ele>434.33333333333337</ele><time>2026-03-29T14:35:32.915Z</time></trkpt><trkpt lat="43.2234483" lon="11.1652479"><ele>433.6666666666667</ele><time>2026-03-29T14:35:33.915Z</time></trkpt><trkpt lat="43.2235001" lon="11.1654907"><ele>433.0</ele><time>2026-03-29T14:35:34.915Z</time></trkpt><trkpt lat="43.2235231" lon="11.1657268"><ele>432.6666666666667</ele><time>2026-03-29T14:35:35.915Z</time></trkpt><trkpt lat="43.2235183" lon="11.1659643"><ele>432.33333333333337</ele><time>2026-03-29T14:35:36.915Z</time></trkpt><trkpt lat="43.2234919" lon="11.1661973"><ele>432.0</ele><time>2026-03-29T14:35:37.915Z</time></trkpt><trkpt lat="43.2234799" lon="11.1664193"><ele>431.33333333333337</ele><time>2026-03-29T14:35:38.915Z</time></trkpt><trkpt lat="43.2234999" lon="11.1666357"><ele>430.6666666666667</ele><time>2026-03-29T14:35:39.915Z</time></trkpt><trkpt lat="43.2235457" lon="11.1668364"><ele>430.0</ele><time>2026-03-29T14:35:40.915Z</time></trkpt><trkpt lat="43.2236199" lon="11.1670096"><ele>430.0</ele><time>2026-03-29T14:35:41.915Z</time></trkpt><trkpt lat="43.2237072" lon="11.1671511"><ele>430.0</ele><time>2026-03-29T14:35:42.915Z</time></trkpt><trkpt lat="43.2238005" lon="11.1672471"><ele>430.0</ele><time>2026-03-29T14:35:43.915Z</time></trkpt><trkpt lat="43.2239" lon="11.1672976"><ele>430.0</ele><time>2026-03-29T14:35:44.915Z</time></trkpt><trkpt lat="43.2239954" lon="11.1672965"><ele>429.5</ele><time>2026-03-29T14:35:45.915Z</time></trkpt><trkpt lat="43.2240894" lon="11.1672444"><ele>429.0</ele><time>2026-03-29T14:35:46.915Z</time></trkpt><trkpt lat="43.2241719" lon="11.1671405"><ele>428.5</ele><time>2026-03-29T14:35:47.915Z</time></trkpt><trkpt lat="43.2242403" lon="11.1669815"><ele>428.0</ele><time>2026-03-29T14:35:48.915Z</time></trkpt><trkpt lat="43.2242935" lon="11.1668032"><ele>428.0</ele><time>2026-03-29T14:35:49.915Z</time></trkpt><trkpt lat="43.2243303" lon="11.1666466"><ele>427.99999999999994</ele><time>2026-03-29T14:35:50.915Z</time></trkpt><trkpt lat="43.2243675" lon="11.1665216"><ele>427.99999999999994</ele><time>2026-03-29T14:35:51.915Z</time></trkpt><trkpt lat="43.2244182" lon="11.1664294"><ele>428.0</ele><time>2026-03-29T14:35:52.915Z</time></trkpt><trkpt lat="43.2244816" lon="11.1663677"><ele>428.0</ele><time>2026-03-29T14:35:53.915Z</time></trkpt><trkpt lat="43.2245575" lon="11.1663385"><ele>428.0</ele><time>2026-03-29T14:35:54.915Z</time></trkpt><trkpt lat="43.2246492" lon="11.1663454"><ele>428.0</ele><time>2026-03-29T14:35:55.915Z</time></trkpt><trkpt lat="43.2247332" lon="11.1664019"><ele>428.0</ele><time>2026-03-29T14:35:56.915Z</time></trkpt><trkpt lat="43.2248086" lon="11.1665286"><ele>428.0</ele><time>2026-03-29T14:35:57.915Z</time></trkpt><trkpt lat="43.2248753" lon="11.1667157"><ele>426.3333333333333</ele><time>2026-03-29T14:35:58.915Z</time></trkpt><trkpt lat="43.2249243" lon="11.1669667"><ele>424.66666666666663</ele><time>2026-03-29T14:35:59.915Z</time></trkpt><trkpt lat="43.2249554" lon="11.1672523"><ele>423.0</ele><time>2026-03-29T14:36:00.915Z</time></trkpt><trkpt lat="43.2249722" lon="11.1675529"><ele>420.66666666666663</ele><time>2026-03-29T14:36:01.915Z</time></trkpt><trkpt lat="43.2249902" lon="11.16784"><ele>418.3333333333333</ele><time>2026-03-29T14:36:02.915Z</time></trkpt><trkpt lat="43.2250006" lon="11.1681138"><ele>416.0</ele><time>2026-03-29T14:36:03.915Z</time></trkpt><trkpt lat="43.2250225" lon="11.1683752"><ele>416.0</ele><time>2026-03-29T14:36:04.915Z</time></trkpt><trkpt lat="43.2250618" lon="11.1686256"><ele>416.0</ele><time>2026-03-29T14:36:05.915Z</time></trkpt><trkpt lat="43.2251178" lon="11.1688515"><ele>416.0</ele><time>2026-03-29T14:36:06.915Z</time></trkpt><trkpt lat="43.2251796" lon="11.1690621"><ele>417.66666666666663</ele><time>2026-03-29T14:36:07.915Z</time></trkpt><trkpt lat="43.2252517" lon="11.169273"><ele>419.33333333333337</ele><time>2026-03-29T14:36:08.915Z</time></trkpt><trkpt lat="43.2253157" lon="11.1695019"><ele>421.0</ele><time>2026-03-29T14:36:09.915Z</time></trkpt><trkpt lat="43.2253713" lon="11.1697388"><ele>421.33333333333337</ele><time>2026-03-29T14:36:10.915Z</time></trkpt><trkpt lat="43.2254285" lon="11.1699891"><ele>421.66666666666663</ele><time>2026-03-29T14:36:11.915Z</time></trkpt><trkpt lat="43.2254778" lon="11.1702519"><ele>422.0</ele><time>2026-03-29T14:36:12.915Z</time></trkpt><trkpt lat="43.2255147" lon="11.1705268"><ele>421.3333333333333</ele><time>2026-03-29T14:36:13.915Z</time></trkpt><trkpt lat="43.2255407" lon="11.1707984"><ele>420.66666666666663</ele><time>2026-03-29T14:36:14.915Z</time></trkpt><trkpt lat="43.2255603" lon="11.1710723"><ele>420.0</ele><time>2026-03-29T14:36:15.915Z</time></trkpt><trkpt lat="43.2255647" lon="11.171349"><ele>419.0</ele><time>2026-03-29T14:36:16.915Z</time></trkpt><trkpt lat="43.2255742" lon="11.1716199"><ele>418.0</ele><time>2026-03-29T14:36:17.915Z</time></trkpt><trkpt lat="43.225583" lon="11.1718658"><ele>417.0</ele><time>2026-03-29T14:36:18.915Z</time></trkpt><trkpt lat="43.2256146" lon="11.1720875"><ele>414.5</ele><time>2026-03-29T14:36:19.915Z</time></trkpt><trkpt lat="43.2256657" lon="11.1722817"><ele>412.0</ele><time>2026-03-29T14:36:20.915Z</time></trkpt><trkpt lat="43.2257323" lon="11.1724461"><ele>409.5</ele><time>2026-03-29T14:36:21.915Z</time></trkpt><trkpt lat="43.2258212" lon="11.1725776"><ele>407.0</ele><time>2026-03-29T14:36:22.915Z</time></trkpt><trkpt lat="43.225947" lon="11.1726691"><ele>406.3333333333333</ele><time>2026-03-29T14:36:23.915Z</time></trkpt><trkpt lat="43.2261169" lon="11.1727087"><ele>405.66666666666663</ele><time>2026-03-29T14:36:24.915Z</time></trkpt><trkpt lat="43.2263059" lon="11.1727464"><ele>405.0</ele><time>2026-03-29T14:36:25.915Z</time></trkpt><trkpt lat="43.2265013" lon="11.1728043"><ele>401.33333333333337</ele><time>2026-03-29T14:36:26.915Z</time></trkpt><trkpt lat="43.2267064" lon="11.1728793"><ele>397.6666666666667</ele><time>2026-03-29T14:36:27.915Z</time></trkpt><trkpt lat="43.2269226" lon="11.1729683"><ele>394.0</ele><time>2026-03-29T14:36:28.915Z</time></trkpt><trkpt lat="43.2271469" lon="11.1730613"><ele>393.0</ele><time>2026-03-29T14:36:29.915Z</time></trkpt><trkpt lat="43.2273668" lon="11.1731518"><ele>392.0</ele><time>2026-03-29T14:36:30.915Z</time></trkpt><trkpt lat="43.2275809" lon="11.1732391"><ele>392.0</ele><time>2026-03-29T14:36:31.915Z</time></trkpt><trkpt lat="43.2277866" lon="11.1733313"><ele>392.0</ele><time>2026-03-29T14:36:32.915Z</time></trkpt><trkpt lat="43.2279887" lon="11.1734354"><ele>392.0</ele><time>2026-03-29T14:36:33.916Z</time></trkpt><trkpt lat="43.2281843" lon="11.1735621"><ele>389.66666666666663</ele><time>2026-03-29T14:36:34.915Z</time></trkpt><trkpt lat="43.2283711" lon="11.1737101"><ele>387.33333333333337</ele><time>2026-03-29T14:36:35.915Z</time></trkpt><trkpt lat="43.2285486" lon="11.1738746"><ele>385.0</ele><time>2026-03-29T14:36:36.915Z</time></trkpt><trkpt lat="43.2287141" lon="11.1740577"><ele>385.0</ele><time>2026-03-29T14:36:37.915Z</time></trkpt><trkpt lat="43.2288484" lon="11.1742458"><ele>385.0</ele><time>2026-03-29T14:36:38.915Z</time></trkpt><trkpt lat="43.2289397" lon="11.1744257"><ele>385.0</ele><time>2026-03-29T14:36:39.915Z</time></trkpt><trkpt lat="43.2290026" lon="11.1745964"><ele>383.75</ele><time>2026-03-29T14:36:40.915Z</time></trkpt><trkpt lat="43.2290317" lon="11.1747759"><ele>382.5</ele><time>2026-03-29T14:36:41.915Z</time></trkpt><trkpt lat="43.2290278" lon="11.1749564"><ele>381.25</ele><time>2026-03-29T14:36:42.915Z</time></trkpt><trkpt lat="43.2289692" lon="11.1751426"><ele>380.0</ele><time>2026-03-29T14:36:43.915Z</time></trkpt><trkpt lat="43.2288436" lon="11.1753101"><ele>380.0</ele><time>2026-03-29T14:36:44.915Z</time></trkpt><trkpt lat="43.2286767" lon="11.175462"><ele>380.0</ele><time>2026-03-29T14:36:45.915Z</time></trkpt><trkpt lat="43.2285025" lon="11.1756138"><ele>380.0</ele><time>2026-03-29T14:36:46.915Z</time></trkpt><trkpt lat="43.2283389" lon="11.1757483"><ele>379.25</ele><time>2026-03-29T14:36:47.915Z</time></trkpt><trkpt lat="43.2282039" lon="11.1758786"><ele>378.5</ele><time>2026-03-29T14:36:48.915Z</time></trkpt><trkpt lat="43.2280944" lon="11.1760128"><ele>377.75</ele><time>2026-03-29T14:36:49.915Z</time></trkpt><trkpt lat="43.2280229" lon="11.1761575"><ele>377.0</ele><time>2026-03-29T14:36:50.915Z</time></trkpt><trkpt lat="43.2279946" lon="11.1763315"><ele>377.0</ele><time>2026-03-29T14:36:51.915Z</time></trkpt><trkpt lat="43.2280128" lon="11.1765053"><ele>377.0</ele><time>2026-03-29T14:36:52.915Z</time></trkpt><trkpt lat="43.2280865" lon="11.1766695"><ele>377.0</ele><time>2026-03-29T14:36:53.915Z</time></trkpt><trkpt lat="43.2282015" lon="11.1767895"><ele>377.0</ele><time>2026-03-29T14:36:54.915Z</time></trkpt><trkpt lat="43.2283461" lon="11.1768603"><ele>373.33333333333337</ele><time>2026-03-29T14:36:55.915Z</time></trkpt><trkpt lat="43.228522" lon="11.1768844"><ele>369.6666666666667</ele><time>2026-03-29T14:36:56.915Z</time></trkpt><trkpt lat="43.2287135" lon="11.1768513"><ele>366.0</ele><time>2026-03-29T14:36:57.915Z</time></trkpt><trkpt lat="43.2289144" lon="11.1767959"><ele>363.3333333333333</ele><time>2026-03-29T14:36:58.915Z</time></trkpt><trkpt lat="43.2291241" lon="11.1767466"><ele>360.66666666666663</ele><time>2026-03-29T14:36:59.915Z</time></trkpt><trkpt lat="43.2293297" lon="11.1767026"><ele>358.0</ele><time>2026-03-29T14:37:00.915Z</time></trkpt><trkpt lat="43.2295273" lon="11.1766623"><ele>358.0</ele><time>2026-03-29T14:37:01.915Z</time></trkpt><trkpt lat="43.2297129" lon="11.1766134"><ele>358.0</ele><time>2026-03-29T14:37:02.915Z</time></trkpt><trkpt lat="43.2298924" lon="11.1765439"><ele>358.0</ele><time>2026-03-29T14:37:03.915Z</time></trkpt><trkpt lat="43.2300499" lon="11.1764736"><ele>358.66666666666663</ele><time>2026-03-29T14:37:04.915Z</time></trkpt><trkpt lat="43.2301832" lon="11.1763663"><ele>359.3333333333333</ele><time>2026-03-29T14:37:05.916Z</time></trkpt><trkpt lat="43.2302903" lon="11.1762157"><ele>360.0</ele><time>2026-03-29T14:37:06.915Z</time></trkpt><trkpt lat="43.2304022" lon="11.1760199"><ele>360.0</ele><time>2026-03-29T14:37:07.915Z</time></trkpt><trkpt lat="43.2305098" lon="11.1757924"><ele>360.0</ele><time>2026-03-29T14:37:08.915Z</time></trkpt><trkpt lat="43.230611" lon="11.1755654"><ele>360.0</ele><time>2026-03-29T14:37:09.915Z</time></trkpt><trkpt lat="43.2307071" lon="11.175357"><ele>357.0</ele><time>2026-03-29T14:37:10.915Z</time></trkpt><trkpt lat="43.2307917" lon="11.1751812"><ele>354.0</ele><time>2026-03-29T14:37:11.915Z</time></trkpt><trkpt lat="43.2308744" lon="11.1750318"><ele>351.0</ele><time>2026-03-29T14:37:12.915Z</time></trkpt><trkpt lat="43.2309501" lon="11.1748805"><ele>348.0</ele><time>2026-03-29T14:37:13.915Z</time></trkpt><trkpt lat="43.2309998" lon="11.1746965"><ele>347.6666666666667</ele><time>2026-03-29T14:37:14.915Z</time></trkpt><trkpt lat="43.2310135" lon="11.174472"><ele>347.33333333333337</ele><time>2026-03-29T14:37:15.915Z</time></trkpt><trkpt lat="43.2310274" lon="11.1742144"><ele>347.0</ele><time>2026-03-29T14:37:16.915Z</time></trkpt><trkpt lat="43.2310533" lon="11.1739424"><ele>346.33333333333337</ele><time>2026-03-29T14:37:17.915Z</time></trkpt><trkpt lat="43.2310812" lon="11.1736751"><ele>345.6666666666667</ele><time>2026-03-29T14:37:18.915Z</time></trkpt><trkpt lat="43.2311068" lon="11.1734189"><ele>345.0</ele><time>2026-03-29T14:37:19.915Z</time></trkpt><trkpt lat="43.231138" lon="11.1731829"><ele>344.75</ele><time>2026-03-29T14:37:20.915Z</time></trkpt><trkpt lat="43.2311766" lon="11.1729702"><ele>344.5</ele><time>2026-03-29T14:37:21.915Z</time></trkpt><trkpt lat="43.2312094" lon="11.1727737"><ele>344.25</ele><time>2026-03-29T14:37:22.915Z</time></trkpt><trkpt lat="43.2312308" lon="11.1726071"><ele>344.0</ele><time>2026-03-29T14:37:23.915Z</time></trkpt><trkpt lat="43.2312626" lon="11.1724715"><ele>344.0</ele><time>2026-03-29T14:37:24.915Z</time></trkpt><trkpt lat="43.2313114" lon="11.172375"><ele>344.0</ele><time>2026-03-29T14:37:25.915Z</time></trkpt><trkpt lat="43.2313715" lon="11.1723154"><ele>344.0</ele><time>2026-03-29T14:37:26.915Z</time></trkpt><trkpt lat="43.2314395" lon="11.1723012"><ele>344.0</ele><time>2026-03-29T14:37:27.915Z</time></trkpt><trkpt lat="43.2315146" lon="11.172364"><ele>344.0</ele><time>2026-03-29T14:37:28.915Z</time></trkpt><trkpt lat="43.2315653" lon="11.1725829"><ele>339.33333333333337</ele><time>2026-03-29T14:37:29.915Z</time></trkpt><trkpt lat="43.2315866" lon="11.1728484"><ele>334.6666666666667</ele><time>2026-03-29T14:37:30.915Z</time></trkpt><trkpt lat="43.2315943" lon="11.1731113"><ele>330.0</ele><time>2026-03-29T14:37:31.915Z</time></trkpt><trkpt lat="43.2316041" lon="11.1733646"><ele>329.3333333333333</ele><time>2026-03-29T14:37:32.915Z</time></trkpt><trkpt lat="43.2316482" lon="11.1736144"><ele>328.66666666666663</ele><time>2026-03-29T14:37:33.915Z</time></trkpt><trkpt lat="43.2316957" lon="11.1738427"><ele>328.0</ele><time>2026-03-29T14:37:34.915Z</time></trkpt><trkpt lat="43.2317386" lon="11.1740746"><ele>327.66666666666663</ele><time>2026-03-29T14:37:35.915Z</time></trkpt><trkpt lat="43.2317868" lon="11.1742681"><ele>327.3333333333333</ele><time>2026-03-29T14:37:36.915Z</time></trkpt><trkpt lat="43.231862" lon="11.1744515"><ele>327.0</ele><time>2026-03-29T14:37:37.915Z</time></trkpt><trkpt lat="43.2319795" lon="11.1745934"><ele>327.0</ele><time>2026-03-29T14:37:38.915Z</time></trkpt><trkpt lat="43.2321355" lon="11.1747228"><ele>327.0</ele><time>2026-03-29T14:37:39.915Z</time></trkpt><trkpt lat="43.2323101" lon="11.1748455"><ele>327.0</ele><time>2026-03-29T14:37:40.915Z</time></trkpt><trkpt lat="43.2324774" lon="11.1749707"><ele>323.6666666666667</ele><time>2026-03-29T14:37:41.916Z</time></trkpt><trkpt lat="43.2326171" lon="11.1751206"><ele>320.33333333333337</ele><time>2026-03-29T14:37:42.915Z</time></trkpt><trkpt lat="43.2327215" lon="11.1752938"><ele>317.0</ele><time>2026-03-29T14:37:43.915Z</time></trkpt><trkpt lat="43.2327767" lon="11.1755041"><ele>316.6666666666667</ele><time>2026-03-29T14:37:44.915Z</time></trkpt><trkpt lat="43.2328075" lon="11.175734"><ele>316.3333333333333</ele><time>2026-03-29T14:37:45.915Z</time></trkpt><trkpt lat="43.2328382" lon="11.1759873"><ele>316.0</ele><time>2026-03-29T14:37:46.915Z</time></trkpt><trkpt lat="43.2328969" lon="11.1762374"><ele>316.0</ele><time>2026-03-29T14:37:47.915Z</time></trkpt><trkpt lat="43.2329728" lon="11.1764731"><ele>316.0</ele><time>2026-03-29T14:37:48.915Z</time></trkpt><trkpt lat="43.2330465" lon="11.1767019"><ele>316.0</ele><time>2026-03-29T14:37:49.915Z</time></trkpt><trkpt lat="43.2331025" lon="11.1769318"><ele>315.66666666666663</ele><time>2026-03-29T14:37:50.915Z</time></trkpt><trkpt lat="43.2331198" lon="11.1771543"><ele>315.3333333333333</ele><time>2026-03-29T14:37:51.915Z</time></trkpt><trkpt lat="43.2330835" lon="11.1773707"><ele>315.0</ele><time>2026-03-29T14:37:52.915Z</time></trkpt><trkpt lat="43.2330038" lon="11.1776001"><ele>314.3333333333333</ele><time>2026-03-29T14:37:53.915Z</time></trkpt><trkpt lat="43.232913" lon="11.1778504"><ele>313.66666666666663</ele><time>2026-03-29T14:37:54.916Z</time></trkpt><trkpt lat="43.2328128" lon="11.1781257"><ele>313.0</ele><time>2026-03-29T14:37:55.915Z</time></trkpt><trkpt lat="43.2327117" lon="11.1784212"><ele>311.5</ele><time>2026-03-29T14:37:56.915Z</time></trkpt><trkpt lat="43.232609" lon="11.1787242"><ele>310.0</ele><time>2026-03-29T14:37:57.915Z</time></trkpt><trkpt lat="43.2324976" lon="11.1790295"><ele>308.5</ele><time>2026-03-29T14:37:58.915Z</time></trkpt><trkpt lat="43.2323793" lon="11.1793261"><ele>307.0</ele><time>2026-03-29T14:37:59.915Z</time></trkpt><trkpt lat="43.232269" lon="11.1796192"><ele>303.0</ele><time>2026-03-29T14:38:00.915Z</time></trkpt><trkpt lat="43.2321655" lon="11.1799173"><ele>299.0</ele><time>2026-03-29T14:38:01.915Z</time></trkpt><trkpt lat="43.2320637" lon="11.1802129"><ele>299.0</ele><time>2026-03-29T14:38:02.915Z</time></trkpt><trkpt lat="43.2319597" lon="11.1804991"><ele>299.0</ele><time>2026-03-29T14:38:03.915Z</time></trkpt><trkpt lat="43.2318599" lon="11.1807824"><ele>298.0</ele><time>2026-03-29T14:38:04.915Z</time></trkpt><trkpt lat="43.2317604" lon="11.1810641"><ele>297.0</ele><time>2026-03-29T14:38:05.915Z</time></trkpt><trkpt lat="43.2316548" lon="11.1813464"><ele>297.0</ele><time>2026-03-29T14:38:06.915Z</time></trkpt><trkpt lat="43.2315556" lon="11.1816265"><ele>297.0</ele><time>2026-03-29T14:38:07.915Z</time></trkpt><trkpt lat="43.2314532" lon="11.1819035"><ele>297.0</ele><time>2026-03-29T14:38:08.915Z</time></trkpt><trkpt lat="43.2313573" lon="11.182181"><ele>297.0</ele><time>2026-03-29T14:38:09.915Z</time></trkpt><trkpt lat="43.2312644" lon="11.1824455"><ele>297.0</ele><time>2026-03-29T14:38:10.915Z</time></trkpt><trkpt lat="43.2311841" lon="11.1827233"><ele>295.3333333333333</ele><time>2026-03-29T14:38:11.915Z</time></trkpt><trkpt lat="43.2311167" lon="11.1829933"><ele>293.66666666666663</ele><time>2026-03-29T14:38:12.915Z</time></trkpt><trkpt lat="43.231055" lon="11.183245"><ele>292.0</ele><time>2026-03-29T14:38:13.915Z</time></trkpt><trkpt lat="43.2310167" lon="11.1834817"><ele>292.0</ele><time>2026-03-29T14:38:14.915Z</time></trkpt><trkpt lat="43.2309967" lon="11.1837067"><ele>292.0</ele><time>2026-03-29T14:38:15.915Z</time></trkpt><trkpt lat="43.231" lon="11.18392"><ele>292.0</ele><time>2026-03-29T14:38:16.915Z</time></trkpt><trkpt lat="43.2310117" lon="11.184165"><ele>292.0</ele><time>2026-03-29T14:38:17.915Z</time></trkpt><trkpt lat="43.2309983" lon="11.1844067"><ele>292.0</ele><time>2026-03-29T14:38:18.915Z</time></trkpt><trkpt lat="43.2309533" lon="11.1846283"><ele>292.0</ele><time>2026-03-29T14:38:19.915Z</time></trkpt><trkpt lat="43.2308783" lon="11.1848467"><ele>290.3333333333333</ele><time>2026-03-29T14:38:20.915Z</time></trkpt><trkpt lat="43.230835" lon="11.1850733"><ele>288.6666666666667</ele><time>2026-03-29T14:38:21.915Z</time></trkpt><trkpt lat="43.2308167" lon="11.1853233"><ele>287.0</ele><time>2026-03-29T14:38:22.915Z</time></trkpt><trkpt lat="43.2308317" lon="11.185585"><ele>284.6666666666667</ele><time>2026-03-29T14:38:23.916Z</time></trkpt><trkpt lat="43.2308883" lon="11.1858433"><ele>282.3333333333333</ele><time>2026-03-29T14:38:24.915Z</time></trkpt><trkpt lat="43.2309667" lon="11.186095"><ele>280.0</ele><time>2026-03-29T14:38:25.915Z</time></trkpt><trkpt lat="43.2310217" lon="11.1863517"><ele>278.3333333333333</ele><time>2026-03-29T14:38:26.915Z</time></trkpt><trkpt lat="43.2310467" lon="11.18659"><ele>276.6666666666667</ele><time>2026-03-29T14:38:27.915Z</time></trkpt><trkpt lat="43.2310217" lon="11.18681"><ele>275.0</ele><time>2026-03-29T14:38:28.915Z</time></trkpt><trkpt lat="43.2309733" lon="11.18702"><ele>275.0</ele><time>2026-03-29T14:38:29.915Z</time></trkpt><trkpt lat="43.2309533" lon="11.18722"><ele>275.0</ele><time>2026-03-29T14:38:30.915Z</time></trkpt><trkpt lat="43.2309633" lon="11.1873817"><ele>275.0</ele><time>2026-03-29T14:38:31.915Z</time></trkpt><trkpt lat="43.231035" lon="11.1875367"><ele>275.0</ele><time>2026-03-29T14:38:32.915Z</time></trkpt><trkpt lat="43.23114" lon="11.187705"><ele>276.33333333333337</ele><time>2026-03-29T14:38:33.915Z</time></trkpt><trkpt lat="43.2312517" lon="11.1878883"><ele>277.6666666666667</ele><time>2026-03-29T14:38:34.915Z</time></trkpt><trkpt lat="43.2313517" lon="11.18809"><ele>279.0</ele><time>2026-03-29T14:38:35.916Z</time></trkpt><trkpt lat="43.2314433" lon="11.18828"><ele>284.0</ele><time>2026-03-29T14:38:36.915Z</time></trkpt><trkpt lat="43.2315467" lon="11.1884617"><ele>289.0</ele><time>2026-03-29T14:38:37.915Z</time></trkpt><trkpt lat="43.2316683" lon="11.1886233"><ele>294.0</ele><time>2026-03-29T14:38:38.915Z</time></trkpt><trkpt lat="43.2318083" lon="11.1887783"><ele>294.0</ele><time>2026-03-29T14:38:39.915Z</time></trkpt><trkpt lat="43.2319533" lon="11.1889283"><ele>294.0</ele><time>2026-03-29T14:38:40.915Z</time></trkpt><trkpt lat="43.2321033" lon="11.18907"><ele>294.0</ele><time>2026-03-29T14:38:41.915Z</time></trkpt><trkpt lat="43.2322483" lon="11.189245"><ele>295.6666666666667</ele><time>2026-03-29T14:38:42.915Z</time></trkpt><trkpt lat="43.2323817" lon="11.18942"><ele>297.33333333333337</ele><time>2026-03-29T14:38:43.915Z</time></trkpt><trkpt lat="43.2324967" lon="11.1896133"><ele>299.0</ele><time>2026-03-29T14:38:44.915Z</time></trkpt><trkpt lat="43.2325883" lon="11.1898217"><ele>293.0</ele><time>2026-03-29T14:38:45.915Z</time></trkpt><trkpt lat="43.2326617" lon="11.1900383"><ele>287.0</ele><time>2026-03-29T14:38:46.915Z</time></trkpt><trkpt lat="43.2327233" lon="11.19027"><ele>281.0</ele><time>2026-03-29T14:38:47.915Z</time></trkpt><trkpt lat="43.2327767" lon="11.1905"><ele>282.0</ele><time>2026-03-29T14:38:48.915Z</time></trkpt><trkpt lat="43.23283" lon="11.1907333"><ele>283.0</ele><time>2026-03-29T14:38:49.915Z</time></trkpt><trkpt lat="43.2329033" lon="11.1909717"><ele>284.0</ele><time>2026-03-29T14:38:50.915Z</time></trkpt><trkpt lat="43.2329883" lon="11.1911983"><ele>284.0</ele><time>2026-03-29T14:38:51.915Z</time></trkpt><trkpt lat="43.2330717" lon="11.191355"><ele>284.0</ele><time>2026-03-29T14:38:52.915Z</time></trkpt><trkpt lat="43.233165" lon="11.1914817"><ele>284.0</ele><time>2026-03-29T14:38:53.915Z</time></trkpt><trkpt lat="43.23328" lon="11.1915467"><ele>284.0</ele><time>2026-03-29T14:38:54.915Z</time></trkpt><trkpt lat="43.2334083" lon="11.1915467"><ele>284.6666666666667</ele><time>2026-03-29T14:38:55.915Z</time></trkpt><trkpt lat="43.233555" lon="11.1914883"><ele>285.3333333333333</ele><time>2026-03-29T14:38:56.915Z</time></trkpt><trkpt lat="43.23371" lon="11.1913867"><ele>286.0</ele><time>2026-03-29T14:38:57.915Z</time></trkpt><trkpt lat="43.2339" lon="11.191215"><ele>282.66666666666663</ele><time>2026-03-29T14:38:58.915Z</time></trkpt><trkpt lat="43.2340933" lon="11.191025"><ele>279.3333333333333</ele><time>2026-03-29T14:38:59.915Z</time></trkpt><trkpt lat="43.234265" lon="11.190875"><ele>276.0</ele><time>2026-03-29T14:39:00.915Z</time></trkpt><trkpt lat="43.2344183" lon="11.1907467"><ele>276.75</ele><time>2026-03-29T14:39:01.915Z</time></trkpt><trkpt lat="43.2345533" lon="11.19066"><ele>277.5</ele><time>2026-03-29T14:39:02.915Z</time></trkpt><trkpt lat="43.2346833" lon="11.1906483"><ele>278.25</ele><time>2026-03-29T14:39:03.915Z</time></trkpt><trkpt lat="43.2348083" lon="11.190705"><ele>279.0</ele><time>2026-03-29T14:39:04.915Z</time></trkpt><trkpt lat="43.234965" lon="11.19082"><ele>279.0</ele><time>2026-03-29T14:39:05.915Z</time></trkpt><trkpt lat="43.2351" lon="11.1909833"><ele>279.0</ele><time>2026-03-29T14:39:06.915Z</time></trkpt><trkpt lat="43.2352367" lon="11.191165"><ele>279.0</ele><time>2026-03-29T14:39:07.915Z</time></trkpt><trkpt lat="43.235395" lon="11.19132"><ele>279.0</ele><time>2026-03-29T14:39:08.915Z</time></trkpt><trkpt lat="43.2355533" lon="11.1914717"><ele>279.0</ele><time>2026-03-29T14:39:09.915Z</time></trkpt><trkpt lat="43.2357267" lon="11.1915867"><ele>279.0</ele><time>2026-03-29T14:39:10.915Z</time></trkpt><trkpt lat="43.2359317" lon="11.19165"><ele>279.3333333333333</ele><time>2026-03-29T14:39:11.915Z</time></trkpt><trkpt lat="43.236165" lon="11.1916983"><ele>279.66666666666663</ele><time>2026-03-29T14:39:12.915Z</time></trkpt><trkpt lat="43.2363733" lon="11.1917367"><ele>280.0</ele><time>2026-03-29T14:39:13.915Z</time></trkpt><trkpt lat="43.23657" lon="11.191795"><ele>280.0</ele><time>2026-03-29T14:39:14.915Z</time></trkpt><trkpt lat="43.2367517" lon="11.1918667"><ele>280.0</ele><time>2026-03-29T14:39:15.915Z</time></trkpt><trkpt lat="43.2369283" lon="11.1919433"><ele>280.0</ele><time>2026-03-29T14:39:16.915Z</time></trkpt><trkpt lat="43.2371017" lon="11.19206"><ele>280.0</ele><time>2026-03-29T14:39:17.915Z</time></trkpt><trkpt lat="43.2372667" lon="11.1921733"><ele>280.0</ele><time>2026-03-29T14:39:18.915Z</time></trkpt><trkpt lat="43.2374167" lon="11.1923"><ele>280.0</ele><time>2026-03-29T14:39:19.915Z</time></trkpt><trkpt lat="43.2375417" lon="11.1924683"><ele>278.5</ele><time>2026-03-29T14:39:20.915Z</time></trkpt><trkpt lat="43.2376146" lon="11.1926703"><ele>277.0</ele><time>2026-03-29T14:39:21.915Z</time></trkpt><trkpt lat="43.2376693" lon="11.1928523"><ele>275.5</ele><time>2026-03-29T14:39:22.915Z</time></trkpt><trkpt lat="43.2377129" lon="11.1930319"><ele>274.0</ele><time>2026-03-29T14:39:23.915Z</time></trkpt><trkpt lat="43.2377634" lon="11.1931518"><ele>274.0</ele><time>2026-03-29T14:39:24.915Z</time></trkpt><trkpt lat="43.2378236" lon="11.1932216"><ele>274.0</ele><time>2026-03-29T14:39:25.915Z</time></trkpt><trkpt lat="43.2379485" lon="11.1931621"><ele>274.0</ele><time>2026-03-29T14:39:27.915Z</time></trkpt><trkpt lat="43.2380346" lon="11.1929953"><ele>274.0</ele><time>2026-03-29T14:39:28.915Z</time></trkpt><trkpt lat="43.238129" lon="11.1927553"><ele>272.0</ele><time>2026-03-29T14:39:29.915Z</time></trkpt><trkpt lat="43.2382312" lon="11.1925546"><ele>270.0</ele><time>2026-03-29T14:39:30.915Z</time></trkpt><trkpt lat="43.238333" lon="11.1923925"><ele>268.0</ele><time>2026-03-29T14:39:31.915Z</time></trkpt><trkpt lat="43.2384513" lon="11.1922684"><ele>268.25</ele><time>2026-03-29T14:39:32.915Z</time></trkpt><trkpt lat="43.2385972" lon="11.192228"><ele>268.5</ele><time>2026-03-29T14:39:33.915Z</time></trkpt><trkpt lat="43.2387403" lon="11.1922365"><ele>268.75</ele><time>2026-03-29T14:39:34.915Z</time></trkpt><trkpt lat="43.2388841" lon="11.1923055"><ele>269.0</ele><time>2026-03-29T14:39:35.915Z</time></trkpt><trkpt lat="43.2390161" lon="11.1924345"><ele>269.0</ele><time>2026-03-29T14:39:36.915Z</time></trkpt><trkpt lat="43.2391369" lon="11.1926155"><ele>269.0</ele><time>2026-03-29T14:39:37.915Z</time></trkpt><trkpt lat="43.239221" lon="11.1928826"><ele>269.0</ele><time>2026-03-29T14:39:38.915Z</time></trkpt><trkpt lat="43.2393001" lon="11.1931587"><ele>266.33333333333337</ele><time>2026-03-29T14:39:39.915Z</time></trkpt><trkpt lat="43.2393732" lon="11.1934438"><ele>263.6666666666667</ele><time>2026-03-29T14:39:40.915Z</time></trkpt><trkpt lat="43.2394526" lon="11.1937179"><ele>261.0</ele><time>2026-03-29T14:39:41.915Z</time></trkpt><trkpt lat="43.2395339" lon="11.1939869"><ele>262.0</ele><time>2026-03-29T14:39:42.915Z</time></trkpt><trkpt lat="43.2396152" lon="11.1942588"><ele>263.0</ele><time>2026-03-29T14:39:43.915Z</time></trkpt><trkpt lat="43.2396918" lon="11.1945219"><ele>264.0</ele><time>2026-03-29T14:39:44.915Z</time></trkpt><trkpt lat="43.2397705" lon="11.1947878"><ele>261.0</ele><time>2026-03-29T14:39:45.915Z</time></trkpt><trkpt lat="43.2398528" lon="11.1950634"><ele>258.0</ele><time>2026-03-29T14:39:46.916Z</time></trkpt><trkpt lat="43.2399352" lon="11.1953424"><ele>255.0</ele><time>2026-03-29T14:39:47.915Z</time></trkpt><trkpt lat="43.2400113" lon="11.1956241"><ele>254.0</ele><time>2026-03-29T14:39:48.915Z</time></trkpt><trkpt lat="43.2400975" lon="11.1959077"><ele>253.0</ele><time>2026-03-29T14:39:49.915Z</time></trkpt><trkpt lat="43.2401688" lon="11.1961933"><ele>252.0</ele><time>2026-03-29T14:39:50.915Z</time></trkpt><trkpt lat="43.2402193" lon="11.1964857"><ele>250.0</ele><time>2026-03-29T14:39:51.915Z</time></trkpt><trkpt lat="43.2402528" lon="11.1967918"><ele>248.0</ele><time>2026-03-29T14:39:52.915Z</time></trkpt><trkpt lat="43.2402751" lon="11.1971109"><ele>247.0</ele><time>2026-03-29T14:39:53.915Z</time></trkpt><trkpt lat="43.2403082" lon="11.1974327"><ele>246.0</ele><time>2026-03-29T14:39:54.915Z</time></trkpt><trkpt lat="43.2403561" lon="11.1977413"><ele>246.0</ele><time>2026-03-29T14:39:55.915Z</time></trkpt><trkpt lat="43.2403933" lon="11.1980374"><ele>246.0</ele><time>2026-03-29T14:39:56.915Z</time></trkpt><trkpt lat="43.2404203" lon="11.1983158"><ele>246.0</ele><time>2026-03-29T14:39:57.915Z</time></trkpt><trkpt lat="43.2404553" lon="11.1985843"><ele>245.66666666666669</ele><time>2026-03-29T14:39:58.915Z</time></trkpt><trkpt lat="43.2404918" lon="11.1988409"><ele>245.33333333333334</ele><time>2026-03-29T14:39:59.915Z</time></trkpt><trkpt lat="43.240518" lon="11.1990977"><ele>245.0</ele><time>2026-03-29T14:40:00.915Z</time></trkpt><trkpt lat="43.2405439" lon="11.1993621"><ele>244.33333333333334</ele><time>2026-03-29T14:40:01.915Z</time></trkpt><trkpt lat="43.2405694" lon="11.1996413"><ele>243.66666666666669</ele><time>2026-03-29T14:40:02.915Z</time></trkpt><trkpt lat="43.2405879" lon="11.1999165"><ele>243.0</ele><time>2026-03-29T14:40:03.915Z</time></trkpt><trkpt lat="43.2406174" lon="11.2002047"><ele>243.0</ele><time>2026-03-29T14:40:04.915Z</time></trkpt><trkpt lat="43.2406651" lon="11.200494"><ele>243.0</ele><time>2026-03-29T14:40:05.915Z</time></trkpt><trkpt lat="43.2407484" lon="11.2007735"><ele>243.0</ele><time>2026-03-29T14:40:06.915Z</time></trkpt><trkpt lat="43.2408539" lon="11.2010432"><ele>243.0</ele><time>2026-03-29T14:40:07.915Z</time></trkpt><trkpt lat="43.2409479" lon="11.2013078"><ele>243.0</ele><time>2026-03-29T14:40:08.915Z</time></trkpt><trkpt lat="43.2410405" lon="11.201552"><ele>243.0</ele><time>2026-03-29T14:40:09.915Z</time></trkpt><trkpt lat="43.2411356" lon="11.2017865"><ele>243.0</ele><time>2026-03-29T14:40:10.915Z</time></trkpt><trkpt lat="43.2412506" lon="11.201998"><ele>243.0</ele><time>2026-03-29T14:40:11.915Z</time></trkpt><trkpt lat="43.241374" lon="11.2021916"><ele>243.0</ele><time>2026-03-29T14:40:12.915Z</time></trkpt><trkpt lat="43.2415159" lon="11.2023831"><ele>243.0</ele><time>2026-03-29T14:40:13.915Z</time></trkpt><trkpt lat="43.2416863" lon="11.2025629"><ele>243.0</ele><time>2026-03-29T14:40:14.915Z</time></trkpt><trkpt lat="43.2418585" lon="11.2027369"><ele>243.0</ele><time>2026-03-29T14:40:15.915Z</time></trkpt><trkpt lat="43.2420289" lon="11.2029043"><ele>243.0</ele><time>2026-03-29T14:40:16.915Z</time></trkpt><trkpt lat="43.2421896" lon="11.2030686"><ele>243.0</ele><time>2026-03-29T14:40:17.915Z</time></trkpt><trkpt lat="43.2423577" lon="11.2032276"><ele>243.0</ele><time>2026-03-29T14:40:18.915Z</time></trkpt><trkpt lat="43.2425403" lon="11.2033848"><ele>242.0</ele><time>2026-03-29T14:40:19.915Z</time></trkpt><trkpt lat="43.2427285" lon="11.2035238"><ele>241.0</ele><time>2026-03-29T14:40:20.915Z</time></trkpt><trkpt lat="43.2429113" lon="11.2036583"><ele>240.0</ele><time>2026-03-29T14:40:21.915Z</time></trkpt><trkpt lat="43.2430845" lon="11.2037855"><ele>240.66666666666669</ele><time>2026-03-29T14:40:22.915Z</time></trkpt><trkpt lat="43.2432535" lon="11.2039195"><ele>241.33333333333334</ele><time>2026-03-29T14:40:23.915Z</time></trkpt><trkpt lat="43.2434064" lon="11.2040679"><ele>242.0</ele><time>2026-03-29T14:40:24.915Z</time></trkpt><trkpt lat="43.2435292" lon="11.2042405"><ele>242.0</ele><time>2026-03-29T14:40:25.915Z</time></trkpt><trkpt lat="43.2436044" lon="11.2044587"><ele>242.0</ele><time>2026-03-29T14:40:26.915Z</time></trkpt><trkpt lat="43.2436756" lon="11.2046902"><ele>242.0</ele><time>2026-03-29T14:40:27.915Z</time></trkpt><trkpt lat="43.2437582" lon="11.2049192"><ele>241.66666666666669</ele><time>2026-03-29T14:40:28.915Z</time></trkpt><trkpt lat="43.2438738" lon="11.2051429"><ele>241.33333333333331</ele><time>2026-03-29T14:40:29.915Z</time></trkpt><trkpt lat="43.2440175" lon="11.2053565"><ele>241.0</ele><time>2026-03-29T14:40:30.915Z</time></trkpt><trkpt lat="43.2441812" lon="11.2055672"><ele>239.0</ele><time>2026-03-29T14:40:31.915Z</time></trkpt><trkpt lat="43.2443591" lon="11.2057876"><ele>237.0</ele><time>2026-03-29T14:40:32.915Z</time></trkpt><trkpt lat="43.2445345" lon="11.2060077"><ele>237.0</ele><time>2026-03-29T14:40:33.915Z</time></trkpt><trkpt lat="43.2447005" lon="11.2062271"><ele>237.0</ele><time>2026-03-29T14:40:34.915Z</time></trkpt><trkpt lat="43.2448578" lon="11.206465"><ele>237.0</ele><time>2026-03-29T14:40:35.915Z</time></trkpt><trkpt lat="43.2450055" lon="11.2067275"><ele>237.0</ele><time>2026-03-29T14:40:36.916Z</time></trkpt><trkpt lat="43.2451397" lon="11.207008"><ele>237.0</ele><time>2026-03-29T14:40:37.915Z</time></trkpt><trkpt lat="43.2452638" lon="11.2072969"><ele>237.0</ele><time>2026-03-29T14:40:38.915Z</time></trkpt><trkpt lat="43.2453773" lon="11.2075891"><ele>235.0</ele><time>2026-03-29T14:40:39.915Z</time></trkpt><trkpt lat="43.2454924" lon="11.2078619"><ele>233.0</ele><time>2026-03-29T14:40:40.915Z</time></trkpt><trkpt lat="43.2456088" lon="11.2081351"><ele>229.5</ele><time>2026-03-29T14:40:41.915Z</time></trkpt><trkpt lat="43.2457439" lon="11.2084107"><ele>226.0</ele><time>2026-03-29T14:40:42.915Z</time></trkpt><trkpt lat="43.2458925" lon="11.2086534"><ele>226.0</ele><time>2026-03-29T14:40:43.915Z</time></trkpt><trkpt lat="43.2460415" lon="11.2089085"><ele>226.0</ele><time>2026-03-29T14:40:44.915Z</time></trkpt><trkpt lat="43.2461855" lon="11.2091467"><ele>226.33333333333331</ele><time>2026-03-29T14:40:45.915Z</time></trkpt><trkpt lat="43.2463318" lon="11.2093513"><ele>226.66666666666669</ele><time>2026-03-29T14:40:46.915Z</time></trkpt><trkpt lat="43.246473" lon="11.2095531"><ele>227.0</ele><time>2026-03-29T14:40:47.915Z</time></trkpt><trkpt lat="43.2466043" lon="11.209766"><ele>226.33333333333334</ele><time>2026-03-29T14:40:48.915Z</time></trkpt><trkpt lat="43.2467147" lon="11.209982"><ele>225.66666666666669</ele><time>2026-03-29T14:40:49.915Z</time></trkpt><trkpt lat="43.2468104" lon="11.210237"><ele>225.0</ele><time>2026-03-29T14:40:50.915Z</time></trkpt><trkpt lat="43.2468782" lon="11.2105128"><ele>223.0</ele><time>2026-03-29T14:40:51.915Z</time></trkpt><trkpt lat="43.2469162" lon="11.2108127"><ele>221.0</ele><time>2026-03-29T14:40:52.915Z</time></trkpt><trkpt lat="43.2469284" lon="11.2111295"><ele>221.0</ele><time>2026-03-29T14:40:53.915Z</time></trkpt><trkpt lat="43.2469049" lon="11.2114239"><ele>221.0</ele><time>2026-03-29T14:40:54.915Z</time></trkpt><trkpt lat="43.2468656" lon="11.2117147"><ele>221.0</ele><time>2026-03-29T14:40:55.915Z</time></trkpt><trkpt lat="43.2467767" lon="11.211995"><ele>220.5</ele><time>2026-03-29T14:40:56.915Z</time></trkpt><trkpt lat="43.2466453" lon="11.2122713"><ele>220.0</ele><time>2026-03-29T14:40:57.915Z</time></trkpt><trkpt lat="43.2464981" lon="11.2125398"><ele>218.0</ele><time>2026-03-29T14:40:58.915Z</time></trkpt><trkpt lat="43.2463441" lon="11.2128139"><ele>216.0</ele><time>2026-03-29T14:40:59.915Z</time></trkpt><trkpt lat="43.2462018" lon="11.2130805"><ele>214.0</ele><time>2026-03-29T14:41:00.915Z</time></trkpt><trkpt lat="43.2460734" lon="11.2133476"><ele>212.0</ele><time>2026-03-29T14:41:01.915Z</time></trkpt><trkpt lat="43.2459515" lon="11.2136112"><ele>212.0</ele><time>2026-03-29T14:41:02.915Z</time></trkpt><trkpt lat="43.2458529" lon="11.2138848"><ele>212.0</ele><time>2026-03-29T14:41:03.915Z</time></trkpt><trkpt lat="43.2457682" lon="11.2141773"><ele>214.0</ele><time>2026-03-29T14:41:04.915Z</time></trkpt><trkpt lat="43.245698" lon="11.2144935"><ele>216.0</ele><time>2026-03-29T14:41:05.915Z</time></trkpt><trkpt lat="43.24563" lon="11.2148104"><ele>214.33333333333331</ele><time>2026-03-29T14:41:06.916Z</time></trkpt><trkpt lat="43.2455634" lon="11.2151136"><ele>212.66666666666666</ele><time>2026-03-29T14:41:07.915Z</time></trkpt><trkpt lat="43.2455114" lon="11.2153975"><ele>211.0</ele><time>2026-03-29T14:41:08.915Z</time></trkpt><trkpt lat="43.2454545" lon="11.2156719"><ele>210.33333333333331</ele><time>2026-03-29T14:41:09.915Z</time></trkpt><trkpt lat="43.2453898" lon="11.2159431"><ele>209.66666666666669</ele><time>2026-03-29T14:41:10.915Z</time></trkpt><trkpt lat="43.2453316" lon="11.2162034"><ele>209.0</ele><time>2026-03-29T14:41:11.915Z</time></trkpt><trkpt lat="43.2452801" lon="11.2164517"><ele>211.33333333333334</ele><time>2026-03-29T14:41:12.915Z</time></trkpt><trkpt lat="43.2452216" lon="11.2166937"><ele>213.66666666666669</ele><time>2026-03-29T14:41:13.915Z</time></trkpt><trkpt lat="43.2451742" lon="11.2169371"><ele>216.0</ele><time>2026-03-29T14:41:14.915Z</time></trkpt><trkpt lat="43.2451378" lon="11.2171749"><ele>215.66666666666669</ele><time>2026-03-29T14:41:15.915Z</time></trkpt><trkpt lat="43.2450949" lon="11.2173983"><ele>215.33333333333334</ele><time>2026-03-29T14:41:16.916Z</time></trkpt><trkpt lat="43.2450522" lon="11.2176167"><ele>215.0</ele><time>2026-03-29T14:41:17.915Z</time></trkpt><trkpt lat="43.2449997" lon="11.2178289"><ele>215.0</ele><time>2026-03-29T14:41:18.915Z</time></trkpt><trkpt lat="43.2449385" lon="11.218041"><ele>215.0</ele><time>2026-03-29T14:41:19.915Z</time></trkpt><trkpt lat="43.2448697" lon="11.2182473"><ele>215.0</ele><time>2026-03-29T14:41:20.915Z</time></trkpt><trkpt lat="43.2447873" lon="11.2184435"><ele>212.25</ele><time>2026-03-29T14:41:21.915Z</time></trkpt><trkpt lat="43.2447209" lon="11.2186252"><ele>209.5</ele><time>2026-03-29T14:41:22.915Z</time></trkpt><trkpt lat="43.2446587" lon="11.218786"><ele>206.75</ele><time>2026-03-29T14:41:23.915Z</time></trkpt><trkpt lat="43.2446098" lon="11.2189075"><ele>204.0</ele><time>2026-03-29T14:41:24.915Z</time></trkpt><trkpt lat="43.2445707" lon="11.2190057"><ele>204.0</ele><time>2026-03-29T14:41:25.915Z</time></trkpt><trkpt lat="43.2445374" lon="11.2190892"><ele>204.0</ele><time>2026-03-29T14:41:26.915Z</time></trkpt><trkpt lat="43.2445047" lon="11.219181"><ele>204.0</ele><time>2026-03-29T14:41:27.915Z</time></trkpt><trkpt lat="43.2444716" lon="11.2192813"><ele>204.0</ele><time>2026-03-29T14:41:28.915Z</time></trkpt><trkpt lat="43.2444417" lon="11.2193841"><ele>204.0</ele><time>2026-03-29T14:41:29.915Z</time></trkpt><trkpt lat="43.2444246" lon="11.2195098"><ele>204.0</ele><time>2026-03-29T14:41:30.915Z</time></trkpt><trkpt lat="43.2444284" lon="11.2196621"><ele>204.0</ele><time>2026-03-29T14:41:31.915Z</time></trkpt><trkpt lat="43.2444478" lon="11.2198247"><ele>204.0</ele><time>2026-03-29T14:41:32.915Z</time></trkpt><trkpt lat="43.2444881" lon="11.220005"><ele>204.0</ele><time>2026-03-29T14:41:33.915Z</time></trkpt><trkpt lat="43.2445326" lon="11.2202088"><ele>204.0</ele><time>2026-03-29T14:41:34.915Z</time></trkpt><trkpt lat="43.2445747" lon="11.2204222"><ele>204.0</ele><time>2026-03-29T14:41:35.915Z</time></trkpt><trkpt lat="43.2446288" lon="11.2206411"><ele>204.0</ele><time>2026-03-29T14:41:36.915Z</time></trkpt><trkpt lat="43.2446808" lon="11.2208578"><ele>204.0</ele><time>2026-03-29T14:41:37.915Z</time></trkpt><trkpt lat="43.2447325" lon="11.2210782"><ele>203.66666666666669</ele><time>2026-03-29T14:41:38.915Z</time></trkpt><trkpt lat="43.2447875" lon="11.2212857"><ele>203.33333333333334</ele><time>2026-03-29T14:41:39.915Z</time></trkpt><trkpt lat="43.2448412" lon="11.2214949"><ele>203.0</ele><time>2026-03-29T14:41:40.915Z</time></trkpt><trkpt lat="43.2448981" lon="11.2217068"><ele>202.66666666666669</ele><time>2026-03-29T14:41:41.915Z</time></trkpt><trkpt lat="43.2449684" lon="11.2218896"><ele>202.33333333333331</ele><time>2026-03-29T14:41:42.915Z</time></trkpt><trkpt lat="43.2450669" lon="11.2220622"><ele>202.0</ele><time>2026-03-29T14:41:43.915Z</time></trkpt><trkpt lat="43.2451863" lon="11.2222059"><ele>202.0</ele><time>2026-03-29T14:41:44.915Z</time></trkpt><trkpt lat="43.2453079" lon="11.222322"><ele>202.0</ele><time>2026-03-29T14:41:45.915Z</time></trkpt><trkpt lat="43.2454437" lon="11.2224157"><ele>202.0</ele><time>2026-03-29T14:41:46.915Z</time></trkpt><trkpt lat="43.2455854" lon="11.2224861"><ele>202.0</ele><time>2026-03-29T14:41:47.915Z</time></trkpt><trkpt lat="43.2457124" lon="11.222534"><ele>202.0</ele><time>2026-03-29T14:41:48.915Z</time></trkpt><trkpt lat="43.2458202" lon="11.2225747"><ele>202.0</ele><time>2026-03-29T14:41:49.915Z</time></trkpt><trkpt lat="43.2459156" lon="11.2226111"><ele>202.0</ele><time>2026-03-29T14:41:50.915Z</time></trkpt><trkpt lat="43.2460047" lon="11.2226394"><ele>202.0</ele><time>2026-03-29T14:41:51.915Z</time></trkpt><trkpt lat="43.2460904" lon="11.2226642"><ele>202.0</ele><time>2026-03-29T14:41:52.915Z</time></trkpt><trkpt lat="43.246176" lon="11.222692"><ele>202.0</ele><time>2026-03-29T14:41:53.915Z</time></trkpt><trkpt lat="43.2462652" lon="11.2227204"><ele>202.0</ele><time>2026-03-29T14:41:54.916Z</time></trkpt><trkpt lat="43.246361" lon="11.2227512"><ele>202.0</ele><time>2026-03-29T14:41:55.915Z</time></trkpt><trkpt lat="43.2464586" lon="11.2227891"><ele>202.0</ele><time>2026-03-29T14:41:56.915Z</time></trkpt><trkpt lat="43.2465612" lon="11.2228261"><ele>202.5</ele><time>2026-03-29T14:41:57.915Z</time></trkpt><trkpt lat="43.2466725" lon="11.222859"><ele>203.0</ele><time>2026-03-29T14:41:58.915Z</time></trkpt><trkpt lat="43.2468014" lon="11.2228834"><ele>203.5</ele><time>2026-03-29T14:41:59.915Z</time></trkpt><trkpt lat="43.2469222" lon="11.2229102"><ele>204.0</ele><time>2026-03-29T14:42:00.915Z</time></trkpt><trkpt lat="43.2470564" lon="11.2229356"><ele>204.0</ele><time>2026-03-29T14:42:01.915Z</time></trkpt><trkpt lat="43.2471946" lon="11.2229548"><ele>204.0</ele><time>2026-03-29T14:42:02.915Z</time></trkpt><trkpt lat="43.2473362" lon="11.2229688"><ele>204.0</ele><time>2026-03-29T14:42:03.915Z</time></trkpt><trkpt lat="43.2474865" lon="11.2229807"><ele>204.0</ele><time>2026-03-29T14:42:04.915Z</time></trkpt><trkpt lat="43.2476375" lon="11.2229802"><ele>203.0</ele><time>2026-03-29T14:42:05.915Z</time></trkpt><trkpt lat="43.247792" lon="11.2229869"><ele>202.0</ele><time>2026-03-29T14:42:06.915Z</time></trkpt><trkpt lat="43.2479474" lon="11.2229938"><ele>201.0</ele><time>2026-03-29T14:42:07.915Z</time></trkpt><trkpt lat="43.2481057" lon="11.2229945"><ele>201.0</ele><time>2026-03-29T14:42:08.915Z</time></trkpt><trkpt lat="43.248274" lon="11.2229971"><ele>201.0</ele><time>2026-03-29T14:42:09.915Z</time></trkpt><trkpt lat="43.2484448" lon="11.2230071"><ele>201.0</ele><time>2026-03-29T14:42:10.915Z</time></trkpt><trkpt lat="43.2486238" lon="11.223021"><ele>201.0</ele><time>2026-03-29T14:42:11.915Z</time></trkpt><trkpt lat="43.2488054" lon="11.223041"><ele>201.0</ele><time>2026-03-29T14:42:12.915Z</time></trkpt><trkpt lat="43.2489851" lon="11.2230534"><ele>201.0</ele><time>2026-03-29T14:42:13.915Z</time></trkpt><trkpt lat="43.2491609" lon="11.2230651"><ele>201.33333333333331</ele><time>2026-03-29T14:42:14.915Z</time></trkpt><trkpt lat="43.2493248" lon="11.2230778"><ele>201.66666666666666</ele><time>2026-03-29T14:42:15.915Z</time></trkpt><trkpt lat="43.2494815" lon="11.2231"><ele>202.0</ele><time>2026-03-29T14:42:16.915Z</time></trkpt><trkpt lat="43.249635" lon="11.2231185"><ele>202.0</ele><time>2026-03-29T14:42:17.915Z</time></trkpt><trkpt lat="43.2497764" lon="11.2231416"><ele>202.0</ele><time>2026-03-29T14:42:18.915Z</time></trkpt><trkpt lat="43.2499136" lon="11.2231697"><ele>202.0</ele><time>2026-03-29T14:42:19.915Z</time></trkpt><trkpt lat="43.2500521" lon="11.2232042"><ele>202.0</ele><time>2026-03-29T14:42:20.915Z</time></trkpt><trkpt lat="43.2501925" lon="11.2232464"><ele>201.0</ele><time>2026-03-29T14:42:21.915Z</time></trkpt><trkpt lat="43.2503287" lon="11.2232967"><ele>200.0</ele><time>2026-03-29T14:42:22.915Z</time></trkpt><trkpt lat="43.2504618" lon="11.2233395"><ele>199.0</ele><time>2026-03-29T14:42:23.915Z</time></trkpt><trkpt lat="43.2505864" lon="11.2233796"><ele>198.0</ele><time>2026-03-29T14:42:24.915Z</time></trkpt><trkpt lat="43.250711" lon="11.2234156"><ele>197.5</ele><time>2026-03-29T14:42:25.916Z</time></trkpt><trkpt lat="43.2508395" lon="11.2234559"><ele>197.0</ele><time>2026-03-29T14:42:26.915Z</time></trkpt><trkpt lat="43.2509648" lon="11.2234958"><ele>196.5</ele><time>2026-03-29T14:42:27.915Z</time></trkpt><trkpt lat="43.2510834" lon="11.2235378"><ele>196.0</ele><time>2026-03-29T14:42:28.915Z</time></trkpt><trkpt lat="43.2511851" lon="11.2235721"><ele>195.99999999999997</ele><time>2026-03-29T14:42:29.915Z</time></trkpt><trkpt lat="43.2512764" lon="11.2235999"><ele>196.0</ele><time>2026-03-29T14:42:30.915Z</time></trkpt><trkpt lat="43.25135" lon="11.223623"><ele>196.0</ele><time>2026-03-29T14:42:31.915Z</time></trkpt><trkpt lat="43.2514166" lon="11.2236409"><ele>196.0</ele><time>2026-03-29T14:42:32.915Z</time></trkpt><trkpt lat="43.2515272" lon="11.2236795"><ele>195.99999999999997</ele><time>2026-03-29T14:42:34.916Z</time></trkpt><trkpt lat="43.2516103" lon="11.2237518"><ele>196.0</ele><time>2026-03-29T14:42:36.915Z</time></trkpt><trkpt lat="43.2516573" lon="11.2238102"><ele>196.33333333333331</ele><time>2026-03-29T14:42:37.915Z</time></trkpt><trkpt lat="43.251714" lon="11.2238699"><ele>196.66666666666666</ele><time>2026-03-29T14:42:38.915Z</time></trkpt><trkpt lat="43.2517801" lon="11.223896"><ele>197.0</ele><time>2026-03-29T14:42:39.915Z</time></trkpt><trkpt lat="43.2518603" lon="11.2238954"><ele>197.33333333333331</ele><time>2026-03-29T14:42:40.915Z</time></trkpt><trkpt lat="43.2519536" lon="11.2238787"><ele>197.66666666666666</ele><time>2026-03-29T14:42:41.915Z</time></trkpt><trkpt lat="43.2520628" lon="11.2238773"><ele>198.0</ele><time>2026-03-29T14:42:42.915Z</time></trkpt><trkpt lat="43.2521868" lon="11.2239079"><ele>198.33333333333331</ele><time>2026-03-29T14:42:43.915Z</time></trkpt><trkpt lat="43.2523368" lon="11.2239799"><ele>198.66666666666666</ele><time>2026-03-29T14:42:44.915Z</time></trkpt><trkpt lat="43.2524981" lon="11.2240754"><ele>199.0</ele><time>2026-03-29T14:42:45.915Z</time></trkpt><trkpt lat="43.252651" lon="11.2241844"><ele>199.0</ele><time>2026-03-29T14:42:46.915Z</time></trkpt><trkpt lat="43.2527883" lon="11.2242825"><ele>199.0</ele><time>2026-03-29T14:42:47.915Z</time></trkpt><trkpt lat="43.252924" lon="11.2243743"><ele>199.0</ele><time>2026-03-29T14:42:48.915Z</time></trkpt><trkpt lat="43.2530583" lon="11.2244636"><ele>198.33333333333331</ele><time>2026-03-29T14:42:49.915Z</time></trkpt><trkpt lat="43.2532017" lon="11.2245465"><ele>197.66666666666669</ele><time>2026-03-29T14:42:50.915Z</time></trkpt><trkpt lat="43.2533498" lon="11.2246067"><ele>197.0</ele><time>2026-03-29T14:42:51.915Z</time></trkpt><trkpt lat="43.2534943" lon="11.2246519"><ele>197.0</ele><time>2026-03-29T14:42:52.915Z</time></trkpt><trkpt lat="43.2536611" lon="11.2246829"><ele>197.0</ele><time>2026-03-29T14:42:53.915Z</time></trkpt><trkpt lat="43.2538503" lon="11.2247038"><ele>197.0</ele><time>2026-03-29T14:42:54.915Z</time></trkpt><trkpt lat="43.2540537" lon="11.2247207"><ele>198.0</ele><time>2026-03-29T14:42:55.915Z</time></trkpt><trkpt lat="43.2542746" lon="11.2247413"><ele>199.0</ele><time>2026-03-29T14:42:56.915Z</time></trkpt><trkpt lat="43.2545022" lon="11.2247862"><ele>199.0</ele><time>2026-03-29T14:42:57.915Z</time></trkpt><trkpt lat="43.2547416" lon="11.2248649"><ele>199.0</ele><time>2026-03-29T14:42:58.915Z</time></trkpt><trkpt lat="43.2549854" lon="11.2249745"><ele>199.0</ele><time>2026-03-29T14:42:59.915Z</time></trkpt><trkpt lat="43.2552267" lon="11.2251016"><ele>199.0</ele><time>2026-03-29T14:43:00.915Z</time></trkpt><trkpt lat="43.2554636" lon="11.2252374"><ele>200.0</ele><time>2026-03-29T14:43:01.915Z</time></trkpt><trkpt lat="43.2556871" lon="11.2253891"><ele>201.0</ele><time>2026-03-29T14:43:02.915Z</time></trkpt><trkpt lat="43.2558945" lon="11.2255512"><ele>199.66666666666669</ele><time>2026-03-29T14:43:03.915Z</time></trkpt><trkpt lat="43.2560879" lon="11.2257124"><ele>198.33333333333334</ele><time>2026-03-29T14:43:04.915Z</time></trkpt><trkpt lat="43.2562771" lon="11.2258569"><ele>197.0</ele><time>2026-03-29T14:43:05.915Z</time></trkpt><trkpt lat="43.2564724" lon="11.2259787"><ele>197.0</ele><time>2026-03-29T14:43:06.915Z</time></trkpt><trkpt lat="43.2566789" lon="11.226062"><ele>197.0</ele><time>2026-03-29T14:43:07.915Z</time></trkpt><trkpt lat="43.256914" lon="11.2260974"><ele>197.0</ele><time>2026-03-29T14:43:08.915Z</time></trkpt><trkpt lat="43.2571575" lon="11.226098"><ele>197.0</ele><time>2026-03-29T14:43:09.915Z</time></trkpt><trkpt lat="43.2574128" lon="11.2260913"><ele>197.5</ele><time>2026-03-29T14:43:10.915Z</time></trkpt><trkpt lat="43.2576566" lon="11.2260873"><ele>198.0</ele><time>2026-03-29T14:43:11.915Z</time></trkpt><trkpt lat="43.2578891" lon="11.2260928"><ele>198.0</ele><time>2026-03-29T14:43:12.915Z</time></trkpt><trkpt lat="43.258115" lon="11.2261144"><ele>198.0</ele><time>2026-03-29T14:43:13.915Z</time></trkpt><trkpt lat="43.2583361" lon="11.2261627"><ele>197.5</ele><time>2026-03-29T14:43:14.915Z</time></trkpt><trkpt lat="43.2585483" lon="11.226265"><ele>197.0</ele><time>2026-03-29T14:43:15.915Z</time></trkpt><trkpt lat="43.2587517" lon="11.2264117"><ele>197.0</ele><time>2026-03-29T14:43:16.915Z</time></trkpt><trkpt lat="43.2589583" lon="11.2266017"><ele>197.0</ele><time>2026-03-29T14:43:17.915Z</time></trkpt><trkpt lat="43.2591517" lon="11.22682"><ele>197.0</ele><time>2026-03-29T14:43:18.915Z</time></trkpt><trkpt lat="43.2593383" lon="11.2270533"><ele>197.0</ele><time>2026-03-29T14:43:19.915Z</time></trkpt><trkpt lat="43.2595033" lon="11.227295"><ele>198.5</ele><time>2026-03-29T14:43:20.915Z</time></trkpt><trkpt lat="43.2596717" lon="11.2275317"><ele>200.0</ele><time>2026-03-29T14:43:21.915Z</time></trkpt><trkpt lat="43.2598367" lon="11.22777"><ele>200.0</ele><time>2026-03-29T14:43:22.915Z</time></trkpt><trkpt lat="43.2599967" lon="11.227995"><ele>200.0</ele><time>2026-03-29T14:43:23.915Z</time></trkpt><trkpt lat="43.2601583" lon="11.22822"><ele>196.5</ele><time>2026-03-29T14:43:24.915Z</time></trkpt><trkpt lat="43.2603167" lon="11.228455"><ele>193.0</ele><time>2026-03-29T14:43:25.915Z</time></trkpt><trkpt lat="43.2604833" lon="11.2286817"><ele>193.66666666666666</ele><time>2026-03-29T14:43:26.915Z</time></trkpt><trkpt lat="43.2606467" lon="11.2288883"><ele>194.33333333333331</ele><time>2026-03-29T14:43:27.915Z</time></trkpt><trkpt lat="43.2608033" lon="11.2290933"><ele>195.0</ele><time>2026-03-29T14:43:28.915Z</time></trkpt><trkpt lat="43.2609533" lon="11.2293033"><ele>195.0</ele><time>2026-03-29T14:43:29.915Z</time></trkpt><trkpt lat="43.2611083" lon="11.2295067"><ele>195.0</ele><time>2026-03-29T14:43:30.915Z</time></trkpt><trkpt lat="43.2612633" lon="11.2297167"><ele>195.0</ele><time>2026-03-29T14:43:31.915Z</time></trkpt><trkpt lat="43.26141" lon="11.2299183"><ele>196.33333333333331</ele><time>2026-03-29T14:43:32.915Z</time></trkpt><trkpt lat="43.2615583" lon="11.2301233"><ele>197.66666666666666</ele><time>2026-03-29T14:43:33.916Z</time></trkpt><trkpt lat="43.261715" lon="11.2303217"><ele>199.0</ele><time>2026-03-29T14:43:34.915Z</time></trkpt><trkpt lat="43.2618683" lon="11.2305233"><ele>198.66666666666666</ele><time>2026-03-29T14:43:35.915Z</time></trkpt><trkpt lat="43.2620233" lon="11.2307333"><ele>198.33333333333331</ele><time>2026-03-29T14:43:36.915Z</time></trkpt><trkpt lat="43.26218" lon="11.2309367"><ele>198.0</ele><time>2026-03-29T14:43:37.915Z</time></trkpt><trkpt lat="43.2623333" lon="11.2311467"><ele>200.0</ele><time>2026-03-29T14:43:38.915Z</time></trkpt><trkpt lat="43.2624833" lon="11.23136"><ele>202.0</ele><time>2026-03-29T14:43:39.915Z</time></trkpt><trkpt lat="43.2626267" lon="11.23159"><ele>204.0</ele><time>2026-03-29T14:43:40.915Z</time></trkpt><trkpt lat="43.2627683" lon="11.2318233"><ele>204.0</ele><time>2026-03-29T14:43:41.915Z</time></trkpt><trkpt lat="43.2629017" lon="11.232055"><ele>204.0</ele><time>2026-03-29T14:43:42.915Z</time></trkpt><trkpt lat="43.263025" lon="11.23228"><ele>204.0</ele><time>2026-03-29T14:43:43.915Z</time></trkpt><trkpt lat="43.2631433" lon="11.2325083"><ele>206.66666666666669</ele><time>2026-03-29T14:43:44.915Z</time></trkpt><trkpt lat="43.2632617" lon="11.232735"><ele>209.33333333333334</ele><time>2026-03-29T14:43:45.915Z</time></trkpt><trkpt lat="43.26339" lon="11.2329467"><ele>212.0</ele><time>2026-03-29T14:43:46.915Z</time></trkpt><trkpt lat="43.2635083" lon="11.2331583"><ele>212.5</ele><time>2026-03-29T14:43:47.915Z</time></trkpt><trkpt lat="43.2636467" lon="11.2333933"><ele>213.0</ele><time>2026-03-29T14:43:48.915Z</time></trkpt><trkpt lat="43.2637883" lon="11.2336533"><ele>213.0</ele><time>2026-03-29T14:43:49.915Z</time></trkpt><trkpt lat="43.263939" lon="11.2339005"><ele>213.0</ele><time>2026-03-29T14:43:50.915Z</time></trkpt><trkpt lat="43.2640712" lon="11.2341613"><ele>209.0</ele><time>2026-03-29T14:43:51.915Z</time></trkpt><trkpt lat="43.2642145" lon="11.2344205"><ele>205.0</ele><time>2026-03-29T14:43:52.915Z</time></trkpt><trkpt lat="43.264362" lon="11.2346837"><ele>204.0</ele><time>2026-03-29T14:43:53.915Z</time></trkpt><trkpt lat="43.2645088" lon="11.2349519"><ele>203.0</ele><time>2026-03-29T14:43:54.915Z</time></trkpt><trkpt lat="43.2646548" lon="11.2352177"><ele>203.5</ele><time>2026-03-29T14:43:55.915Z</time></trkpt><trkpt lat="43.2648004" lon="11.2354749"><ele>204.0</ele><time>2026-03-29T14:43:56.915Z</time></trkpt><trkpt lat="43.264946" lon="11.2357289"><ele>204.0</ele><time>2026-03-29T14:43:57.915Z</time></trkpt><trkpt lat="43.2650906" lon="11.2359735"><ele>204.0</ele><time>2026-03-29T14:43:58.915Z</time></trkpt><trkpt lat="43.2652322" lon="11.2362191"><ele>204.0</ele><time>2026-03-29T14:43:59.915Z</time></trkpt><trkpt lat="43.26537" lon="11.2364692"><ele>204.0</ele><time>2026-03-29T14:44:00.915Z</time></trkpt><trkpt lat="43.2655051" lon="11.2367105"><ele>206.0</ele><time>2026-03-29T14:44:01.915Z</time></trkpt><trkpt lat="43.2656449" lon="11.2369529"><ele>208.0</ele><time>2026-03-29T14:44:02.915Z</time></trkpt><trkpt lat="43.2657894" lon="11.2371928"><ele>208.0</ele><time>2026-03-29T14:44:03.915Z</time></trkpt><trkpt lat="43.2659353" lon="11.2374392"><ele>208.0</ele><time>2026-03-29T14:44:04.915Z</time></trkpt><trkpt lat="43.2660785" lon="11.2376923"><ele>208.0</ele><time>2026-03-29T14:44:05.915Z</time></trkpt><trkpt lat="43.2662197" lon="11.2379449"><ele>208.0</ele><time>2026-03-29T14:44:06.915Z</time></trkpt><trkpt lat="43.2663566" lon="11.2381836"><ele>204.5</ele><time>2026-03-29T14:44:07.915Z</time></trkpt><trkpt lat="43.2664993" lon="11.2384162"><ele>201.0</ele><time>2026-03-29T14:44:08.915Z</time></trkpt><trkpt lat="43.2666499" lon="11.2386566"><ele>201.0</ele><time>2026-03-29T14:44:09.915Z</time></trkpt><trkpt lat="43.2667987" lon="11.2388948"><ele>201.0</ele><time>2026-03-29T14:44:10.915Z</time></trkpt><trkpt lat="43.2669539" lon="11.2391437"><ele>200.5</ele><time>2026-03-29T14:44:11.915Z</time></trkpt><trkpt lat="43.2671132" lon="11.2394001"><ele>200.0</ele><time>2026-03-29T14:44:12.915Z</time></trkpt><trkpt lat="43.2672803" lon="11.2396572"><ele>199.0</ele><time>2026-03-29T14:44:13.915Z</time></trkpt><trkpt lat="43.267449" lon="11.2399247"><ele>198.0</ele><time>2026-03-29T14:44:14.915Z</time></trkpt><trkpt lat="43.2676062" lon="11.2401895"><ele>198.0</ele><time>2026-03-29T14:44:15.916Z</time></trkpt><trkpt lat="43.2677554" lon="11.2404484"><ele>198.0</ele><time>2026-03-29T14:44:16.915Z</time></trkpt><trkpt lat="43.267898" lon="11.2406974"><ele>198.0</ele><time>2026-03-29T14:44:17.915Z</time></trkpt><trkpt lat="43.2680346" lon="11.2409369"><ele>198.0</ele><time>2026-03-29T14:44:18.915Z</time></trkpt><trkpt lat="43.2681653" lon="11.2411672"><ele>198.0</ele><time>2026-03-29T14:44:19.915Z</time></trkpt><trkpt lat="43.268291" lon="11.241379"><ele>200.66666666666669</ele><time>2026-03-29T14:44:20.915Z</time></trkpt><trkpt lat="43.2684145" lon="11.2415889"><ele>203.33333333333334</ele><time>2026-03-29T14:44:21.915Z</time></trkpt><trkpt lat="43.2685427" lon="11.2418053"><ele>206.0</ele><time>2026-03-29T14:44:22.915Z</time></trkpt><trkpt lat="43.2686733" lon="11.24202"><ele>206.0</ele><time>2026-03-29T14:44:23.915Z</time></trkpt><trkpt lat="43.2688217" lon="11.24225"><ele>206.0</ele><time>2026-03-29T14:44:24.915Z</time></trkpt><trkpt lat="43.2689733" lon="11.2424733"><ele>206.0</ele><time>2026-03-29T14:44:25.915Z</time></trkpt><trkpt lat="43.2691217" lon="11.2426883"><ele>204.5</ele><time>2026-03-29T14:44:26.915Z</time></trkpt><trkpt lat="43.2692667" lon="11.2429217"><ele>203.0</ele><time>2026-03-29T14:44:27.915Z</time></trkpt><trkpt lat="43.26942" lon="11.2431517"><ele>201.0</ele><time>2026-03-29T14:44:28.915Z</time></trkpt><trkpt lat="43.2695717" lon="11.2433833"><ele>199.0</ele><time>2026-03-29T14:44:29.915Z</time></trkpt><trkpt lat="43.2697233" lon="11.2436183"><ele>198.66666666666666</ele><time>2026-03-29T14:44:30.915Z</time></trkpt><trkpt lat="43.2698733" lon="11.2438517"><ele>198.33333333333331</ele><time>2026-03-29T14:44:31.915Z</time></trkpt><trkpt lat="43.270015" lon="11.2440833"><ele>198.0</ele><time>2026-03-29T14:44:32.915Z</time></trkpt><trkpt lat="43.2701667" lon="11.24431"><ele>197.66666666666669</ele><time>2026-03-29T14:44:33.915Z</time></trkpt><trkpt lat="43.270315" lon="11.2445333"><ele>197.33333333333334</ele><time>2026-03-29T14:44:34.915Z</time></trkpt><trkpt lat="43.2704667" lon="11.2447633"><ele>197.0</ele><time>2026-03-29T14:44:35.915Z</time></trkpt><trkpt lat="43.2706167" lon="11.24499"><ele>197.0</ele><time>2026-03-29T14:44:36.915Z</time></trkpt><trkpt lat="43.2707683" lon="11.24522"><ele>197.0</ele><time>2026-03-29T14:44:37.915Z</time></trkpt><trkpt lat="43.270915" lon="11.2454567"><ele>197.0</ele><time>2026-03-29T14:44:38.915Z</time></trkpt><trkpt lat="43.2710617" lon="11.2456833"><ele>197.0</ele><time>2026-03-29T14:44:39.915Z</time></trkpt><trkpt lat="43.2712083" lon="11.245915"><ele>197.0</ele><time>2026-03-29T14:44:40.915Z</time></trkpt><trkpt lat="43.27136" lon="11.246155"><ele>197.66666666666669</ele><time>2026-03-29T14:44:41.915Z</time></trkpt><trkpt lat="43.2715083" lon="11.24639"><ele>198.33333333333331</ele><time>2026-03-29T14:44:42.915Z</time></trkpt><trkpt lat="43.27164" lon="11.2466367"><ele>199.0</ele><time>2026-03-29T14:44:43.915Z</time></trkpt><trkpt lat="43.2717667" lon="11.246875"><ele>199.66666666666666</ele><time>2026-03-29T14:44:44.915Z</time></trkpt><trkpt lat="43.2718983" lon="11.2471083"><ele>200.33333333333331</ele><time>2026-03-29T14:44:45.915Z</time></trkpt><trkpt lat="43.2720283" lon="11.2473417"><ele>201.0</ele><time>2026-03-29T14:44:46.915Z</time></trkpt><trkpt lat="43.2721617" lon="11.2475733"><ele>200.66666666666669</ele><time>2026-03-29T14:44:47.915Z</time></trkpt><trkpt lat="43.2722917" lon="11.247805"><ele>200.33333333333334</ele><time>2026-03-29T14:44:48.915Z</time></trkpt><trkpt lat="43.27242" lon="11.248035"><ele>200.0</ele><time>2026-03-29T14:44:49.915Z</time></trkpt><trkpt lat="43.2725517" lon="11.2482717"><ele>201.66666666666669</ele><time>2026-03-29T14:44:50.915Z</time></trkpt><trkpt lat="43.27269" lon="11.2485033"><ele>203.33333333333331</ele><time>2026-03-29T14:44:51.915Z</time></trkpt><trkpt lat="43.27283" lon="11.2487333"><ele>205.0</ele><time>2026-03-29T14:44:52.915Z</time></trkpt><trkpt lat="43.2729667" lon="11.24896"><ele>206.0</ele><time>2026-03-29T14:44:53.915Z</time></trkpt><trkpt lat="43.2730733" lon="11.2491733"><ele>207.0</ele><time>2026-03-29T14:44:54.915Z</time></trkpt><trkpt lat="43.2731667" lon="11.24934"><ele>208.0</ele><time>2026-03-29T14:44:55.915Z</time></trkpt><trkpt lat="43.2732417" lon="11.249475"><ele>208.0</ele><time>2026-03-29T14:44:56.915Z</time></trkpt><trkpt lat="43.2733133" lon="11.2495967"><ele>208.0</ele><time>2026-03-29T14:44:57.915Z</time></trkpt><trkpt lat="43.2733833" lon="11.24971"><ele>208.0</ele><time>2026-03-29T14:44:58.915Z</time></trkpt><trkpt lat="43.2734533" lon="11.24983"><ele>208.0</ele><time>2026-03-29T14:44:59.915Z</time></trkpt><trkpt lat="43.273525" lon="11.2499483"><ele>208.0</ele><time>2026-03-29T14:45:00.915Z</time></trkpt><trkpt lat="43.2736083" lon="11.2500767"><ele>208.75</ele><time>2026-03-29T14:45:01.915Z</time></trkpt><trkpt lat="43.2737017" lon="11.25022"><ele>209.5</ele><time>2026-03-29T14:45:02.915Z</time></trkpt><trkpt lat="43.2738033" lon="11.2503717"><ele>210.25</ele><time>2026-03-29T14:45:03.915Z</time></trkpt><trkpt lat="43.273905" lon="11.25052"><ele>211.0</ele><time>2026-03-29T14:45:04.915Z</time></trkpt><trkpt lat="43.27402" lon="11.2506817"><ele>211.0</ele><time>2026-03-29T14:45:05.915Z</time></trkpt><trkpt lat="43.2741467" lon="11.2508617"><ele>211.0</ele><time>2026-03-29T14:45:06.915Z</time></trkpt><trkpt lat="43.2742717" lon="11.251065"><ele>211.0</ele><time>2026-03-29T14:45:07.915Z</time></trkpt><trkpt lat="43.2744067" lon="11.2512817"><ele>209.66666666666666</ele><time>2026-03-29T14:45:08.915Z</time></trkpt><trkpt lat="43.2745467" lon="11.2515117"><ele>208.33333333333331</ele><time>2026-03-29T14:45:09.915Z</time></trkpt><trkpt lat="43.274685" lon="11.2517383"><ele>207.0</ele><time>2026-03-29T14:45:10.915Z</time></trkpt><trkpt lat="43.274825" lon="11.2519617"><ele>205.0</ele><time>2026-03-29T14:45:11.915Z</time></trkpt><trkpt lat="43.274965" lon="11.2521967"><ele>203.0</ele><time>2026-03-29T14:45:12.915Z</time></trkpt><trkpt lat="43.2751067" lon="11.2524283"><ele>201.0</ele><time>2026-03-29T14:45:13.916Z</time></trkpt><trkpt lat="43.2752367" lon="11.2526817"><ele>201.0</ele><time>2026-03-29T14:45:14.915Z</time></trkpt><trkpt lat="43.2753867" lon="11.2529217"><ele>201.0</ele><time>2026-03-29T14:45:15.915Z</time></trkpt><trkpt lat="43.2755333" lon="11.2531667"><ele>199.0</ele><time>2026-03-29T14:45:16.916Z</time></trkpt><trkpt lat="43.2756733" lon="11.2534083"><ele>197.0</ele><time>2026-03-29T14:45:17.915Z</time></trkpt><trkpt lat="43.2758183" lon="11.253655"><ele>197.0</ele><time>2026-03-29T14:45:18.915Z</time></trkpt><trkpt lat="43.2759583" lon="11.2538967"><ele>197.0</ele><time>2026-03-29T14:45:19.915Z</time></trkpt><trkpt lat="43.276105" lon="11.2541367"><ele>196.5</ele><time>2026-03-29T14:45:20.915Z</time></trkpt><trkpt lat="43.2762533" lon="11.2543717"><ele>196.0</ele><time>2026-03-29T14:45:21.915Z</time></trkpt><trkpt lat="43.2764" lon="11.2546083"><ele>197.0</ele><time>2026-03-29T14:45:22.915Z</time></trkpt><trkpt lat="43.2765417" lon="11.25484"><ele>198.0</ele><time>2026-03-29T14:45:23.915Z</time></trkpt><trkpt lat="43.2766817" lon="11.25507"><ele>199.0</ele><time>2026-03-29T14:45:24.915Z</time></trkpt><trkpt lat="43.276815" lon="11.2552983"><ele>199.0</ele><time>2026-03-29T14:45:25.915Z</time></trkpt><trkpt lat="43.27695" lon="11.25553"><ele>199.0</ele><time>2026-03-29T14:45:26.915Z</time></trkpt><trkpt lat="43.2770817" lon="11.2557483"><ele>199.0</ele><time>2026-03-29T14:45:27.915Z</time></trkpt><trkpt lat="43.2772117" lon="11.255985"><ele>199.33333333333331</ele><time>2026-03-29T14:45:28.915Z</time></trkpt><trkpt lat="43.2773417" lon="11.2562233"><ele>199.66666666666669</ele><time>2026-03-29T14:45:29.915Z</time></trkpt><trkpt lat="43.2774683" lon="11.2564467"><ele>200.0</ele><time>2026-03-29T14:45:30.915Z</time></trkpt><trkpt lat="43.277585" lon="11.25667"><ele>200.0</ele><time>2026-03-29T14:45:31.915Z</time></trkpt><trkpt lat="43.2777083" lon="11.2568767"><ele>200.0</ele><time>2026-03-29T14:45:32.915Z</time></trkpt><trkpt lat="43.2778433" lon="11.257085"><ele>200.0</ele><time>2026-03-29T14:45:33.915Z</time></trkpt><trkpt lat="43.2779917" lon="11.2573"><ele>200.5</ele><time>2026-03-29T14:45:34.915Z</time></trkpt><trkpt lat="43.27816" lon="11.2575033"><ele>201.0</ele><time>2026-03-29T14:45:35.915Z</time></trkpt><trkpt lat="43.2783267" lon="11.2577183"><ele>201.0</ele><time>2026-03-29T14:45:36.915Z</time></trkpt><trkpt lat="43.27849" lon="11.25793"><ele>201.0</ele><time>2026-03-29T14:45:37.915Z</time></trkpt><trkpt lat="43.2786567" lon="11.2581467"><ele>200.5</ele><time>2026-03-29T14:45:38.915Z</time></trkpt><trkpt lat="43.27883" lon="11.258365"><ele>200.0</ele><time>2026-03-29T14:45:39.915Z</time></trkpt><trkpt lat="43.2790033" lon="11.2585683"><ele>200.66666666666669</ele><time>2026-03-29T14:45:40.915Z</time></trkpt><trkpt lat="43.2791533" lon="11.2587733"><ele>201.33333333333331</ele><time>2026-03-29T14:45:41.915Z</time></trkpt><trkpt lat="43.2793183" lon="11.2589867"><ele>202.0</ele><time>2026-03-29T14:45:42.915Z</time></trkpt><trkpt lat="43.2794717" lon="11.2591967"><ele>202.0</ele><time>2026-03-29T14:45:43.915Z</time></trkpt><trkpt lat="43.279625" lon="11.2594"><ele>202.0</ele><time>2026-03-29T14:45:44.915Z</time></trkpt><trkpt lat="43.2797783" lon="11.2595967"><ele>202.0</ele><time>2026-03-29T14:45:45.916Z</time></trkpt><trkpt lat="43.279935" lon="11.259785"><ele>201.33333333333331</ele><time>2026-03-29T14:45:46.915Z</time></trkpt><trkpt lat="43.28009" lon="11.2599833"><ele>200.66666666666669</ele><time>2026-03-29T14:45:47.915Z</time></trkpt><trkpt lat="43.2802483" lon="11.2601867"><ele>200.0</ele><time>2026-03-29T14:45:48.916Z</time></trkpt><trkpt lat="43.280405" lon="11.26039"><ele>200.0</ele><time>2026-03-29T14:45:49.915Z</time></trkpt><trkpt lat="43.2805633" lon="11.2605983"><ele>200.0</ele><time>2026-03-29T14:45:50.915Z</time></trkpt><trkpt lat="43.28073" lon="11.2608033"><ele>200.0</ele><time>2026-03-29T14:45:51.915Z</time></trkpt><trkpt lat="43.2808967" lon="11.2610133"><ele>200.0</ele><time>2026-03-29T14:45:52.915Z</time></trkpt><trkpt lat="43.2810667" lon="11.26122"><ele>200.0</ele><time>2026-03-29T14:45:53.915Z</time></trkpt><trkpt lat="43.2812283" lon="11.2614333"><ele>200.33333333333334</ele><time>2026-03-29T14:45:54.915Z</time></trkpt><trkpt lat="43.2813817" lon="11.261635"><ele>200.66666666666669</ele><time>2026-03-29T14:45:55.915Z</time></trkpt><trkpt lat="43.2815317" lon="11.2618267"><ele>201.0</ele><time>2026-03-29T14:45:56.915Z</time></trkpt><trkpt lat="43.2816717" lon="11.2620133"><ele>201.0</ele><time>2026-03-29T14:45:57.915Z</time></trkpt><trkpt lat="43.2818067" lon="11.2622033"><ele>201.0</ele><time>2026-03-29T14:45:58.915Z</time></trkpt><trkpt lat="43.281945" lon="11.2623817"><ele>201.0</ele><time>2026-03-29T14:45:59.915Z</time></trkpt><trkpt lat="43.2820833" lon="11.2625633"><ele>201.66666666666669</ele><time>2026-03-29T14:46:00.915Z</time></trkpt><trkpt lat="43.2822217" lon="11.2627567"><ele>202.33333333333334</ele><time>2026-03-29T14:46:01.915Z</time></trkpt><trkpt lat="43.28237" lon="11.2629467"><ele>203.0</ele><time>2026-03-29T14:46:02.915Z</time></trkpt><trkpt lat="43.28252" lon="11.2631267"><ele>203.0</ele><time>2026-03-29T14:46:03.915Z</time></trkpt><trkpt lat="43.2826717" lon="11.2633333"><ele>203.0</ele><time>2026-03-29T14:46:04.915Z</time></trkpt><trkpt lat="43.2828267" lon="11.2635367"><ele>203.0</ele><time>2026-03-29T14:46:05.915Z</time></trkpt><trkpt lat="43.2829833" lon="11.26373"><ele>203.0</ele><time>2026-03-29T14:46:06.915Z</time></trkpt><trkpt lat="43.28314" lon="11.2639317"><ele>203.0</ele><time>2026-03-29T14:46:07.915Z</time></trkpt><trkpt lat="43.283295" lon="11.2641233"><ele>203.0</ele><time>2026-03-29T14:46:08.915Z</time></trkpt><trkpt lat="43.28345" lon="11.264315"><ele>203.33333333333334</ele><time>2026-03-29T14:46:09.915Z</time></trkpt><trkpt lat="43.2836" lon="11.2645083"><ele>203.66666666666669</ele><time>2026-03-29T14:46:10.915Z</time></trkpt><trkpt lat="43.28375" lon="11.2646883"><ele>204.0</ele><time>2026-03-29T14:46:11.915Z</time></trkpt><trkpt lat="43.2838867" lon="11.2648667"><ele>204.0</ele><time>2026-03-29T14:46:12.915Z</time></trkpt><trkpt lat="43.2840183" lon="11.2650333"><ele>204.0</ele><time>2026-03-29T14:46:13.915Z</time></trkpt><trkpt lat="43.2841317" lon="11.2651767"><ele>204.0</ele><time>2026-03-29T14:46:14.915Z</time></trkpt><trkpt lat="43.28424" lon="11.2653133"><ele>204.0</ele><time>2026-03-29T14:46:15.915Z</time></trkpt><trkpt lat="43.2843433" lon="11.2654483"><ele>204.0</ele><time>2026-03-29T14:46:16.915Z</time></trkpt><trkpt lat="43.2844433" lon="11.2655667"><ele>204.0</ele><time>2026-03-29T14:46:17.915Z</time></trkpt><trkpt lat="43.2845383" lon="11.2656983"><ele>204.0</ele><time>2026-03-29T14:46:18.915Z</time></trkpt><trkpt lat="43.2846283" lon="11.2658267"><ele>204.0</ele><time>2026-03-29T14:46:19.915Z</time></trkpt><trkpt lat="43.2847283" lon="11.2659517"><ele>204.0</ele><time>2026-03-29T14:46:20.915Z</time></trkpt><trkpt lat="43.2848317" lon="11.266075"><ele>204.0</ele><time>2026-03-29T14:46:21.915Z</time></trkpt><trkpt lat="43.2849467" lon="11.2662233"><ele>204.0</ele><time>2026-03-29T14:46:22.915Z</time></trkpt><trkpt lat="43.2850783" lon="11.2663883"><ele>204.33333333333331</ele><time>2026-03-29T14:46:23.915Z</time></trkpt><trkpt lat="43.2852117" lon="11.2665617"><ele>204.66666666666666</ele><time>2026-03-29T14:46:24.915Z</time></trkpt><trkpt lat="43.2853583" lon="11.2667417"><ele>205.0</ele><time>2026-03-29T14:46:25.915Z</time></trkpt><trkpt lat="43.2854933" lon="11.2669467"><ele>205.0</ele><time>2026-03-29T14:46:26.915Z</time></trkpt><trkpt lat="43.285635" lon="11.2671417"><ele>205.0</ele><time>2026-03-29T14:46:27.915Z</time></trkpt><trkpt lat="43.285785" lon="11.2673433"><ele>205.0</ele><time>2026-03-29T14:46:28.915Z</time></trkpt><trkpt lat="43.2859483" lon="11.2675367"><ele>205.0</ele><time>2026-03-29T14:46:29.915Z</time></trkpt><trkpt lat="43.2861133" lon="11.2677267"><ele>205.0</ele><time>2026-03-29T14:46:30.915Z</time></trkpt><trkpt lat="43.2862717" lon="11.26792"><ele>205.0</ele><time>2026-03-29T14:46:31.915Z</time></trkpt><trkpt lat="43.286425" lon="11.2681117"><ele>205.66666666666666</ele><time>2026-03-29T14:46:32.915Z</time></trkpt><trkpt lat="43.2866083" lon="11.268295"><ele>206.33333333333331</ele><time>2026-03-29T14:46:33.915Z</time></trkpt><trkpt lat="43.2867933" lon="11.268465"><ele>207.0</ele><time>2026-03-29T14:46:34.915Z</time></trkpt><trkpt lat="43.2869833" lon="11.2686333"><ele>207.0</ele><time>2026-03-29T14:46:35.915Z</time></trkpt><trkpt lat="43.2871767" lon="11.268815"><ele>207.0</ele><time>2026-03-29T14:46:36.915Z</time></trkpt><trkpt lat="43.287355" lon="11.2689933"><ele>208.0</ele><time>2026-03-29T14:46:37.915Z</time></trkpt><trkpt lat="43.2875283" lon="11.2691783"><ele>209.0</ele><time>2026-03-29T14:46:38.915Z</time></trkpt><trkpt lat="43.287695" lon="11.2693667"><ele>210.0</ele><time>2026-03-29T14:46:39.915Z</time></trkpt><trkpt lat="43.2878517" lon="11.2695483"><ele>210.0</ele><time>2026-03-29T14:46:40.915Z</time></trkpt><trkpt lat="43.28801" lon="11.2697383"><ele>210.0</ele><time>2026-03-29T14:46:41.915Z</time></trkpt><trkpt lat="43.2881617" lon="11.2699217"><ele>210.0</ele><time>2026-03-29T14:46:42.915Z</time></trkpt><trkpt lat="43.2883067" lon="11.2701067"><ele>212.0</ele><time>2026-03-29T14:46:43.915Z</time></trkpt><trkpt lat="43.2884517" lon="11.27028"><ele>214.0</ele><time>2026-03-29T14:46:44.915Z</time></trkpt><trkpt lat="43.288595" lon="11.2704483"><ele>216.0</ele><time>2026-03-29T14:46:45.915Z</time></trkpt><trkpt lat="43.2887433" lon="11.270625"><ele>216.33333333333331</ele><time>2026-03-29T14:46:46.915Z</time></trkpt><trkpt lat="43.288885" lon="11.270815"><ele>216.66666666666666</ele><time>2026-03-29T14:46:47.915Z</time></trkpt><trkpt lat="43.2890233" lon="11.2710033"><ele>217.0</ele><time>2026-03-29T14:46:48.915Z</time></trkpt><trkpt lat="43.28914" lon="11.27119"><ele>219.0</ele><time>2026-03-29T14:46:49.915Z</time></trkpt><trkpt lat="43.2892417" lon="11.2713683"><ele>221.0</ele><time>2026-03-29T14:46:50.915Z</time></trkpt><trkpt lat="43.28933" lon="11.2715483"><ele>223.0</ele><time>2026-03-29T14:46:51.915Z</time></trkpt><trkpt lat="43.289405" lon="11.2717117"><ele>223.5</ele><time>2026-03-29T14:46:52.915Z</time></trkpt><trkpt lat="43.2895" lon="11.2718333"><ele>224.0</ele><time>2026-03-29T14:46:53.915Z</time></trkpt><trkpt lat="43.289595" lon="11.2719483"><ele>224.5</ele><time>2026-03-29T14:46:54.915Z</time></trkpt><trkpt lat="43.2896867" lon="11.2720617"><ele>225.0</ele><time>2026-03-29T14:46:55.915Z</time></trkpt><trkpt lat="43.289775" lon="11.2721783"><ele>225.25</ele><time>2026-03-29T14:46:56.915Z</time></trkpt><trkpt lat="43.2898633" lon="11.2723317"><ele>225.5</ele><time>2026-03-29T14:46:57.915Z</time></trkpt><trkpt lat="43.2899383" lon="11.2724817"><ele>225.75</ele><time>2026-03-29T14:46:58.915Z</time></trkpt><trkpt lat="43.290005" lon="11.2726383"><ele>226.0</ele><time>2026-03-29T14:46:59.915Z</time></trkpt><trkpt lat="43.2900633" lon="11.2728117"><ele>226.0</ele><time>2026-03-29T14:47:00.915Z</time></trkpt><trkpt lat="43.29012" lon="11.272975"><ele>226.0</ele><time>2026-03-29T14:47:01.915Z</time></trkpt><trkpt lat="43.2901683" lon="11.2731367"><ele>226.0</ele><time>2026-03-29T14:47:02.915Z</time></trkpt><trkpt lat="43.2902167" lon="11.2732883"><ele>226.0</ele><time>2026-03-29T14:47:03.915Z</time></trkpt><trkpt lat="43.2902583" lon="11.27344"><ele>225.75</ele><time>2026-03-29T14:47:04.915Z</time></trkpt><trkpt lat="43.2902967" lon="11.2736"><ele>225.5</ele><time>2026-03-29T14:47:05.915Z</time></trkpt><trkpt lat="43.2903333" lon="11.2737667"><ele>225.25</ele><time>2026-03-29T14:47:06.915Z</time></trkpt><trkpt lat="43.290365" lon="11.2739267"><ele>225.0</ele><time>2026-03-29T14:47:07.915Z</time></trkpt><trkpt lat="43.2904" lon="11.274085"><ele>225.0</ele><time>2026-03-29T14:47:08.915Z</time></trkpt><trkpt lat="43.290435" lon="11.274225"><ele>225.0</ele><time>2026-03-29T14:47:09.915Z</time></trkpt><trkpt lat="43.2904817" lon="11.2743283"><ele>225.0</ele><time>2026-03-29T14:47:10.915Z</time></trkpt><trkpt lat="43.29055" lon="11.2743917"><ele>225.0</ele><time>2026-03-29T14:47:11.915Z</time></trkpt><trkpt lat="43.290655" lon="11.2744267"><ele>225.0</ele><time>2026-03-29T14:47:12.915Z</time></trkpt><trkpt lat="43.2908017" lon="11.2744583"><ele>223.33333333333331</ele><time>2026-03-29T14:47:13.915Z</time></trkpt><trkpt lat="43.2909667" lon="11.2744917"><ele>221.66666666666666</ele><time>2026-03-29T14:47:14.915Z</time></trkpt><trkpt lat="43.2911417" lon="11.27453"><ele>220.0</ele><time>2026-03-29T14:47:15.915Z</time></trkpt><trkpt lat="43.2913167" lon="11.2745717"><ele>219.0</ele><time>2026-03-29T14:47:16.915Z</time></trkpt><trkpt lat="43.2914867" lon="11.274615"><ele>218.0</ele><time>2026-03-29T14:47:17.915Z</time></trkpt><trkpt lat="43.2918417" lon="11.27469"><ele>218.0</ele><time>2026-03-29T14:47:19.915Z</time></trkpt><trkpt lat="43.2920233" lon="11.2747333"><ele>218.0</ele><time>2026-03-29T14:47:20.915Z</time></trkpt><trkpt lat="43.2922167" lon="11.2747783"><ele>218.0</ele><time>2026-03-29T14:47:21.915Z</time></trkpt><trkpt lat="43.292405" lon="11.2748183"><ele>217.66666666666669</ele><time>2026-03-29T14:47:22.915Z</time></trkpt><trkpt lat="43.2926033" lon="11.274855"><ele>217.33333333333331</ele><time>2026-03-29T14:47:23.915Z</time></trkpt><trkpt lat="43.2928" lon="11.274895"><ele>217.0</ele><time>2026-03-29T14:47:24.915Z</time></trkpt><trkpt lat="43.29299" lon="11.2749333"><ele>218.33333333333331</ele><time>2026-03-29T14:47:25.915Z</time></trkpt><trkpt lat="43.2931833" lon="11.2749467"><ele>219.66666666666669</ele><time>2026-03-29T14:47:26.915Z</time></trkpt><trkpt lat="43.2933783" lon="11.2749617"><ele>221.0</ele><time>2026-03-29T14:47:27.915Z</time></trkpt><trkpt lat="43.2935667" lon="11.2749533"><ele>221.0</ele><time>2026-03-29T14:47:28.915Z</time></trkpt><trkpt lat="43.2937583" lon="11.2749383"><ele>221.0</ele><time>2026-03-29T14:47:29.915Z</time></trkpt><trkpt lat="43.2939517" lon="11.2749167"><ele>221.0</ele><time>2026-03-29T14:47:30.915Z</time></trkpt><trkpt lat="43.2941367" lon="11.27489"><ele>222.33333333333334</ele><time>2026-03-29T14:47:31.915Z</time></trkpt><trkpt lat="43.2943233" lon="11.2748633"><ele>223.66666666666669</ele><time>2026-03-29T14:47:32.915Z</time></trkpt><trkpt lat="43.2944983" lon="11.27484"><ele>225.0</ele><time>2026-03-29T14:47:33.915Z</time></trkpt><trkpt lat="43.294675" lon="11.2748217"><ele>225.0</ele><time>2026-03-29T14:47:34.915Z</time></trkpt><trkpt lat="43.2948633" lon="11.2748033"><ele>225.0</ele><time>2026-03-29T14:47:35.915Z</time></trkpt><trkpt lat="43.2950483" lon="11.2747883"><ele>225.0</ele><time>2026-03-29T14:47:36.915Z</time></trkpt><trkpt lat="43.29524" lon="11.2748217"><ele>225.0</ele><time>2026-03-29T14:47:37.916Z</time></trkpt><trkpt lat="43.29543" lon="11.2748833"><ele>225.0</ele><time>2026-03-29T14:47:38.915Z</time></trkpt><trkpt lat="43.295625" lon="11.2749983"><ele>225.0</ele><time>2026-03-29T14:47:39.915Z</time></trkpt><trkpt lat="43.2958167" lon="11.2751517"><ele>224.5</ele><time>2026-03-29T14:47:40.915Z</time></trkpt><trkpt lat="43.2960133" lon="11.2753"><ele>224.0</ele><time>2026-03-29T14:47:41.915Z</time></trkpt><trkpt lat="43.2962217" lon="11.27545"><ele>224.5</ele><time>2026-03-29T14:47:42.915Z</time></trkpt><trkpt lat="43.29643" lon="11.275595"><ele>225.0</ele><time>2026-03-29T14:47:43.915Z</time></trkpt><trkpt lat="43.29664" lon="11.2757333"><ele>225.0</ele><time>2026-03-29T14:47:44.915Z</time></trkpt><trkpt lat="43.2968317" lon="11.2758783"><ele>225.0</ele><time>2026-03-29T14:47:45.915Z</time></trkpt><trkpt lat="43.2970183" lon="11.2760083"><ele>225.0</ele><time>2026-03-29T14:47:46.915Z</time></trkpt><trkpt lat="43.2971967" lon="11.2761117"><ele>225.0</ele><time>2026-03-29T14:47:47.915Z</time></trkpt><trkpt lat="43.2973867" lon="11.276175"><ele>225.0</ele><time>2026-03-29T14:47:48.915Z</time></trkpt><trkpt lat="43.2975817" lon="11.2762033"><ele>225.0</ele><time>2026-03-29T14:47:49.915Z</time></trkpt><trkpt lat="43.2977883" lon="11.2761967"><ele>225.0</ele><time>2026-03-29T14:47:50.915Z</time></trkpt><trkpt lat="43.2980067" lon="11.2761733"><ele>225.0</ele><time>2026-03-29T14:47:51.915Z</time></trkpt><trkpt lat="43.2982533" lon="11.2761567"><ele>225.66666666666669</ele><time>2026-03-29T14:47:52.915Z</time></trkpt><trkpt lat="43.298485" lon="11.2761"><ele>226.33333333333334</ele><time>2026-03-29T14:47:53.915Z</time></trkpt><trkpt lat="43.2986917" lon="11.2760417"><ele>227.0</ele><time>2026-03-29T14:47:54.915Z</time></trkpt><trkpt lat="43.2989033" lon="11.2759683"><ele>228.0</ele><time>2026-03-29T14:47:55.916Z</time></trkpt><trkpt lat="43.2990983" lon="11.275905"><ele>229.0</ele><time>2026-03-29T14:47:56.915Z</time></trkpt><trkpt lat="43.2992867" lon="11.2758533"><ele>230.0</ele><time>2026-03-29T14:47:57.916Z</time></trkpt><trkpt lat="43.2994633" lon="11.2757717"><ele>230.0</ele><time>2026-03-29T14:47:58.916Z</time></trkpt><trkpt lat="43.2996333" lon="11.275675"><ele>230.0</ele><time>2026-03-29T14:47:59.915Z</time></trkpt><trkpt lat="43.2998083" lon="11.27553"><ele>230.0</ele><time>2026-03-29T14:48:00.915Z</time></trkpt><trkpt lat="43.2999617" lon="11.2753517"><ele>230.66666666666669</ele><time>2026-03-29T14:48:01.915Z</time></trkpt><trkpt lat="43.30011" lon="11.275185"><ele>231.33333333333331</ele><time>2026-03-29T14:48:02.916Z</time></trkpt><trkpt lat="43.3002867" lon="11.2750467"><ele>232.0</ele><time>2026-03-29T14:48:03.915Z</time></trkpt><trkpt lat="43.3004817" lon="11.2749833"><ele>234.0</ele><time>2026-03-29T14:48:04.915Z</time></trkpt><trkpt lat="43.3006867" lon="11.27498"><ele>236.0</ele><time>2026-03-29T14:48:05.915Z</time></trkpt><trkpt lat="43.3008917" lon="11.275025"><ele>238.0</ele><time>2026-03-29T14:48:06.915Z</time></trkpt><trkpt lat="43.3010967" lon="11.275095"><ele>238.0</ele><time>2026-03-29T14:48:07.915Z</time></trkpt><trkpt lat="43.3013083" lon="11.27519"><ele>238.0</ele><time>2026-03-29T14:48:08.915Z</time></trkpt><trkpt lat="43.3015217" lon="11.2752933"><ele>238.0</ele><time>2026-03-29T14:48:09.915Z</time></trkpt><trkpt lat="43.30173" lon="11.2753983"><ele>240.0</ele><time>2026-03-29T14:48:10.915Z</time></trkpt><trkpt lat="43.3019383" lon="11.2754817"><ele>242.0</ele><time>2026-03-29T14:48:11.915Z</time></trkpt><trkpt lat="43.3021467" lon="11.2755633"><ele>244.0</ele><time>2026-03-29T14:48:12.915Z</time></trkpt><trkpt lat="43.3023683" lon="11.2756033"><ele>245.0</ele><time>2026-03-29T14:48:13.915Z</time></trkpt><trkpt lat="43.3026017" lon="11.2756"><ele>246.0</ele><time>2026-03-29T14:48:14.915Z</time></trkpt><trkpt lat="43.302825" lon="11.2755867"><ele>246.0</ele><time>2026-03-29T14:48:15.915Z</time></trkpt><trkpt lat="43.3030617" lon="11.2755833"><ele>246.0</ele><time>2026-03-29T14:48:16.915Z</time></trkpt><trkpt lat="43.3032983" lon="11.2755567"><ele>246.33333333333331</ele><time>2026-03-29T14:48:17.915Z</time></trkpt><trkpt lat="43.303525" lon="11.2756033"><ele>246.66666666666666</ele><time>2026-03-29T14:48:18.915Z</time></trkpt><trkpt lat="43.3037333" lon="11.27569"><ele>247.0</ele><time>2026-03-29T14:48:19.915Z</time></trkpt><trkpt lat="43.303945" lon="11.27581"><ele>249.0</ele><time>2026-03-29T14:48:20.915Z</time></trkpt><trkpt lat="43.3041517" lon="11.2759567"><ele>251.0</ele><time>2026-03-29T14:48:21.915Z</time></trkpt><trkpt lat="43.3043467" lon="11.2761167"><ele>251.0</ele><time>2026-03-29T14:48:22.915Z</time></trkpt><trkpt lat="43.304535" lon="11.27628"><ele>251.0</ele><time>2026-03-29T14:48:23.915Z</time></trkpt><trkpt lat="43.3047217" lon="11.276405"><ele>251.0</ele><time>2026-03-29T14:48:24.915Z</time></trkpt><trkpt lat="43.3049033" lon="11.2764883"><ele>250.0</ele><time>2026-03-29T14:48:25.915Z</time></trkpt><trkpt lat="43.3050867" lon="11.2765333"><ele>249.0</ele><time>2026-03-29T14:48:26.915Z</time></trkpt><trkpt lat="43.305295" lon="11.2765433"><ele>248.0</ele><time>2026-03-29T14:48:27.915Z</time></trkpt><trkpt lat="43.3055167" lon="11.2765217"><ele>250.0</ele><time>2026-03-29T14:48:28.915Z</time></trkpt><trkpt lat="43.305745" lon="11.276485"><ele>252.0</ele><time>2026-03-29T14:48:29.915Z</time></trkpt><trkpt lat="43.3059717" lon="11.2764317"><ele>251.0</ele><time>2026-03-29T14:48:30.915Z</time></trkpt><trkpt lat="43.3061983" lon="11.27638"><ele>250.0</ele><time>2026-03-29T14:48:31.916Z</time></trkpt><trkpt lat="43.3064233" lon="11.2763233"><ele>250.0</ele><time>2026-03-29T14:48:32.915Z</time></trkpt><trkpt lat="43.306645" lon="11.2762583"><ele>250.0</ele><time>2026-03-29T14:48:33.916Z</time></trkpt><trkpt lat="43.3068567" lon="11.2761917"><ele>250.0</ele><time>2026-03-29T14:48:34.916Z</time></trkpt><trkpt lat="43.30707" lon="11.2761317"><ele>250.66666666666666</ele><time>2026-03-29T14:48:35.915Z</time></trkpt><trkpt lat="43.3072833" lon="11.2760583"><ele>251.33333333333331</ele><time>2026-03-29T14:48:36.915Z</time></trkpt><trkpt lat="43.3074833" lon="11.2759867"><ele>252.0</ele><time>2026-03-29T14:48:37.915Z</time></trkpt><trkpt lat="43.3076867" lon="11.275925"><ele>252.0</ele><time>2026-03-29T14:48:38.915Z</time></trkpt><trkpt lat="43.3078983" lon="11.2758667"><ele>252.0</ele><time>2026-03-29T14:48:39.915Z</time></trkpt><trkpt lat="43.308115" lon="11.2758267"><ele>252.0</ele><time>2026-03-29T14:48:40.915Z</time></trkpt><trkpt lat="43.3083317" lon="11.2758067"><ele>254.33333333333331</ele><time>2026-03-29T14:48:41.915Z</time></trkpt><trkpt lat="43.3085483" lon="11.275815"><ele>256.66666666666663</ele><time>2026-03-29T14:48:42.915Z</time></trkpt><trkpt lat="43.3087617" lon="11.27586"><ele>259.0</ele><time>2026-03-29T14:48:43.915Z</time></trkpt><trkpt lat="43.3089767" lon="11.2759483"><ele>261.3333333333333</ele><time>2026-03-29T14:48:44.915Z</time></trkpt><trkpt lat="43.3091933" lon="11.2760433"><ele>263.6666666666667</ele><time>2026-03-29T14:48:45.915Z</time></trkpt><trkpt lat="43.3094017" lon="11.2761267"><ele>266.0</ele><time>2026-03-29T14:48:46.915Z</time></trkpt><trkpt lat="43.30961" lon="11.2761883"><ele>269.0</ele><time>2026-03-29T14:48:47.915Z</time></trkpt><trkpt lat="43.3098317" lon="11.276205"><ele>272.0</ele><time>2026-03-29T14:48:48.915Z</time></trkpt><trkpt lat="43.31006" lon="11.276175"><ele>272.0</ele><time>2026-03-29T14:48:49.915Z</time></trkpt><trkpt lat="43.3102917" lon="11.276125"><ele>272.0</ele><time>2026-03-29T14:48:50.915Z</time></trkpt><trkpt lat="43.3105267" lon="11.2760583"><ele>269.5</ele><time>2026-03-29T14:48:51.915Z</time></trkpt><trkpt lat="43.3107667" lon="11.2759967"><ele>267.0</ele><time>2026-03-29T14:48:52.915Z</time></trkpt><trkpt lat="43.310995" lon="11.2759567"><ele>267.0</ele><time>2026-03-29T14:48:53.915Z</time></trkpt><trkpt lat="43.3112317" lon="11.2759283"><ele>267.0</ele><time>2026-03-29T14:48:54.915Z</time></trkpt><trkpt lat="43.3114667" lon="11.275905"><ele>267.0</ele><time>2026-03-29T14:48:55.915Z</time></trkpt><trkpt lat="43.3116933" lon="11.2758583"><ele>267.0</ele><time>2026-03-29T14:48:56.915Z</time></trkpt><trkpt lat="43.31192" lon="11.2758"><ele>267.0</ele><time>2026-03-29T14:48:57.915Z</time></trkpt><trkpt lat="43.312155" lon="11.2757283"><ele>267.0</ele><time>2026-03-29T14:48:58.915Z</time></trkpt><trkpt lat="43.3123883" lon="11.2756483"><ele>274.5</ele><time>2026-03-29T14:48:59.915Z</time></trkpt><trkpt lat="43.3126133" lon="11.2755567"><ele>282.0</ele><time>2026-03-29T14:49:00.915Z</time></trkpt><trkpt lat="43.3128383" lon="11.2754617"><ele>282.0</ele><time>2026-03-29T14:49:01.915Z</time></trkpt><trkpt lat="43.313065" lon="11.2753483"><ele>282.0</ele><time>2026-03-29T14:49:02.915Z</time></trkpt><trkpt lat="43.3132733" lon="11.2752517"><ele>277.0</ele><time>2026-03-29T14:49:03.915Z</time></trkpt><trkpt lat="43.3135017" lon="11.275105"><ele>272.0</ele><time>2026-03-29T14:49:04.915Z</time></trkpt><trkpt lat="43.31373" lon="11.2749933"><ele>274.0</ele><time>2026-03-29T14:49:05.915Z</time></trkpt><trkpt lat="43.3139433" lon="11.2748717"><ele>276.0</ele><time>2026-03-29T14:49:06.915Z</time></trkpt><trkpt lat="43.3141433" lon="11.2747717"><ele>278.0</ele><time>2026-03-29T14:49:07.915Z</time></trkpt><trkpt lat="43.3143517" lon="11.2746717"><ele>278.0</ele><time>2026-03-29T14:49:08.915Z</time></trkpt><trkpt lat="43.314555" lon="11.2745583"><ele>278.0</ele><time>2026-03-29T14:49:09.915Z</time></trkpt><trkpt lat="43.314775" lon="11.274445"><ele>275.0</ele><time>2026-03-29T14:49:10.915Z</time></trkpt><trkpt lat="43.3149817" lon="11.2743433"><ele>272.0</ele><time>2026-03-29T14:49:11.915Z</time></trkpt><trkpt lat="43.3152033" lon="11.274265"><ele>269.0</ele><time>2026-03-29T14:49:12.915Z</time></trkpt><trkpt lat="43.3154233" lon="11.27422"><ele>268.0</ele><time>2026-03-29T14:49:13.915Z</time></trkpt><trkpt lat="43.3156517" lon="11.2742167"><ele>267.0</ele><time>2026-03-29T14:49:14.915Z</time></trkpt><trkpt lat="43.315865" lon="11.2742433"><ele>266.0</ele><time>2026-03-29T14:49:15.915Z</time></trkpt><trkpt lat="43.316075" lon="11.2742817"><ele>266.0</ele><time>2026-03-29T14:49:16.915Z</time></trkpt><trkpt lat="43.3162583" lon="11.27433"><ele>266.0</ele><time>2026-03-29T14:49:17.915Z</time></trkpt><trkpt lat="43.316435" lon="11.274345"><ele>266.0</ele><time>2026-03-29T14:49:18.915Z</time></trkpt><trkpt lat="43.3166067" lon="11.274325"><ele>266.33333333333337</ele><time>2026-03-29T14:49:19.915Z</time></trkpt><trkpt lat="43.316765" lon="11.2742633"><ele>266.6666666666667</ele><time>2026-03-29T14:49:20.915Z</time></trkpt><trkpt lat="43.3169" lon="11.274155"><ele>267.0</ele><time>2026-03-29T14:49:21.915Z</time></trkpt><trkpt lat="43.3169983" lon="11.2740083"><ele>268.0</ele><time>2026-03-29T14:49:22.915Z</time></trkpt><trkpt lat="43.3170733" lon="11.273815"><ele>269.0</ele><time>2026-03-29T14:49:23.915Z</time></trkpt><trkpt lat="43.317125" lon="11.2735867"><ele>270.0</ele><time>2026-03-29T14:49:24.915Z</time></trkpt><trkpt lat="43.3171583" lon="11.27333"><ele>271.6666666666667</ele><time>2026-03-29T14:49:25.915Z</time></trkpt><trkpt lat="43.3172033" lon="11.2730783"><ele>273.33333333333337</ele><time>2026-03-29T14:49:26.915Z</time></trkpt><trkpt lat="43.317245" lon="11.2728217"><ele>275.0</ele><time>2026-03-29T14:49:27.915Z</time></trkpt><trkpt lat="43.317295" lon="11.2725767"><ele>275.0</ele><time>2026-03-29T14:49:28.915Z</time></trkpt><trkpt lat="43.3173683" lon="11.2723417"><ele>275.0</ele><time>2026-03-29T14:49:29.915Z</time></trkpt><trkpt lat="43.31746" lon="11.2721233"><ele>275.0</ele><time>2026-03-29T14:49:30.915Z</time></trkpt><trkpt lat="43.3175733" lon="11.2719133"><ele>274.0</ele><time>2026-03-29T14:49:31.915Z</time></trkpt><trkpt lat="43.3177267" lon="11.2717117"><ele>273.0</ele><time>2026-03-29T14:49:32.916Z</time></trkpt><trkpt lat="43.3178917" lon="11.2715183"><ele>272.0</ele><time>2026-03-29T14:49:33.915Z</time></trkpt><trkpt lat="43.31807" lon="11.2713167"><ele>271.5</ele><time>2026-03-29T14:49:34.915Z</time></trkpt><trkpt lat="43.3182383" lon="11.2711067"><ele>271.0</ele><time>2026-03-29T14:49:35.915Z</time></trkpt><trkpt lat="43.3184017" lon="11.270885"><ele>271.0</ele><time>2026-03-29T14:49:36.915Z</time></trkpt><trkpt lat="43.3185617" lon="11.2706717"><ele>271.0</ele><time>2026-03-29T14:49:37.915Z</time></trkpt><trkpt lat="43.3187017" lon="11.27047"><ele>271.0</ele><time>2026-03-29T14:49:38.915Z</time></trkpt><trkpt lat="43.31885" lon="11.27026"><ele>272.3333333333333</ele><time>2026-03-29T14:49:39.915Z</time></trkpt><trkpt lat="43.31899" lon="11.27006"><ele>273.6666666666667</ele><time>2026-03-29T14:49:40.915Z</time></trkpt><trkpt lat="43.3191383" lon="11.269845"><ele>275.0</ele><time>2026-03-29T14:49:41.915Z</time></trkpt><trkpt lat="43.3192883" lon="11.269645"><ele>275.33333333333337</ele><time>2026-03-29T14:49:42.915Z</time></trkpt><trkpt lat="43.319445" lon="11.2694567"><ele>275.6666666666667</ele><time>2026-03-29T14:49:43.915Z</time></trkpt><trkpt lat="43.3196067" lon="11.2692667"><ele>276.0</ele><time>2026-03-29T14:49:44.915Z</time></trkpt><trkpt lat="43.3197767" lon="11.2691083"><ele>276.3333333333333</ele><time>2026-03-29T14:49:45.915Z</time></trkpt><trkpt lat="43.319955" lon="11.2689717"><ele>276.66666666666663</ele><time>2026-03-29T14:49:46.915Z</time></trkpt><trkpt lat="43.3201233" lon="11.2688433"><ele>277.0</ele><time>2026-03-29T14:49:47.915Z</time></trkpt><trkpt lat="43.3202917" lon="11.2687167"><ele>277.66666666666663</ele><time>2026-03-29T14:49:48.915Z</time></trkpt><trkpt lat="43.32045" lon="11.2685867"><ele>278.3333333333333</ele><time>2026-03-29T14:49:49.915Z</time></trkpt><trkpt lat="43.32059" lon="11.2684367"><ele>279.0</ele><time>2026-03-29T14:49:50.915Z</time></trkpt><trkpt lat="43.3206967" lon="11.2682583"><ele>280.0</ele><time>2026-03-29T14:49:51.915Z</time></trkpt><trkpt lat="43.3207817" lon="11.2680567"><ele>281.0</ele><time>2026-03-29T14:49:52.915Z</time></trkpt><trkpt lat="43.320835" lon="11.267835"><ele>282.0</ele><time>2026-03-29T14:49:53.915Z</time></trkpt><trkpt lat="43.3208617" lon="11.267595"><ele>282.0</ele><time>2026-03-29T14:49:54.915Z</time></trkpt><trkpt lat="43.3209117" lon="11.2673617"><ele>282.0</ele><time>2026-03-29T14:49:55.915Z</time></trkpt><trkpt lat="43.3209967" lon="11.26714"><ele>282.0</ele><time>2026-03-29T14:49:56.915Z</time></trkpt><trkpt lat="43.32111" lon="11.2669633"><ele>281.5</ele><time>2026-03-29T14:49:57.915Z</time></trkpt><trkpt lat="43.321245" lon="11.2668183"><ele>281.0</ele><time>2026-03-29T14:49:58.915Z</time></trkpt><trkpt lat="43.3215967" lon="11.2666433"><ele>281.0</ele><time>2026-03-29T14:50:00.915Z</time></trkpt><trkpt lat="43.3218033" lon="11.26659"><ele>281.0</ele><time>2026-03-29T14:50:01.916Z</time></trkpt><trkpt lat="43.3220217" lon="11.2665283"><ele>281.0</ele><time>2026-03-29T14:50:02.915Z</time></trkpt><trkpt lat="43.3222433" lon="11.26646"><ele>280.0</ele><time>2026-03-29T14:50:03.915Z</time></trkpt><trkpt lat="43.3224717" lon="11.2663817"><ele>279.0</ele><time>2026-03-29T14:50:04.915Z</time></trkpt><trkpt lat="43.32269" lon="11.2663033"><ele>279.0</ele><time>2026-03-29T14:50:05.915Z</time></trkpt><trkpt lat="43.3229067" lon="11.2662333"><ele>279.0</ele><time>2026-03-29T14:50:06.915Z</time></trkpt><trkpt lat="43.32312" lon="11.2661367"><ele>279.0</ele><time>2026-03-29T14:50:07.915Z</time></trkpt><trkpt lat="43.3233233" lon="11.2660167"><ele>276.0</ele><time>2026-03-29T14:50:08.915Z</time></trkpt><trkpt lat="43.3235333" lon="11.2658667"><ele>273.0</ele><time>2026-03-29T14:50:09.915Z</time></trkpt><trkpt lat="43.323735" lon="11.2656983"><ele>271.0</ele><time>2026-03-29T14:50:10.915Z</time></trkpt><trkpt lat="43.323935" lon="11.265535"><ele>269.0</ele><time>2026-03-29T14:50:11.915Z</time></trkpt><trkpt lat="43.3241233" lon="11.2653867"><ele>269.0</ele><time>2026-03-29T14:50:12.915Z</time></trkpt><trkpt lat="43.32433" lon="11.2652733"><ele>269.0</ele><time>2026-03-29T14:50:13.915Z</time></trkpt><trkpt lat="43.3245717" lon="11.2651983"><ele>270.5</ele><time>2026-03-29T14:50:14.915Z</time></trkpt><trkpt lat="43.3248233" lon="11.2651783"><ele>272.0</ele><time>2026-03-29T14:50:15.915Z</time></trkpt><trkpt lat="43.32508" lon="11.2651933"><ele>272.0</ele><time>2026-03-29T14:50:16.915Z</time></trkpt><trkpt lat="43.3253167" lon="11.265215"><ele>272.0</ele><time>2026-03-29T14:50:17.915Z</time></trkpt><trkpt lat="43.3255267" lon="11.26521"><ele>272.0</ele><time>2026-03-29T14:50:18.915Z</time></trkpt><trkpt lat="43.32575" lon="11.2651717"><ele>274.0</ele><time>2026-03-29T14:50:19.915Z</time></trkpt><trkpt lat="43.3259717" lon="11.265105"><ele>276.0</ele><time>2026-03-29T14:50:20.915Z</time></trkpt><trkpt lat="43.3261883" lon="11.2650117"><ele>276.3333333333333</ele><time>2026-03-29T14:50:21.916Z</time></trkpt><trkpt lat="43.326395" lon="11.2648933"><ele>276.66666666666663</ele><time>2026-03-29T14:50:22.915Z</time></trkpt><trkpt lat="43.3265917" lon="11.2647717"><ele>277.0</ele><time>2026-03-29T14:50:23.915Z</time></trkpt><trkpt lat="43.3267833" lon="11.2646733"><ele>277.66666666666663</ele><time>2026-03-29T14:50:24.916Z</time></trkpt><trkpt lat="43.32698" lon="11.2646083"><ele>278.3333333333333</ele><time>2026-03-29T14:50:25.915Z</time></trkpt><trkpt lat="43.3271867" lon="11.26457"><ele>279.0</ele><time>2026-03-29T14:50:26.915Z</time></trkpt><trkpt lat="43.3274" lon="11.2645717"><ele>280.0</ele><time>2026-03-29T14:50:27.915Z</time></trkpt><trkpt lat="43.3276183" lon="11.264595"><ele>281.0</ele><time>2026-03-29T14:50:28.915Z</time></trkpt><trkpt lat="43.32784" lon="11.2646183"><ele>282.0</ele><time>2026-03-29T14:50:29.915Z</time></trkpt><trkpt lat="43.3280483" lon="11.2646233"><ele>282.3333333333333</ele><time>2026-03-29T14:50:30.915Z</time></trkpt><trkpt lat="43.3282483" lon="11.264635"><ele>282.66666666666663</ele><time>2026-03-29T14:50:31.915Z</time></trkpt><trkpt lat="43.328465" lon="11.2646567"><ele>283.0</ele><time>2026-03-29T14:50:32.916Z</time></trkpt><trkpt lat="43.32869" lon="11.2646767"><ele>283.5</ele><time>2026-03-29T14:50:33.915Z</time></trkpt><trkpt lat="43.328925" lon="11.264705"><ele>284.0</ele><time>2026-03-29T14:50:34.915Z</time></trkpt><trkpt lat="43.3291667" lon="11.2647433"><ele>284.0</ele><time>2026-03-29T14:50:35.915Z</time></trkpt><trkpt lat="43.3293983" lon="11.26478"><ele>284.0</ele><time>2026-03-29T14:50:36.915Z</time></trkpt><trkpt lat="43.3296233" lon="11.2647933"><ele>284.6666666666667</ele><time>2026-03-29T14:50:37.915Z</time></trkpt><trkpt lat="43.329845" lon="11.2648067"><ele>285.3333333333333</ele><time>2026-03-29T14:50:38.915Z</time></trkpt><trkpt lat="43.3300567" lon="11.2647717"><ele>286.0</ele><time>2026-03-29T14:50:39.915Z</time></trkpt><trkpt lat="43.3302467" lon="11.2646867"><ele>286.0</ele><time>2026-03-29T14:50:40.915Z</time></trkpt><trkpt lat="43.3304317" lon="11.264545"><ele>286.0</ele><time>2026-03-29T14:50:41.915Z</time></trkpt><trkpt lat="43.33061" lon="11.26435"><ele>286.0</ele><time>2026-03-29T14:50:42.915Z</time></trkpt><trkpt lat="43.3307833" lon="11.264115"><ele>283.5</ele><time>2026-03-29T14:50:43.915Z</time></trkpt><trkpt lat="43.3309533" lon="11.263885"><ele>281.0</ele><time>2026-03-29T14:50:44.915Z</time></trkpt><trkpt lat="43.3311267" lon="11.26365"><ele>281.0</ele><time>2026-03-29T14:50:45.915Z</time></trkpt><trkpt lat="43.3312917" lon="11.26342"><ele>281.0</ele><time>2026-03-29T14:50:46.915Z</time></trkpt><trkpt lat="43.3314483" lon="11.263165"><ele>277.0</ele><time>2026-03-29T14:50:47.915Z</time></trkpt><trkpt lat="43.3316233" lon="11.2628917"><ele>273.0</ele><time>2026-03-29T14:50:48.915Z</time></trkpt><trkpt lat="43.3318117" lon="11.2626533"><ele>273.0</ele><time>2026-03-29T14:50:49.915Z</time></trkpt><trkpt lat="43.3320017" lon="11.2624067"><ele>273.0</ele><time>2026-03-29T14:50:50.915Z</time></trkpt><trkpt lat="43.3321833" lon="11.262155"><ele>271.0</ele><time>2026-03-29T14:50:51.915Z</time></trkpt><trkpt lat="43.33235" lon="11.2618967"><ele>269.0</ele><time>2026-03-29T14:50:52.915Z</time></trkpt><trkpt lat="43.332485" lon="11.261625"><ele>267.0</ele><time>2026-03-29T14:50:53.915Z</time></trkpt><trkpt lat="43.3325683" lon="11.2613133"><ele>265.0</ele><time>2026-03-29T14:50:54.915Z</time></trkpt><trkpt lat="43.3326683" lon="11.2610367"><ele>265.0</ele><time>2026-03-29T14:50:55.915Z</time></trkpt><trkpt lat="43.3327683" lon="11.2607933"><ele>265.0</ele><time>2026-03-29T14:50:56.916Z</time></trkpt><trkpt lat="43.33288" lon="11.2605733"><ele>265.0</ele><time>2026-03-29T14:50:57.915Z</time></trkpt><trkpt lat="43.3330017" lon="11.2603967"><ele>266.0</ele><time>2026-03-29T14:50:58.915Z</time></trkpt><trkpt lat="43.33313" lon="11.2602533"><ele>267.0</ele><time>2026-03-29T14:50:59.915Z</time></trkpt><trkpt lat="43.3332867" lon="11.2601533"><ele>268.0</ele><time>2026-03-29T14:51:00.916Z</time></trkpt><trkpt lat="43.3334517" lon="11.2600933"><ele>268.0</ele><time>2026-03-29T14:51:01.915Z</time></trkpt><trkpt lat="43.333615" lon="11.260075"><ele>268.0</ele><time>2026-03-29T14:51:02.915Z</time></trkpt><trkpt lat="43.3337717" lon="11.2601017"><ele>268.0</ele><time>2026-03-29T14:51:03.915Z</time></trkpt><trkpt lat="43.3339267" lon="11.2601933"><ele>268.3333333333333</ele><time>2026-03-29T14:51:04.915Z</time></trkpt><trkpt lat="43.334065" lon="11.2603467"><ele>268.6666666666667</ele><time>2026-03-29T14:51:05.915Z</time></trkpt><trkpt lat="43.3342017" lon="11.2605617"><ele>269.0</ele><time>2026-03-29T14:51:06.915Z</time></trkpt><trkpt lat="43.334345" lon="11.26078"><ele>269.0</ele><time>2026-03-29T14:51:07.915Z</time></trkpt><trkpt lat="43.3344833" lon="11.261"><ele>269.0</ele><time>2026-03-29T14:51:08.915Z</time></trkpt><trkpt lat="43.33464" lon="11.2611883"><ele>269.0</ele><time>2026-03-29T14:51:09.915Z</time></trkpt><trkpt lat="43.3348083" lon="11.26132"><ele>265.6666666666667</ele><time>2026-03-29T14:51:10.915Z</time></trkpt><trkpt lat="43.3349917" lon="11.2614017"><ele>262.3333333333333</ele><time>2026-03-29T14:51:11.915Z</time></trkpt><trkpt lat="43.33518" lon="11.261435"><ele>259.0</ele><time>2026-03-29T14:51:12.915Z</time></trkpt><trkpt lat="43.3354067" lon="11.2614083"><ele>259.5</ele><time>2026-03-29T14:51:13.916Z</time></trkpt><trkpt lat="43.3356633" lon="11.26134"><ele>260.0</ele><time>2026-03-29T14:51:14.915Z</time></trkpt><trkpt lat="43.3359333" lon="11.261275"><ele>260.0</ele><time>2026-03-29T14:51:15.915Z</time></trkpt><trkpt lat="43.3361733" lon="11.261215"><ele>260.0</ele><time>2026-03-29T14:51:16.915Z</time></trkpt><trkpt lat="43.33641" lon="11.2611567"><ele>261.5</ele><time>2026-03-29T14:51:17.915Z</time></trkpt><trkpt lat="43.33665" lon="11.2610933"><ele>263.0</ele><time>2026-03-29T14:51:18.916Z</time></trkpt><trkpt lat="43.3368733" lon="11.2610133"><ele>261.0</ele><time>2026-03-29T14:51:19.915Z</time></trkpt><trkpt lat="43.3373667" lon="11.260935"><ele>261.0</ele><time>2026-03-29T14:51:21.915Z</time></trkpt><trkpt lat="43.33761" lon="11.2609383"><ele>261.0</ele><time>2026-03-29T14:51:22.915Z</time></trkpt><trkpt lat="43.3378567" lon="11.2609967"><ele>261.0</ele><time>2026-03-29T14:51:23.915Z</time></trkpt><trkpt lat="43.3380917" lon="11.2610533"><ele>261.0</ele><time>2026-03-29T14:51:24.915Z</time></trkpt><trkpt lat="43.33834" lon="11.261125"><ele>261.0</ele><time>2026-03-29T14:51:25.915Z</time></trkpt><trkpt lat="43.3385867" lon="11.2612117"><ele>261.0</ele><time>2026-03-29T14:51:26.915Z</time></trkpt><trkpt lat="43.3388283" lon="11.2613"><ele>261.5</ele><time>2026-03-29T14:51:27.915Z</time></trkpt><trkpt lat="43.3390667" lon="11.2613967"><ele>262.0</ele><time>2026-03-29T14:51:28.915Z</time></trkpt><trkpt lat="43.3392633" lon="11.2615333"><ele>262.3333333333333</ele><time>2026-03-29T14:51:29.915Z</time></trkpt><trkpt lat="43.339435" lon="11.261715"><ele>262.6666666666667</ele><time>2026-03-29T14:51:30.915Z</time></trkpt><trkpt lat="43.3395983" lon="11.2619317"><ele>263.0</ele><time>2026-03-29T14:51:31.915Z</time></trkpt><trkpt lat="43.33975" lon="11.2621767"><ele>264.0</ele><time>2026-03-29T14:51:32.915Z</time></trkpt><trkpt lat="43.33991" lon="11.26243"><ele>265.0</ele><time>2026-03-29T14:51:33.915Z</time></trkpt><trkpt lat="43.34007" lon="11.262705"><ele>265.0</ele><time>2026-03-29T14:51:34.915Z</time></trkpt><trkpt lat="43.3402183" lon="11.26298"><ele>265.0</ele><time>2026-03-29T14:51:35.915Z</time></trkpt><trkpt lat="43.3403583" lon="11.263235"><ele>265.66666666666663</ele><time>2026-03-29T14:51:36.915Z</time></trkpt><trkpt lat="43.34049" lon="11.2634717"><ele>266.3333333333333</ele><time>2026-03-29T14:51:37.915Z</time></trkpt><trkpt lat="43.340625" lon="11.2636983"><ele>267.0</ele><time>2026-03-29T14:51:38.915Z</time></trkpt><trkpt lat="43.3407683" lon="11.26391"><ele>268.0</ele><time>2026-03-29T14:51:39.915Z</time></trkpt><trkpt lat="43.3409233" lon="11.2641083"><ele>269.0</ele><time>2026-03-29T14:51:40.915Z</time></trkpt><trkpt lat="43.3411083" lon="11.26429"><ele>270.0</ele><time>2026-03-29T14:51:41.915Z</time></trkpt><trkpt lat="43.3413117" lon="11.2644567"><ele>270.0</ele><time>2026-03-29T14:51:42.915Z</time></trkpt><trkpt lat="43.3415267" lon="11.264605"><ele>270.0</ele><time>2026-03-29T14:51:43.915Z</time></trkpt><trkpt lat="43.3417567" lon="11.2647567"><ele>270.5</ele><time>2026-03-29T14:51:44.915Z</time></trkpt><trkpt lat="43.34198" lon="11.2649017"><ele>271.0</ele><time>2026-03-29T14:51:45.915Z</time></trkpt><trkpt lat="43.342195" lon="11.2650467"><ele>270.66666666666663</ele><time>2026-03-29T14:51:46.915Z</time></trkpt><trkpt lat="43.342395" lon="11.26518"><ele>270.3333333333333</ele><time>2026-03-29T14:51:47.915Z</time></trkpt><trkpt lat="43.34259" lon="11.2653183"><ele>270.0</ele><time>2026-03-29T14:51:48.915Z</time></trkpt><trkpt lat="43.3427783" lon="11.2654467"><ele>270.0</ele><time>2026-03-29T14:51:49.915Z</time></trkpt><trkpt lat="43.342965" lon="11.2655667"><ele>270.0</ele><time>2026-03-29T14:51:50.915Z</time></trkpt><trkpt lat="43.3431433" lon="11.2656917"><ele>270.0</ele><time>2026-03-29T14:51:51.915Z</time></trkpt><trkpt lat="43.3433183" lon="11.2658133"><ele>271.6666666666667</ele><time>2026-03-29T14:51:52.915Z</time></trkpt><trkpt lat="43.3435" lon="11.2659333"><ele>273.33333333333337</ele><time>2026-03-29T14:51:53.915Z</time></trkpt><trkpt lat="43.3436833" lon="11.266065"><ele>275.0</ele><time>2026-03-29T14:51:54.915Z</time></trkpt><trkpt lat="43.34384" lon="11.26622"><ele>275.33333333333337</ele><time>2026-03-29T14:51:55.915Z</time></trkpt><trkpt lat="43.3439933" lon="11.2663967"><ele>275.6666666666667</ele><time>2026-03-29T14:51:56.915Z</time></trkpt><trkpt lat="43.344115" lon="11.26658"><ele>276.0</ele><time>2026-03-29T14:51:57.915Z</time></trkpt><trkpt lat="43.34423" lon="11.2667967"><ele>276.0</ele><time>2026-03-29T14:51:58.915Z</time></trkpt><trkpt lat="43.3443417" lon="11.2670167"><ele>276.0</ele><time>2026-03-29T14:51:59.915Z</time></trkpt><trkpt lat="43.3444417" lon="11.26724"><ele>276.0</ele><time>2026-03-29T14:52:00.915Z</time></trkpt><trkpt lat="43.34453" lon="11.2674717"><ele>278.3333333333333</ele><time>2026-03-29T14:52:01.915Z</time></trkpt><trkpt lat="43.3445867" lon="11.267715"><ele>280.66666666666663</ele><time>2026-03-29T14:52:02.915Z</time></trkpt><trkpt lat="43.3446267" lon="11.2679567"><ele>283.0</ele><time>2026-03-29T14:52:03.915Z</time></trkpt><trkpt lat="43.344655" lon="11.2682017"><ele>285.66666666666663</ele><time>2026-03-29T14:52:04.915Z</time></trkpt><trkpt lat="43.344685" lon="11.2684433"><ele>288.3333333333333</ele><time>2026-03-29T14:52:05.915Z</time></trkpt><trkpt lat="43.3447267" lon="11.2686717"><ele>291.0</ele><time>2026-03-29T14:52:06.915Z</time></trkpt><trkpt lat="43.3448" lon="11.2688783"><ele>287.0</ele><time>2026-03-29T14:52:07.915Z</time></trkpt><trkpt lat="43.3448883" lon="11.26907"><ele>283.0</ele><time>2026-03-29T14:52:08.915Z</time></trkpt><trkpt lat="43.3450133" lon="11.2692367"><ele>279.0</ele><time>2026-03-29T14:52:09.915Z</time></trkpt><trkpt lat="43.3451717" lon="11.269375"><ele>279.0</ele><time>2026-03-29T14:52:10.915Z</time></trkpt><trkpt lat="43.3453383" lon="11.2694933"><ele>279.0</ele><time>2026-03-29T14:52:11.915Z</time></trkpt><trkpt lat="43.3454783" lon="11.2696133"><ele>279.0</ele><time>2026-03-29T14:52:12.915Z</time></trkpt><trkpt lat="43.3455867" lon="11.2697683"><ele>280.6666666666667</ele><time>2026-03-29T14:52:13.915Z</time></trkpt><trkpt lat="43.34565" lon="11.2699567"><ele>282.33333333333337</ele><time>2026-03-29T14:52:14.915Z</time></trkpt><trkpt lat="43.345685" lon="11.27015"><ele>284.0</ele><time>2026-03-29T14:52:15.915Z</time></trkpt><trkpt lat="43.345685" lon="11.2703667"><ele>284.0</ele><time>2026-03-29T14:52:16.915Z</time></trkpt><trkpt lat="43.3456933" lon="11.2705883"><ele>284.0</ele><time>2026-03-29T14:52:17.915Z</time></trkpt><trkpt lat="43.3457" lon="11.2708217"><ele>284.0</ele><time>2026-03-29T14:52:18.915Z</time></trkpt><trkpt lat="43.3457083" lon="11.271055"><ele>287.6666666666667</ele><time>2026-03-29T14:52:19.915Z</time></trkpt><trkpt lat="43.34572" lon="11.2712733"><ele>291.3333333333333</ele><time>2026-03-29T14:52:20.915Z</time></trkpt><trkpt lat="43.345735" lon="11.2714983"><ele>295.0</ele><time>2026-03-29T14:52:21.915Z</time></trkpt><trkpt lat="43.34572" lon="11.2717133"><ele>296.75</ele><time>2026-03-29T14:52:22.915Z</time></trkpt><trkpt lat="43.3457167" lon="11.2719233"><ele>298.5</ele><time>2026-03-29T14:52:23.915Z</time></trkpt><trkpt lat="43.3457133" lon="11.2721117"><ele>300.25</ele><time>2026-03-29T14:52:24.915Z</time></trkpt><trkpt lat="43.345705" lon="11.2722783"><ele>302.0</ele><time>2026-03-29T14:52:25.915Z</time></trkpt><trkpt lat="43.3456867" lon="11.272435"><ele>303.0</ele><time>2026-03-29T14:52:26.915Z</time></trkpt><trkpt lat="43.3456567" lon="11.2725733"><ele>304.0</ele><time>2026-03-29T14:52:27.915Z</time></trkpt><trkpt lat="43.3456267" lon="11.2727"><ele>305.0</ele><time>2026-03-29T14:52:28.915Z</time></trkpt><trkpt lat="43.3455817" lon="11.2728283"><ele>306.0</ele><time>2026-03-29T14:52:29.915Z</time></trkpt><trkpt lat="43.345535" lon="11.272965"><ele>307.0</ele><time>2026-03-29T14:52:30.915Z</time></trkpt><trkpt lat="43.3454883" lon="11.2731283"><ele>308.0</ele><time>2026-03-29T14:52:31.915Z</time></trkpt><trkpt lat="43.3454417" lon="11.27335"><ele>309.0</ele><time>2026-03-29T14:52:32.915Z</time></trkpt><trkpt lat="43.345385" lon="11.27363"><ele>310.0</ele><time>2026-03-29T14:52:33.916Z</time></trkpt><trkpt lat="43.3453183" lon="11.2739033"><ele>311.66666666666663</ele><time>2026-03-29T14:52:34.915Z</time></trkpt><trkpt lat="43.3452433" lon="11.2741517"><ele>313.3333333333333</ele><time>2026-03-29T14:52:35.915Z</time></trkpt><trkpt lat="43.3451733" lon="11.2743583"><ele>315.0</ele><time>2026-03-29T14:52:36.915Z</time></trkpt><trkpt lat="43.34514" lon="11.2745567"><ele>315.0</ele><time>2026-03-29T14:52:37.915Z</time></trkpt><trkpt lat="43.3451483" lon="11.2747533"><ele>315.0</ele><time>2026-03-29T14:52:38.915Z</time></trkpt><trkpt lat="43.3452283" lon="11.2751867"><ele>316.6666666666667</ele><time>2026-03-29T14:52:40.915Z</time></trkpt><trkpt lat="43.3452517" lon="11.2754067"><ele>318.33333333333337</ele><time>2026-03-29T14:52:41.915Z</time></trkpt><trkpt lat="43.3452283" lon="11.2756117"><ele>320.0</ele><time>2026-03-29T14:52:42.915Z</time></trkpt><trkpt lat="43.3451667" lon="11.275795"><ele>320.75</ele><time>2026-03-29T14:52:43.915Z</time></trkpt><trkpt lat="43.3450867" lon="11.2759667"><ele>321.5</ele><time>2026-03-29T14:52:44.915Z</time></trkpt><trkpt lat="43.3449833" lon="11.2760967"><ele>322.25</ele><time>2026-03-29T14:52:45.915Z</time></trkpt><trkpt lat="43.3448667" lon="11.2762083"><ele>323.0</ele><time>2026-03-29T14:52:46.915Z</time></trkpt><trkpt lat="43.3447533" lon="11.276345"><ele>323.0</ele><time>2026-03-29T14:52:47.915Z</time></trkpt><trkpt lat="43.3446567" lon="11.276495"><ele>323.0</ele><time>2026-03-29T14:52:48.915Z</time></trkpt><trkpt lat="43.34458" lon="11.2766867"><ele>323.0</ele><time>2026-03-29T14:52:49.915Z</time></trkpt><trkpt lat="43.344525" lon="11.2768967"><ele>323.0</ele><time>2026-03-29T14:52:50.915Z</time></trkpt><trkpt lat="43.344475" lon="11.27713"><ele>323.0</ele><time>2026-03-29T14:52:51.915Z</time></trkpt><trkpt lat="43.3444183" lon="11.2773833"><ele>323.0</ele><time>2026-03-29T14:52:52.915Z</time></trkpt><trkpt lat="43.3443667" lon="11.27764"><ele>324.6666666666667</ele><time>2026-03-29T14:52:53.915Z</time></trkpt><trkpt lat="43.3443033" lon="11.27788"><ele>326.3333333333333</ele><time>2026-03-29T14:52:54.915Z</time></trkpt><trkpt lat="43.3442267" lon="11.27812"><ele>328.0</ele><time>2026-03-29T14:52:55.915Z</time></trkpt><trkpt lat="43.3441683" lon="11.278335"><ele>329.0</ele><time>2026-03-29T14:52:56.915Z</time></trkpt><trkpt lat="43.3441317" lon="11.2785483"><ele>330.0</ele><time>2026-03-29T14:52:57.915Z</time></trkpt><trkpt lat="43.344115" lon="11.2787833"><ele>331.0</ele><time>2026-03-29T14:52:58.915Z</time></trkpt><trkpt lat="43.3441133" lon="11.27903"><ele>331.3333333333333</ele><time>2026-03-29T14:52:59.915Z</time></trkpt><trkpt lat="43.344095" lon="11.2792917"><ele>331.6666666666667</ele><time>2026-03-29T14:53:00.915Z</time></trkpt><trkpt lat="43.3440417" lon="11.2795633"><ele>332.0</ele><time>2026-03-29T14:53:01.915Z</time></trkpt><trkpt lat="43.3439617" lon="11.2798317"><ele>333.0</ele><time>2026-03-29T14:53:02.915Z</time></trkpt><trkpt lat="43.343905" lon="11.2800917"><ele>334.0</ele><time>2026-03-29T14:53:03.916Z</time></trkpt><trkpt lat="43.3438583" lon="11.2803383"><ele>335.0</ele><time>2026-03-29T14:53:04.915Z</time></trkpt><trkpt lat="43.34384" lon="11.2805683"><ele>335.0</ele><time>2026-03-29T14:53:05.915Z</time></trkpt><trkpt lat="43.3438217" lon="11.2807883"><ele>335.0</ele><time>2026-03-29T14:53:06.915Z</time></trkpt><trkpt lat="43.34381" lon="11.2809717"><ele>335.0</ele><time>2026-03-29T14:53:07.915Z</time></trkpt><trkpt lat="43.3438167" lon="11.2811167"><ele>335.0</ele><time>2026-03-29T14:53:08.915Z</time></trkpt><trkpt lat="43.3438233" lon="11.28122"><ele>335.0</ele><time>2026-03-29T14:53:09.915Z</time></trkpt><trkpt lat="43.34384" lon="11.2813367"><ele>335.0</ele><time>2026-03-29T14:53:11.915Z</time></trkpt><trkpt lat="43.3438283" lon="11.2814867"><ele>335.0</ele><time>2026-03-29T14:53:17.915Z</time></trkpt><trkpt lat="43.34378" lon="11.281605"><ele>335.0</ele><time>2026-03-29T14:53:18.915Z</time></trkpt><trkpt lat="43.3437317" lon="11.2817533"><ele>335.0</ele><time>2026-03-29T14:53:19.915Z</time></trkpt><trkpt lat="43.34368" lon="11.2819283"><ele>336.0</ele><time>2026-03-29T14:53:20.916Z</time></trkpt><trkpt lat="43.3436467" lon="11.2821217"><ele>337.0</ele><time>2026-03-29T14:53:21.915Z</time></trkpt><trkpt lat="43.3436317" lon="11.2823217"><ele>338.0</ele><time>2026-03-29T14:53:22.915Z</time></trkpt><trkpt lat="43.3436467" lon="11.2825283"><ele>339.0</ele><time>2026-03-29T14:53:23.915Z</time></trkpt><trkpt lat="43.34368" lon="11.2827233"><ele>339.0</ele><time>2026-03-29T14:53:24.915Z</time></trkpt><trkpt lat="43.3437267" lon="11.282915"><ele>339.0</ele><time>2026-03-29T14:53:25.915Z</time></trkpt><trkpt lat="43.3437783" lon="11.2831033"><ele>339.0</ele><time>2026-03-29T14:53:26.915Z</time></trkpt><trkpt lat="43.3438333" lon="11.2832883"><ele>339.0</ele><time>2026-03-29T14:53:27.915Z</time></trkpt><trkpt lat="43.343895" lon="11.2834717"><ele>339.3333333333333</ele><time>2026-03-29T14:53:28.915Z</time></trkpt><trkpt lat="43.34395" lon="11.283675"><ele>339.66666666666663</ele><time>2026-03-29T14:53:29.915Z</time></trkpt><trkpt lat="43.3440067" lon="11.2838733"><ele>340.0</ele><time>2026-03-29T14:53:30.915Z</time></trkpt><trkpt lat="43.3440517" lon="11.284085"><ele>340.0</ele><time>2026-03-29T14:53:31.915Z</time></trkpt><trkpt lat="43.3440933" lon="11.284295"><ele>340.0</ele><time>2026-03-29T14:53:32.915Z</time></trkpt><trkpt lat="43.3441333" lon="11.284505"><ele>340.0</ele><time>2026-03-29T14:53:33.915Z</time></trkpt><trkpt lat="43.3441317" lon="11.28472"><ele>340.25</ele><time>2026-03-29T14:53:34.915Z</time></trkpt><trkpt lat="43.3441267" lon="11.2849233"><ele>340.5</ele><time>2026-03-29T14:53:35.915Z</time></trkpt><trkpt lat="43.344125" lon="11.2850933"><ele>340.75</ele><time>2026-03-29T14:53:36.915Z</time></trkpt><trkpt lat="43.3441017" lon="11.285235"><ele>341.0</ele><time>2026-03-29T14:53:37.915Z</time></trkpt><trkpt lat="43.3440733" lon="11.28536"><ele>341.0</ele><time>2026-03-29T14:53:38.915Z</time></trkpt><trkpt lat="43.3440517" lon="11.2854617"><ele>341.0</ele><time>2026-03-29T14:53:39.915Z</time></trkpt><trkpt lat="43.3440217" lon="11.2855533"><ele>341.0</ele><time>2026-03-29T14:53:40.915Z</time></trkpt><trkpt lat="43.3439867" lon="11.2856267"><ele>341.0</ele><time>2026-03-29T14:53:41.915Z</time></trkpt><trkpt lat="43.3439167" lon="11.2857517"><ele>341.0</ele><time>2026-03-29T14:53:43.915Z</time></trkpt><trkpt lat="43.3438767" lon="11.2858833"><ele>341.0</ele><time>2026-03-29T14:53:45.915Z</time></trkpt><trkpt lat="43.3438967" lon="11.28601"><ele>341.33333333333337</ele><time>2026-03-29T14:53:47.915Z</time></trkpt><trkpt lat="43.3439533" lon="11.2861583"><ele>341.6666666666667</ele><time>2026-03-29T14:53:49.915Z</time></trkpt><trkpt lat="43.3439767" lon="11.28625"><ele>342.0</ele><time>2026-03-29T14:53:50.915Z</time></trkpt><trkpt lat="43.344005" lon="11.28635"><ele>342.3333333333333</ele><time>2026-03-29T14:53:51.915Z</time></trkpt><trkpt lat="43.3440233" lon="11.2864617"><ele>342.66666666666663</ele><time>2026-03-29T14:53:52.915Z</time></trkpt><trkpt lat="43.344035" lon="11.2865733"><ele>343.0</ele><time>2026-03-29T14:53:53.915Z</time></trkpt><trkpt lat="43.34404" lon="11.28668"><ele>344.0</ele><time>2026-03-29T14:53:54.916Z</time></trkpt><trkpt lat="43.34403" lon="11.286785"><ele>345.0</ele><time>2026-03-29T14:53:55.915Z</time></trkpt><trkpt lat="43.3440183" lon="11.2868883"><ele>346.0</ele><time>2026-03-29T14:53:56.915Z</time></trkpt><trkpt lat="43.3439967" lon="11.2869983"><ele>347.0</ele><time>2026-03-29T14:53:57.915Z</time></trkpt><trkpt lat="43.3439767" lon="11.287115"><ele>348.0</ele><time>2026-03-29T14:53:58.915Z</time></trkpt><trkpt lat="43.34395" lon="11.2872383"><ele>349.0</ele><time>2026-03-29T14:53:59.915Z</time></trkpt><trkpt lat="43.3439233" lon="11.287365"><ele>350.79999999999995</ele><time>2026-03-29T14:54:00.915Z</time></trkpt><trkpt lat="43.3439067" lon="11.2875067"><ele>352.59999999999997</ele><time>2026-03-29T14:54:01.915Z</time></trkpt><trkpt lat="43.3439067" lon="11.2876467"><ele>354.4</ele><time>2026-03-29T14:54:02.915Z</time></trkpt><trkpt lat="43.3439133" lon="11.2877983"><ele>356.2</ele><time>2026-03-29T14:54:03.915Z</time></trkpt><trkpt lat="43.3439267" lon="11.287955"><ele>358.0</ele><time>2026-03-29T14:54:04.915Z</time></trkpt><trkpt lat="43.343935" lon="11.288085"><ele>357.5</ele><time>2026-03-29T14:54:05.915Z</time></trkpt><trkpt lat="43.3439633" lon="11.2882317"><ele>357.0</ele><time>2026-03-29T14:54:06.915Z</time></trkpt><trkpt lat="43.344" lon="11.2884017"><ele>356.5</ele><time>2026-03-29T14:54:07.915Z</time></trkpt><trkpt lat="43.3440667" lon="11.2886267"><ele>356.0</ele><time>2026-03-29T14:54:08.915Z</time></trkpt><trkpt lat="43.344255" lon="11.2892533"><ele>360.0</ele><time>2026-03-29T14:54:10.915Z</time></trkpt><trkpt lat="43.3444533" lon="11.2899733"><ele>360.0</ele><time>2026-03-29T14:54:12.915Z</time></trkpt><trkpt lat="43.34456" lon="11.2903417"><ele>360.0</ele><time>2026-03-29T14:54:13.915Z</time></trkpt><trkpt lat="43.344655" lon="11.2906817"><ele>362.0</ele><time>2026-03-29T14:54:14.915Z</time></trkpt><trkpt lat="43.3447617" lon="11.2910317"><ele>364.0</ele><time>2026-03-29T14:54:15.915Z</time></trkpt><trkpt lat="43.3448617" lon="11.2913833"><ele>364.5</ele><time>2026-03-29T14:54:16.916Z</time></trkpt><trkpt lat="43.34495" lon="11.29171"><ele>365.0</ele><time>2026-03-29T14:54:17.915Z</time></trkpt><trkpt lat="43.3450267" lon="11.29203"><ele>367.33333333333337</ele><time>2026-03-29T14:54:18.915Z</time></trkpt><trkpt lat="43.3451033" lon="11.2923217"><ele>369.6666666666667</ele><time>2026-03-29T14:54:19.915Z</time></trkpt><trkpt lat="43.3451817" lon="11.2925883"><ele>372.0</ele><time>2026-03-29T14:54:20.915Z</time></trkpt><trkpt lat="43.3452533" lon="11.292835"><ele>372.3333333333333</ele><time>2026-03-29T14:54:21.915Z</time></trkpt><trkpt lat="43.3453117" lon="11.29309"><ele>372.66666666666663</ele><time>2026-03-29T14:54:22.915Z</time></trkpt><trkpt lat="43.3453517" lon="11.2933767"><ele>373.0</ele><time>2026-03-29T14:54:23.916Z</time></trkpt><trkpt lat="43.3453983" lon="11.2936667"><ele>369.66666666666663</ele><time>2026-03-29T14:54:24.915Z</time></trkpt><trkpt lat="43.345445" lon="11.2939667"><ele>366.3333333333333</ele><time>2026-03-29T14:54:25.915Z</time></trkpt><trkpt lat="43.3454783" lon="11.29426"><ele>363.0</ele><time>2026-03-29T14:54:26.915Z</time></trkpt><trkpt lat="43.3454917" lon="11.2945417"><ele>361.3333333333333</ele><time>2026-03-29T14:54:27.915Z</time></trkpt><trkpt lat="43.34549" lon="11.29482"><ele>359.66666666666663</ele><time>2026-03-29T14:54:28.915Z</time></trkpt><trkpt lat="43.345445" lon="11.295075"><ele>358.0</ele><time>2026-03-29T14:54:29.915Z</time></trkpt><trkpt lat="43.345385" lon="11.29536"><ele>359.0</ele><time>2026-03-29T14:54:30.915Z</time></trkpt><trkpt lat="43.3453267" lon="11.2956533"><ele>360.0</ele><time>2026-03-29T14:54:31.915Z</time></trkpt><trkpt lat="43.3452533" lon="11.2959333"><ele>361.0</ele><time>2026-03-29T14:54:32.915Z</time></trkpt><trkpt lat="43.3452" lon="11.2962317"><ele>363.0</ele><time>2026-03-29T14:54:33.915Z</time></trkpt><trkpt lat="43.3451617" lon="11.29653"><ele>365.0</ele><time>2026-03-29T14:54:34.915Z</time></trkpt><trkpt lat="43.345115" lon="11.2968283"><ele>367.0</ele><time>2026-03-29T14:54:35.916Z</time></trkpt><trkpt lat="43.3450683" lon="11.2970967"><ele>367.0</ele><time>2026-03-29T14:54:36.915Z</time></trkpt><trkpt lat="43.3450333" lon="11.2973517"><ele>367.0</ele><time>2026-03-29T14:54:37.915Z</time></trkpt><trkpt lat="43.3449917" lon="11.29759"><ele>367.0</ele><time>2026-03-29T14:54:38.915Z</time></trkpt><trkpt lat="43.344945" lon="11.2978083"><ele>367.0</ele><time>2026-03-29T14:54:39.915Z</time></trkpt><trkpt lat="43.3448967" lon="11.2979883"><ele>367.0</ele><time>2026-03-29T14:54:40.915Z</time></trkpt><trkpt lat="43.3448467" lon="11.2981367"><ele>367.0</ele><time>2026-03-29T14:54:41.915Z</time></trkpt><trkpt lat="43.3447867" lon="11.2982383"><ele>367.0</ele><time>2026-03-29T14:54:42.915Z</time></trkpt><trkpt lat="43.3447083" lon="11.29833"><ele>365.25</ele><time>2026-03-29T14:54:43.915Z</time></trkpt><trkpt lat="43.3446283" lon="11.2984183"><ele>363.5</ele><time>2026-03-29T14:54:44.915Z</time></trkpt><trkpt lat="43.34459" lon="11.298535"><ele>361.75</ele><time>2026-03-29T14:54:45.915Z</time></trkpt><trkpt lat="43.34458" lon="11.2987"><ele>360.0</ele><time>2026-03-29T14:54:46.915Z</time></trkpt><trkpt lat="43.3445767" lon="11.2989233"><ele>358.6666666666667</ele><time>2026-03-29T14:54:47.915Z</time></trkpt><trkpt lat="43.344565" lon="11.299185"><ele>357.33333333333337</ele><time>2026-03-29T14:54:48.915Z</time></trkpt><trkpt lat="43.34455" lon="11.2994667"><ele>356.0</ele><time>2026-03-29T14:54:49.915Z</time></trkpt><trkpt lat="43.34454" lon="11.2997383"><ele>353.6666666666667</ele><time>2026-03-29T14:54:50.915Z</time></trkpt><trkpt lat="43.34453" lon="11.3000033"><ele>351.3333333333333</ele><time>2026-03-29T14:54:51.915Z</time></trkpt><trkpt lat="43.3445267" lon="11.300265"><ele>349.0</ele><time>2026-03-29T14:54:52.915Z</time></trkpt><trkpt lat="43.3445083" lon="11.3005317"><ele>349.0</ele><time>2026-03-29T14:54:53.915Z</time></trkpt><trkpt lat="43.3444833" lon="11.3008217"><ele>349.0</ele><time>2026-03-29T14:54:54.915Z</time></trkpt><trkpt lat="43.3444367" lon="11.3011183"><ele>349.0</ele><time>2026-03-29T14:54:55.915Z</time></trkpt><trkpt lat="43.34438" lon="11.3014383"><ele>350.66666666666663</ele><time>2026-03-29T14:54:56.915Z</time></trkpt><trkpt lat="43.3443167" lon="11.30174"><ele>352.3333333333333</ele><time>2026-03-29T14:54:57.915Z</time></trkpt><trkpt lat="43.3442683" lon="11.3020317"><ele>354.0</ele><time>2026-03-29T14:54:58.915Z</time></trkpt><trkpt lat="43.34422" lon="11.3023167"><ele>354.0</ele><time>2026-03-29T14:54:59.915Z</time></trkpt><trkpt lat="43.3441717" lon="11.3026067"><ele>354.0</ele><time>2026-03-29T14:55:00.915Z</time></trkpt><trkpt lat="43.3441333" lon="11.3028917"><ele>354.0</ele><time>2026-03-29T14:55:01.915Z</time></trkpt><trkpt lat="43.3440867" lon="11.3032033"><ele>353.6666666666667</ele><time>2026-03-29T14:55:02.915Z</time></trkpt><trkpt lat="43.344035" lon="11.303505"><ele>353.33333333333337</ele><time>2026-03-29T14:55:03.915Z</time></trkpt><trkpt lat="43.3439883" lon="11.303795"><ele>353.0</ele><time>2026-03-29T14:55:04.915Z</time></trkpt><trkpt lat="43.3439317" lon="11.30408"><ele>350.33333333333337</ele><time>2026-03-29T14:55:05.915Z</time></trkpt><trkpt lat="43.3438817" lon="11.3043517"><ele>347.6666666666667</ele><time>2026-03-29T14:55:06.915Z</time></trkpt><trkpt lat="43.343845" lon="11.3045883"><ele>345.0</ele><time>2026-03-29T14:55:07.915Z</time></trkpt><trkpt lat="43.3438" lon="11.3048067"><ele>343.0</ele><time>2026-03-29T14:55:08.915Z</time></trkpt><trkpt lat="43.3437583" lon="11.3050067"><ele>341.0</ele><time>2026-03-29T14:55:09.915Z</time></trkpt><trkpt lat="43.3437217" lon="11.3052067"><ele>339.0</ele><time>2026-03-29T14:55:10.915Z</time></trkpt><trkpt lat="43.3436633" lon="11.3053667"><ele>337.0</ele><time>2026-03-29T14:55:11.915Z</time></trkpt><trkpt lat="43.3435983" lon="11.3055167"><ele>337.40000000000003</ele><time>2026-03-29T14:55:12.916Z</time></trkpt><trkpt lat="43.3435117" lon="11.3056017"><ele>337.8</ele><time>2026-03-29T14:55:13.915Z</time></trkpt><trkpt lat="43.3434233" lon="11.3056917"><ele>338.2</ele><time>2026-03-29T14:55:14.916Z</time></trkpt><trkpt lat="43.3433367" lon="11.3057317"><ele>338.6</ele><time>2026-03-29T14:55:15.915Z</time></trkpt><trkpt lat="43.3432417" lon="11.3057483"><ele>339.0</ele><time>2026-03-29T14:55:16.915Z</time></trkpt><trkpt lat="43.3431433" lon="11.3057333"><ele>339.0</ele><time>2026-03-29T14:55:17.915Z</time></trkpt><trkpt lat="43.3430483" lon="11.3056783"><ele>339.0</ele><time>2026-03-29T14:55:18.915Z</time></trkpt><trkpt lat="43.34296" lon="11.3056217"><ele>339.0</ele><time>2026-03-29T14:55:19.916Z</time></trkpt><trkpt lat="43.342885" lon="11.30558"><ele>339.0</ele><time>2026-03-29T14:55:20.915Z</time></trkpt><trkpt lat="43.34281" lon="11.30556"><ele>339.0</ele><time>2026-03-29T14:55:21.915Z</time></trkpt><trkpt lat="43.34274" lon="11.3055783"><ele>339.0</ele><time>2026-03-29T14:55:22.915Z</time></trkpt><trkpt lat="43.3426483" lon="11.3056933"><ele>338.5</ele><time>2026-03-29T14:55:24.916Z</time></trkpt><trkpt lat="43.3426083" lon="11.3057733"><ele>338.0</ele><time>2026-03-29T14:55:25.915Z</time></trkpt><trkpt lat="43.3425633" lon="11.3058417"><ele>337.5</ele><time>2026-03-29T14:55:26.915Z</time></trkpt><trkpt lat="43.3424967" lon="11.3058783"><ele>337.0</ele><time>2026-03-29T14:55:27.915Z</time></trkpt><trkpt lat="43.3424167" lon="11.3059117"><ele>336.5</ele><time>2026-03-29T14:55:28.916Z</time></trkpt><trkpt lat="43.342315" lon="11.3059367"><ele>336.0</ele><time>2026-03-29T14:55:29.915Z</time></trkpt><trkpt lat="43.342225" lon="11.30594"><ele>336.20000000000005</ele><time>2026-03-29T14:55:30.915Z</time></trkpt><trkpt lat="43.34212" lon="11.30595"><ele>336.40000000000003</ele><time>2026-03-29T14:55:31.915Z</time></trkpt><trkpt lat="43.34203" lon="11.30598"><ele>336.6</ele><time>2026-03-29T14:55:32.915Z</time></trkpt><trkpt lat="43.3419433" lon="11.3059883"><ele>336.8</ele><time>2026-03-29T14:55:33.915Z</time></trkpt><trkpt lat="43.3418733" lon="11.3060083"><ele>337.0</ele><time>2026-03-29T14:55:34.915Z</time></trkpt><trkpt lat="43.3417883" lon="11.30608"><ele>337.0</ele><time>2026-03-29T14:55:36.915Z</time></trkpt><trkpt lat="43.341795" lon="11.3062783"><ele>337.0</ele><time>2026-03-29T14:55:38.915Z</time></trkpt><trkpt lat="43.341795" lon="11.3064167"><ele>337.0</ele><time>2026-03-29T14:55:39.915Z</time></trkpt><trkpt lat="43.3417883" lon="11.3065483"><ele>337.0</ele><time>2026-03-29T14:55:40.915Z</time></trkpt><trkpt lat="43.3417817" lon="11.306665"><ele>337.0</ele><time>2026-03-29T14:55:41.915Z</time></trkpt><trkpt lat="43.3418083" lon="11.3068033"><ele>336.8333333333333</ele><time>2026-03-29T14:55:43.915Z</time></trkpt><trkpt lat="43.341935" lon="11.3067917"><ele>336.66666666666663</ele><time>2026-03-29T14:55:45.915Z</time></trkpt><trkpt lat="43.3420017" lon="11.3067883"><ele>336.5</ele><time>2026-03-29T14:55:46.915Z</time></trkpt><trkpt lat="43.3420783" lon="11.3067867"><ele>336.3333333333333</ele><time>2026-03-29T14:55:47.915Z</time></trkpt><trkpt lat="43.3421567" lon="11.3067883"><ele>336.1666666666667</ele><time>2026-03-29T14:55:48.915Z</time></trkpt><trkpt lat="43.3422217" lon="11.30679"><ele>336.0</ele><time>2026-03-29T14:55:49.915Z</time></trkpt><trkpt lat="43.3423217" lon="11.3067883"><ele>336.0</ele><time>2026-03-29T14:55:51.915Z</time></trkpt></trkseg></trk></gpx>